# Wetter Temperatur Luftdruck Luftfeuchtigkeit Sichtweite Windgeschwindigkeit Windrichtung Zeit
1 Clouds 16 1019 87 10000 3.6 100 02:19 05.04.2020
2 Clouds 16 1019 87 9000 3.6 110 01:42 05.04.2020
3 Clouds 16 1019 87 9000 3.6 110 01:22 05.04.2020
4 Clouds 17 1020 88 10000 3.6 110 00:37 05.04.2020
5 Clouds 17 1020 88 10000 3.6 110 00:18 05.04.2020
6 Clouds 17 1020 88 10000 3.6 120 23:41 04.04.2020
7 Clouds 17 1020 88 10000 3.6 120 23:22 04.04.2020
8 Clouds 17 1021 88 10000 2.1 130 22:57 04.04.2020
9 Clouds 17 1021 88 10000 2.1 130 22:57 04.04.2020
10 Clouds 17 1021 88 10000 2.1 130 22:39 04.04.2020
11 Clouds 17 1021 88 10000 2.1 130 22:20 04.04.2020
12 Clouds 17 1021 88 10000 1.5 130 21:57 04.04.2020
13 Clouds 17 1021 88 10000 1.5 130 21:39 04.04.2020
14 Clouds 17 1021 88 10000 1.5 130 21:19 04.04.2020
15 Clouds 18 1020 77 10000 4.1 130 20:55 04.04.2020
16 Clouds 18 1020 77 10000 4.1 130 20:36 04.04.2020
17 Clouds 18 1020 77 10000 4.1 130 20:18 04.04.2020
18 Clouds 18 1020 72 10000 3.6 100 19:42 04.04.2020
19 Clouds 18 1020 72 10000 3.6 100 19:21 04.04.2020
20 Clouds 19 1019 72 10000 4.6 110 18:59 04.04.2020
21 Clouds 19 1019 72 10000 4.6 110 18:40 04.04.2020
22 Clouds 19 1019 72 10000 4.6 110 18:21 04.04.2020
23 Clouds 19 1019 72 10000 4.6 110 18:21 04.04.2020
24 Clouds 20 1018 64 10000 4.6 110 17:59 04.04.2020
25 Clouds 20 1018 64 10000 4.6 110 17:39 04.04.2020
26 Clouds 20 1018 64 10000 4.6 110 17:39 04.04.2020
27 Clouds 20 1018 64 10000 4.6 110 17:19 04.04.2020
28 Clouds 22 1018 60 10000 5.1 120 16:45 04.04.2020
29 Clouds 22 1018 60 10000 5.1 120 16:27 04.04.2020
30 Clouds 22 1017 60 10000 4.1 130 15:59 04.04.2020
31 Clouds 22 1017 60 10000 4.1 130 15:39 04.04.2020
32 Clouds 23 1017 56 10000 4.6 90 15:20 04.04.2020
33 Clouds 25 1017 50 10000 2.1 120 14:56 04.04.2020
34 Clouds 25 1017 50 10000 2.1 120 14:37 04.04.2020
35 Clouds 25 1017 50 10000 2.1 120 14:18 04.04.2020
36 Clouds 25 1017 47 10000 2.6 90 13:42 04.04.2020
37 Clouds 25 1017 47 10000 2.6 90 13:22 04.04.2020
38 Clouds 24 1018 47 10000 2.6 130 12:58 04.04.2020
39 Clouds 24 1018 47 10000 2.6 130 12:40 04.04.2020
40 Clouds 24 1018 47 10000 2.6 130 12:21 04.04.2020
41 Clouds 23 1019 49 10000 3.1 150 11:42 04.04.2020
42 Clouds 23 1019 49 10000 3.1 150 11:23 04.04.2020
43 Clouds 22 1020 53 10000 4.1 170 10:59 04.04.2020
44 Clouds 22 1020 53 10000 4.1 170 10:41 04.04.2020
45 Clouds 22 1020 53 10000 4.1 170 10:23 04.04.2020
46 Clouds 20 1020 60 10000 4.1 150 09:57 04.04.2020
47 Clouds 20 1020 60 10000 4.1 150 09:39 04.04.2020
48 Clouds 20 1020 60 10000 4.1 150 09:20 04.04.2020
49 Clouds 17 1021 72 10000 4.6 170 08:44 04.04.2020
50 Clouds 17 1021 72 10000 4.6 170 08:23 04.04.2020
51 Clouds 16 1020 77 10000 3.6 160 07:59 04.04.2020
52 Clouds 16 1020 77 10000 3.6 160 07:39 04.04.2020
53 Clouds 16 1020 77 10000 3.6 160 07:21 04.04.2020
54 Clouds 15 1020 82 10000 4.1 170 06:38 04.04.2020
55 Clouds 15 1019 82 10000 3.1 180 05:52 04.04.2020
56 Clouds 15 1019 82 10000 3.1 180 05:52 04.04.2020
57 Clouds 15 1019 82 10000 3.1 180 05:33 04.04.2020
58 Clouds 15 1018 77 10000 4.1 160 04:34 04.04.2020
59 Clouds 15 1018 77 10000 3.6 160 03:57 04.04.2020
60 Clouds 15 1018 77 10000 3.6 160 03:36 04.04.2020
61 Clouds 15 1018 82 10000 2.6 140 02:46 04.04.2020
62 Clouds 15 1018 82 10000 2.6 140 02:25 04.04.2020
63 Clouds 15 1019 87 10000 3.1 150 01:31 04.04.2020
64 Clouds 15 1019 93 10000 2.6 140 00:59 04.04.2020
65 Clouds 15 1019 93 10000 2.6 140 00:35 04.04.2020
66 Drizzle 15 1020 93 10000 3.1 150 23:59 03.04.2020
67 Drizzle 15 1020 93 10000 3.1 150 23:38 03.04.2020
68 Drizzle 15 1020 93 10000 3.1 150 23:19 03.04.2020
69 Drizzle 16 1020 93 10000 4.1 140 22:41 03.04.2020
70 Drizzle 16 1020 93 10000 4.1 140 22:19 03.04.2020
71 Drizzle 17 1019 93 8000 3.6 150 21:57 03.04.2020
72 Drizzle 17 1019 93 8000 3.6 150 21:38 03.04.2020
73 Drizzle 17 1019 93 8000 3.6 150 21:20 03.04.2020
74 Drizzle 18 1019 93 7000 3.1 170 20:55 03.04.2020
75 Drizzle 18 1019 93 7000 3.1 170 20:36 03.04.2020
76 Drizzle 18 1019 93 7000 3.1 170 20:18 03.04.2020
77 Drizzle 18 1019 93 7000 3.1 170 20:18 03.04.2020
78 Drizzle 18 1019 88 10000 3.6 140 19:55 03.04.2020
79 Drizzle 18 1019 88 10000 3.6 140 19:36 03.04.2020
80 Drizzle 18 1019 88 10000 3.6 140 19:18 03.04.2020
81 Drizzle 18 1018 93 8000 4.1 110 18:56 03.04.2020
82 Drizzle 18 1018 93 8000 4.1 110 18:38 03.04.2020
83 Drizzle 18 1018 93 8000 4.1 110 18:20 03.04.2020
84 Drizzle 19 1017 88 7000 4.1 170 17:41 03.04.2020
85 Drizzle 19 1017 88 7000 4.1 170 17:19 03.04.2020
86 Drizzle 21 1017 73 10000 5.7 130 16:55 03.04.2020
87 Drizzle 21 1017 73 10000 5.7 130 16:36 03.04.2020
88 Drizzle 21 1017 73 10000 5.7 130 16:18 03.04.2020
89 Clouds 23 1016 64 10000 5.7 90 15:41 03.04.2020
90 Clouds 23 1016 64 10000 5.7 90 15:22 03.04.2020
91 Clouds 27 1016 54 10000 3.6 90 14:58 03.04.2020
92 Rain 22 1012 49 0 5.08 121 14:40 03.04.2020
93 Clouds 26 1016 54 10000 4.1 100 14:21 03.04.2020
94 Clouds 26 1016 54 10000 4.1 100 13:46 03.04.2020
95 Clouds 26 1016 54 10000 4.1 100 13:27 03.04.2020
96 Clouds 25 1017 57 10000 4.1 120 12:57 03.04.2020
97 Clouds 25 1017 57 10000 4.1 120 12:39 03.04.2020
98 Clouds 25 1017 57 10000 4.1 120 12:18 03.04.2020
99 Clouds 23 1017 64 10000 5.1 150 11:55 03.04.2020
100 Clouds 23 1017 64 10000 5.1 150 11:37 03.04.2020
101 Clouds 23 1017 64 10000 5.1 150 11:18 03.04.2020
102 Clouds 23 1018 64 10000 4.6 140 10:56 03.04.2020
103 Clouds 23 1018 64 10000 4.6 140 10:37 03.04.2020
104 Clouds 23 1018 64 10000 4.6 140 10:19 03.04.2020
105 Clouds 22 1018 68 10000 4.6 140 09:55 03.04.2020
106 Clouds 22 1018 68 10000 4.6 140 09:37 03.04.2020
107 Clouds 22 1018 68 10000 4.6 140 09:37 03.04.2020
108 Clouds 22 1018 68 10000 4.6 140 09:18 03.04.2020
109 Clouds 20 1018 77 10000 4.1 140 08:43 03.04.2020
110 Clouds 20 1018 77 10000 4.1 140 08:23 03.04.2020
111 Clouds 20 1018 77 10000 3.6 140 07:51 03.04.2020
112 Clouds 20 1018 77 10000 3.6 140 07:33 03.04.2020
113 Clouds 19 1018 82 10000 4.1 150 06:57 03.04.2020
114 Clouds 19 1018 82 10000 4.1 150 06:27 03.04.2020
115 Clouds 19 1017 82 10000 3.1 140 05:42 03.04.2020
116 Clouds 19 1016 82 10000 3.6 130 03:52 03.04.2020
117 Clouds 19 1016 82 10000 3.6 130 03:31 03.04.2020
118 Clouds 19 1016 88 10000 3.1 130 02:30 03.04.2020
119 Clouds 19 1016 88 10000 3.1 100 01:24 03.04.2020
120 Clouds 20 1017 88 10000 2.6 140 00:43 03.04.2020
121 Clouds 20 1017 88 10000 2.6 140 00:23 03.04.2020
122 Clouds 19 1017 93 10000 3.1 110 23:43 02.04.2020
123 Clouds 19 1017 93 10000 3.1 110 23:24 02.04.2020
124 Clouds 20 1017 88 10000 2.1 140 22:59 02.04.2020
125 Clouds 20 1017 88 10000 2.1 140 22:41 02.04.2020
126 Clouds 20 1017 88 10000 2.1 140 22:21 02.04.2020
127 Clouds 20 1017 88 10000 2.1 120 21:57 02.04.2020
128 Clouds 20 1017 88 10000 2.1 120 21:36 02.04.2020
129 Clouds 20 1017 88 10000 2.1 120 21:18 02.04.2020
130 Clouds 21 1017 83 10000 2.1 150 20:44 02.04.2020
131 Clouds 21 1017 83 10000 2.1 150 20:23 02.04.2020
132 Clouds 20 1016 94 10000 3.1 100 19:55 02.04.2020
133 Clouds 20 1016 94 10000 3.1 100 19:37 02.04.2020
134 Clouds 20 1016 94 10000 3.1 100 19:19 02.04.2020
135 Rain 21 1016 88 10000 5.1 120 18:42 02.04.2020
136 Rain 21 1016 88 10000 5.1 120 18:21 02.04.2020
137 Clouds 23 1015 73 10000 5.1 100 17:57 02.04.2020
138 Clouds 23 1015 73 10000 5.1 100 17:39 02.04.2020
139 Clouds 23 1015 73 10000 5.1 100 17:20 02.04.2020
140 Clouds 25 1015 61 10000 2.1 60 16:57 02.04.2020
141 Clouds 25 1015 61 10000 2.1 60 16:39 02.04.2020
142 Clouds 25 1015 61 10000 2.1 60 16:21 02.04.2020
143 Clouds 26 1014 57 10000 2.6 50 15:55 02.04.2020
144 Clouds 26 1014 57 10000 2.6 50 15:37 02.04.2020
145 Clouds 26 1014 57 10000 2.6 50 15:18 02.04.2020
146 Clouds 27 1014 57 10000 3.6 60 14:40 02.04.2020
147 Clouds 27 1014 57 10000 3.6 60 14:21 02.04.2020
148 Clouds 27 1015 57 10000 3.1 70 13:58 02.04.2020
149 Clouds 27 1015 57 10000 3.1 70 13:39 02.04.2020
150 Clouds 27 1015 57 10000 3.1 70 13:21 02.04.2020
151 Clouds 27 1016 57 10000 1.5 0 12:57 02.04.2020
152 Clouds 27 1016 57 10000 1.5 0 12:38 02.04.2020
153 Clouds 27 1016 57 10000 1.5 0 12:19 02.04.2020
154 Clouds 27 1016 57 10000 1.5 0 12:19 02.04.2020
155 Clouds 25 1016 61 10000 1.5 0 11:57 02.04.2020
156 Clouds 25 1016 61 10000 1.5 0 11:38 02.04.2020
157 Clouds 25 1016 61 10000 1.5 0 11:19 02.04.2020
158 Clouds 25 1017 61 10000 2.1 80 10:55 02.04.2020
159 Clouds 25 1017 61 10000 2.1 80 10:37 02.04.2020
160 Clouds 25 1017 61 10000 2.1 80 10:37 02.04.2020
161 Clouds 25 1017 61 10000 2.1 80 10:19 02.04.2020
162 Clouds 26 1017 57 10000 2.1 0 09:43 02.04.2020
163 Clouds 26 1017 57 10000 2.1 0 09:25 02.04.2020
164 Clouds 23 1018 69 10000 2.6 120 08:59 02.04.2020
165 Clouds 23 1018 69 10000 2.6 120 08:41 02.04.2020
166 Clouds 23 1018 69 10000 2.6 120 08:22 02.04.2020
167 Clouds 22 1018 78 10000 2.6 110 07:45 02.04.2020
168 Clouds 22 1018 78 10000 2.6 110 07:20 02.04.2020
169 Clouds 20 1017 88 10000 2.1 60 06:58 02.04.2020
170 Clouds 20 1017 88 10000 2.1 60 06:21 02.04.2020
171 Clouds 18 1017 93 10000 2.6 100 05:45 02.04.2020
172 Clouds 19 1016 93 10000 1 0 04:33 02.04.2020
173 Rain 17 1012 66 0 1.4 141 01:35 02.04.2020
174 Clouds 20 1017 88 10000 2.6 130 00:48 02.04.2020
175 Clouds 20 1017 88 10000 2.6 130 00:26 02.04.2020
176 Clouds 20 1017 94 10000 3.1 100 23:54 01.04.2020
177 Clouds 20 1017 94 10000 3.1 100 23:36 01.04.2020
178 Clouds 20 1017 94 10000 3.1 100 23:18 01.04.2020
179 Clouds 20 1018 94 10000 2.6 100 22:40 01.04.2020
180 Clouds 20 1018 94 10000 2.6 100 22:21 01.04.2020
181 Clouds 20 1018 94 10000 2.6 100 21:55 01.04.2020
182 Clouds 20 1018 94 10000 2.6 100 21:36 01.04.2020
183 Clouds 20 1018 94 10000 2.6 100 21:18 01.04.2020
184 Clouds 21 1017 83 10000 2.6 70 20:54 01.04.2020
185 Clouds 21 1017 83 10000 2.6 70 20:36 01.04.2020
186 Clouds 21 1017 83 10000 2.6 70 20:18 01.04.2020
187 Clouds 21 1017 73 10000 2.1 310 19:41 01.04.2020
188 Clouds 21 1017 73 10000 2.1 310 19:21 01.04.2020
189 Clouds 22 1017 68 10000 2.1 280 18:46 01.04.2020
190 Clouds 22 1017 68 10000 2.1 280 18:26 01.04.2020
191 Clouds 23 1016 64 10000 2.1 300 17:58 01.04.2020
192 Clouds 23 1016 64 10000 2.1 300 17:39 01.04.2020
193 Clouds 23 1016 64 10000 2.1 300 17:20 01.04.2020
194 Clouds 26 1016 54 10000 4.6 290 16:59 01.04.2020
195 Clouds 26 1016 54 10000 4.6 290 16:40 01.04.2020
196 Clouds 26 1016 54 10000 4.6 290 16:22 01.04.2020
197 Clouds 29 1016 42 10000 4.6 310 15:58 01.04.2020
198 Clouds 29 1016 42 10000 4.6 310 15:38 01.04.2020
199 Clouds 29 1016 42 10000 4.6 310 15:20 01.04.2020
200 Clouds 28 1016 45 10000 3.1 290 14:56 01.04.2020
201 Clouds 28 1016 45 10000 3.1 290 14:38 01.04.2020
202 Clouds 28 1016 45 10000 3.1 290 14:19 01.04.2020
203 Clouds 27 1016 54 10000 2.6 220 13:57 01.04.2020
204 Clouds 27 1016 54 10000 2.6 220 13:37 01.04.2020
205 Clouds 27 1016 54 10000 2.6 220 13:18 01.04.2020
206 Clouds 27 1017 54 10000 2.1 0 12:43 01.04.2020
207 Clouds 27 1017 54 10000 2.1 0 12:24 01.04.2020
208 Clouds 26 1018 61 10000 2.1 230 11:59 01.04.2020
209 Clouds 26 1018 61 10000 2.1 230 11:40 01.04.2020
210 Clouds 26 1018 61 10000 2.1 230 11:21 01.04.2020
211 Clouds 25 1019 65 10000 2.1 200 10:56 01.04.2020
212 Clouds 25 1019 65 10000 2.1 200 10:37 01.04.2020
213 Clouds 25 1019 65 10000 2.1 200 10:18 01.04.2020
214 Clouds 24 1019 64 10000 1.5 0 09:40 01.04.2020
215 Clouds 24 1019 64 10000 1.5 0 09:22 01.04.2020
216 Clouds 24 1019 69 10000 2.1 150 08:59 01.04.2020
217 Clouds 24 1019 69 10000 2.1 150 08:40 01.04.2020
218 Clouds 24 1019 69 10000 2.1 150 08:40 01.04.2020
219 Clouds 23 1020 73 10000 2.6 150 08:18 01.04.2020
220 Clouds 22 1019 73 10000 2.6 120 07:42 01.04.2020
221 Clouds 22 1019 73 10000 1.5 120 07:20 01.04.2020
222 Clouds 21 1019 77 10000 1 0 06:47 01.04.2020
223 Clouds 19 1019 88 10000 2.1 150 06:22 01.04.2020
224 Clouds 18 1018 93 10000 2.6 110 05:53 01.04.2020
225 Clouds 18 1017 93 10000 1.5 150 04:30 01.04.2020
226 Clouds 19 1017 93 10000 1 0 03:28 01.04.2020
227 Clouds 19 1017 93 10000 2.1 100 02:49 01.04.2020
228 Clouds 19 1017 88 10000 2.1 70 01:54 01.04.2020
229 Clouds 19 1017 88 10000 2.1 70 01:29 01.04.2020
230 Clouds 19 1018 93 10000 1.5 60 00:58 01.04.2020
231 Clouds 19 1018 93 10000 1.5 60 00:40 01.04.2020
232 Clouds 19 1018 93 10000 1.5 60 00:18 01.04.2020
233 Clouds 20 1018 88 10000 2.1 130 23:41 31.03.2020
234 Clouds 20 1018 88 10000 2.1 130 23:22 31.03.2020
235 Clouds 20 1018 88 10000 3.6 130 22:42 31.03.2020
236 Clouds 20 1018 88 10000 3.6 130 22:22 31.03.2020
237 Clouds 19 1019 93 10000 3.1 110 21:59 31.03.2020
238 Clouds 19 1019 93 10000 3.1 110 21:40 31.03.2020
239 Clouds 19 1019 93 10000 3.1 110 21:22 31.03.2020
240 Clouds 20 1018 88 10000 3.6 90 20:58 31.03.2020
241 Clouds 20 1018 88 10000 3.6 90 20:38 31.03.2020
242 Clouds 20 1018 88 10000 3.6 90 20:20 31.03.2020
243 Clouds 21 1018 88 10000 3.1 100 19:58 31.03.2020
244 Clouds 21 1018 88 10000 3.1 100 19:39 31.03.2020
245 Clouds 21 1018 88 10000 3.1 100 19:21 31.03.2020
246 Clouds 23 1017 73 10000 5.1 100 18:46 31.03.2020
247 Clouds 23 1017 73 10000 5.1 100 18:21 31.03.2020
248 Clouds 25 1016 50 10000 2.1 270 17:58 31.03.2020
249 Clouds 25 1016 50 10000 2.1 270 17:40 31.03.2020
250 Clouds 25 1016 50 10000 2.1 270 17:21 31.03.2020
251 Clouds 25 1016 50 10000 2.1 270 17:21 31.03.2020
252 Clouds 29 1016 39 10000 2.1 300 16:57 31.03.2020
253 Clouds 29 1016 39 10000 2.1 300 16:37 31.03.2020
254 Clouds 29 1016 39 10000 2.1 300 16:18 31.03.2020
255 Clouds 30 1015 37 10000 3.6 310 15:56 31.03.2020
256 Clouds 30 1015 37 10000 3.6 310 15:37 31.03.2020
257 Clouds 30 1015 37 10000 3.6 310 15:18 31.03.2020
258 Clouds 30 1015 42 10000 1.5 0 14:43 31.03.2020
259 Clouds 30 1015 42 10000 1.5 0 14:24 31.03.2020
260 Clouds 28 1015 48 10000 3.6 240 13:59 31.03.2020
261 Clouds 28 1015 48 10000 3.6 240 13:41 31.03.2020
262 Clouds 28 1015 48 10000 3.6 240 13:19 31.03.2020
263 Clouds 28 1015 48 10000 3.6 240 13:19 31.03.2020
264 Clouds 28 1016 48 10000 1.5 0 12:46 31.03.2020
265 Clouds 28 1016 48 10000 1.5 0 12:21 31.03.2020
266 Clouds 28 1016 48 10000 1.5 0 12:21 31.03.2020
267 Clouds 28 1017 51 10000 1.5 0 11:58 31.03.2020
268 Clouds 28 1017 51 10000 1.5 0 11:38 31.03.2020
269 Clouds 28 1017 51 10000 1.5 0 11:19 31.03.2020
270 Clouds 26 1018 61 10000 2.1 90 10:55 31.03.2020
271 Clouds 26 1018 61 10000 2.1 90 10:55 31.03.2020
272 Clouds 26 1018 61 10000 2.1 90 10:37 31.03.2020
273 Clouds 26 1018 61 10000 2.1 90 10:18 31.03.2020
274 Clouds 25 1018 65 10000 3.1 120 09:43 31.03.2020
275 Clouds 25 1018 65 10000 3.1 120 09:25 31.03.2020
276 Clouds 22 1018 73 10000 2.6 160 08:58 31.03.2020
277 Clouds 22 1018 73 10000 2.6 160 08:58 31.03.2020
278 Clouds 22 1018 73 10000 2.6 160 08:40 31.03.2020
279 Clouds 22 1018 73 10000 2.6 160 08:20 31.03.2020
280 Clouds 22 1018 73 10000 2.1 180 07:57 31.03.2020
281 Clouds 22 1018 73 10000 2.1 180 07:38 31.03.2020
282 Clouds 22 1018 73 10000 2.1 180 07:20 31.03.2020
283 Clouds 20 1017 82 10000 2.1 140 06:51 31.03.2020
284 Clouds 20 1017 82 10000 2.1 140 06:30 31.03.2020
285 Clouds 18 1017 93 10000 3.1 120 05:40 31.03.2020
286 Clouds 18 1016 93 10000 2.1 80 03:43 31.03.2020
287 Clouds 19 1016 93 10000 2.1 70 02:25 31.03.2020
288 Clouds 20 1016 88 10000 3.1 120 01:46 31.03.2020
289 Clouds 17 1012 66 0 1.5 114 00:52 31.03.2020
290 Clouds 19 1017 88 10000 3.1 110 00:25 31.03.2020
291 Clouds 19 1017 88 10000 3.1 110 23:59 30.03.2020
292 Clouds 19 1017 88 10000 3.1 110 23:38 30.03.2020
293 Clouds 19 1017 88 10000 3.1 110 23:18 30.03.2020
294 Clouds 20 1017 88 10000 3.1 110 22:56 30.03.2020
295 Clouds 20 1017 88 10000 3.1 110 22:37 30.03.2020
296 Clouds 20 1017 88 10000 3.1 110 22:18 30.03.2020
297 Clouds 20 1017 94 10000 2.6 90 21:55 30.03.2020
298 Clouds 20 1017 94 10000 2.6 90 21:36 30.03.2020
299 Clouds 21 1017 88 10000 2.1 80 21:18 30.03.2020
300 Clouds 21 1017 88 10000 2.1 80 20:42 30.03.2020
301 Clouds 21 1017 88 10000 2.1 80 20:42 30.03.2020
302 Clouds 21 1017 88 10000 2.1 80 20:24 30.03.2020
303 Clouds 21 1017 88 10000 2.1 80 20:24 30.03.2020
304 Clouds 22 1016 73 10000 1.5 0 19:59 30.03.2020
305 Clouds 22 1016 73 10000 1.5 0 19:40 30.03.2020
306 Clouds 22 1016 73 10000 1.5 0 19:21 30.03.2020
307 Clouds 22 1015 64 10000 2.6 310 18:57 30.03.2020
308 Clouds 22 1015 64 10000 2.6 310 18:38 30.03.2020
309 Clouds 22 1015 64 10000 2.6 310 18:20 30.03.2020
310 Clouds 25 1014 50 10000 2.6 280 17:56 30.03.2020
311 Clouds 25 1014 50 10000 2.6 280 17:37 30.03.2020
312 Clouds 25 1014 50 10000 2.6 280 17:37 30.03.2020
313 Clouds 25 1014 50 10000 2.6 280 17:18 30.03.2020
314 Clouds 28 1014 42 10000 2.6 290 16:54 30.03.2020
315 Clouds 28 1014 42 10000 2.6 290 16:36 30.03.2020
316 Clouds 28 1014 42 10000 2.6 290 16:36 30.03.2020
317 Clouds 28 1014 42 10000 2.6 290 16:18 30.03.2020
318 Clouds 29 1014 37 10000 4.1 300 15:41 30.03.2020
319 Clouds 29 1014 37 10000 4.1 300 15:22 30.03.2020
320 Clouds 30 1014 33 10000 3.1 260 14:59 30.03.2020
321 Clouds 30 1014 33 10000 3.1 260 14:39 30.03.2020
322 Clouds 30 1014 33 10000 3.1 260 14:19 30.03.2020
323 Clouds 30 1014 35 10000 3.6 260 13:58 30.03.2020
324 Clouds 30 1014 35 10000 3.6 260 13:58 30.03.2020
325 Clouds 30 1014 35 10000 3.6 260 13:39 30.03.2020
326 Clouds 30 1014 35 10000 3.6 260 13:20 30.03.2020
327 Clouds 29 1015 42 10000 2.1 210 12:45 30.03.2020
328 Clouds 29 1015 42 10000 2.1 210 12:22 30.03.2020
329 Clouds 28 1015 45 10000 1.5 0 11:59 30.03.2020
330 Clouds 28 1015 45 10000 1.5 0 11:41 30.03.2020
331 Clouds 28 1015 45 10000 1.5 0 11:22 30.03.2020
332 Clouds 27 1016 54 10000 2.1 0 10:57 30.03.2020
333 Clouds 27 1016 54 10000 2.1 0 10:37 30.03.2020
334 Clouds 27 1016 54 10000 2.1 0 10:19 30.03.2020
335 Clouds 26 1016 57 10000 1.5 0 09:41 30.03.2020
336 Clouds 26 1016 57 10000 1.5 0 09:40 30.03.2020
337 Clouds 26 1016 57 10000 1.5 0 09:20 30.03.2020
338 Clouds 24 1017 69 10000 1.5 0 08:57 30.03.2020
339 Clouds 24 1017 69 10000 1.5 0 08:38 30.03.2020
340 Clouds 24 1017 69 10000 1.5 0 08:19 30.03.2020
341 Clouds 23 1016 73 10000 1 0 07:43 30.03.2020
342 Clouds 20 1016 88 10000 0.5 0 07:21 30.03.2020
343 Clouds 18 1016 100 10000 0.5 0 06:43 30.03.2020
344 Clouds 17 1016 100 10000 1 0 06:25 30.03.2020
345 Clouds 17 1016 93 10000 0.5 0 05:43 30.03.2020
346 Clouds 17 1015 100 10000 2.1 330 04:29 30.03.2020
347 Clouds 17 1015 93 10000 2.1 310 03:57 30.03.2020
348 Clouds 17 1015 93 10000 2.6 320 02:45 30.03.2020
349 Clouds 17 1015 93 10000 2.6 300 01:57 30.03.2020
350 Clouds 17 1016 93 10000 3.6 300 00:59 30.03.2020
351 Clouds 17 1016 93 10000 3.6 300 00:28 30.03.2020
352 Clouds 17 1016 93 10000 2.1 320 23:56 29.03.2020
353 Clouds 17 1016 93 10000 2.1 320 23:56 29.03.2020
354 Clouds 17 1016 93 10000 2.1 320 23:37 29.03.2020
355 Clouds 18 1016 88 10000 1.5 0 23:18 29.03.2020
356 Clouds 19 1016 88 10000 2.1 330 22:40 29.03.2020
357 Clouds 19 1016 88 10000 3.1 320 22:20 29.03.2020
358 Clouds 19 1016 88 10000 2.1 320 21:59 29.03.2020
359 Clouds 19 1016 88 10000 2.1 320 21:38 29.03.2020
360 Clouds 19 1017 88 10000 2.6 320 21:20 29.03.2020
361 Clouds 19 1017 88 10000 2.6 320 20:55 29.03.2020
362 Clouds 19 1017 88 10000 2.6 320 20:55 29.03.2020
363 Clouds 19 1017 88 10000 2.6 320 20:37 29.03.2020
364 Thunderstorm 20 1016 82 10000 3.1 310 20:19 29.03.2020
365 Thunderstorm 20 1016 77 10000 3.1 290 19:56 29.03.2020
366 Thunderstorm 20 1016 77 10000 3.1 290 19:38 29.03.2020
367 Thunderstorm 21 1016 73 10000 3.1 290 19:19 29.03.2020
368 Thunderstorm 22 1016 68 10000 3.1 270 18:57 29.03.2020
369 Thunderstorm 22 1016 68 10000 3.1 270 18:38 29.03.2020
370 Thunderstorm 23 1015 64 10000 3.6 280 18:18 29.03.2020
371 Thunderstorm 24 1015 64 10000 3.6 280 17:55 29.03.2020
372 Clouds 25 1014 61 10000 3.6 260 17:36 29.03.2020
373 Clouds 25 1014 61 10000 3.6 260 17:18 29.03.2020
374 Clouds 26 1014 57 10000 4.6 270 16:55 29.03.2020
375 Clouds 26 1014 57 10000 4.6 270 16:36 29.03.2020
376 Clouds 26 1014 57 10000 4.6 270 16:36 29.03.2020
377 Clouds 26 1014 57 10000 4.6 270 16:36 29.03.2020
378 Clouds 28 1014 51 10000 5.7 290 16:18 29.03.2020
379 Clouds 28 1013 51 10000 4.6 250 15:41 29.03.2020
380 Clouds 29 1013 45 10000 4.1 250 15:22 29.03.2020
381 Clouds 29 1014 48 10000 4.6 290 14:57 29.03.2020
382 Clouds 29 1014 48 10000 4.6 290 14:38 29.03.2020
383 Clouds 29 1014 51 10000 3.6 270 14:19 29.03.2020
384 Clouds 29 1014 51 10000 4.6 270 13:56 29.03.2020
385 Clouds 29 1014 51 10000 4.6 270 13:37 29.03.2020
386 Clouds 29 1014 51 10000 3.6 290 13:19 29.03.2020
387 Clouds 29 1015 51 10000 4.1 290 12:55 29.03.2020
388 Clouds 29 1015 51 10000 4.1 290 12:36 29.03.2020
389 Clouds 28 1015 54 10000 4.1 270 12:18 29.03.2020
390 Clouds 28 1015 58 10000 4.1 300 11:39 29.03.2020
391 Clouds 26 1016 61 10000 4.1 270 11:21 29.03.2020
392 Clouds 26 1016 65 10000 3.1 260 10:55 29.03.2020
393 Clouds 26 1017 61 10000 2.6 270 10:37 29.03.2020
394 Clouds 26 1017 61 10000 2.6 270 10:18 29.03.2020
395 Clouds 24 1017 69 10000 2.6 240 09:39 29.03.2020
396 Clouds 25 1017 69 10000 3.1 320 09:19 29.03.2020
397 Clouds 24 1018 73 10000 2.1 0 08:52 29.03.2020
398 Clouds 23 1018 78 10000 1.5 300 08:28 29.03.2020
399 Clouds 22 1017 83 10000 1 0 07:56 29.03.2020
400 Clouds 22 1017 83 10000 1 0 07:38 29.03.2020
401 Clouds 21 1017 88 10000 0.5 0 07:19 29.03.2020
402 Clouds 18 1016 100 10000 0.5 290 04:59 29.03.2020
403 Clouds 18 1016 100 10000 0.19 355 03:42 29.03.2020
404 Clouds 18 1016 100 10000 0.19 355 03:24 29.03.2020
405 Clouds 19 1017 93 10000 1.5 90 01:50 29.03.2020
406 Clouds 19 1017 93 10000 1.5 90 01:23 29.03.2020
407 Clouds 19 1017 93 10000 1.5 0 00:53 29.03.2020
408 Clouds 19 1017 93 10000 1.5 0 00:29 29.03.2020
409 Clouds 19 1017 93 10000 0.5 0 23:41 28.03.2020
410 Clouds 19 1017 93 10000 0.5 0 23:41 28.03.2020
411 Clouds 19 1017 93 10000 0.5 0 23:23 28.03.2020
412 Clouds 19 1018 93 10000 2.1 60 22:56 28.03.2020
413 Clouds 19 1018 93 10000 2.1 60 22:37 28.03.2020
414 Clouds 19 1018 93 10000 2.1 60 22:18 28.03.2020
415 Thunderstorm 20 1019 88 10000 2.1 130 21:41 28.03.2020
416 Thunderstorm 20 1019 88 10000 2.1 130 21:23 28.03.2020
417 Thunderstorm 20 1019 88 10000 2.1 100 20:58 28.03.2020
418 Thunderstorm 20 1019 88 10000 2.1 100 20:39 28.03.2020
419 Thunderstorm 20 1019 88 10000 2.1 100 20:20 28.03.2020
420 Clouds 20 1019 88 10000 2.6 80 19:56 28.03.2020
421 Clouds 20 1019 88 10000 2.6 80 19:36 28.03.2020
422 Clouds 20 1019 88 10000 2.6 80 19:18 28.03.2020
423 Clouds 21 1018 83 10000 2.6 80 18:47 28.03.2020
424 Clouds 21 1018 83 10000 2.6 80 18:22 28.03.2020
425 Clouds 21 1017 83 10000 2.6 60 17:58 28.03.2020
426 Clouds 21 1017 83 10000 2.6 60 17:38 28.03.2020
427 Clouds 21 1017 83 10000 2.6 60 17:18 28.03.2020
428 Clouds 22 1017 78 10000 2.1 30 16:42 28.03.2020
429 Clouds 22 1017 78 10000 2.1 30 16:20 28.03.2020
430 Clouds 24 1017 69 10000 2.1 50 15:55 28.03.2020
431 Clouds 24 1017 69 10000 2.1 50 15:37 28.03.2020
432 Clouds 24 1017 69 10000 2.1 50 15:18 28.03.2020
433 Clouds 26 1017 57 10000 4.1 50 14:42 28.03.2020
434 Clouds 26 1017 57 10000 4.1 50 14:22 28.03.2020
435 Clouds 27 1017 57 10000 2.6 90 13:46 28.03.2020
436 Clouds 27 1017 57 10000 2.6 90 13:26 28.03.2020
437 Clouds 26 1018 61 10000 2.6 130 12:57 28.03.2020
438 Clouds 26 1018 61 10000 2.6 130 12:37 28.03.2020
439 Clouds 26 1018 61 10000 2.6 130 12:18 28.03.2020
440 Clouds 26 1018 61 10000 3.6 120 11:42 28.03.2020
441 Clouds 26 1018 61 10000 3.6 120 11:21 28.03.2020
442 Clouds 25 1019 61 10000 4.1 90 10:41 28.03.2020
443 Clouds 25 1019 61 10000 4.1 90 10:22 28.03.2020
444 Clouds 25 1020 65 10000 4.1 80 09:59 28.03.2020
445 Clouds 25 1020 65 10000 4.1 80 09:39 28.03.2020
446 Clouds 25 1020 65 10000 4.1 80 09:20 28.03.2020
447 Clouds 24 1020 64 10000 2.6 120 08:42 28.03.2020
448 Clouds 24 1020 64 10000 2.6 120 08:23 28.03.2020
449 Clouds 22 1020 78 10000 3.1 100 07:49 28.03.2020
450 Clouds 22 1020 78 10000 3.1 100 07:31 28.03.2020
451 Clouds 20 1020 82 10000 3.6 150 06:42 28.03.2020
452 Clouds 20 1020 82 10000 3.6 150 06:18 28.03.2020
453 Clouds 19 1019 93 10000 1.5 0 05:23 28.03.2020
454 Clouds 19 1019 93 10000 2.1 90 04:43 28.03.2020
455 Clouds 18 1019 93 10000 2.6 110 04:20 28.03.2020
456 Clouds 18 1018 93 10000 2.1 130 02:33 28.03.2020
457 Clouds 19 1018 93 10000 2.1 140 01:45 28.03.2020
458 Clouds 19 1018 93 10000 2.1 160 01:20 28.03.2020
459 Clouds 19 1019 93 10000 1 170 00:46 28.03.2020
460 Clouds 19 1019 93 10000 1 0 00:20 28.03.2020
461 Clouds 19 1019 93 10000 1 0 23:42 27.03.2020
462 Rain 19 1019 93 10000 2.1 160 23:22 27.03.2020
463 Clouds 19 1019 93 10000 1 0 22:56 27.03.2020
464 Clouds 19 1019 93 10000 1 0 22:38 27.03.2020
465 Rain 19 1019 88 10000 3.1 110 22:20 27.03.2020
466 Rain 19 1019 88 10000 3.1 110 22:20 27.03.2020
467 Rain 19 1021 100 8000 2.1 180 21:45 27.03.2020
468 Rain 20 1021 88 5000 2.6 120 21:26 27.03.2020
469 Clouds 20 1021 88 10000 4.6 100 20:59 27.03.2020
470 Clouds 20 1021 88 10000 4.6 100 20:41 27.03.2020
471 Clouds 20 1021 88 10000 4.1 110 20:21 27.03.2020
472 Clouds 21 1020 83 10000 3.6 120 19:58 27.03.2020
473 Clouds 21 1020 83 10000 3.6 120 19:40 27.03.2020
474 Clouds 21 1020 88 10000 4.1 120 19:21 27.03.2020
475 Clouds 21 1020 88 10000 2.6 140 18:45 27.03.2020
476 Thunderstorm 21 1020 88 8000 2.6 150 18:26 27.03.2020
477 Thunderstorm 21 1019 88 8000 3.1 150 17:59 27.03.2020
478 Thunderstorm 21 1019 88 8000 3.1 150 17:40 27.03.2020
479 Thunderstorm 21 1019 88 8000 1.5 170 17:20 27.03.2020
480 Thunderstorm 22 1018 83 10000 3.1 160 16:44 27.03.2020
481 Thunderstorm 23 1018 73 10000 3.6 170 16:26 27.03.2020
482 Thunderstorm 23 1017 73 10000 5.1 100 15:56 27.03.2020
483 Thunderstorm 23 1017 73 10000 5.1 100 15:38 27.03.2020
484 Thunderstorm 24 1017 69 10000 4.6 120 15:20 27.03.2020
485 Thunderstorm 25 1017 61 10000 4.6 160 14:45 27.03.2020
486 Clouds 26 1016 61 10000 5.7 120 14:24 27.03.2020
487 Clouds 27 1016 57 10000 5.1 130 13:56 27.03.2020
488 Clouds 27 1016 57 10000 5.1 130 13:37 27.03.2020
489 Clouds 28 1016 58 10000 5.7 130 13:18 27.03.2020
490 Clouds 29 1016 51 10000 4.1 110 12:43 27.03.2020
491 Clouds 28 1017 58 10000 3.1 100 12:19 27.03.2020
492 Clouds 28 1017 58 10000 2.6 120 11:57 27.03.2020
493 Clouds 28 1017 58 10000 2.6 120 11:39 27.03.2020
494 Clouds 28 1018 54 10000 3.1 110 11:21 27.03.2020
495 Clouds 28 1018 58 10000 4.6 80 10:42 27.03.2020
496 Clouds 28 1019 58 10000 2.1 0 10:22 27.03.2020
497 Clouds 27 1019 57 10000 2.1 130 09:59 27.03.2020
498 Clouds 27 1019 57 10000 2.1 130 09:41 27.03.2020
499 Clouds 26 1019 61 10000 2.6 0 09:22 27.03.2020
500 Clouds 25 1020 65 10000 2.6 100 08:59 27.03.2020
501 Clouds 25 1020 65 10000 2.6 100 08:40 27.03.2020
502 Clouds 24 1020 69 10000 2.1 70 08:22 27.03.2020
503 Clouds 23 1020 73 10000 2.6 100 07:57 27.03.2020
504 Clouds 23 1020 73 10000 2.6 100 07:57 27.03.2020
505 Clouds 23 1020 73 10000 2.6 100 07:38 27.03.2020
506 Clouds 21 1020 83 10000 2.1 130 07:20 27.03.2020
507 Clouds 20 1020 82 10000 1.5 190 06:39 27.03.2020
508 Clouds 19 1019 88 10000 2.1 120 05:45 27.03.2020
509 Clouds 18 1018 93 10000 1.5 0 03:26 27.03.2020
510 Clouds 18 1017 93 10000 1.5 100 01:55 27.03.2020
511 Clouds 19 1018 88 10000 2.6 110 00:58 27.03.2020
512 Clouds 19 1018 88 10000 2.6 110 00:37 27.03.2020
513 Clouds 19 1018 88 10000 2.6 110 00:18 27.03.2020
514 Clouds 19 1018 88 10000 2.6 110 00:18 27.03.2020
515 Thunderstorm 20 1018 88 10000 2.6 130 23:36 26.03.2020
516 Thunderstorm 20 1018 88 10000 2.6 130 23:18 26.03.2020
517 Thunderstorm 19 1018 93 10000 2.1 90 22:54 26.03.2020
518 Thunderstorm 19 1018 93 10000 2.1 90 22:36 26.03.2020
519 Thunderstorm 19 1018 93 10000 2.1 90 22:18 26.03.2020
520 Thunderstorm 19 1018 93 10000 1.5 50 21:39 26.03.2020
521 Thunderstorm 20 1018 88 10000 2.6 60 21:21 26.03.2020
522 Thunderstorm 20 1018 88 10000 3.1 50 20:58 26.03.2020
523 Thunderstorm 20 1018 88 10000 3.1 50 20:39 26.03.2020
524 Thunderstorm 20 1018 88 10000 2.1 50 20:20 26.03.2020
525 Thunderstorm 20 1018 88 10000 3.1 80 19:57 26.03.2020
526 Thunderstorm 20 1018 88 10000 3.1 80 19:39 26.03.2020
527 -273 0 0 0 0 0 19:20 26.03.2020
528 Thunderstorm 20 1018 88 10000 2.6 70 19:20 26.03.2020
529 Thunderstorm 20 1018 88 10000 3.6 90 18:58 26.03.2020
530 Thunderstorm 20 1018 88 10000 3.6 90 18:58 26.03.2020
531 Thunderstorm 20 1018 88 10000 3.6 90 18:39 26.03.2020
532 Thunderstorm 21 1017 88 10000 3.1 70 18:21 26.03.2020
533 Thunderstorm 21 1017 88 10000 3.6 100 17:43 26.03.2020
534 Thunderstorm 22 1016 83 10000 4.1 80 17:19 26.03.2020
535 Clouds 22 1015 83 10000 1.5 0 16:46 26.03.2020
536 Clouds 23 1014 73 10000 2.1 80 16:28 26.03.2020
537 Clouds 24 1015 69 10000 2.6 90 15:59 26.03.2020
538 Clouds 24 1015 69 10000 2.6 90 15:41 26.03.2020
539 Clouds 25 1015 65 10000 2.6 80 15:22 26.03.2020
540 Clouds 25 1014 65 10000 2.6 60 14:58 26.03.2020
541 Clouds 25 1014 65 10000 2.6 60 14:39 26.03.2020
542 Clouds 27 1014 57 10000 3.1 60 14:19 26.03.2020
543 Clouds 26 1014 61 10000 4.1 70 13:43 26.03.2020
544 Clouds 26 1015 61 10000 3.6 60 13:23 26.03.2020
545 Clouds 26 1015 61 10000 3.6 70 12:57 26.03.2020
546 Clouds 26 1015 61 10000 3.6 70 12:38 26.03.2020
547 Clouds 26 1015 57 10000 3.1 50 12:19 26.03.2020
548 Clouds 27 1015 54 10000 2.6 80 11:45 26.03.2020
549 Clouds 27 1016 54 10000 2.6 60 11:21 26.03.2020
550 Clouds 28 1016 54 10000 2.1 0 10:56 26.03.2020
551 Clouds 28 1016 54 10000 2.1 0 10:37 26.03.2020
552 Clouds 27 1016 54 10000 2.1 60 10:18 26.03.2020
553 Clouds 27 1017 54 10000 2.1 80 09:43 26.03.2020
554 Clouds 26 1017 57 10000 2.1 0 09:19 26.03.2020
555 Clouds 26 1017 57 10000 2.1 0 09:19 26.03.2020
556 Clouds 25 1017 65 10000 1.5 10 08:54 26.03.2020
557 Clouds 25 1017 65 10000 1.5 10 08:36 26.03.2020
558 Clouds 25 1017 61 10000 1.5 0 08:18 26.03.2020
559 Clouds 24 1017 64 10000 2.6 0 07:41 26.03.2020
560 Clouds 21 1017 77 10000 2.1 90 07:20 26.03.2020
561 Clouds 21 1017 77 10000 2.1 90 07:20 26.03.2020
562 Clouds 21 1017 77 10000 2.6 80 06:47 26.03.2020
563 Clouds 19 1017 88 10000 2.1 60 05:52 26.03.2020
564 Clouds 18 1015 93 10000 3.1 90 03:58 26.03.2020
565 Clouds 18 1015 93 10000 3.1 90 03:35 26.03.2020
566 Clouds 18 1015 93 10000 4.1 80 02:53 26.03.2020
567 Clouds 18 1014 93 10000 1.5 90 01:44 26.03.2020
568 Clouds 19 1015 93 10000 2.6 120 00:45 26.03.2020
569 Clouds 19 1016 93 10000 3.1 100 23:47 25.03.2020
570 Clouds 20 1016 88 10000 3.1 110 23:28 25.03.2020
571 Clouds 20 1017 88 10000 2.6 100 22:58 25.03.2020
572 Clouds 20 1017 88 10000 2.6 100 22:38 25.03.2020
573 Clouds 20 1017 88 10000 1.5 140 22:19 25.03.2020
574 Clouds 20 1017 88 10000 2.1 130 21:55 25.03.2020
575 Clouds 20 1017 88 10000 2.1 130 21:37 25.03.2020
576 Clouds 20 1017 88 10000 2.1 90 21:18 25.03.2020
577 Clouds 20 1017 88 10000 3.1 90 20:39 25.03.2020
578 Clouds 20 1017 88 10000 3.1 90 20:20 25.03.2020
579 Clouds 20 1017 88 10000 3.1 80 19:57 25.03.2020
580 Clouds 20 1017 88 10000 3.1 80 19:38 25.03.2020
581 Clouds 21 1017 83 10000 4.1 90 19:20 25.03.2020
582 Clouds 21 1017 83 10000 4.6 120 18:54 25.03.2020
583 Clouds 21 1017 83 10000 4.6 120 18:36 25.03.2020
584 Clouds 21 1016 83 10000 4.1 130 18:18 25.03.2020
585 Clouds 21 1016 83 10000 3.1 80 17:41 25.03.2020
586 Clouds 21 1016 83 10000 3.1 80 17:22 25.03.2020
587 Clouds 22 1015 73 10000 2.6 90 16:58 25.03.2020
588 Clouds 22 1015 78 10000 3.6 90 16:39 25.03.2020
589 Clouds 22 1015 78 10000 3.6 90 16:20 25.03.2020
590 Clouds 24 1015 69 10000 3.6 80 15:43 25.03.2020
591 Clouds 25 1015 61 10000 4.1 90 15:21 25.03.2020
592 Clouds 26 1014 57 10000 4.6 100 14:59 25.03.2020
593 Clouds 26 1014 57 10000 4.6 100 14:40 25.03.2020
594 Clouds 26 1014 57 10000 4.6 100 14:20 25.03.2020
595 Clouds 27 1015 54 10000 3.6 130 13:44 25.03.2020
596 Clouds 27 1015 54 10000 3.6 130 13:24 25.03.2020
597 Clouds 26 1015 54 10000 4.1 110 12:39 25.03.2020
598 Clouds 27 1015 54 10000 4.6 120 12:21 25.03.2020
599 Clouds 26 1016 57 10000 5.1 120 11:59 25.03.2020
600 Clouds 26 1016 57 10000 5.1 120 11:40 25.03.2020
601 Clouds 26 1016 57 10000 3.6 140 11:21 25.03.2020
602 Clouds 26 1016 61 10000 4.1 110 10:58 25.03.2020
603 Clouds 26 1016 61 10000 4.1 110 10:40 25.03.2020
604 Clouds 26 1017 61 10000 3.6 170 10:18 25.03.2020
605 Clouds 25 1017 61 10000 2.6 180 09:56 25.03.2020
606 Clouds 25 1017 61 10000 2.6 180 09:38 25.03.2020
607 Clouds 24 1018 64 10000 3.1 140 09:19 25.03.2020
608 Clouds 24 1018 64 10000 4.1 140 08:41 25.03.2020
609 Clouds 23 1019 64 10000 4.1 110 08:23 25.03.2020
610 Clouds 22 1019 73 10000 4.1 120 07:55 25.03.2020
611 Clouds 22 1019 73 10000 4.1 120 07:36 25.03.2020
612 Clouds 20 1019 77 10000 2.6 130 07:18 25.03.2020
613 Clouds 20 1019 72 10000 3.6 160 06:41 25.03.2020
614 Clouds 20 1019 77 10000 3.1 180 06:22 25.03.2020
615 Clouds 19 1018 82 10000 2.6 180 05:47 25.03.2020
616 Clouds 16 1018 93 10000 3.1 160 04:42 25.03.2020
617 Clouds 15 1018 100 10000 1 160 03:57 25.03.2020
618 Clouds 15 1018 100 10000 0.5 0 03:32 25.03.2020
619 Clouds 16 1018 93 10000 1 0 01:40 25.03.2020
620 Clouds 16 1018 93 10000 2.1 140 00:50 25.03.2020
621 Clouds 16 1018 93 10000 1 0 00:27 25.03.2020
622 Clouds 16 1018 93 10000 2.1 120 23:55 24.03.2020
623 Clouds 17 1019 88 10000 2.1 120 23:28 24.03.2020
624 Clouds 17 1019 88 10000 1.5 140 22:58 24.03.2020
625 Clouds 17 1019 88 10000 1.5 140 22:38 24.03.2020
626 Clouds 17 1019 88 10000 1.5 140 22:38 24.03.2020
627 Clouds 18 1019 88 10000 2.6 140 22:20 24.03.2020
628 Clouds 18 1020 88 10000 3.1 130 21:58 24.03.2020
629 Clouds 18 1020 88 10000 3.1 130 21:40 24.03.2020
630 Clouds 19 1020 82 10000 3.6 140 21:18 24.03.2020
631 Clouds 19 1020 82 10000 3.6 140 21:18 24.03.2020
632 Clouds 18 1020 88 10000 3.1 150 20:58 24.03.2020
633 Clouds 18 1020 88 10000 3.1 150 20:39 24.03.2020
634 Clouds 18 1020 88 10000 4.1 110 20:21 24.03.2020
635 Clouds 18 1020 88 10000 4.1 110 19:46 24.03.2020
636 Clouds 19 1020 82 10000 4.6 130 19:20 24.03.2020
637 Clouds 19 1020 82 10000 4.1 140 18:56 24.03.2020
638 Clouds 19 1020 82 10000 4.1 140 18:38 24.03.2020
639 Clouds 19 1020 88 10000 5.1 130 18:19 24.03.2020
640 Clouds 19 1019 88 10000 4.1 110 17:56 24.03.2020
641 Clouds 19 1019 88 10000 4.1 110 17:38 24.03.2020
642 Clouds 20 1019 77 10000 4.6 110 17:19 24.03.2020
643 Clouds 21 1019 73 10000 6.2 100 16:56 24.03.2020
644 Clouds 21 1019 73 10000 6.2 100 16:37 24.03.2020
645 Clouds 22 1018 68 10000 5.1 110 16:19 24.03.2020
646 Clouds 23 1018 60 10000 4.6 140 15:42 24.03.2020
647 Clouds 24 1018 57 10000 4.1 150 15:23 24.03.2020
648 Clouds 25 1018 53 10000 5.7 120 14:44 24.03.2020
649 Clouds 25 1018 57 10000 6.7 110 14:22 24.03.2020
650 Clouds 25 1018 57 10000 6.2 110 13:58 24.03.2020
651 Clouds 25 1018 57 10000 6.2 110 13:40 24.03.2020
652 Clouds 26 1018 54 10000 5.1 110 13:21 24.03.2020
653 Clouds 25 1019 53 10000 3.6 130 12:42 24.03.2020
654 Clouds 25 1019 57 10000 3.6 120 12:23 24.03.2020
655 Clouds 24 1019 60 10000 3.6 130 11:41 24.03.2020
656 Clouds 25 1020 61 10000 4.1 120 11:21 24.03.2020
657 Clouds 25 1020 61 10000 4.1 120 10:59 24.03.2020
658 Clouds 25 1020 61 10000 4.1 120 10:40 24.03.2020
659 Clouds 25 1020 61 10000 4.1 120 10:40 24.03.2020
660 Clouds 23 1021 64 10000 3.1 150 10:18 24.03.2020
661 Clouds 23 1021 64 10000 3.1 150 10:18 24.03.2020
662 Clouds 23 1021 64 10000 3.1 150 10:18 24.03.2020
663 Clouds 24 1021 60 10000 3.1 0 09:44 24.03.2020
664 Clouds 23 1022 64 10000 4.6 170 09:25 24.03.2020
665 Clouds 23 1022 64 10000 4.6 160 08:57 24.03.2020
666 Clouds 23 1022 69 10000 4.1 160 08:37 24.03.2020
667 Clouds 23 1022 69 10000 4.1 160 08:18 24.03.2020
668 Clouds 21 1022 77 10000 4.1 170 07:44 24.03.2020
669 Clouds 20 1022 77 10000 4.6 140 07:22 24.03.2020
670 Clouds 20 1022 77 10000 4.6 140 07:22 24.03.2020
671 Clouds 20 1022 77 10000 3.1 150 06:38 24.03.2020
672 Clouds 19 1022 82 10000 3.6 130 05:42 24.03.2020
673 Clouds 18 1022 88 10000 3.1 130 04:51 24.03.2020
674 Clouds 17 1021 93 10000 2.1 150 03:21 24.03.2020
675 Clouds 17 1021 88 10000 2.1 140 02:37 24.03.2020
676 Clouds 18 1021 82 10000 2.6 160 00:54 24.03.2020
677 Clouds 18 1022 88 10000 3.6 170 00:27 24.03.2020
678 Clouds 18 1022 88 10000 2.1 140 23:55 23.03.2020
679 Clouds 18 1022 88 10000 2.1 140 23:37 23.03.2020
680 Clouds 18 1022 88 10000 2.1 140 23:19 23.03.2020
681 Clouds 18 1023 88 10000 2.6 130 22:43 23.03.2020
682 Clouds 18 1023 88 10000 3.6 120 22:22 23.03.2020
683 Clouds 18 1024 88 10000 4.1 110 21:55 23.03.2020
684 Clouds 18 1024 88 10000 4.1 110 21:37 23.03.2020
685 Clouds 19 1024 82 10000 4.1 130 21:18 23.03.2020
686 Clouds 19 1024 82 10000 3.6 120 20:42 23.03.2020
687 Clouds 19 1024 82 10000 3.6 120 20:24 23.03.2020
688 Clouds 19 1024 82 10000 4.6 120 19:55 23.03.2020
689 Clouds 19 1024 82 10000 4.6 120 19:37 23.03.2020
690 Clouds 19 1024 88 10000 5.1 110 19:19 23.03.2020
691 Rain 19 1024 88 10000 4.6 110 18:43 23.03.2020
692 Clouds 19 1023 88 10000 5.1 100 18:24 23.03.2020
693 Clouds 20 1023 82 10000 5.7 110 17:59 23.03.2020
694 Clouds 20 1023 82 10000 5.7 110 17:40 23.03.2020
695 Clouds 19 1023 88 10000 5.1 100 17:19 23.03.2020
696 Clouds 20 1022 82 10000 4.1 100 16:43 23.03.2020
697 Clouds 21 1022 77 10000 5.1 120 16:25 23.03.2020
698 Clouds 21 1022 77 10000 5.1 120 16:25 23.03.2020
699 Clouds 22 1022 68 10000 5.7 120 15:54 23.03.2020
700 Clouds 22 1022 68 10000 5.7 120 15:36 23.03.2020
701 Clouds 24 1021 60 10000 4.6 120 15:18 23.03.2020
702 Clouds 24 1021 60 10000 4.6 120 15:18 23.03.2020
703 Clouds 23 1021 64 10000 5.1 120 14:37 23.03.2020
704 Clouds 25 1021 57 10000 4.6 150 14:19 23.03.2020
705 Clouds 25 1021 57 10000 4.6 150 14:19 23.03.2020
706 Clouds 26 1021 57 10000 4.1 150 13:55 23.03.2020
707 Clouds 26 1021 57 10000 4.1 150 13:37 23.03.2020
708 Clouds 26 1021 54 10000 4.1 150 13:19 23.03.2020
709 Clouds 26 1021 54 10000 4.6 140 12:42 23.03.2020
710 Clouds 26 1021 54 10000 5.7 120 12:22 23.03.2020
711 Clouds 26 1021 54 10000 5.7 120 12:22 23.03.2020
712 Clouds 26 1021 54 10000 4.6 130 11:56 23.03.2020
713 Clouds 26 1021 54 10000 4.6 130 11:37 23.03.2020
714 Clouds 26 1021 54 10000 4.6 130 11:37 23.03.2020
715 Clouds 26 1022 57 10000 5.1 130 11:18 23.03.2020
716 Clouds 25 1022 61 10000 5.1 130 10:42 23.03.2020
717 Clouds 24 1023 64 10000 3.6 170 10:23 23.03.2020
718 Clouds 24 1023 60 10000 3.1 150 09:59 23.03.2020
719 Clouds 24 1023 60 10000 3.1 150 09:41 23.03.2020
720 Clouds 21 1023 73 10000 3.6 170 09:19 23.03.2020
721 Clouds 21 1024 73 10000 3.6 150 08:38 23.03.2020
722 Clouds 21 1024 68 10000 3.6 150 08:20 23.03.2020
723 Clouds 20 1024 68 10000 2.6 160 07:51 23.03.2020
724 Clouds 19 1024 72 10000 3.6 150 07:33 23.03.2020
725 Clouds 19 1024 72 10000 3.6 120 06:55 23.03.2020
726 Clouds 18 1024 77 10000 2.1 150 06:33 23.03.2020
727 Clouds 17 1024 82 10000 2.1 170 05:44 23.03.2020
728 Clouds 14 1022 93 10000 2.1 120 03:54 23.03.2020
729 Clouds 15 1022 93 10000 2.6 140 02:44 23.03.2020
730 Clouds 16 1022 87 10000 3.1 140 01:50 23.03.2020
731 Clouds 17 1022 82 10000 3.6 150 00:46 23.03.2020
732 Clouds 17 1023 88 10000 4.6 150 00:26 23.03.2020
733 Clouds 17 1023 82 10000 4.1 150 23:42 22.03.2020
734 Clouds 18 1023 82 10000 4.1 150 23:24 22.03.2020
735 Clouds 18 1024 82 10000 2.6 150 22:41 22.03.2020
736 Clouds 17 1023 88 10000 2.6 140 22:20 22.03.2020
737 Clouds 17 1024 88 10000 3.1 140 21:41 22.03.2020
738 Clouds 17 1024 88 10000 3.1 150 21:23 22.03.2020
739 Clouds 17 1024 88 10000 3.1 130 20:59 22.03.2020
740 Clouds 17 1024 88 10000 3.1 130 20:40 22.03.2020
741 Clouds 18 1024 82 10000 4.1 120 20:22 22.03.2020
742 Clouds 18 1024 88 10000 4.1 120 19:56 22.03.2020
743 Clouds 18 1024 88 10000 4.1 120 19:38 22.03.2020
744 Clouds 18 1024 88 10000 3.1 130 19:19 22.03.2020
745 Clouds 19 1024 82 10000 5.1 110 18:57 22.03.2020
746 Clouds 19 1024 82 10000 5.1 110 18:39 22.03.2020
747 Clouds 19 1023 82 10000 4.6 90 18:19 22.03.2020
748 Clouds 20 1023 77 10000 3.1 110 17:56 22.03.2020
749 Clouds 20 1023 77 10000 3.1 110 17:37 22.03.2020
750 Clouds 19 1023 82 10000 5.1 110 17:19 22.03.2020
751 Clouds 20 1022 72 10000 5.1 130 16:55 22.03.2020
752 Clouds 20 1022 72 10000 5.1 130 16:37 22.03.2020
753 Clouds 20 1022 77 10000 6.2 110 16:19 22.03.2020
754 Clouds 21 1022 73 10000 4.6 100 15:39 22.03.2020
755 Clouds 22 1022 64 10000 6.2 120 15:19 22.03.2020
756 Clouds 24 1021 57 10000 6.7 120 14:46 22.03.2020
757 Clouds 23 1021 60 10000 7.2 110 14:18 22.03.2020
758 Clouds 23 1021 64 10000 6.7 110 13:42 22.03.2020
759 Clouds 23 1021 69 10000 6.2 100 13:20 22.03.2020
760 -273 0 0 0 0 0 12:47 22.03.2020
761 Clouds 23 1021 69 10000 5.1 120 12:23 22.03.2020
762 Clouds 23 1021 69 10000 5.1 120 12:23 22.03.2020
763 Clouds 23 1021 69 10000 5.1 120 12:23 22.03.2020
764 Clouds 23 1021 69 10000 5.7 110 11:59 22.03.2020
765 Clouds 23 1021 69 10000 5.7 110 11:41 22.03.2020
766 Clouds 23 1022 64 10000 4.6 130 11:23 22.03.2020
767 Clouds 23 1022 64 10000 3.6 130 10:57 22.03.2020
768 Clouds 23 1022 64 10000 3.6 130 10:39 22.03.2020
769 Clouds 22 1022 68 10000 4.6 150 10:20 22.03.2020
770 Clouds 22 1023 68 10000 5.1 140 09:42 22.03.2020
771 Clouds 21 1023 73 10000 4.1 140 09:22 22.03.2020
772 Clouds 21 1023 73 10000 4.6 120 08:44 22.03.2020
773 Clouds 21 1023 73 10000 4.6 140 08:24 22.03.2020
774 Clouds 21 1023 73 10000 4.6 110 07:52 22.03.2020
775 Clouds 20 1023 82 10000 3.1 130 07:26 22.03.2020
776 Clouds 19 1023 82 10000 3.6 170 06:35 22.03.2020
777 Clouds 18 1022 88 10000 3.1 110 05:35 22.03.2020
778 Clouds 18 1021 93 10000 5.1 90 03:30 22.03.2020
779 Clouds 18 1020 93 10000 3.1 100 01:27 22.03.2020
780 Clouds 19 1020 88 10000 4.1 120 00:48 22.03.2020
781 Clouds 19 1021 88 10000 4.6 130 00:28 22.03.2020
782 Clouds 19 1021 88 10000 4.6 130 23:43 21.03.2020
783 Clouds 19 1021 88 10000 3.6 130 23:19 21.03.2020
784 Clouds 19 1021 88 10000 3.6 130 23:19 21.03.2020
785 Clouds 19 1021 88 10000 3.1 90 22:55 21.03.2020
786 Clouds 19 1021 88 10000 3.1 90 22:36 21.03.2020
787 Clouds 19 1021 88 10000 4.6 90 22:18 21.03.2020
788 Clouds 19 1022 88 10000 3.1 110 21:41 21.03.2020
789 Clouds 19 1022 88 10000 3.6 120 21:23 21.03.2020
790 Clouds 20 1022 88 10000 5.1 130 20:56 21.03.2020
791 Clouds 20 1022 88 10000 5.1 130 20:38 21.03.2020
792 Clouds 20 1022 82 10000 4.6 130 20:19 21.03.2020
793 Clouds 20 1022 88 10000 4.1 130 19:43 21.03.2020
794 Clouds 20 1022 88 10000 3.6 120 19:24 21.03.2020
795 Clouds 20 1022 88 10000 3.6 120 19:24 21.03.2020
796 Clouds 20 1021 88 10000 4.1 100 18:55 21.03.2020
797 Clouds 20 1021 88 10000 4.1 100 18:37 21.03.2020
798 Clouds 20 1021 88 10000 5.1 100 18:19 21.03.2020
799 Clouds 21 1020 83 10000 5.7 110 17:55 21.03.2020
800 Clouds 21 1020 83 10000 5.7 110 17:37 21.03.2020
801 Clouds 21 1020 83 10000 5.7 100 17:18 21.03.2020
802 Rain 21 1019 88 10000 5.1 100 16:40 21.03.2020
803 Rain 22 1019 83 10000 7.7 120 16:19 21.03.2020
804 Clouds 23 1018 73 10000 5.7 110 15:55 21.03.2020
805 Clouds 23 1018 73 10000 5.7 110 15:36 21.03.2020
806 Clouds 25 1018 65 10000 2.1 40 15:18 21.03.2020
807 Clouds 26 1018 61 10000 4.1 40 14:54 21.03.2020
808 Clouds 26 1018 61 10000 4.1 40 14:36 21.03.2020
809 Clouds 27 1018 57 10000 3.6 50 14:18 21.03.2020
810 Clouds 27 1018 57 10000 4.6 40 13:54 21.03.2020
811 Clouds 27 1018 57 10000 4.6 40 13:36 21.03.2020
812 Rain 26 1018 61 10000 5.7 40 13:18 21.03.2020
813 Rain 24 1019 78 10000 2.6 350 12:39 21.03.2020
814 Clouds 25 1019 69 10000 3.1 10 12:19 21.03.2020
815 Clouds 27 1019 57 10000 3.1 80 11:57 21.03.2020
816 Clouds 27 1019 57 10000 3.1 80 11:38 21.03.2020
817 Clouds 26 1019 65 10000 2.6 110 11:19 21.03.2020
818 Clouds 26 1020 61 10000 1.5 0 10:57 21.03.2020
819 Clouds 23 1020 78 10000 1 0 10:38 21.03.2020
820 Clouds 23 1020 78 10000 1 0 10:20 21.03.2020
821 Rain 24 1021 73 10000 3.6 0 09:56 21.03.2020
822 Rain 24 1021 73 10000 3.6 0 09:37 21.03.2020
823 Clouds 23 1021 83 10000 2.1 80 09:19 21.03.2020
824 Clouds 23 1021 83 10000 2.1 80 09:19 21.03.2020
825 Clouds 21 1022 94 10000 3.1 80 08:44 21.03.2020
826 Clouds 21 1022 94 10000 3.1 80 08:44 21.03.2020
827 Drizzle 20 1022 94 7000 3.6 70 08:25 21.03.2020
828 Drizzle 21 1022 88 8000 1.5 360 07:47 21.03.2020
829 Clouds 21 1022 83 10000 1 0 07:28 21.03.2020
830 Clouds 21 1022 83 10000 1 0 06:48 21.03.2020
831 Clouds 20 1022 88 10000 1.5 0 06:28 21.03.2020
832 Clouds 20 1021 88 10000 2.6 80 05:48 21.03.2020
833 Clouds 19 1020 93 10000 2.1 170 04:47 21.03.2020
834 Clouds 19 1019 93 10000 2.1 80 02:55 21.03.2020
835 Clouds 19 1019 93 10000 1.5 70 02:33 21.03.2020
836 Clouds 19 1020 93 10000 1 0 01:33 21.03.2020
837 Clouds 19 1020 93 10000 1 0 00:56 21.03.2020
838 Clouds 19 1020 93 10000 1 0 00:37 21.03.2020
839 Drizzle 19 1020 93 8000 2.1 100 23:53 20.03.2020
840 Drizzle 19 1020 93 8000 1.5 100 23:28 20.03.2020
841 Clouds 20 1020 88 10000 2.1 90 22:59 20.03.2020
842 Clouds 20 1020 88 10000 2.1 90 22:59 20.03.2020
843 Clouds 20 1020 88 10000 2.1 90 22:40 20.03.2020
844 Clouds 20 1021 88 10000 1 0 22:21 20.03.2020
845 Clouds 20 1021 88 10000 1.5 130 21:56 20.03.2020
846 Clouds 20 1021 88 10000 1 0 21:38 20.03.2020
847 Clouds 20 1021 88 10000 1 0 21:18 20.03.2020
848 Clouds 20 1021 88 10000 2.6 110 20:56 20.03.2020
849 Clouds 20 1021 88 10000 3.1 110 20:38 20.03.2020
850 Clouds 20 1021 88 10000 3.1 110 20:18 20.03.2020
851 Clouds 20 1021 88 10000 3.6 110 19:44 20.03.2020
852 Clouds 20 1021 88 10000 4.1 120 19:19 20.03.2020
853 Clouds 20 1020 88 10000 3.1 140 18:55 20.03.2020
854 Clouds 20 1020 88 10000 3.1 140 18:37 20.03.2020
855 Clouds 20 1020 88 10000 3.1 130 18:19 20.03.2020
856 Clouds 19 1020 93 10000 3.1 80 17:39 20.03.2020
857 Clouds 20 1019 88 10000 4.1 100 17:21 20.03.2020
858 Clouds 20 1019 94 10000 4.1 130 16:57 20.03.2020
859 Clouds 20 1019 94 10000 4.1 130 16:39 20.03.2020
860 Clouds 20 1019 94 10000 4.1 130 16:39 20.03.2020
861 Clouds 20 1019 88 10000 3.1 140 16:18 20.03.2020
862 Clouds 20 1018 88 10000 3.1 150 15:42 20.03.2020
863 Rain 20 1019 88 10000 2.1 140 15:21 20.03.2020
864 Rain 21 1018 83 7000 2.6 190 14:54 20.03.2020
865 Rain 21 1018 83 7000 2.6 190 14:36 20.03.2020
866 Rain 21 1018 83 10000 2.1 0 14:18 20.03.2020
867 Rain 22 1018 83 10000 2.6 130 13:40 20.03.2020
868 Rain 22 1018 78 8000 4.1 60 13:19 20.03.2020
869 Clouds 25 1018 73 10000 3.6 200 12:39 20.03.2020
870 Clouds 25 1018 73 10000 3.6 200 12:20 20.03.2020
871 Clouds 25 1018 73 10000 3.1 200 11:57 20.03.2020
872 Clouds 25 1018 73 10000 3.1 200 11:38 20.03.2020
873 Clouds 23 1019 83 10000 2.1 250 11:19 20.03.2020
874 Rain 21 1019 88 10000 3.1 290 10:41 20.03.2020
875 Rain 24 1019 69 10000 2.1 210 10:21 20.03.2020
876 Clouds 24 1020 69 10000 2.6 180 09:56 20.03.2020
877 Clouds 24 1020 69 10000 2.6 180 09:56 20.03.2020
878 Clouds 24 1020 69 10000 2.6 180 09:37 20.03.2020
879 Clouds 25 1020 69 10000 2.6 170 09:18 20.03.2020
880 Clouds 23 1021 73 10000 2.6 170 08:42 20.03.2020
881 Clouds 23 1021 73 10000 2.6 160 08:22 20.03.2020
882 Clouds 22 1021 78 10000 2.6 180 07:48 20.03.2020
883 Clouds 22 1021 78 10000 2.1 110 07:30 20.03.2020
884 Clouds 21 1021 83 10000 2.1 130 06:58 20.03.2020
885 Clouds 21 1021 83 10000 2.1 130 06:40 20.03.2020
886 Clouds 18 1020 100 10000 2.1 70 04:51 20.03.2020
887 Clouds 18 1019 93 10000 2.1 60 03:21 20.03.2020
888 Clouds 19 1018 93 10000 2.1 80 01:57 20.03.2020
889 Clouds 19 1019 93 10000 1.5 80 00:51 20.03.2020
890 Clouds 19 1019 93 10000 2.6 80 00:29 20.03.2020
891 Clouds 19 1019 93 10000 3.1 80 23:47 19.03.2020
892 Clouds 19 1019 100 10000 2.6 90 23:28 19.03.2020
893 Clouds 19 1019 100 10000 2.1 70 22:56 19.03.2020
894 Clouds 19 1019 100 10000 2.1 70 22:38 19.03.2020
895 Rain 19 1020 93 10000 1.5 90 22:18 19.03.2020
896 Rain 19 1020 100 10000 1 70 21:42 19.03.2020
897 Rain 19 1020 93 10000 1.5 60 21:20 19.03.2020
898 Rain 19 1020 93 10000 2.6 120 20:59 19.03.2020
899 Rain 19 1020 93 10000 2.6 120 20:41 19.03.2020
900 Thunderstorm 19 1020 93 10000 1.5 0 20:22 19.03.2020
901 Thunderstorm 19 1020 93 10000 2.1 0 19:55 19.03.2020
902 Thunderstorm 19 1020 93 10000 2.1 0 19:37 19.03.2020
903 Thunderstorm 20 1020 94 10000 4.6 90 19:18 19.03.2020
904 Thunderstorm 20 1019 88 10000 1.5 0 18:42 19.03.2020
905 Thunderstorm 20 1019 88 10000 1.5 0 18:22 19.03.2020
906 Thunderstorm 20 1019 88 10000 2.6 310 17:58 19.03.2020
907 Thunderstorm 20 1019 88 10000 2.6 310 17:39 19.03.2020
908 Thunderstorm 21 1018 88 10000 4.1 330 17:19 19.03.2020
909 Thunderstorm 21 1018 88 10000 3.1 150 16:43 19.03.2020
910 Rain 23 1017 73 10000 6.2 100 16:23 19.03.2020
911 Clouds 23 1017 78 10000 1.5 260 15:45 19.03.2020
912 Clouds 24 1016 69 10000 1.5 190 15:26 19.03.2020
913 Clouds 25 1016 65 10000 2.6 220 14:55 19.03.2020
914 Clouds 25 1016 65 10000 2.6 220 14:37 19.03.2020
915 Clouds 25 1016 61 10000 2.6 210 14:18 19.03.2020
916 Clouds 26 1016 57 10000 1 0 13:39 19.03.2020
917 Clouds 27 1016 57 10000 1.5 0 13:19 19.03.2020
918 Clouds 28 1017 54 10000 2.1 140 12:44 19.03.2020
919 Clouds 26 1017 61 10000 1.5 0 12:24 19.03.2020
920 Clouds 27 1017 54 10000 1.5 0 11:59 19.03.2020
921 Clouds 27 1017 54 10000 1.5 0 11:41 19.03.2020
922 Clouds 26 1018 61 10000 1 0 11:23 19.03.2020
923 Clouds 24 1018 64 10000 2.1 20 10:44 19.03.2020
924 Clouds 24 1019 64 10000 2.1 60 10:22 19.03.2020
925 Clouds 24 1019 69 10000 1.5 0 09:59 19.03.2020
926 Clouds 24 1019 69 10000 1.5 0 09:40 19.03.2020
927 Clouds 25 1019 65 10000 1.5 0 09:22 19.03.2020
928 Clouds 24 1019 64 10000 3.1 30 08:47 19.03.2020
929 Clouds 23 1019 69 10000 3.6 10 08:23 19.03.2020
930 Clouds 22 1019 78 10000 3.1 40 07:49 19.03.2020
931 Clouds 22 1019 78 10000 1 0 07:31 19.03.2020
932 Clouds 21 1019 83 10000 0.5 0 06:55 19.03.2020
933 Clouds 20 1019 88 10000 1 0 06:18 19.03.2020
934 Clouds 19 1018 88 10000 0.5 0 05:23 19.03.2020
935 Clouds 17 1018 100 10000 1 40 04:41 19.03.2020
936 Clouds 17 1018 93 10000 1 0 03:39 19.03.2020
937 Clouds 18 1017 93 10000 2.1 40 01:45 19.03.2020
938 Clouds 18 1017 93 10000 1.5 200 00:39 19.03.2020
939 Clouds 18 1017 93 10000 1.5 210 00:18 19.03.2020
940 Clouds 17 1017 100 10000 1 0 23:41 18.03.2020
941 Rain 18 1018 93 10000 1.5 0 23:21 18.03.2020
942 Rain 18 1018 93 10000 1.5 220 22:42 18.03.2020
943 Rain 18 1019 93 10000 1.5 210 22:22 18.03.2020
944 Clouds 18 1019 93 10000 2.6 140 21:55 18.03.2020
945 Clouds 18 1019 93 10000 2.6 140 21:37 18.03.2020
946 Clouds 18 1019 93 10000 3.6 150 21:18 18.03.2020
947 Thunderstorm 18 1019 100 10000 5.7 200 20:54 18.03.2020
948 Thunderstorm 18 1019 100 10000 5.7 200 20:36 18.03.2020
949 Thunderstorm 18 1019 100 10000 2.1 290 20:18 18.03.2020
950 Thunderstorm 19 1019 93 8000 1.5 0 19:40 18.03.2020
951 Thunderstorm 19 1019 93 8000 1 0 19:21 18.03.2020
952 Thunderstorm 19 1019 93 10000 1 0 18:56 18.03.2020
953 Thunderstorm 19 1019 93 10000 1 0 18:38 18.03.2020
954 Thunderstorm 19 1019 93 3500 2.6 90 18:19 18.03.2020
955 Thunderstorm 19 1018 93 3500 3.6 60 17:54 18.03.2020
956 Thunderstorm 19 1018 100 4000 2.1 170 17:36 18.03.2020
957 Thunderstorm 19 1018 100 4000 2.1 170 17:18 18.03.2020
958 Thunderstorm 19 1017 100 2500 4.1 220 16:42 18.03.2020
959 Thunderstorm 21 1017 83 8000 5.7 180 16:20 18.03.2020
960 Thunderstorm 22 1016 78 4500 1 0 15:56 18.03.2020
961 Thunderstorm 22 1016 78 4500 1 0 15:37 18.03.2020
962 Thunderstorm 24 1016 69 10000 2.6 220 15:19 18.03.2020
963 Thunderstorm 26 1016 61 10000 2.1 300 14:42 18.03.2020
964 Thunderstorm 24 1016 69 10000 2.6 290 14:21 18.03.2020
965 Thunderstorm 24 1016 73 10000 3.6 300 13:40 18.03.2020
966 Thunderstorm 25 1016 73 10000 3.6 320 13:19 18.03.2020
967 Thunderstorm 22 1015 83 10000 3.6 330 12:44 18.03.2020
968 Thunderstorm 21 1016 88 10000 4.6 330 12:21 18.03.2020
969 Thunderstorm 21 1016 88 10000 6.7 360 11:59 18.03.2020
970 Thunderstorm 21 1016 88 10000 6.7 360 11:37 18.03.2020
971 Thunderstorm 21 1016 88 10000 6.7 360 11:37 18.03.2020
972 Thunderstorm 25 1016 65 10000 2.1 260 11:18 18.03.2020
973 Thunderstorm 27 1017 57 10000 1.5 70 10:56 18.03.2020
974 Thunderstorm 27 1017 57 10000 1.5 70 10:56 18.03.2020
975 Clouds 28 1017 58 10000 2.6 0 10:36 18.03.2020
976 Clouds 28 1017 58 10000 2.6 0 10:18 18.03.2020
977 Clouds 28 1018 61 10000 1.5 0 09:42 18.03.2020
978 Clouds 26 1018 61 10000 1 0 09:23 18.03.2020
979 Clouds 25 1018 69 10000 1 0 08:54 18.03.2020
980 Clouds 25 1018 69 10000 1 0 08:36 18.03.2020
981 Clouds 25 1019 73 10000 2.1 200 08:18 18.03.2020
982 Clouds 24 1019 78 10000 1.5 0 07:39 18.03.2020
983 Clouds 23 1019 83 10000 2.1 320 07:21 18.03.2020
984 Clouds 22 1019 83 10000 2.1 250 06:42 18.03.2020
985 Clouds 20 1018 94 10000 2.1 270 05:43 18.03.2020
986 Clouds 19 1017 93 10000 2.6 280 04:58 18.03.2020
987 Clouds 18 1016 100 10000 1.5 330 03:21 18.03.2020
988 Clouds 18 1016 100 10000 0.19 192 02:37 18.03.2020
989 Clouds 18 1016 100 10000 0.19 192 02:37 18.03.2020
990 Clouds 18 1016 100 10000 0.5 0 01:43 18.03.2020
991 Clouds 19 1016 93 10000 0.5 0 01:19 18.03.2020
992 Clouds 20 1016 88 10000 1 0 00:21 18.03.2020
993 Clouds 20 1016 88 10000 1 0 23:42 17.03.2020
994 Clouds 19 1016 93 10000 2.1 320 23:21 17.03.2020
995 Clouds 19 1017 93 10000 2.1 290 22:46 17.03.2020
996 Clouds 20 1017 94 10000 1 360 22:28 17.03.2020
997 Clouds 20 1017 88 10000 2.01 288 21:46 17.03.2020
998 Clouds 20 1017 88 10000 2.1 310 21:25 17.03.2020
999 Clouds 20 1017 88 10000 2.6 300 20:58 17.03.2020
1000 Clouds 20 1017 88 10000 2.6 300 20:38 17.03.2020
1001 Clouds 21 1017 83 10000 3.1 320 20:19 17.03.2020
1002 Clouds 21 1017 83 10000 4.6 310 19:42 17.03.2020
1003 Clouds 21 1017 83 10000 5.7 320 19:21 17.03.2020
1004 Clouds 21 1017 83 10000 4.6 330 18:58 17.03.2020
1005 Clouds 21 1017 83 10000 4.6 330 18:39 17.03.2020
1006 Clouds 22 1017 78 10000 5.1 320 18:21 17.03.2020
1007 Thunderstorm 22 1016 78 10000 3.6 310 17:56 17.03.2020
1008 Thunderstorm 22 1016 78 10000 3.6 310 17:38 17.03.2020
1009 Thunderstorm 23 1016 73 10000 4.1 320 17:18 17.03.2020
1010 Clouds 23 1016 73 10000 4.1 320 16:42 17.03.2020
1011 Clouds 24 1015 69 10000 5.7 330 16:19 17.03.2020
1012 Clouds 24 1015 69 10000 5.7 330 16:19 17.03.2020
1013 Clouds 25 1014 65 10000 4.6 320 15:45 17.03.2020
1014 Rain 27 1014 57 10000 5.1 320 15:23 17.03.2020
1015 Rain 28 1014 51 10000 5.7 320 14:47 17.03.2020
1016 Clouds 28 1014 54 10000 5.1 310 14:26 17.03.2020
1017 Clouds 28 1014 54 10000 4.1 300 13:58 17.03.2020
1018 Clouds 28 1014 54 10000 4.1 300 13:40 17.03.2020
1019 Thunderstorm 29 1014 48 10000 4.1 310 13:21 17.03.2020
1020 Clouds 30 1014 48 10000 3.6 280 12:44 17.03.2020
1021 Clouds 29 1014 45 10000 2.6 320 12:24 17.03.2020
1022 Clouds 29 1014 45 10000 3.1 270 11:55 17.03.2020
1023 Clouds 29 1014 45 10000 3.1 270 11:37 17.03.2020
1024 Clouds 29 1015 51 10000 3.6 270 11:19 17.03.2020
1025 Clouds 26 1015 57 10000 3.6 240 10:54 17.03.2020
1026 Clouds 28 1016 54 10000 3.1 0 10:36 17.03.2020
1027 Clouds 28 1016 54 10000 3.1 0 10:18 17.03.2020
1028 Clouds 26 1016 61 10000 2.1 270 09:41 17.03.2020
1029 Clouds 26 1016 61 10000 3.1 300 09:20 17.03.2020
1030 Clouds 26 1016 61 10000 3.1 300 09:20 17.03.2020
1031 Clouds 26 1016 61 10000 2.1 320 08:50 17.03.2020
1032 Clouds 25 1017 65 10000 1.5 310 08:23 17.03.2020
1033 Clouds 24 1017 69 10000 1.5 0 07:57 17.03.2020
1034 Clouds 24 1017 69 10000 1.5 0 07:38 17.03.2020
1035 Clouds 24 1017 73 10000 1.5 0 07:19 17.03.2020
1036 Clouds 23 1017 78 10000 0.5 0 06:39 17.03.2020
1037 Clouds 20 1016 88 10000 1 0 05:58 17.03.2020
1038 Clouds 17 1015 100 10000 2.1 320 03:58 17.03.2020
1039 Clouds 18 1015 93 10000 2.6 320 02:56 17.03.2020
1040 Clouds 18 1015 100 10000 1.5 330 01:49 17.03.2020
1041 Clouds 18 1015 100 10000 1.5 320 01:25 17.03.2020
1042 Clouds 18 1015 93 10000 2.1 280 00:47 17.03.2020
1043 Clouds 18 1015 100 10000 0.55 108 23:50 16.03.2020
1044 Clouds 19 1015 93 10000 0.5 0 23:32 16.03.2020
1045 Clouds 19 1016 93 10000 0.5 0 22:42 16.03.2020
1046 Clouds 19 1016 93 10000 0.5 0 22:24 16.03.2020
1047 Clouds 19 1016 93 10000 1 0 21:58 16.03.2020
1048 Clouds 19 1016 93 10000 1 0 21:40 16.03.2020
1049 Clouds 20 1016 88 10000 2.6 60 21:22 16.03.2020
1050 Clouds 20 1016 88 10000 1.5 40 20:56 16.03.2020
1051 Clouds 20 1016 88 10000 1.5 40 20:37 16.03.2020
1052 Clouds 20 1017 88 10000 1.5 360 20:19 16.03.2020
1053 Clouds 21 1017 83 10000 1.5 30 19:41 16.03.2020
1054 Clouds 21 1016 83 10000 1 0 19:20 16.03.2020
1055 Clouds 21 1016 77 10000 3.1 50 18:43 16.03.2020
1056 Clouds 22 1015 73 10000 4.1 90 18:22 16.03.2020
1057 Rain 22 1015 73 10000 3.6 80 17:56 16.03.2020
1058 Rain 22 1015 73 10000 3.6 80 17:37 16.03.2020
1059 Rain 22 1015 73 10000 3.1 90 17:18 16.03.2020
1060 Rain 22 1014 73 10000 5.1 110 16:45 16.03.2020
1061 Clouds 23 1014 64 10000 4.6 130 16:27 16.03.2020
1062 Clouds 22 1013 83 10000 3.6 190 15:46 16.03.2020
1063 Rain 24 1013 69 10000 3.1 220 15:28 16.03.2020
1064 Rain 27 1013 51 10000 2.1 140 14:49 16.03.2020
1065 Rain 27 1012 54 10000 3.1 140 14:28 16.03.2020
1066 Clouds 28 1012 51 10000 3.1 110 13:59 16.03.2020
1067 Clouds 28 1012 51 10000 3.1 110 13:41 16.03.2020
1068 Clouds 28 1012 51 10000 2.1 0 13:22 16.03.2020
1069 Clouds 28 1012 48 10000 1.5 0 12:45 16.03.2020
1070 Clouds 28 1013 48 10000 2.1 0 12:24 16.03.2020
1071 Clouds 27 1013 51 10000 2.6 100 11:47 16.03.2020
1072 Clouds 27 1013 51 10000 2.1 0 11:28 16.03.2020
1073 Clouds 27 1014 51 10000 3.1 160 10:56 16.03.2020
1074 Clouds 27 1014 51 10000 3.1 160 10:37 16.03.2020
1075 Clouds 26 1014 50 10000 3.1 150 10:18 16.03.2020
1076 Clouds 26 1015 54 10000 1.5 0 09:42 16.03.2020
1077 Clouds 25 1015 57 10000 2.1 120 09:21 16.03.2020
1078 Clouds 24 1015 53 10000 3.1 130 08:52 16.03.2020
1079 Clouds 24 1016 53 10000 3.1 150 08:25 16.03.2020
1080 Clouds 23 1016 56 10000 3.6 140 07:48 16.03.2020
1081 Clouds 22 1016 56 10000 4.1 160 07:25 16.03.2020
1082 Clouds 21 1016 68 10000 2.6 170 06:52 16.03.2020
1083 Clouds 21 1016 73 10000 1.5 0 06:24 16.03.2020
1084 Clouds 15 1015 100 10000 1.87 149 04:54 16.03.2020
1085 Clouds 16 1014 93 10000 2.1 100 02:41 16.03.2020
1086 Clouds 17 1014 88 10000 2.1 170 00:52 16.03.2020
1087 Clouds 17 1014 88 10000 2.1 170 00:32 16.03.2020
1088 Clouds 17 1015 88 10000 2.1 180 23:46 15.03.2020
1089 Clouds 18 1015 88 10000 2.6 150 23:20 15.03.2020
1090 Clouds 18 1015 88 10000 1.5 130 22:42 15.03.2020
1091 Clouds 18 1015 88 10000 1.5 150 22:22 15.03.2020
1092 Clouds 18 1016 88 10000 2.1 90 21:56 15.03.2020
1093 Clouds 18 1016 88 10000 2.1 90 21:37 15.03.2020
1094 Clouds 18 1016 88 10000 2.6 140 21:18 15.03.2020
1095 Clouds 18 1016 88 10000 2.6 140 20:42 15.03.2020
1096 Clouds 18 1016 88 10000 3.1 120 20:20 15.03.2020
1097 Clouds 18 1016 93 10000 4.1 140 19:56 15.03.2020
1098 Clouds 18 1016 93 10000 4.1 140 19:38 15.03.2020
1099 Clouds 18 1016 93 10000 3.6 110 19:19 15.03.2020
1100 Clouds 19 1016 88 10000 5.1 110 18:55 15.03.2020
1101 Clouds 19 1016 88 10000 5.1 110 18:36 15.03.2020
1102 Clouds 19 1016 93 10000 4.1 140 18:18 15.03.2020
1103 Thunderstorm 19 1015 93 7000 1.5 0 17:40 15.03.2020
1104 -273 0 0 0 0 0 17:21 15.03.2020
1105 Clouds 21 1015 83 10000 3.6 140 16:56 15.03.2020
1106 Clouds 21 1015 83 10000 3.6 140 16:38 15.03.2020
1107 Clouds 21 1015 88 10000 4.6 110 16:19 15.03.2020
1108 Clouds 21 1014 88 10000 3.1 130 15:43 15.03.2020
1109 Clouds 21 1014 88 10000 3.1 130 15:43 15.03.2020
1110 Thunderstorm 20 1014 94 10000 1 0 15:25 15.03.2020
1111 Thunderstorm 20 1014 88 8000 2.6 230 14:55 15.03.2020
1112 Thunderstorm 20 1014 88 8000 2.6 230 14:37 15.03.2020
1113 Thunderstorm 20 1014 88 8000 4.6 270 14:18 15.03.2020
1114 Clouds 25 1013 65 10000 4.6 110 13:42 15.03.2020
1115 Clouds 25 1013 65 10000 3.1 160 13:23 15.03.2020
1116 Clouds 27 1013 61 10000 3.6 150 12:59 15.03.2020
1117 Clouds 27 1013 61 10000 3.6 150 12:39 15.03.2020
1118 Clouds 27 1014 61 10000 3.1 120 12:21 15.03.2020
1119 Clouds 26 1014 65 10000 3.6 90 11:43 15.03.2020
1120 Clouds 26 1014 65 10000 3.6 120 11:24 15.03.2020
1121 Clouds 26 1015 65 10000 4.1 100 10:57 15.03.2020
1122 Clouds 26 1015 65 10000 4.1 100 10:39 15.03.2020
1123 Clouds 25 1016 69 10000 4.6 100 10:20 15.03.2020
1124 Clouds 24 1016 69 10000 3.1 120 09:42 15.03.2020
1125 Clouds 24 1016 69 10000 3.1 120 09:22 15.03.2020
1126 Clouds 24 1016 69 10000 2.1 120 08:58 15.03.2020
1127 Clouds 24 1016 69 10000 2.1 120 08:39 15.03.2020
1128 Clouds 24 1016 69 10000 2.1 120 08:18 15.03.2020
1129 Clouds 22 1017 78 10000 2.1 140 07:44 15.03.2020
1130 Clouds 20 1017 82 10000 4.1 170 06:55 15.03.2020
1131 Clouds 20 1017 82 10000 4.1 200 06:34 15.03.2020
1132 Clouds 19 1016 88 10000 2.1 210 05:43 15.03.2020
1133 Clouds 18 1016 88 10000 1 0 04:47 15.03.2020
1134 Clouds 18 1016 88 10000 2.6 150 04:28 15.03.2020
1135 Clouds 18 1016 88 10000 4.1 170 03:54 15.03.2020
1136 Clouds 18 1015 88 10000 3.6 180 02:47 15.03.2020
1137 Clouds 18 1015 88 10000 3.1 190 01:40 15.03.2020
1138 Clouds 18 1016 88 10000 3.1 180 00:47 15.03.2020
1139 Clouds 18 1017 93 10000 3.1 150 00:27 15.03.2020
1140 Clouds 19 1017 88 10000 2.1 160 23:56 14.03.2020
1141 Clouds 19 1017 88 10000 2.1 160 23:37 14.03.2020
1142 Clouds 19 1017 88 10000 2.1 140 23:18 14.03.2020
1143 Clouds 19 1017 88 10000 2.1 130 22:44 14.03.2020
1144 Clouds 19 1017 88 10000 2.1 130 22:26 14.03.2020
1145 Clouds 19 1018 88 10000 3.1 140 21:56 14.03.2020
1146 Clouds 19 1018 88 10000 3.1 140 21:36 14.03.2020
1147 Clouds 19 1018 82 10000 3.1 140 21:18 14.03.2020
1148 Clouds 19 1018 88 10000 3.1 120 20:58 14.03.2020
1149 Clouds 19 1018 88 10000 3.1 120 20:40 14.03.2020
1150 Clouds 19 1018 82 10000 2.6 130 20:19 14.03.2020
1151 Clouds 19 1018 82 10000 2.1 130 19:43 14.03.2020
1152 Clouds 19 1018 82 10000 2.6 130 19:25 14.03.2020
1153 Clouds 20 1018 82 10000 2.6 150 18:42 14.03.2020
1154 Clouds 21 1018 73 10000 3.6 160 18:24 14.03.2020
1155 Clouds 20 1017 82 10000 3.1 190 17:58 14.03.2020
1156 Clouds 20 1017 82 10000 3.1 190 17:38 14.03.2020
1157 Clouds 20 1017 82 10000 3.6 200 17:20 14.03.2020
1158 Clouds 20 1017 82 10000 3.6 200 17:20 14.03.2020
1159 Clouds 20 1017 82 10000 4.1 200 16:41 14.03.2020
1160 Clouds 21 1017 77 10000 5.1 200 16:23 14.03.2020
1161 Clouds 21 1016 77 10000 5.1 200 15:58 14.03.2020
1162 Clouds 22 1016 73 10000 4.6 180 15:27 14.03.2020
1163 Rain 22 1016 78 10000 7.2 180 14:58 14.03.2020
1164 Rain 22 1016 78 10000 7.2 180 14:36 14.03.2020
1165 Clouds 22 1016 78 10000 7.2 130 14:18 14.03.2020
1166 Rain 23 1016 73 10000 9.3 120 13:42 14.03.2020
1167 Rain 24 1016 73 10000 6.7 120 13:23 14.03.2020
1168 Clouds 24 1016 73 10000 4.1 190 12:47 14.03.2020
1169 Clouds 24 1016 73 10000 3.6 190 12:27 14.03.2020
1170 Clouds 24 1017 73 10000 3.1 110 11:59 14.03.2020
1171 Clouds 24 1017 73 10000 3.1 110 11:39 14.03.2020
1172 Rain 23 1017 78 10000 3.6 110 11:20 14.03.2020
1173 Rain 25 1017 65 10000 3.6 140 10:46 14.03.2020
1174 Clouds 25 1018 61 10000 5.1 160 10:27 14.03.2020
1175 Clouds 25 1018 61 10000 6.2 170 09:58 14.03.2020
1176 Clouds 25 1018 61 10000 6.2 170 09:39 14.03.2020
1177 Clouds 24 1018 64 10000 5.7 170 09:19 14.03.2020
1178 Clouds 25 1018 61 10000 5.1 180 08:45 14.03.2020
1179 Clouds 24 1019 60 10000 4.6 160 08:22 14.03.2020
1180 Clouds 24 1019 57 10000 5.7 170 07:39 14.03.2020
1181 Clouds 23 1019 56 10000 5.7 180 07:20 14.03.2020
1182 Clouds 21 1018 68 10000 4.1 180 06:41 14.03.2020
1183 Clouds 19 1018 77 10000 4.6 190 05:49 14.03.2020
1184 Clouds 17 1018 88 10000 4.1 180 04:43 14.03.2020
1185 Clouds 17 1017 77 10000 4.1 180 03:24 14.03.2020
1186 Clouds 17 1017 72 10000 2.1 160 02:28 14.03.2020
1187 Clouds 17 1017 72 10000 2.6 160 01:20 14.03.2020
1188 Clouds 18 1018 68 10000 4.6 160 23:56 13.03.2020
1189 Clouds 18 1018 77 10000 3.6 170 23:31 13.03.2020
1190 Thunderstorm 18 1019 77 10000 4.1 180 22:52 13.03.2020
1191 Thunderstorm 18 1019 82 10000 3.1 170 22:27 13.03.2020
1192 Thunderstorm 19 1019 77 10000 3.6 0 21:45 13.03.2020
1193 Thunderstorm 19 1019 77 10000 3.6 140 21:22 13.03.2020
1194 Thunderstorm 19 1020 77 10000 4.6 150 20:59 13.03.2020
1195 Thunderstorm 19 1020 77 10000 4.6 150 20:41 13.03.2020
1196 Thunderstorm 19 1020 82 10000 2.6 140 20:21 13.03.2020
1197 Clouds 19 1020 82 10000 3.6 140 19:49 13.03.2020
1198 Clouds 19 1020 82 10000 3.6 130 19:30 13.03.2020
1199 Clouds 20 1019 77 10000 4.1 140 18:51 13.03.2020
1200 Clouds 20 1019 77 10000 4.1 140 18:32 13.03.2020
1201 Clouds 21 1018 73 10000 3.6 140 17:59 13.03.2020
1202 Clouds 21 1018 73 10000 3.6 140 17:41 13.03.2020
1203 Clouds 22 1018 64 10000 4.6 140 17:20 13.03.2020
1204 Clouds 22 1017 64 10000 4.6 140 16:42 13.03.2020
1205 Clouds 23 1017 60 10000 5.1 140 16:24 13.03.2020
1206 Clouds 24 1016 53 10000 5.7 160 15:59 13.03.2020
1207 Clouds 24 1016 53 10000 5.7 160 15:39 13.03.2020
1208 Clouds 25 1016 47 10000 5.7 160 15:20 13.03.2020
1209 Clouds 25 1016 50 10000 5.7 180 14:44 13.03.2020
1210 Clouds 26 1016 50 10000 5.7 170 14:23 13.03.2020
1211 Clouds 26 1016 50 10000 6.2 170 13:58 13.03.2020
1212 Clouds 26 1016 50 10000 6.2 170 13:39 13.03.2020
1213 Clouds 27 1016 47 10000 5.1 150 13:20 13.03.2020
1214 Clouds 26 1016 47 10000 5.7 160 12:55 13.03.2020
1215 Clouds 26 1017 50 10000 6.2 160 12:36 13.03.2020
1216 Clouds 26 1017 50 10000 6.2 160 12:18 13.03.2020
1217 Clouds 26 1017 50 10000 6.7 170 11:42 13.03.2020
1218 Clouds 25 1018 53 10000 6.2 160 11:24 13.03.2020
1219 Clouds 25 1018 57 10000 6.7 170 10:57 13.03.2020
1220 Clouds 25 1018 57 10000 6.7 170 10:38 13.03.2020
1221 Clouds 25 1018 61 10000 6.2 150 10:20 13.03.2020
1222 Clouds 25 1019 61 10000 6.2 150 09:43 13.03.2020
1223 Clouds 24 1019 64 10000 7.2 150 09:24 13.03.2020
1224 Clouds 23 1019 64 10000 6.2 160 08:47 13.03.2020
1225 Clouds 22 1019 68 10000 6.2 160 08:23 13.03.2020
1226 Clouds 21 1019 73 10000 5.7 170 07:58 13.03.2020
1227 Clouds 21 1019 73 10000 5.7 170 07:38 13.03.2020
1228 Clouds 21 1019 73 0 6.2 170 07:18 13.03.2020
1229 Clouds 20 1019 72 10000 5.7 180 06:43 13.03.2020
1230 Clouds 19 1019 72 10000 3.6 170 05:56 13.03.2020
1231 Clouds 19 1019 72 10000 3.6 170 05:37 13.03.2020
1232 Clouds 16 1018 82 10000 2.6 110 04:38 13.03.2020
1233 Clouds 16 1018 87 10000 2.1 140 03:43 13.03.2020
1234 Clouds 16 1017 87 10000 4.6 170 01:47 13.03.2020
1235 Clouds 16 1017 87 10000 5.1 180 01:19 13.03.2020
1236 Clouds 16 1018 87 10000 4.6 190 00:54 13.03.2020
1237 Clouds 17 1018 82 10000 4.1 170 00:27 13.03.2020
1238 Clouds 17 1018 82 10000 4.6 180 23:55 12.03.2020
1239 Clouds 18 1018 77 10000 4.6 170 23:28 12.03.2020
1240 Clouds 18 1019 77 10000 3.6 160 22:57 12.03.2020
1241 Clouds 18 1019 77 10000 3.6 160 22:39 12.03.2020
1242 Clouds 18 1019 82 10000 4.1 170 22:21 12.03.2020
1243 Clouds 18 1019 82 10000 4.1 150 21:45 12.03.2020
1244 Clouds 19 1019 82 10000 4.6 140 21:27 12.03.2020
1245 Clouds 19 1019 82 10000 4.1 150 20:57 12.03.2020
1246 Clouds 19 1019 82 10000 4.1 150 20:38 12.03.2020
1247 Clouds 19 1019 82 10000 4.1 170 20:19 12.03.2020
1248 Clouds 19 1019 82 10000 4.6 150 19:40 12.03.2020
1249 Clouds 20 1019 77 10000 4.1 150 19:20 12.03.2020
1250 Clouds 20 1019 77 10000 4.1 140 18:44 12.03.2020
1251 Clouds 21 1019 73 10000 5.1 130 18:24 12.03.2020
1252 Clouds 21 1019 77 10000 5.1 140 17:57 12.03.2020
1253 Clouds 21 1019 77 10000 5.1 140 17:38 12.03.2020
1254 Clouds 22 1018 68 10000 3.6 140 17:19 12.03.2020
1255 Clouds 22 1018 68 10000 4.1 140 16:55 12.03.2020
1256 Clouds 22 1018 68 10000 4.1 140 16:37 12.03.2020
1257 Clouds 23 1017 60 10000 6.2 130 16:18 12.03.2020
1258 Clouds 25 1017 53 10000 5.1 140 15:44 12.03.2020
1259 Clouds 26 1016 47 10000 5.7 150 15:26 12.03.2020
1260 Clouds 26 1017 47 10000 5.7 150 14:40 12.03.2020
1261 Clouds 26 1016 47 10000 6.2 160 14:21 12.03.2020
1262 Clouds 26 1016 47 10000 6.2 160 14:21 12.03.2020
1263 Clouds 26 1016 54 10000 5.7 160 13:42 12.03.2020
1264 Clouds 27 1017 47 10000 5.7 150 13:23 12.03.2020
1265 Clouds 27 1017 54 10000 5.7 150 12:56 12.03.2020
1266 Clouds 27 1017 54 10000 5.7 150 12:38 12.03.2020
1267 Clouds 27 1017 47 10000 5.1 150 12:20 12.03.2020
1268 Clouds 27 1017 51 10000 5.7 150 11:56 12.03.2020
1269 Clouds 27 1017 51 10000 5.7 150 11:37 12.03.2020
1270 Clouds 27 1018 51 10000 6.7 140 11:19 12.03.2020
1271 Clouds 27 1018 54 10000 6.2 140 10:58 12.03.2020
1272 Clouds 27 1018 54 10000 6.2 140 10:40 12.03.2020
1273 Clouds 26 1018 57 10000 6.2 130 10:22 12.03.2020
1274 Clouds 27 1018 54 10000 5.7 160 09:45 12.03.2020
1275 Clouds 26 1018 57 10000 5.7 160 09:25 12.03.2020
1276 Clouds 25 1019 61 10000 6.2 130 08:43 12.03.2020
1277 Clouds 24 1019 60 10000 6.2 150 08:20 12.03.2020
1278 Clouds 22 1019 68 10000 5.7 170 07:53 12.03.2020
1279 Clouds 24 1019 64 10000 5.7 140 07:24 12.03.2020
1280 Clouds 23 1019 69 10000 5.7 150 06:59 12.03.2020
1281 Clouds 20 1018 77 10000 3.6 160 05:43 12.03.2020
1282 Clouds 19 1018 82 10000 3.6 170 05:25 12.03.2020
1283 Clouds 19 1017 88 10000 3.6 180 02:41 12.03.2020
1284 Clouds 20 1017 77 10000 4.1 170 01:31 12.03.2020
1285 Clouds 20 1017 77 10000 4.1 170 00:45 12.03.2020
1286 Clouds 20 1017 77 10000 4.1 170 00:26 12.03.2020
1287 Clouds 20 1017 77 10000 4.6 170 23:47 11.03.2020
1288 Clouds 20 1018 77 10000 5.1 170 23:24 11.03.2020
1289 Clouds 20 1018 77 10000 3.6 180 22:48 11.03.2020
1290 Clouds 19 1018 82 10000 4.1 160 22:30 11.03.2020
1291 Clouds 19 1018 82 10000 3.6 170 21:59 11.03.2020
1292 Clouds 19 1018 82 10000 3.6 170 21:59 11.03.2020
1293 Clouds 19 1018 82 10000 3.6 170 21:41 11.03.2020
1294 Clouds 20 1018 82 10000 3.6 150 21:22 11.03.2020
1295 Clouds 20 1019 82 10000 3.6 150 20:58 11.03.2020
1296 Clouds 20 1019 82 10000 3.6 150 20:39 11.03.2020
1297 Clouds 20 1018 82 10000 4.6 150 20:19 11.03.2020
1298 Clouds 20 1018 82 10000 4.6 150 19:44 11.03.2020
1299 Clouds 20 1018 77 10000 4.6 130 19:25 11.03.2020
1300 Clouds 20 1019 82 10000 5.1 150 18:59 11.03.2020
1301 Clouds 20 1019 82 10000 5.1 150 18:40 11.03.2020
1302 Clouds 20 1019 82 10000 5.1 150 18:40 11.03.2020
1303 Clouds 20 1018 77 10000 4.6 160 18:21 11.03.2020
1304 Thunderstorm 21 1018 77 10000 6.2 160 17:57 11.03.2020
1305 Thunderstorm 21 1018 77 10000 6.2 160 17:39 11.03.2020
1306 Clouds 21 1018 77 10000 4.6 150 17:20 11.03.2020
1307 Clouds 22 1017 73 10000 5.1 140 16:46 11.03.2020
1308 Clouds 23 1017 64 10000 5.7 170 16:23 11.03.2020
1309 Clouds 24 1016 60 10000 6.2 150 15:46 11.03.2020
1310 Clouds 24 1016 60 10000 6.2 150 15:24 11.03.2020
1311 Clouds 26 1016 57 10000 5.7 150 14:58 11.03.2020
1312 Clouds 26 1016 57 10000 5.7 150 14:40 11.03.2020
1313 Clouds 27 1016 54 10000 5.1 170 14:21 11.03.2020
1314 Clouds 26 1016 54 10000 6.2 150 13:44 11.03.2020
1315 Clouds 25 1016 57 10000 8.2 140 13:26 11.03.2020
1316 Clouds 27 1016 57 10000 5.7 180 12:58 11.03.2020
1317 Clouds 27 1016 57 10000 5.7 180 12:39 11.03.2020
1318 Clouds 27 1017 57 10000 5.1 150 12:19 11.03.2020
1319 Clouds 26 1017 61 10000 6.2 160 11:42 11.03.2020
1320 Clouds 27 1017 54 10000 6.2 150 11:24 11.03.2020
1321 Clouds 26 1017 57 10000 6.2 140 10:57 11.03.2020
1322 Clouds 26 1017 57 10000 6.2 140 10:39 11.03.2020
1323 Clouds 26 1018 61 10000 6.7 130 10:18 11.03.2020
1324 Clouds 25 1018 65 10000 5.7 150 09:42 11.03.2020
1325 Clouds 25 1018 65 10000 6.2 140 09:24 11.03.2020
1326 Clouds 25 1018 69 10000 6.2 150 08:45 11.03.2020
1327 Clouds 23 1018 73 10000 5.1 150 08:27 11.03.2020
1328 Clouds 24 1018 69 10000 5.1 150 07:56 11.03.2020
1329 Clouds 24 1018 69 10000 5.1 150 07:37 11.03.2020
1330 Clouds 22 1018 73 10000 4.6 150 07:18 11.03.2020
1331 Clouds 22 1018 73 10000 4.6 160 06:37 11.03.2020
1332 Clouds 20 1017 88 10000 2.6 160 05:33 11.03.2020
1333 Clouds 18 1017 93 10000 2.1 140 03:39 11.03.2020
1334 Clouds 19 1017 88 10000 3.1 140 01:57 11.03.2020
1335 Clouds 19 1017 88 10000 2.1 160 01:25 11.03.2020
1336 Clouds 19 1017 93 10000 2.1 140 00:45 11.03.2020
1337 Clouds 20 1018 82 10000 4.1 170 23:51 10.03.2020
1338 Clouds 20 1018 82 10000 3.1 180 23:29 10.03.2020
1339 Clouds 20 1018 82 10000 4.1 170 22:59 10.03.2020
1340 Clouds 18 1014 87 0 2.98 138 22:38 10.03.2020
1341 Clouds 20 1019 82 10000 4.6 160 22:19 10.03.2020
1342 Clouds 20 1019 82 10000 4.6 160 22:19 10.03.2020
1343 Clouds 20 1019 82 10000 4.6 160 21:56 10.03.2020
1344 Clouds 20 1019 82 10000 4.6 160 21:38 10.03.2020
1345 Clouds 20 1019 82 10000 4.6 160 21:38 10.03.2020
1346 Clouds 20 1019 82 10000 4.6 160 21:19 10.03.2020
1347 Clouds 20 1018 82 10000 5.1 170 20:54 10.03.2020
1348 Clouds 20 1018 82 10000 5.1 170 20:36 10.03.2020
1349 Clouds 20 1018 82 10000 4.1 160 20:18 10.03.2020
1350 Clouds 20 1018 82 10000 4.6 170 19:42 10.03.2020
1351 Clouds 20 1018 82 10000 4.6 170 19:42 10.03.2020
1352 Clouds 20 1018 82 10000 4.6 170 19:23 10.03.2020
1353 Clouds 20 1017 82 10000 4.1 140 18:58 10.03.2020
1354 Clouds 20 1017 82 10000 4.1 140 18:40 10.03.2020
1355 Clouds 21 1018 77 10000 4.6 160 18:21 10.03.2020
1356 Clouds 21 1017 77 10000 4.6 160 17:56 10.03.2020
1357 Clouds 21 1017 77 10000 4.6 160 17:37 10.03.2020
1358 Clouds 21 1017 77 10000 4.1 140 17:18 10.03.2020
1359 Clouds 22 1016 73 10000 4.6 140 16:38 10.03.2020
1360 Clouds 22 1016 73 10000 5.1 150 16:18 10.03.2020
1361 Clouds 23 1016 64 10000 5.1 150 15:43 10.03.2020
1362 Clouds 24 1016 64 10000 6.2 160 15:20 10.03.2020
1363 Clouds 24 1015 64 10000 6.2 140 14:59 10.03.2020
1364 Clouds 24 1015 64 10000 6.2 140 14:40 10.03.2020
1365 Clouds 27 1015 57 10000 5.7 160 14:19 10.03.2020
1366 Clouds 27 1015 54 10000 5.7 140 13:44 10.03.2020
1367 Clouds 27 1015 57 10000 7.2 170 13:26 10.03.2020
1368 Clouds 27 1016 54 10000 6.7 160 12:56 10.03.2020
1369 Clouds 27 1016 54 10000 6.7 160 12:37 10.03.2020
1370 Clouds 27 1016 57 10000 6.2 130 12:18 10.03.2020
1371 Clouds 27 1016 61 10000 5.7 140 11:42 10.03.2020
1372 Clouds 27 1016 57 10000 6.2 140 11:24 10.03.2020
1373 Clouds 27 1016 57 10000 6.2 150 10:57 10.03.2020
1374 Clouds 27 1016 57 10000 6.2 150 10:39 10.03.2020
1375 Clouds 26 1017 57 10000 6.7 160 10:19 10.03.2020
1376 Clouds 25 1017 65 10000 5.7 170 09:45 10.03.2020
1377 Clouds 25 1018 65 10000 6.2 160 09:20 10.03.2020
1378 Clouds 24 1018 64 10000 5.7 150 08:58 10.03.2020
1379 Clouds 24 1018 64 10000 5.7 150 08:40 10.03.2020
1380 Clouds 23 1018 69 10000 7.2 160 08:20 10.03.2020
1381 Clouds 23 1018 69 10000 5.7 160 07:40 10.03.2020
1382 Clouds 23 1018 69 10000 6.7 160 07:21 10.03.2020
1383 Clouds 23 1018 69 10000 6.7 160 07:21 10.03.2020
1384 Clouds 21 1017 77 10000 5.1 170 06:38 10.03.2020
1385 Clouds 21 1017 77 10000 5.1 170 05:55 10.03.2020
1386 Clouds 21 1017 77 10000 3.6 160 05:35 10.03.2020
1387 Clouds 19 1016 88 10000 3.6 170 04:30 10.03.2020
1388 Clouds 19 1016 88 10000 3.6 180 02:58 10.03.2020
1389 Clouds 18 1016 88 10000 3.1 160 01:32 10.03.2020
1390 Clouds 19 1016 82 10000 3.6 170 00:50 10.03.2020
1391 Clouds 18 1017 88 10000 4.1 160 00:28 10.03.2020
1392 Clouds 18 1017 88 10000 4.1 160 23:42 09.03.2020
1393 Clouds 19 1017 82 10000 4.6 170 23:22 09.03.2020
1394 Clouds 19 1017 82 10000 4.6 170 23:22 09.03.2020
1395 Clouds 19 1017 82 10000 4.6 170 22:57 09.03.2020
1396 Clouds 19 1017 82 10000 4.6 170 22:38 09.03.2020
1397 Clouds 19 1017 82 10000 4.6 170 22:38 09.03.2020
1398 Clouds 19 1018 82 10000 3.6 170 22:19 09.03.2020
1399 Clouds 19 1018 82 10000 4.6 160 21:43 09.03.2020
1400 Clouds 20 1018 82 10000 3.6 160 21:22 09.03.2020
1401 Clouds 20 1018 82 10000 3.1 160 20:58 09.03.2020
1402 Clouds 20 1018 82 10000 3.1 160 20:40 09.03.2020
1403 Clouds 20 1018 82 10000 3.1 160 20:40 09.03.2020
1404 Clouds 20 1018 82 10000 3.6 170 20:21 09.03.2020
1405 Clouds 20 1018 82 10000 4.6 160 19:46 09.03.2020
1406 Clouds 20 1018 82 10000 3.6 160 19:26 09.03.2020
1407 Clouds 20 1018 82 10000 5.1 170 18:59 09.03.2020
1408 Clouds 20 1018 82 10000 5.1 170 18:40 09.03.2020
1409 Clouds 20 1018 82 10000 5.1 170 18:40 09.03.2020
1410 Clouds 21 1017 77 10000 5.1 170 18:21 09.03.2020
1411 Clouds 21 1017 77 10000 4.6 160 17:59 09.03.2020
1412 Clouds 21 1017 77 10000 4.6 160 17:39 09.03.2020
1413 Clouds 21 1016 77 10000 4.6 140 17:20 09.03.2020
1414 Clouds 22 1016 68 10000 4.1 150 16:59 09.03.2020
1415 Clouds 22 1016 68 10000 4.1 150 16:41 09.03.2020
1416 Clouds 22 1016 68 10000 5.1 140 16:22 09.03.2020
1417 Clouds 24 1016 60 10000 6.2 140 15:58 09.03.2020
1418 Clouds 24 1016 60 10000 6.2 140 15:39 09.03.2020
1419 Clouds 24 1015 60 10000 6.2 130 15:21 09.03.2020
1420 Clouds 24 1015 60 10000 6.2 130 15:21 09.03.2020
1421 Clouds 25 1015 57 10000 6.2 140 14:57 09.03.2020
1422 Clouds 25 1015 57 10000 6.2 140 14:38 09.03.2020
1423 Clouds 25 1015 61 10000 6.7 130 14:19 09.03.2020
1424 Clouds 26 1015 57 10000 7.2 150 13:57 09.03.2020
1425 Clouds 26 1015 57 10000 7.2 150 13:38 09.03.2020
1426 Clouds 25 1015 61 10000 6.7 140 13:18 09.03.2020
1427 Clouds 25 1015 61 10000 6.7 130 12:43 09.03.2020
1428 Clouds 26 1016 57 10000 6.7 130 12:22 09.03.2020
1429 Clouds 26 1016 61 10000 7.7 130 11:55 09.03.2020
1430 Clouds 26 1016 61 10000 7.7 130 11:37 09.03.2020
1431 Clouds 26 1016 57 10000 6.7 140 11:19 09.03.2020
1432 Clouds 26 1017 57 10000 8.2 140 10:54 09.03.2020
1433 Clouds 26 1017 57 10000 8.2 140 10:36 09.03.2020
1434 Clouds 25 1017 57 10000 7.7 160 10:18 09.03.2020
1435 Clouds 25 1017 65 10000 5.7 160 09:39 09.03.2020
1436 Clouds 25 1017 61 10000 7.2 160 09:21 09.03.2020
1437 Clouds 24 1018 64 10000 7.7 140 08:44 09.03.2020
1438 Clouds 23 1018 69 10000 6.7 140 08:26 09.03.2020
1439 Clouds 23 1018 69 10000 7.2 140 07:42 09.03.2020
1440 Clouds 23 1017 69 10000 7.2 150 07:22 09.03.2020
1441 Clouds 22 1017 73 10000 5.7 160 06:46 09.03.2020
1442 Clouds 22 1017 78 10000 5.1 160 06:26 09.03.2020
1443 Clouds 21 1017 77 10000 5.1 140 05:57 09.03.2020
1444 Clouds 21 1017 77 10000 5.1 140 05:39 09.03.2020
1445 Clouds 19 1016 82 10000 4.6 140 04:43 09.03.2020
1446 Clouds 19 1016 88 10000 5.1 140 04:22 09.03.2020
1447 Clouds 19 1016 88 10000 4.1 170 03:21 09.03.2020
1448 Clouds 19 1016 88 10000 4.1 150 01:49 09.03.2020
1449 Clouds 19 1016 88 10000 4.6 160 00:39 09.03.2020
1450 Clouds 19 1016 88 10000 4.1 140 00:21 09.03.2020
1451 Clouds 19 1017 88 10000 4.1 140 23:52 08.03.2020
1452 Clouds 19 1017 88 10000 4.1 170 23:25 08.03.2020
1453 Clouds 19 1017 88 10000 4.1 160 22:58 08.03.2020
1454 Clouds 19 1017 88 10000 4.1 160 22:38 08.03.2020
1455 Clouds 19 1017 88 10000 3.6 160 22:20 08.03.2020
1456 Clouds 19 1018 88 10000 4.1 140 21:54 08.03.2020
1457 Clouds 19 1018 88 10000 4.1 140 21:54 08.03.2020
1458 Clouds 19 1018 88 10000 4.1 140 21:54 08.03.2020
1459 Clouds 19 1018 88 10000 4.1 140 21:36 08.03.2020
1460 Clouds 19 1018 88 10000 4.1 140 21:36 08.03.2020
1461 Clouds 20 1018 82 10000 3.1 150 21:18 08.03.2020
1462 Clouds 19 1018 88 10000 2.6 150 20:39 08.03.2020
1463 Clouds 19 1018 88 10000 3.6 110 20:21 08.03.2020
1464 Clouds 19 1018 88 10000 3.6 110 20:21 08.03.2020
1465 Clouds 19 1018 88 10000 4.6 160 19:56 08.03.2020
1466 Clouds 19 1018 88 10000 4.6 160 19:37 08.03.2020
1467 Clouds 19 1018 88 10000 4.6 170 19:18 08.03.2020
1468 Clouds 19 1018 88 10000 4.1 130 18:41 08.03.2020
1469 Clouds 19 1018 88 10000 4.6 160 18:23 08.03.2020
1470 Rain 19 1018 88 10000 4.6 150 17:56 08.03.2020
1471 Clouds 19 1018 93 10000 4.6 150 17:38 08.03.2020
1472 Clouds 19 1018 93 10000 4.6 150 17:18 08.03.2020
1473 Clouds 20 1018 88 10000 3.6 140 16:45 08.03.2020
1474 Rain 19 1017 93 10000 3.1 150 16:27 08.03.2020
1475 Rain 19 1017 100 10000 4.6 150 15:56 08.03.2020
1476 Rain 19 1017 100 10000 4.6 150 15:56 08.03.2020
1477 Rain 19 1017 100 10000 4.6 150 15:37 08.03.2020
1478 Rain 20 1017 94 6000 7.2 150 15:19 08.03.2020
1479 Rain 25 1015 65 10000 6.7 120 14:40 08.03.2020
1480 Clouds 27 1015 57 10000 5.7 140 14:21 08.03.2020
1481 Clouds 27 1015 57 10000 6.2 150 13:56 08.03.2020
1482 Clouds 27 1015 57 10000 6.2 150 13:56 08.03.2020
1483 Clouds 27 1015 57 10000 6.2 150 13:37 08.03.2020
1484 Clouds 27 1015 57 10000 5.1 140 13:18 08.03.2020
1485 Clouds 27 1016 57 10000 5.7 140 12:38 08.03.2020
1486 Clouds 25 1016 65 10000 6.2 130 12:19 08.03.2020
1487 Clouds 26 1016 57 10000 6.2 140 11:44 08.03.2020
1488 Clouds 26 1017 61 10000 6.2 160 11:25 08.03.2020
1489 Clouds 26 1017 61 10000 5.7 150 10:59 08.03.2020
1490 Clouds 26 1017 61 10000 5.7 150 10:40 08.03.2020
1491 Clouds 26 1017 61 10000 6.2 160 10:22 08.03.2020
1492 Clouds 25 1018 65 10000 6.2 160 09:40 08.03.2020
1493 Clouds 24 1018 73 10000 5.7 180 09:22 08.03.2020
1494 Clouds 25 1018 65 10000 6.2 140 08:49 08.03.2020
1495 Clouds 25 1018 65 10000 6.2 140 08:49 08.03.2020
1496 Clouds 24 1018 69 10000 5.7 150 08:24 08.03.2020
1497 Clouds 23 1018 73 10000 6.2 140 07:50 08.03.2020
1498 Clouds 23 1018 69 10000 4.6 140 07:28 08.03.2020
1499 Clouds 21 1018 77 10000 5.7 160 06:51 08.03.2020
1500 Clouds 20 1018 82 10000 4.6 160 06:33 08.03.2020
1501 Clouds 20 1018 82 10000 4.6 160 05:49 08.03.2020
1502 Clouds 20 1017 82 10000 4.6 160 03:52 08.03.2020
1503 Clouds 20 1017 82 10000 6.2 160 02:59 08.03.2020
1504 Clouds 20 1016 88 10000 4.1 170 01:38 08.03.2020
1505 Drizzle 20 1016 88 10000 3.1 160 01:19 08.03.2020
1506 Clouds 20 1016 88 10000 3.6 150 00:41 08.03.2020
1507 Clouds 20 1016 94 10000 2.6 190 23:59 07.03.2020
1508 Clouds 20 1016 94 10000 2.6 190 23:41 07.03.2020
1509 Clouds 20 1017 88 10000 2.1 170 23:19 07.03.2020
1510 Clouds 20 1018 94 10000 2.6 160 22:38 07.03.2020
1511 Clouds 20 1018 94 10000 2.6 160 22:19 07.03.2020
1512 Clouds 20 1018 88 10000 2.1 140 21:45 07.03.2020
1513 Clouds 20 1018 88 10000 2.6 120 21:24 07.03.2020
1514 Clouds 20 1018 88 10000 2.6 140 20:41 07.03.2020
1515 Clouds 20 1018 88 10000 3.6 150 20:22 07.03.2020
1516 Clouds 20 1018 94 10000 3.6 130 19:55 07.03.2020
1517 Clouds 20 1018 94 10000 3.6 130 19:36 07.03.2020
1518 Clouds 20 1018 94 10000 3.1 150 19:18 07.03.2020
1519 Thunderstorm 21 1017 88 10000 4.6 130 18:40 07.03.2020
1520 Thunderstorm 21 1017 88 10000 4.6 130 18:21 07.03.2020
1521 Thunderstorm 21 1016 88 10000 4.6 160 17:42 07.03.2020
1522 Thunderstorm 21 1016 88 10000 5.1 140 17:20 07.03.2020
1523 Thunderstorm 21 1016 83 10000 6.2 150 16:59 07.03.2020
1524 Thunderstorm 21 1016 83 10000 6.2 150 16:40 07.03.2020
1525 Clouds 21 1016 88 10000 5.7 140 16:22 07.03.2020
1526 Rain 21 1016 94 8000 5.1 160 15:55 07.03.2020
1527 Rain 21 1016 94 8000 5.1 160 15:37 07.03.2020
1528 Thunderstorm 20 1015 94 5000 6.7 160 15:19 07.03.2020
1529 Thunderstorm 23 1014 78 10000 8.7 170 14:45 07.03.2020
1530 Thunderstorm 25 1014 78 10000 3.6 140 14:24 07.03.2020
1531 Thunderstorm 23 1013 83 10000 3.6 170 13:57 07.03.2020
1532 Thunderstorm 23 1013 83 10000 3.6 170 13:38 07.03.2020
1533 Thunderstorm 29 1014 58 10000 5.1 140 13:18 07.03.2020
1534 Clouds 29 1014 54 10000 5.1 150 12:40 07.03.2020
1535 Clouds 28 1014 58 10000 4.6 150 12:19 07.03.2020
1536 Clouds 28 1014 58 10000 4.6 170 11:56 07.03.2020
1537 Clouds 28 1014 58 10000 4.6 170 11:37 07.03.2020
1538 Clouds 31 1015 52 10000 5.1 120 11:19 07.03.2020
1539 Clouds 30 1015 51 10000 4.6 170 10:39 07.03.2020
1540 Clouds 28 1015 61 10000 5.1 190 10:20 07.03.2020
1541 Clouds 29 1016 58 10000 5.1 140 09:42 07.03.2020
1542 Clouds 28 1016 61 10000 5.7 140 09:20 07.03.2020
1543 Clouds 26 1016 65 10000 5.7 120 08:59 07.03.2020
1544 Clouds 26 1016 65 10000 5.7 120 08:41 07.03.2020
1545 Clouds 26 1017 65 10000 4.6 160 08:20 07.03.2020
1546 Clouds 26 1017 65 10000 4.6 160 08:20 07.03.2020
1547 Clouds 24 1017 73 10000 5.7 180 07:48 07.03.2020
1548 Clouds 24 1017 73 10000 4.6 170 07:22 07.03.2020
1549 Clouds 23 1017 73 10000 3.6 180 06:54 07.03.2020
1550 Clouds 23 1017 73 10000 3.6 180 06:29 07.03.2020
1551 Clouds 23 1017 73 10000 3.6 180 05:45 07.03.2020
1552 Clouds 20 1016 88 10000 2.6 150 04:25 07.03.2020
1553 Clouds 20 1015 88 10000 2.6 160 02:46 07.03.2020
1554 Clouds 20 1015 88 10000 2.6 160 02:18 07.03.2020
1555 Clouds 21 1015 83 10000 3.1 160 01:19 07.03.2020
1556 Clouds 20 1016 94 10000 2.1 140 00:28 07.03.2020
1557 Clouds 21 1016 88 10000 2.1 140 23:59 06.03.2020
1558 Clouds 21 1016 88 10000 2.1 140 23:40 06.03.2020
1559 Clouds 21 1017 88 10000 2.1 100 23:22 06.03.2020
1560 Clouds 21 1017 88 10000 2.1 100 22:46 06.03.2020
1561 Clouds 21 1017 88 10000 2.1 150 22:20 06.03.2020
1562 Clouds 21 1017 88 10000 2.6 170 21:49 06.03.2020
1563 Clouds 21 1017 88 10000 2.1 160 21:21 06.03.2020
1564 Clouds 21 1017 88 10000 1 0 20:46 06.03.2020
1565 Clouds 21 1017 88 10000 2.1 140 20:23 06.03.2020
1566 Clouds 22 1017 83 10000 3.1 100 19:59 06.03.2020
1567 Clouds 22 1017 83 10000 3.1 100 19:41 06.03.2020
1568 Clouds 22 1017 83 10000 3.1 100 19:22 06.03.2020
1569 Clouds 23 1017 73 10000 2.1 70 18:42 06.03.2020
1570 Clouds 23 1017 73 10000 2.6 60 18:20 06.03.2020
1571 Clouds 23 1016 73 10000 3.1 60 17:57 06.03.2020
1572 Clouds 23 1016 73 10000 3.1 60 17:39 06.03.2020
1573 Clouds 23 1016 73 10000 3.1 60 17:39 06.03.2020
1574 Clouds 23 1015 73 10000 1.86 92 17:20 06.03.2020
1575 Clouds 24 1015 64 10000 1.86 92 16:54 06.03.2020
1576 Clouds 26 1015 57 10000 1.86 92 16:36 06.03.2020
1577 Clouds 26 1015 57 10000 1.86 92 16:18 06.03.2020
1578 Clouds 28 1015 48 10000 1 0 15:42 06.03.2020
1579 Clouds 28 1015 48 10000 3.6 100 15:22 06.03.2020
1580 Clouds 29 1015 45 10000 1 0 14:40 06.03.2020
1581 Clouds 29 1015 48 10000 3.1 80 14:22 06.03.2020
1582 Clouds 29 1015 42 10000 2.6 170 13:55 06.03.2020
1583 Clouds 29 1015 42 10000 2.6 170 13:36 06.03.2020
1584 Clouds 29 1015 45 10000 3.1 180 13:18 06.03.2020
1585 Clouds 29 1016 45 10000 3.1 160 12:40 06.03.2020
1586 Clouds 28 1016 48 10000 3.1 160 12:20 06.03.2020
1587 Clouds 29 1016 51 10000 3.6 0 11:59 06.03.2020
1588 Clouds 29 1016 51 10000 3.6 0 11:40 06.03.2020
1589 Clouds 28 1016 51 10000 4.1 150 11:20 06.03.2020
1590 Clouds 27 1016 57 10000 4.1 150 10:42 06.03.2020
1591 Clouds 27 1017 57 10000 4.1 170 10:21 06.03.2020
1592 Clouds 26 1017 57 10000 4.6 190 09:58 06.03.2020
1593 Clouds 26 1017 57 10000 4.6 190 09:39 06.03.2020
1594 Clouds 26 1018 61 10000 5.7 200 09:21 06.03.2020
1595 Clouds 24 1018 64 10000 4.6 180 08:47 06.03.2020
1596 Clouds 24 1018 60 10000 6.7 180 08:28 06.03.2020
1597 Clouds 24 1018 60 10000 5.7 180 07:59 06.03.2020
1598 Clouds 24 1018 60 10000 5.7 180 07:39 06.03.2020
1599 Clouds 22 1018 56 10000 5.1 170 07:20 06.03.2020
1600 Clouds 21 1018 60 10000 4.1 160 06:41 06.03.2020
1601 Clouds 19 1018 72 10000 2.1 130 05:52 06.03.2020
1602 Clouds 18 1018 77 10000 2.6 140 05:31 06.03.2020
1603 Clouds 16 1017 87 10000 2.1 130 04:59 06.03.2020
1604 Clouds 15 1017 93 10000 3.1 120 03:46 06.03.2020
1605 Clouds 16 1017 87 10000 3.6 180 01:42 06.03.2020
1606 Clouds 16 1017 87 10000 4.6 180 01:23 06.03.2020
1607 Clouds 17 1017 82 10000 4.6 170 00:39 06.03.2020
1608 Clouds 17 1017 88 10000 2.6 150 00:19 06.03.2020
1609 Clouds 17 1018 88 10000 2.6 120 23:42 05.03.2020
1610 Clouds 18 1018 82 10000 3.1 130 23:22 05.03.2020
1611 Clouds 18 1018 82 10000 3.1 150 22:41 05.03.2020
1612 Clouds 18 1018 82 10000 3.6 150 22:23 05.03.2020
1613 Clouds 18 1019 82 10000 5.1 150 21:58 05.03.2020
1614 Clouds 18 1019 82 10000 5.1 150 21:39 05.03.2020
1615 Clouds 18 1019 88 10000 3.1 160 21:21 05.03.2020
1616 Clouds 19 1019 82 10000 2.6 160 20:59 05.03.2020
1617 Clouds 19 1019 82 10000 2.6 160 20:41 05.03.2020
1618 Clouds 19 1020 82 10000 3.1 140 20:20 05.03.2020
1619 Clouds 19 1020 82 10000 4.1 140 19:58 05.03.2020
1620 Clouds 19 1020 82 10000 4.1 140 19:39 05.03.2020
1621 Clouds 19 1020 82 10000 4.1 140 19:39 05.03.2020
1622 Clouds 19 1020 82 10000 4.1 140 19:39 05.03.2020
1623 Clouds 20 1020 77 10000 4.1 140 19:19 05.03.2020
1624 Clouds 20 1019 77 10000 5.1 140 18:55 05.03.2020
1625 Clouds 20 1019 77 10000 5.1 140 18:36 05.03.2020
1626 Clouds 20 1019 77 10000 5.7 160 18:18 05.03.2020
1627 Clouds 20 1019 77 10000 5.7 150 17:42 05.03.2020
1628 Clouds 21 1018 77 10000 5.7 150 17:22 05.03.2020
1629 Clouds 22 1018 73 10000 6.2 130 16:58 05.03.2020
1630 Clouds 22 1018 73 10000 6.2 130 16:40 05.03.2020
1631 Clouds 23 1017 69 10000 6.7 140 16:21 05.03.2020
1632 Clouds 24 1017 64 10000 6.2 140 15:45 05.03.2020
1633 Clouds 26 1016 54 10000 5.1 140 15:24 05.03.2020
1634 Clouds 25 1016 53 10000 4.6 150 14:59 05.03.2020
1635 Clouds 25 1016 53 10000 4.6 150 14:41 05.03.2020
1636 Clouds 26 1016 54 10000 4.6 160 14:21 05.03.2020
1637 Clouds 27 1016 54 10000 4.6 170 13:56 05.03.2020
1638 Clouds 27 1016 54 10000 4.6 170 13:38 05.03.2020
1639 Clouds 26 1016 57 10000 5.1 160 13:19 05.03.2020
1640 Clouds 26 1016 57 10000 6.7 180 12:41 05.03.2020
1641 Clouds 26 1017 57 10000 6.7 180 12:20 05.03.2020
1642 Clouds 25 1017 57 10000 5.1 170 11:57 05.03.2020
1643 Clouds 25 1017 57 10000 5.1 170 11:57 05.03.2020
1644 Clouds 25 1017 57 10000 5.1 170 11:37 05.03.2020
1645 Clouds 24 1018 64 10000 6.2 180 11:19 05.03.2020
1646 Clouds 23 1018 69 10000 7.7 170 10:57 05.03.2020
1647 Clouds 23 1018 69 10000 7.7 170 10:57 05.03.2020
1648 Clouds 23 1018 69 10000 7.7 170 10:39 05.03.2020
1649 Clouds 24 1018 64 10000 6.2 150 10:21 05.03.2020
1650 Clouds 24 1019 64 10000 6.7 150 09:46 05.03.2020
1651 Clouds 24 1019 64 10000 6.7 160 09:28 05.03.2020
1652 Clouds 23 1019 69 10000 6.2 160 08:49 05.03.2020
1653 Clouds 23 1019 69 10000 6.2 160 08:49 05.03.2020
1654 Clouds 22 1020 73 10000 4.6 170 08:31 05.03.2020
1655 Clouds 21 1020 77 10000 4.1 190 07:56 05.03.2020
1656 Clouds 21 1020 77 10000 4.1 190 07:36 05.03.2020
1657 Clouds 21 1020 73 10000 5.1 170 07:18 05.03.2020
1658 Clouds 20 1020 77 10000 4.6 170 06:43 05.03.2020
1659 Clouds 20 1020 72 10000 5.1 170 06:19 05.03.2020
1660 Clouds 19 1020 77 10000 5.1 180 05:33 05.03.2020
1661 Clouds 18 1019 82 10000 3.6 170 04:23 05.03.2020
1662 Clouds 17 1019 82 10000 4.1 170 03:58 05.03.2020
1663 Clouds 17 1019 77 10000 3.1 170 02:31 05.03.2020
1664 Clouds 18 1019 77 10000 3.6 160 01:26 05.03.2020
1665 Clouds 18 1019 82 10000 3.6 140 00:44 05.03.2020
1666 Clouds 19 1019 82 10000 3.6 150 23:56 04.03.2020
1667 Clouds 19 1019 82 10000 3.6 150 23:56 04.03.2020
1668 Clouds 19 1019 82 10000 3.6 150 23:38 04.03.2020
1669 Clouds 20 1019 77 10000 5.1 140 23:20 04.03.2020
1670 Clouds 20 1019 82 10000 4.1 140 22:54 04.03.2020
1671 Clouds 20 1019 82 10000 4.1 140 22:36 04.03.2020
1672 Clouds 20 1019 82 10000 3.6 140 22:18 04.03.2020
1673 Clouds 20 1019 82 10000 2.6 140 21:41 04.03.2020
1674 Clouds 20 1020 82 10000 3.6 160 21:21 04.03.2020
1675 Clouds 21 1020 77 10000 3.6 150 20:57 04.03.2020
1676 Clouds 21 1020 77 10000 3.6 150 20:39 04.03.2020
1677 Clouds 21 1020 77 10000 3.1 140 20:21 04.03.2020
1678 Clouds 21 1020 77 10000 3.1 160 19:42 04.03.2020
1679 Clouds 21 1020 77 10000 3.6 120 19:24 04.03.2020
1680 Clouds 21 1020 77 10000 4.6 130 18:58 04.03.2020
1681 Clouds 21 1020 77 10000 4.6 130 18:40 04.03.2020
1682 Clouds 21 1019 77 10000 4.6 110 18:22 04.03.2020
1683 Clouds 22 1019 73 10000 5.1 120 17:56 04.03.2020
1684 Clouds 22 1019 73 10000 5.1 120 17:38 04.03.2020
1685 Clouds 22 1019 68 10000 6.2 120 17:19 04.03.2020
1686 Clouds 23 1018 69 10000 6.2 110 16:44 04.03.2020
1687 Clouds 24 1018 60 10000 5.7 120 16:26 04.03.2020
1688 Clouds 24 1018 60 10000 5.7 110 15:59 04.03.2020
1689 Clouds 24 1018 60 10000 5.7 110 15:41 04.03.2020
1690 Clouds 26 1017 50 10000 5.1 110 15:23 04.03.2020
1691 Clouds 26 1017 54 10000 4.6 150 14:55 04.03.2020
1692 Clouds 26 1017 54 10000 4.6 150 14:37 04.03.2020
1693 Clouds 27 1017 51 10000 4.6 110 14:18 04.03.2020
1694 Clouds 27 1017 51 10000 4.6 100 13:56 04.03.2020
1695 Clouds 27 1017 51 10000 4.6 100 13:37 04.03.2020
1696 Clouds 27 1017 51 10000 4.6 110 13:19 04.03.2020
1697 Clouds 27 1018 51 10000 5.1 110 12:44 04.03.2020
1698 Clouds 28 1018 51 10000 4.1 130 12:25 04.03.2020
1699 Clouds 27 1018 51 10000 3.1 130 11:56 04.03.2020
1700 Clouds 27 1018 51 10000 3.1 130 11:37 04.03.2020
1701 Clouds 26 1018 57 10000 4.1 160 11:19 04.03.2020
1702 Clouds 26 1018 57 10000 4.1 160 11:19 04.03.2020
1703 Clouds 26 1019 57 10000 3.6 0 10:47 04.03.2020
1704 Clouds 26 1019 57 10000 4.1 0 10:26 04.03.2020
1705 Clouds 25 1019 61 10000 3.1 150 09:58 04.03.2020
1706 Clouds 25 1019 61 10000 3.1 150 09:40 04.03.2020
1707 Clouds 25 1020 65 10000 3.1 110 09:20 04.03.2020
1708 Clouds 24 1020 69 10000 3.6 120 08:43 04.03.2020
1709 Clouds 23 1020 73 10000 4.1 110 08:24 04.03.2020
1710 Clouds 21 1020 77 10000 4.1 110 07:48 04.03.2020
1711 Clouds 21 1020 83 10000 4.1 140 07:30 04.03.2020
1712 Clouds 21 1020 83 10000 3.6 140 06:54 04.03.2020
1713 Clouds 21 1020 83 10000 3.6 140 06:54 04.03.2020
1714 Clouds 20 1020 88 10000 3.1 130 06:27 04.03.2020
1715 Clouds 20 1020 88 10000 2.6 130 05:59 04.03.2020
1716 Clouds 20 1020 88 10000 2.6 130 05:41 04.03.2020
1717 Clouds 19 1019 88 10000 3.1 70 03:58 04.03.2020
1718 Clouds 19 1019 88 10000 3.1 70 03:37 04.03.2020
1719 Clouds 19 1019 93 10000 2.1 80 02:59 04.03.2020
1720 Clouds 19 1019 93 10000 2.1 80 02:31 04.03.2020
1721 Clouds 18 1018 100 10000 2.1 120 01:57 04.03.2020
1722 Clouds 18 1018 100 10000 2.1 120 01:37 04.03.2020
1723 Clouds 19 1019 93 10000 2.6 90 00:42 04.03.2020
1724 Rain 19 1019 93 10000 2.6 100 00:24 04.03.2020
1725 Rain 19 1019 93 10000 2.1 130 23:44 03.03.2020
1726 Rain 19 1019 93 8000 1 0 23:24 03.03.2020
1727 Rain 19 1020 93 8000 1.5 170 22:56 03.03.2020
1728 Rain 19 1020 93 8000 1.5 170 22:37 03.03.2020
1729 Rain 20 1020 88 10000 2.1 140 22:19 03.03.2020
1730 Clouds 20 1020 88 10000 2.1 120 21:55 03.03.2020
1731 Clouds 20 1020 88 10000 2.1 120 21:36 03.03.2020
1732 Thunderstorm 20 1020 82 10000 3.6 130 21:18 03.03.2020
1733 Thunderstorm 20 1020 82 10000 4.6 120 20:40 03.03.2020
1734 Thunderstorm 20 1020 88 10000 3.1 140 20:19 03.03.2020
1735 Thunderstorm 21 1020 83 10000 3.6 130 19:56 03.03.2020
1736 Thunderstorm 21 1020 83 10000 3.6 130 19:37 03.03.2020
1737 Thunderstorm 21 1020 83 10000 3.6 130 19:37 03.03.2020
1738 Thunderstorm 21 1020 83 10000 3.6 130 19:37 03.03.2020
1739 Thunderstorm 21 1020 83 10000 3.6 130 19:37 03.03.2020
1740 Clouds 21 1020 83 10000 4.6 100 19:19 03.03.2020
1741 Clouds 20 1020 88 10000 4.6 100 18:57 03.03.2020
1742 Clouds 20 1020 88 10000 4.6 100 18:57 03.03.2020
1743 Clouds 20 1020 88 10000 4.6 100 18:39 03.03.2020
1744 Clouds 21 1019 83 10000 5.7 110 18:19 03.03.2020
1745 Clouds 22 1019 78 10000 5.7 120 17:55 03.03.2020
1746 Clouds 22 1019 78 10000 5.7 120 17:36 03.03.2020
1747 Clouds 22 1019 78 10000 4.6 120 17:18 03.03.2020
1748 Clouds 23 1018 73 10000 5.7 100 16:55 03.03.2020
1749 Clouds 23 1018 73 10000 5.7 100 16:36 03.03.2020
1750 Clouds 24 1017 69 10000 5.7 120 16:18 03.03.2020
1751 Clouds 25 1017 65 10000 2.6 170 15:41 03.03.2020
1752 Clouds 25 1017 65 10000 3.1 160 15:21 03.03.2020
1753 Clouds 25 1017 65 10000 3.1 160 15:21 03.03.2020
1754 Clouds 27 1017 57 10000 2.1 140 14:54 03.03.2020
1755 Clouds 27 1017 57 10000 2.1 140 14:54 03.03.2020
1756 Clouds 27 1017 57 10000 2.1 140 14:36 03.03.2020
1757 Clouds 27 1017 57 10000 2.1 140 14:18 03.03.2020
1758 Clouds 26 1017 57 10000 2.1 120 13:42 03.03.2020
1759 Clouds 28 1017 51 10000 2.1 0 13:24 03.03.2020
1760 Clouds 26 1017 61 10000 2.6 180 12:55 03.03.2020
1761 Clouds 26 1017 61 10000 2.6 180 12:36 03.03.2020
1762 Clouds 28 1017 54 10000 2.1 0 12:18 03.03.2020
1763 Clouds 26 1017 57 10000 2.6 120 11:38 03.03.2020
1764 Clouds 26 1018 61 10000 2.6 160 11:19 03.03.2020
1765 Clouds 26 1018 61 10000 2.6 160 11:19 03.03.2020
1766 Clouds 26 1018 57 10000 3.1 120 10:57 03.03.2020
1767 Clouds 26 1018 57 10000 3.1 120 10:39 03.03.2020
1768 Clouds 25 1019 61 10000 3.6 160 10:19 03.03.2020
1769 Clouds 25 1019 61 10000 3.6 120 09:45 03.03.2020
1770 Clouds 24 1019 69 10000 3.1 170 09:23 03.03.2020
1771 Clouds 24 1020 69 10000 2.1 150 08:59 03.03.2020
1772 Clouds 24 1020 69 10000 2.1 150 08:39 03.03.2020
1773 Clouds 24 1020 64 10000 3.1 140 08:21 03.03.2020
1774 Clouds 23 1020 69 10000 3.6 160 07:44 03.03.2020
1775 Clouds 22 1020 73 10000 3.6 140 07:23 03.03.2020
1776 Clouds 21 1020 77 10000 3.6 140 06:54 03.03.2020
1777 Clouds 20 1019 82 10000 3.6 170 06:27 03.03.2020
1778 Clouds 20 1019 82 10000 3.1 170 05:48 03.03.2020
1779 Clouds 20 1019 82 10000 2.1 160 05:29 03.03.2020
1780 Clouds 20 1018 82 10000 2.1 140 04:37 03.03.2020
1781 Clouds 19 1017 88 10000 2.6 170 01:40 03.03.2020
1782 Clouds 19 1017 88 10000 2.1 140 00:59 03.03.2020
1783 Clouds 19 1017 88 10000 2.1 140 00:36 03.03.2020
1784 Clouds 19 1017 88 10000 3.1 120 00:18 03.03.2020
1785 Clouds 19 1017 88 10000 2.1 140 23:41 02.03.2020
1786 Clouds 19 1018 88 10000 2.1 140 23:22 02.03.2020
1787 Clouds 19 1018 88 10000 3.1 120 22:55 02.03.2020
1788 Clouds 19 1018 88 10000 3.1 120 22:37 02.03.2020
1789 Clouds 19 1018 88 10000 2.6 120 22:19 02.03.2020
1790 Clouds 19 1019 88 10000 2.6 140 21:42 02.03.2020
1791 Clouds 19 1019 88 10000 2.1 160 21:24 02.03.2020
1792 Clouds 19 1019 88 10000 2.1 160 21:24 02.03.2020
1793 Rain 19 1019 88 10000 2.6 170 20:59 02.03.2020
1794 Rain 19 1019 88 10000 2.6 170 20:41 02.03.2020
1795 Rain 20 1019 77 10000 3.1 170 20:21 02.03.2020
1796 Clouds 20 1019 77 10000 4.1 140 19:57 02.03.2020
1797 Clouds 20 1019 77 10000 4.1 140 19:39 02.03.2020
1798 Clouds 20 1018 77 10000 4.1 150 19:20 02.03.2020
1799 Clouds 21 1018 73 10000 3.6 150 18:55 02.03.2020
1800 Clouds 21 1018 73 10000 3.6 150 18:55 02.03.2020
1801 Clouds 21 1018 73 10000 3.6 150 18:37 02.03.2020
1802 Thunderstorm 21 1017 73 10000 4.6 130 18:18 02.03.2020
1803 Thunderstorm 21 1017 73 10000 5.7 120 17:55 02.03.2020
1804 Thunderstorm 21 1017 73 10000 5.7 120 17:37 02.03.2020
1805 Thunderstorm 21 1017 73 10000 5.7 110 17:18 02.03.2020
1806 Clouds 21 1016 73 10000 4.1 100 16:41 02.03.2020
1807 Clouds 23 1016 69 10000 3.6 80 16:22 02.03.2020
1808 Clouds 24 1015 69 10000 2.6 80 15:45 02.03.2020
1809 Clouds 23 1015 69 10000 4.1 100 15:22 02.03.2020
1810 Clouds 25 1015 65 10000 3.1 70 14:57 02.03.2020
1811 Clouds 25 1015 65 10000 3.1 70 14:37 02.03.2020
1812 Clouds 25 1015 65 10000 3.1 80 14:19 02.03.2020
1813 Clouds 25 1015 65 10000 4.1 70 13:44 02.03.2020
1814 Rain 25 1015 61 10000 3.1 80 13:19 02.03.2020
1815 Rain 25 1015 61 10000 3.1 80 12:57 02.03.2020
1816 Rain 25 1015 61 10000 3.1 80 12:57 02.03.2020
1817 Rain 25 1015 61 10000 3.1 80 12:39 02.03.2020
1818 Clouds 25 1015 65 10000 3.1 50 12:18 02.03.2020
1819 Rain 23 1016 69 10000 2.1 60 11:38 02.03.2020
1820 Clouds 23 1016 69 10000 2.1 80 11:19 02.03.2020
1821 Clouds 25 1016 65 10000 2.1 60 10:55 02.03.2020
1822 Clouds 25 1016 65 10000 2.1 60 10:36 02.03.2020
1823 Clouds 24 1016 64 10000 3.1 60 10:18 02.03.2020
1824 Clouds 25 1017 65 10000 2.1 0 09:45 02.03.2020
1825 Clouds 24 1017 64 10000 1.5 130 09:26 02.03.2020
1826 Clouds 25 1017 65 10000 2.1 0 08:47 02.03.2020
1827 Clouds 23 1017 69 10000 2.6 150 08:22 02.03.2020
1828 Clouds 23 1018 73 10000 3.1 180 07:44 02.03.2020
1829 Clouds 22 1018 73 10000 3.6 150 07:20 02.03.2020
1830 Clouds 21 1017 77 10000 3.6 150 06:49 02.03.2020
1831 Clouds 19 1017 82 10000 3.6 140 05:57 02.03.2020
1832 Clouds 18 1016 88 10000 3.1 140 04:56 02.03.2020
1833 Clouds 19 1015 88 10000 2.6 140 03:25 02.03.2020
1834 Clouds 19 1014 93 10000 3.6 90 02:49 02.03.2020
1835 Clouds 19 1014 93 10000 3.6 90 02:49 02.03.2020
1836 Clouds 19 1014 93 10000 4.1 90 01:54 02.03.2020
1837 Clouds 19 1014 93 10000 4.1 90 01:33 02.03.2020
1838 Clouds 19 1015 93 10000 2.1 160 00:24 02.03.2020
1839 Clouds 19 1015 93 10000 1.5 0 23:59 01.03.2020
1840 Clouds 19 1015 93 10000 1.5 0 23:41 01.03.2020
1841 Clouds 19 1015 93 10000 1.5 0 23:20 01.03.2020
1842 Rain 18 1015 100 10000 0.5 0 22:43 01.03.2020
1843 Rain 18 1015 100 10000 2.1 30 22:21 01.03.2020
1844 Rain 18 1015 100 10000 2.1 30 22:21 01.03.2020
1845 Rain 18 1016 93 10000 2.1 110 21:57 01.03.2020
1846 Rain 18 1016 93 10000 2.1 110 21:57 01.03.2020
1847 Rain 18 1016 93 10000 2.1 110 21:38 01.03.2020
1848 Clouds 18 1016 93 10000 2.1 100 21:19 01.03.2020
1849 Clouds 18 1016 93 10000 2.6 70 20:44 01.03.2020
1850 Rain 19 1016 93 10000 4.6 110 20:25 01.03.2020
1851 Rain 19 1016 93 10000 5.1 120 19:57 01.03.2020
1852 Rain 19 1016 93 10000 5.1 120 19:39 01.03.2020
1853 Rain 19 1016 93 4000 5.7 180 19:21 01.03.2020
1854 Thunderstorm 20 1015 94 10000 2.6 220 18:41 01.03.2020
1855 Rain 20 1015 94 10000 3.1 190 18:20 01.03.2020
1856 Thunderstorm 20 1015 94 8000 4.1 240 17:58 01.03.2020
1857 Thunderstorm 20 1015 94 8000 4.1 240 17:40 01.03.2020
1858 Thunderstorm 23 1014 73 8000 2.1 60 17:21 01.03.2020
1859 Thunderstorm 23 1013 73 10000 3.6 70 16:58 01.03.2020
1860 Thunderstorm 23 1013 73 10000 3.6 70 16:39 01.03.2020
1861 Clouds 24 1013 69 10000 3.6 80 16:19 01.03.2020
1862 Clouds 25 1012 65 10000 5.1 60 15:58 01.03.2020
1863 Clouds 25 1012 65 10000 5.1 60 15:40 01.03.2020
1864 Clouds 27 1012 61 10000 3.1 60 15:20 01.03.2020
1865 Clouds 29 1012 42 10000 2.1 340 14:57 01.03.2020
1866 Clouds 29 1012 42 10000 2.1 340 14:38 01.03.2020
1867 Clouds 30 1012 45 10000 2.1 0 14:20 01.03.2020
1868 Clouds 29 1012 45 10000 1.5 0 13:56 01.03.2020
1869 Clouds 29 1012 45 10000 1.5 0 13:37 01.03.2020
1870 Clouds 28 1012 48 10000 1.5 0 13:19 01.03.2020
1871 Clouds 28 1012 51 10000 2.6 30 12:43 01.03.2020
1872 Clouds 27 1012 54 10000 2.1 0 12:21 01.03.2020
1873 Clouds 28 1012 48 10000 2.6 250 11:58 01.03.2020
1874 Clouds 28 1012 48 10000 2.6 250 11:39 01.03.2020
1875 Clouds 27 1013 51 10000 1.5 0 11:18 01.03.2020
1876 Clouds 28 1014 51 10000 2.1 0 10:55 01.03.2020
1877 Clouds 28 1014 51 10000 2.1 0 10:36 01.03.2020
1878 Clouds 27 1014 47 10000 1.5 0 10:18 01.03.2020
1879 Clouds 26 1014 50 10000 2.1 0 09:41 01.03.2020
1880 Clouds 26 1015 54 10000 1.5 0 09:22 01.03.2020
1881 Clouds 26 1015 54 10000 2.1 160 08:45 01.03.2020
1882 Clouds 25 1015 53 10000 1.5 50 08:26 01.03.2020
1883 Clouds 24 1016 57 10000 2.1 0 07:45 01.03.2020
1884 Clouds 23 1015 56 10000 3.6 90 07:24 01.03.2020
1885 Clouds 22 1015 60 10000 3.6 110 06:58 01.03.2020
1886 Clouds 22 1015 60 10000 3.6 110 06:40 01.03.2020
1887 Clouds 17 1014 88 10000 2.1 80 04:39 01.03.2020
1888 Clouds 17 1014 88 10000 1.5 0 02:58 01.03.2020
1889 Clouds 18 1014 82 10000 2.1 170 02:18 01.03.2020
1890 Clouds 18 1014 88 10000 1.5 0 01:34 01.03.2020
1891 Clouds 18 1014 82 10000 2.6 120 00:48 01.03.2020
1892 Clouds 18 1014 82 10000 3.1 140 00:23 01.03.2020
1893 Clouds 19 1014 77 10000 3.1 130 23:54 29.02.2020
1894 Clouds 19 1014 77 10000 3.1 130 23:35 29.02.2020
1895 Clouds 19 1015 77 10000 3.6 140 22:46 29.02.2020
1896 Clouds 20 1015 72 10000 4.6 110 22:26 29.02.2020
1897 Clouds 20 1015 77 10000 3.6 100 21:47 29.02.2020
1898 Clouds 20 1015 77 10000 4.1 100 21:27 29.02.2020
1899 Clouds 21 1016 64 10000 4.1 120 20:59 29.02.2020
1900 Clouds 21 1016 64 10000 4.1 120 20:40 29.02.2020
1901 Clouds 21 1015 73 10000 4.6 110 20:20 29.02.2020
1902 Clouds 21 1015 73 10000 4.6 110 19:41 29.02.2020
1903 Clouds 21 1015 73 10000 5.1 110 19:22 29.02.2020
1904 Thunderstorm 22 1015 64 10000 4.1 90 18:57 29.02.2020
1905 Thunderstorm 22 1015 64 10000 4.1 90 18:39 29.02.2020
1906 Thunderstorm 23 1014 64 10000 4.6 90 18:19 29.02.2020
1907 Thunderstorm 24 1014 64 10000 5.7 100 17:55 29.02.2020
1908 Thunderstorm 24 1014 64 10000 5.7 100 17:36 29.02.2020
1909 Thunderstorm 24 1014 64 10000 5.7 100 17:36 29.02.2020
1910 Clouds 24 1014 64 10000 2.6 170 17:18 29.02.2020
1911 Clouds 25 1013 61 10000 2.1 280 16:42 29.02.2020
1912 Clouds 25 1013 61 10000 2.1 300 16:19 29.02.2020
1913 Clouds 27 1013 47 10000 2.6 270 15:43 29.02.2020
1914 Clouds 29 1012 42 10000 3.1 290 15:24 29.02.2020
1915 Clouds 29 1012 42 10000 1.5 0 14:57 29.02.2020
1916 Clouds 29 1012 42 10000 1.5 0 14:38 29.02.2020
1917 Clouds 29 1012 39 10000 1 0 14:20 29.02.2020
1918 Clouds 30 1013 37 10000 2.1 250 13:44 29.02.2020
1919 Clouds 29 1013 35 10000 1 0 13:25 29.02.2020
1920 Clouds 30 1013 33 10000 2.1 230 12:54 29.02.2020
1921 Clouds 30 1013 33 10000 2.1 230 12:36 29.02.2020
1922 Clouds 30 1013 33 10000 2.1 230 12:36 29.02.2020
1923 Clouds 30 1014 33 10000 2.6 230 12:18 29.02.2020
1924 Clouds 29 1014 35 10000 2.1 210 11:43 29.02.2020
1925 Clouds 28 1014 39 10000 1.5 0 11:24 29.02.2020
1926 Clouds 29 1015 39 10000 1.5 0 10:50 29.02.2020
1927 Clouds 28 1015 39 10000 2.1 0 10:29 29.02.2020
1928 Clouds 27 1015 42 10000 2.1 0 09:51 29.02.2020
1929 Clouds 27 1016 39 10000 2.1 140 09:27 29.02.2020
1930 Clouds 26 1016 41 10000 2.1 130 08:58 29.02.2020
1931 Clouds 26 1016 41 10000 2.1 130 08:38 29.02.2020
1932 Clouds 25 1016 41 10000 2.1 140 08:19 29.02.2020
1933 Clouds 24 1016 44 10000 3.1 170 07:45 29.02.2020
1934 Clouds 24 1016 57 10000 2.6 190 07:19 29.02.2020
1935 Clouds 22 1016 68 10000 2.1 160 06:51 29.02.2020
1936 Clouds 21 1016 83 8000 2.1 150 06:26 29.02.2020
1937 Mist 19 1016 93 5000 2.1 130 05:48 29.02.2020
1938 Mist 19 1016 93 5000 1 0 05:18 29.02.2020
1939 Mist 17 1015 100 2500 1 0 03:43 29.02.2020
1940 Mist 17 1015 100 1200 1 190 03:22 29.02.2020
1941 Clouds 17 1015 100 10000 1.5 0 02:42 29.02.2020
1942 Clouds 18 1015 100 10000 1 0 01:31 29.02.2020
1943 Clouds 18 1016 100 10000 1.5 0 00:38 29.02.2020
1944 Clouds 18 1016 100 10000 1 150 23:58 28.02.2020
1945 Clouds 18 1016 100 10000 1 150 23:37 28.02.2020
1946 Clouds 19 1016 93 10000 1 0 23:19 28.02.2020
1947 Clouds 19 1017 93 10000 1.29 140 22:41 28.02.2020
1948 Clouds 20 1017 94 10000 1.5 0 22:19 28.02.2020
1949 Clouds 20 1017 88 10000 1 0 21:42 28.02.2020
1950 Clouds 20 1017 88 10000 2.1 60 21:21 28.02.2020
1951 Clouds 20 1017 88 10000 2.1 60 21:21 28.02.2020
1952 Clouds 20 1018 88 10000 2.1 70 20:56 28.02.2020
1953 Clouds 20 1018 88 10000 2.1 70 20:37 28.02.2020
1954 Clouds 20 1018 88 10000 2.6 90 20:19 28.02.2020
1955 Clouds 20 1018 88 10000 2.6 90 20:19 28.02.2020
1956 Clouds 20 1018 88 10000 4.1 100 19:56 28.02.2020
1957 Clouds 20 1018 88 10000 4.1 100 19:37 28.02.2020
1958 Clouds 21 1017 77 10000 2.6 120 19:18 28.02.2020
1959 Clouds 20 1017 82 10000 2.1 140 18:44 28.02.2020
1960 Clouds 20 1017 88 10000 2.1 40 18:23 28.02.2020
1961 Rain 20 1016 88 10000 4.1 70 17:41 28.02.2020
1962 Rain 22 1017 88 6000 1.5 0 17:23 28.02.2020
1963 Thunderstorm 21 1015 88 10000 1 0 16:56 28.02.2020
1964 Thunderstorm 21 1015 88 10000 1 0 16:37 28.02.2020
1965 Clouds 22 1015 88 10000 1.5 0 16:18 28.02.2020
1966 Clouds 21 1015 94 10000 1.5 0 15:42 28.02.2020
1967 Thunderstorm 20 1015 77 2500 9.3 250 15:20 28.02.2020
1968 Thunderstorm 25 1015 65 10000 8.2 250 14:59 28.02.2020
1969 Thunderstorm 25 1015 65 10000 8.2 250 14:41 28.02.2020
1970 Clouds 30 1014 37 10000 1 0 14:19 28.02.2020
1971 Clouds 31 1014 38 10000 1.5 0 13:57 28.02.2020
1972 Clouds 31 1014 38 10000 1.5 0 13:39 28.02.2020
1973 Clouds 31 1014 40 10000 1.5 0 13:19 28.02.2020
1974 Clouds 31 1015 40 10000 1.5 0 12:41 28.02.2020
1975 Clouds 30 1015 42 10000 3.6 200 12:23 28.02.2020
1976 Clouds 30 1016 40 10000 2.6 0 11:43 28.02.2020
1977 Clouds 29 1016 42 10000 1.5 0 11:24 28.02.2020
1978 Clouds 29 1016 42 10000 1.5 70 10:59 28.02.2020
1979 Clouds 29 1016 42 10000 1.5 70 10:40 28.02.2020
1980 Clouds 28 1017 39 10000 2.6 70 10:20 28.02.2020
1981 Clouds 27 1017 42 10000 2.6 50 09:46 28.02.2020
1982 Clouds 27 1017 30 10000 3.6 60 09:21 28.02.2020
1983 Clouds 26 1018 50 10000 2.1 0 08:56 28.02.2020
1984 Clouds 26 1018 50 10000 2.1 0 08:37 28.02.2020
1985 Clouds 25 1018 61 10000 1 0 08:18 28.02.2020
1986 Clouds 25 1018 61 10000 2.1 0 07:40 28.02.2020
1987 Clouds 24 1018 64 10000 1 0 07:20 28.02.2020
1988 Clouds 23 1018 64 10000 1.5 0 06:44 28.02.2020
1989 Clouds 22 1018 73 10000 2.1 70 06:19 28.02.2020
1990 Clouds 17 1018 93 10000 1.5 60 04:35 28.02.2020
1991 Clouds 18 1018 88 10000 2.1 70 03:50 28.02.2020
1992 Clouds 19 1018 82 10000 2.6 130 02:46 28.02.2020
1993 Clouds 19 1018 82 10000 2.6 130 02:25 28.02.2020
1994 Clouds 19 1018 88 10000 3.1 130 00:48 28.02.2020
1995 Clouds 19 1018 88 10000 2.6 140 00:26 28.02.2020
1996 Clouds 19 1018 88 10000 3.1 140 23:42 27.02.2020
1997 Clouds 19 1018 88 10000 2.6 140 23:19 27.02.2020
1998 Clouds 19 1019 88 10000 2.1 140 22:43 27.02.2020
1999 Clouds 20 1019 82 10000 3.1 150 22:24 27.02.2020
2000 Thunderstorm 20 1019 82 10000 3.1 130 21:56 27.02.2020
2001 Thunderstorm 20 1019 82 10000 3.1 130 21:38 27.02.2020
2002 Thunderstorm 19 1019 88 10000 2.1 130 21:18 27.02.2020
2003 Thunderstorm 20 1020 82 10000 3.1 120 20:56 27.02.2020
2004 Thunderstorm 20 1020 82 10000 3.1 120 20:56 27.02.2020
2005 Thunderstorm 20 1020 82 10000 3.1 120 20:37 27.02.2020
2006 Thunderstorm 20 1020 82 10000 3.1 120 20:37 27.02.2020
2007 Thunderstorm 20 1020 82 10000 3.1 110 20:19 27.02.2020
2008 Thunderstorm 20 1020 82 10000 3.1 120 19:42 27.02.2020
2009 Thunderstorm 20 1019 82 10000 4.1 120 19:23 27.02.2020
2010 Thunderstorm 20 1019 82 10000 4.1 100 18:58 27.02.2020
2011 Thunderstorm 20 1019 82 10000 4.1 100 18:40 27.02.2020
2012 Thunderstorm 20 1019 82 10000 3.6 90 18:21 27.02.2020
2013 Thunderstorm 20 1019 82 10000 3.1 80 17:57 27.02.2020
2014 Thunderstorm 20 1019 82 10000 3.1 80 17:38 27.02.2020
2015 Thunderstorm 20 1018 82 10000 5.7 90 17:19 27.02.2020
2016 Clouds 21 1018 77 10000 5.7 90 16:54 27.02.2020
2017 Clouds 21 1018 77 10000 5.7 90 16:36 27.02.2020
2018 Clouds 22 1017 73 10000 5.7 100 16:18 27.02.2020
2019 Clouds 23 1017 73 10000 5.7 90 15:40 27.02.2020
2020 Clouds 24 1017 69 10000 5.7 80 15:21 27.02.2020
2021 Clouds 24 1017 73 10000 4.6 30 14:59 27.02.2020
2022 Clouds 24 1017 73 10000 4.6 30 14:40 27.02.2020
2023 Rain 25 1016 65 10000 4.6 110 14:21 27.02.2020
2024 Clouds 27 1016 57 10000 3.1 140 13:55 27.02.2020
2025 Clouds 27 1016 57 10000 3.1 140 13:37 27.02.2020
2026 Clouds 25 1016 65 10000 4.1 120 13:19 27.02.2020
2027 Clouds 28 1016 54 10000 2.1 150 12:43 27.02.2020
2028 Clouds 28 1017 54 10000 2.1 0 12:19 27.02.2020
2029 Clouds 28 1017 54 10000 2.1 0 11:46 27.02.2020
2030 Clouds 26 1018 61 10000 2.1 70 11:23 27.02.2020
2031 Clouds 26 1018 61 10000 2.1 200 10:56 27.02.2020
2032 Clouds 26 1018 61 10000 2.1 200 10:37 27.02.2020
2033 Clouds 25 1018 65 10000 2.6 130 10:18 27.02.2020
2034 Clouds 24 1019 69 10000 2.1 0 09:41 27.02.2020
2035 Clouds 24 1019 64 10000 3.1 0 09:22 27.02.2020
2036 Clouds 22 1019 73 10000 2.1 150 08:44 27.02.2020
2037 Clouds 21 1020 77 10000 2.1 90 08:26 27.02.2020
2038 Clouds 21 1020 77 10000 2.1 140 07:51 27.02.2020
2039 Clouds 20 1020 77 10000 3.1 110 07:30 27.02.2020
2040 Clouds 21 1020 73 10000 3.6 110 06:59 27.02.2020
2041 Clouds 21 1019 73 10000 4.6 170 06:20 27.02.2020
2042 Clouds 18 1019 88 10000 2.6 160 04:24 27.02.2020
2043 Clouds 19 1018 82 10000 3.1 140 02:58 27.02.2020
2044 Clouds 19 1018 82 10000 3.1 160 00:59 27.02.2020
2045 Clouds 19 1018 82 10000 3.1 160 00:37 27.02.2020
2046 Clouds 19 1018 88 10000 4.1 150 23:41 26.02.2020
2047 Clouds 19 1018 88 10000 2.6 160 23:20 26.02.2020
2048 Clouds 19 1018 88 10000 3.6 140 22:59 26.02.2020
2049 Clouds 19 1018 88 10000 3.6 140 22:40 26.02.2020
2050 Clouds 19 1019 88 10000 2.6 150 22:21 26.02.2020
2051 Clouds 19 1019 88 10000 3.6 150 21:57 26.02.2020
2052 Clouds 19 1019 88 10000 3.6 150 21:38 26.02.2020
2053 Clouds 19 1019 88 10000 2.6 130 21:19 26.02.2020
2054 Clouds 19 1019 88 10000 2.6 130 21:19 26.02.2020
2055 Clouds 19 1019 88 10000 3.6 130 20:55 26.02.2020
2056 Clouds 19 1019 88 10000 3.6 130 20:37 26.02.2020
2057 Clouds 20 1019 77 10000 2.6 130 20:18 26.02.2020
2058 Clouds 20 1019 82 10000 3.6 120 19:47 26.02.2020
2059 Clouds 20 1019 77 10000 2.6 150 19:21 26.02.2020
2060 Clouds 20 1019 77 10000 4.6 110 18:59 26.02.2020
2061 Clouds 20 1019 77 10000 4.6 110 18:41 26.02.2020
2062 Clouds 20 1018 77 10000 4.6 100 18:22 26.02.2020
2063 Clouds 20 1018 82 10000 3.1 90 17:56 26.02.2020
2064 Clouds 20 1018 82 10000 3.1 90 17:37 26.02.2020
2065 Clouds 21 1018 77 10000 3.6 90 17:18 26.02.2020
2066 Clouds 21 1017 77 10000 4.1 90 16:43 26.02.2020
2067 -273 0 0 0 0 0 16:22 26.02.2020
2068 Clouds 22 1016 73 10000 3.6 110 15:56 26.02.2020
2069 Clouds 22 1016 73 10000 3.6 110 15:37 26.02.2020
2070 Clouds 22 1016 73 10000 4.1 110 15:18 26.02.2020
2071 Clouds 22 1016 73 10000 4.1 100 14:42 26.02.2020
2072 Clouds 23 1016 69 10000 5.1 120 14:22 26.02.2020
2073 Clouds 23 1016 69 10000 5.1 120 14:22 26.02.2020
2074 Clouds 23 1016 69 10000 5.1 130 13:43 26.02.2020
2075 Clouds 24 1016 64 10000 5.1 120 13:22 26.02.2020
2076 Clouds 25 1016 61 10000 5.1 110 12:42 26.02.2020
2077 Clouds 25 1016 61 10000 5.1 110 12:42 26.02.2020
2078 Clouds 24 1016 64 10000 5.1 110 12:23 26.02.2020
2079 Clouds 24 1017 69 10000 4.6 100 11:59 26.02.2020
2080 Clouds 24 1017 69 10000 4.6 100 11:41 26.02.2020
2081 Clouds 24 1017 69 10000 4.1 100 11:22 26.02.2020
2082 Clouds 24 1017 69 10000 4.1 100 11:22 26.02.2020
2083 Clouds 24 1017 69 10000 4.6 100 10:44 26.02.2020
2084 Clouds 23 1018 69 10000 4.1 110 10:24 26.02.2020
2085 Clouds 22 1018 73 10000 3.6 140 09:59 26.02.2020
2086 Clouds 22 1018 73 10000 3.6 140 09:41 26.02.2020
2087 Clouds 22 1018 73 10000 3.6 140 09:21 26.02.2020
2088 Clouds 21 1018 77 10000 4.6 150 08:54 26.02.2020
2089 Clouds 21 1018 77 10000 4.6 150 08:36 26.02.2020
2090 Clouds 20 1018 82 10000 4.1 140 08:18 26.02.2020
2091 Clouds 20 1018 82 10000 4.1 140 08:18 26.02.2020
2092 Clouds 20 1018 82 10000 4.6 140 07:41 26.02.2020
2093 Clouds 20 1017 82 10000 5.1 140 07:21 26.02.2020
2094 Clouds 19 1017 82 10000 5.1 160 06:48 26.02.2020
2095 Clouds 19 1017 82 10000 5.1 150 06:27 26.02.2020
2096 Clouds 19 1016 88 10000 4.1 150 05:48 26.02.2020
2097 Clouds 18 1016 93 10000 3.6 150 05:19 26.02.2020
2098 Clouds 18 1016 93 10000 3.1 100 03:34 26.02.2020
2099 Clouds 19 1016 88 10000 3.1 120 02:18 26.02.2020
2100 Clouds 19 1016 93 10000 2.6 130 01:34 26.02.2020
2101 Rain 19 1016 93 10000 3.1 80 00:46 26.02.2020
2102 Rain 19 1016 93 10000 3.1 80 00:46 26.02.2020
2103 Rain 19 1016 93 10000 3.1 80 00:21 26.02.2020
2104 Rain 19 1017 100 10000 2.1 90 23:42 25.02.2020
2105 Rain 19 1017 93 10000 1.5 0 23:24 25.02.2020
2106 Rain 19 1017 93 10000 1.5 150 22:57 25.02.2020
2107 Rain 19 1017 93 10000 1.5 150 22:37 25.02.2020
2108 Rain 19 1017 100 10000 1 0 22:18 25.02.2020
2109 Rain 19 1017 100 10000 1.5 0 21:38 25.02.2020
2110 Rain 19 1017 100 10000 2.1 170 21:20 25.02.2020
2111 Rain 20 1017 94 10000 2.6 140 20:57 25.02.2020
2112 Rain 20 1017 94 10000 2.6 140 20:39 25.02.2020
2113 Rain 20 1017 94 10000 2.1 140 20:20 25.02.2020
2114 Rain 20 1016 94 10000 4.1 90 19:56 25.02.2020
2115 Rain 20 1016 94 10000 4.1 90 19:37 25.02.2020
2116 Rain 20 1016 94 10000 4.1 90 19:18 25.02.2020
2117 Rain 20 1016 94 10000 4.6 100 18:40 25.02.2020
2118 Rain 20 1016 94 10000 4.6 100 18:21 25.02.2020
2119 Rain 21 1015 88 10000 3.6 140 17:56 25.02.2020
2120 Rain 21 1015 88 10000 3.6 140 17:37 25.02.2020
2121 Rain 21 1015 83 10000 3.6 150 17:19 25.02.2020
2122 Clouds 22 1015 78 10000 4.6 160 16:56 25.02.2020
2123 Clouds 22 1015 78 10000 4.6 160 16:38 25.02.2020
2124 Clouds 22 1014 78 10000 4.6 150 16:20 25.02.2020
2125 Rain 23 1014 73 10000 6.2 160 15:54 25.02.2020
2126 Rain 23 1014 73 10000 6.2 160 15:36 25.02.2020
2127 Rain 24 1013 73 10000 5.1 150 15:18 25.02.2020
2128 Thunderstorm 24 1013 69 10000 4.1 150 14:39 25.02.2020
2129 Rain 25 1013 65 10000 5.1 160 14:18 25.02.2020
2130 Rain 25 1013 65 10000 5.1 160 14:18 25.02.2020
2131 Rain 25 1013 65 10000 5.1 160 14:18 25.02.2020
2132 Thunderstorm 26 1013 65 10000 4.1 190 13:59 25.02.2020
2133 Thunderstorm 26 1013 65 10000 4.1 190 13:40 25.02.2020
2134 Rain 28 1013 54 10000 4.6 150 13:20 25.02.2020
2135 Rain 26 1013 61 10000 4.1 120 12:59 25.02.2020
2136 Rain 26 1013 61 10000 4.1 120 12:39 25.02.2020
2137 Clouds 28 1013 54 10000 3.6 110 12:20 25.02.2020
2138 Clouds 28 1013 58 10000 4.1 90 11:56 25.02.2020
2139 Clouds 28 1013 58 10000 4.1 90 11:37 25.02.2020
2140 Clouds 28 1014 58 10000 3.6 100 11:18 25.02.2020
2141 Clouds 27 1014 65 10000 3.6 160 10:42 25.02.2020
2142 Clouds 26 1015 65 10000 4.1 100 10:23 25.02.2020
2143 Clouds 26 1015 65 10000 3.1 50 09:43 25.02.2020
2144 Clouds 26 1016 65 10000 3.1 80 09:23 25.02.2020
2145 Clouds 25 1016 69 10000 3.1 90 09:00 25.02.2020
2146 Clouds 25 1016 69 10000 3.1 90 08:41 25.02.2020
2147 Clouds 24 1016 73 10000 2.1 60 08:22 25.02.2020
2148 Drizzle 21 1016 88 10000 2.65 143 07:48 25.02.2020
2149 Rain 21 1016 88 10000 1.5 100 07:23 25.02.2020
2150 Rain 21 1016 88 10000 1.5 100 07:23 25.02.2020
2151 Clouds 21 1016 88 10000 1 0 06:53 25.02.2020
2152 Clouds 20 1015 94 10000 1 0 05:51 25.02.2020
2153 Clouds 19 1014 93 10000 2.1 70 03:56 25.02.2020
2154 Clouds 19 1013 93 10000 1.5 100 02:32 25.02.2020
2155 Clouds 20 1014 94 10000 0.5 0 00:57 25.02.2020
2156 Clouds 20 1014 94 10000 1 0 00:31 25.02.2020
2157 Clouds 20 1015 94 10000 2.6 300 23:47 24.02.2020
2158 Clouds 20 1015 94 10000 3.1 300 23:28 24.02.2020
2159 Clouds 20 1015 94 10000 3.1 310 22:56 24.02.2020
2160 Clouds 20 1015 94 10000 3.1 310 22:36 24.02.2020
2161 Clouds 21 1016 88 10000 3.6 280 22:18 24.02.2020
2162 Clouds 21 1016 94 10000 4.6 300 21:54 24.02.2020
2163 Clouds 21 1016 94 10000 4.6 300 21:54 24.02.2020
2164 Clouds 21 1016 94 10000 4.6 300 21:36 24.02.2020
2165 Clouds 21 1016 94 10000 4.6 300 21:18 24.02.2020
2166 Clouds 21 1016 88 10000 4.1 300 20:41 24.02.2020
2167 Thunderstorm 21 1016 94 10000 5.1 310 20:20 24.02.2020
2168 Thunderstorm 21 1016 94 10000 5.1 310 20:20 24.02.2020
2169 Thunderstorm 21 1016 94 10000 4.6 320 19:58 24.02.2020
2170 Thunderstorm 21 1016 94 10000 4.6 320 19:40 24.02.2020
2171 Thunderstorm 21 1016 94 10000 3.6 320 19:22 24.02.2020
2172 Thunderstorm 21 1016 94 10000 2.6 310 18:56 24.02.2020
2173 Thunderstorm 21 1016 94 10000 2.6 310 18:38 24.02.2020
2174 Thunderstorm 21 1015 94 10000 5.7 300 18:19 24.02.2020
2175 Thunderstorm 22 1015 88 10000 6.2 300 17:42 24.02.2020
2176 Thunderstorm 22 1014 88 10000 6.7 300 17:21 24.02.2020
2177 Clouds 23 1014 83 10000 4.6 320 16:59 24.02.2020
2178 Clouds 23 1014 83 10000 4.6 320 16:40 24.02.2020
2179 Clouds 23 1014 83 10000 5.7 330 16:21 24.02.2020
2180 Rain 24 1013 78 10000 5.7 330 15:59 24.02.2020
2181 Rain 24 1013 78 10000 5.7 330 15:40 24.02.2020
2182 Rain 24 1013 78 10000 5.7 330 15:40 24.02.2020
2183 Rain 25 1013 73 10000 5.7 320 15:21 24.02.2020
2184 Thunderstorm 25 1013 73 10000 4.6 330 14:58 24.02.2020
2185 Thunderstorm 25 1013 73 10000 4.6 330 14:39 24.02.2020
2186 Thunderstorm 26 1012 69 10000 6.2 310 14:19 24.02.2020
2187 Rain 29 1012 51 10000 4.1 260 13:56 24.02.2020
2188 Rain 29 1012 51 10000 4.1 260 13:37 24.02.2020
2189 Clouds 28 1013 58 10000 3.1 250 13:19 24.02.2020
2190 Clouds 30 1013 51 10000 4.6 300 12:54 24.02.2020
2191 Clouds 30 1013 51 10000 4.6 300 12:36 24.02.2020
2192 Clouds 30 1013 55 10000 4.6 290 12:18 24.02.2020
2193 Clouds 29 1014 54 10000 4.6 290 11:41 24.02.2020
2194 Clouds 29 1014 54 10000 4.6 290 11:23 24.02.2020
2195 Clouds 28 1015 61 10000 5.1 310 10:43 24.02.2020
2196 Clouds 27 1015 61 10000 4.6 320 10:24 24.02.2020
2197 Clouds 26 1016 65 10000 4.1 310 09:41 24.02.2020
2198 Clouds 26 1016 69 10000 3.6 320 09:19 24.02.2020
2199 Clouds 25 1016 73 10000 3.1 310 08:55 24.02.2020
2200 Clouds 25 1016 69 10000 3.6 290 08:30 24.02.2020
2201 Clouds 24 1017 78 10000 4.1 300 07:59 24.02.2020
2202 Clouds 24 1017 78 10000 4.1 300 07:40 24.02.2020
2203 Clouds 24 1016 73 10000 3.6 320 07:22 24.02.2020
2204 Clouds 23 1017 78 10000 4.6 310 06:33 24.02.2020
2205 Clouds 20 1016 94 10000 3.1 300 05:47 24.02.2020
2206 Clouds 20 1016 94 10000 2.6 320 05:27 24.02.2020
2207 Clouds 19 1015 93 10000 2.6 300 03:18 24.02.2020
2208 Clouds 19 1016 93 10000 2.6 240 02:45 24.02.2020
2209 Drizzle 19 1016 100 8000 2.1 280 01:40 24.02.2020
2210 Clouds 19 1016 100 10000 1.5 280 00:51 24.02.2020
2211 Clouds 19 1016 100 10000 1.5 340 00:21 24.02.2020
2212 Clouds 19 1017 100 10000 2.1 320 23:55 23.02.2020
2213 Clouds 19 1017 100 10000 2.1 320 23:36 23.02.2020
2214 Rain 20 1017 94 10000 2.1 280 23:18 23.02.2020
2215 Clouds 20 1017 94 10000 3.1 320 22:43 23.02.2020
2216 Clouds 20 1017 94 10000 2.6 310 22:22 23.02.2020
2217 Rain 20 1018 94 10000 3.6 320 21:55 23.02.2020
2218 Rain 20 1018 94 10000 3.6 320 21:37 23.02.2020
2219 Rain 20 1018 94 10000 3.6 310 21:18 23.02.2020
2220 Rain 20 1018 94 10000 3.6 310 21:18 23.02.2020
2221 Clouds 20 1018 100 10000 2.1 330 20:55 23.02.2020
2222 Clouds 20 1018 100 10000 2.1 330 20:37 23.02.2020
2223 Clouds 20 1018 100 10000 2.1 330 20:37 23.02.2020
2224 Clouds 20 1018 100 10000 2.1 340 20:18 23.02.2020
2225 Clouds 20 1018 94 10000 2.1 340 19:42 23.02.2020
2226 Rain 21 1018 94 10000 2.1 300 19:20 23.02.2020
2227 Rain 21 1017 88 10000 2.6 310 18:59 23.02.2020
2228 Rain 21 1017 88 10000 2.6 310 18:40 23.02.2020
2229 Clouds 21 1017 88 10000 3.1 320 18:20 23.02.2020
2230 Thunderstorm 22 1017 88 10000 2.1 350 17:58 23.02.2020
2231 Thunderstorm 22 1017 88 10000 2.1 350 17:39 23.02.2020
2232 Thunderstorm 22 1017 88 10000 2.1 320 17:21 23.02.2020
2233 Thunderstorm 22 1017 88 10000 2.1 320 17:21 23.02.2020
2234 Thunderstorm 22 1016 88 10000 1 0 16:56 23.02.2020
2235 Thunderstorm 22 1016 88 10000 1 0 16:36 23.02.2020
2236 Rain 22 1015 88 10000 3.1 30 16:18 23.02.2020
2237 Clouds 21 1015 94 10000 3.1 40 15:40 23.02.2020
2238 Thunderstorm 20 1015 94 8000 5.7 30 15:22 23.02.2020
2239 Thunderstorm 21 1015 94 3000 3.6 110 14:59 23.02.2020
2240 Thunderstorm 21 1015 94 3000 3.6 110 14:41 23.02.2020
2241 Rain 22 1015 88 10000 3.6 90 14:23 23.02.2020
2242 Rain 21 1015 94 8000 5.1 50 13:58 23.02.2020
2243 Rain 21 1015 94 8000 5.1 50 13:39 23.02.2020
2244 Rain 21 1015 94 7000 6.2 50 13:21 23.02.2020
2245 Rain 24 1015 78 10000 4.6 70 12:44 23.02.2020
2246 Clouds 25 1015 83 10000 3.6 60 12:24 23.02.2020
2247 Clouds 25 1015 83 10000 3.6 60 12:24 23.02.2020
2248 Rain 22 1016 88 8000 4.1 30 11:59 23.02.2020
2249 Rain 22 1016 88 8000 4.1 30 11:38 23.02.2020
2250 Rain 26 1016 65 10000 2.1 300 11:19 23.02.2020
2251 Clouds 26 1017 69 10000 2.6 350 10:56 23.02.2020
2252 Clouds 26 1017 69 10000 2.6 350 10:38 23.02.2020
2253 Clouds 25 1017 65 10000 3.1 10 10:20 23.02.2020
2254 Clouds 26 1017 65 10000 2.1 0 09:41 23.02.2020
2255 Clouds 26 1018 61 10000 1.5 0 09:22 23.02.2020
2256 Clouds 25 1019 69 10000 1.5 0 08:59 23.02.2020
2257 Clouds 25 1019 69 10000 1.5 0 08:41 23.02.2020
2258 Clouds 25 1018 69 10000 2.1 90 08:21 23.02.2020
2259 Clouds 22 1019 83 10000 1.5 230 07:40 23.02.2020
2260 Clouds 23 1019 78 10000 1 0 07:18 23.02.2020
2261 Clouds 20 1018 94 10000 2.1 80 05:54 23.02.2020
2262 Drizzle 18 1018 100 4500 2.1 90 04:48 23.02.2020
2263 Rain 19 1018 93 8000 1.5 190 03:35 23.02.2020
2264 Rain 19 1017 93 8000 1.5 180 02:37 23.02.2020
2265 Rain 19 1017 93 8000 1.5 180 02:37 23.02.2020
2266 Rain 19 1017 93 10000 1 0 01:26 23.02.2020
2267 Clouds 19 1018 93 10000 0.83 40 00:49 23.02.2020
2268 Clouds 19 1018 93 10000 0.83 40 00:28 23.02.2020
2269 Clouds 19 1018 93 10000 1 0 23:59 22.02.2020
2270 Clouds 19 1018 93 10000 1 0 23:40 22.02.2020
2271 Clouds 19 1018 93 10000 1.5 60 23:19 22.02.2020
2272 Clouds 19 1018 93 10000 2.1 70 22:41 22.02.2020
2273 Rain 19 1019 93 10000 2.1 70 22:19 22.02.2020
2274 Rain 19 1019 93 10000 2.6 60 21:43 22.02.2020
2275 Rain 19 1019 93 10000 1.5 80 21:24 22.02.2020
2276 Rain 19 1019 93 10000 1.5 80 21:24 22.02.2020
2277 Rain 19 1019 93 8000 1 100 20:49 22.02.2020
2278 Rain 19 1019 93 8000 2.6 60 20:26 22.02.2020
2279 Rain 19 1019 93 7000 3.1 70 19:59 22.02.2020
2280 Rain 19 1019 93 7000 3.1 70 19:41 22.02.2020
2281 Rain 19 1019 93 6000 2.6 70 19:21 22.02.2020
2282 Rain 19 1019 93 4000 4.6 40 18:41 22.02.2020
2283 Rain 19 1018 93 4000 5.1 40 18:22 22.02.2020
2284 Rain 20 1018 88 10000 5.7 70 17:58 22.02.2020
2285 Rain 20 1018 88 10000 5.7 70 17:58 22.02.2020
2286 Rain 20 1018 88 10000 5.7 70 17:40 22.02.2020
2287 Rain 21 1018 88 10000 3.1 80 17:22 22.02.2020
2288 Clouds 22 1017 83 10000 3.6 70 16:58 22.02.2020
2289 Clouds 22 1017 83 10000 3.6 70 16:39 22.02.2020
2290 Rain 23 1016 73 10000 2.6 30 16:20 22.02.2020
2291 Rain 23 1016 69 10000 4.1 30 15:45 22.02.2020
2292 Rain 23 1016 69 10000 4.1 30 15:45 22.02.2020
2293 Clouds 24 1016 69 10000 3.1 30 15:26 22.02.2020
2294 Clouds 25 1016 65 10000 3.6 20 14:56 22.02.2020
2295 Clouds 25 1016 65 10000 3.6 20 14:38 22.02.2020
2296 Clouds 25 1016 65 10000 3.6 20 14:19 22.02.2020
2297 Clouds 25 1016 65 10000 3.1 30 13:41 22.02.2020
2298 Clouds 25 1016 65 10000 4.1 20 13:19 22.02.2020
2299 Clouds 25 1016 65 10000 4.1 50 12:47 22.02.2020
2300 Clouds 25 1017 69 10000 3.6 30 12:24 22.02.2020
2301 Clouds 26 1017 65 10000 4.6 30 11:56 22.02.2020
2302 Clouds 26 1017 65 10000 4.6 30 11:36 22.02.2020
2303 Clouds 25 1018 69 10000 3.6 30 11:18 22.02.2020
2304 Clouds 25 1018 69 10000 3.6 30 11:18 22.02.2020
2305 Clouds 24 1018 73 10000 4.1 60 10:40 22.02.2020
2306 Clouds 23 1019 73 10000 4.6 30 10:20 22.02.2020
2307 Clouds 23 1019 73 10000 4.6 30 09:58 22.02.2020
2308 Clouds 23 1019 73 10000 4.6 30 09:39 22.02.2020
2309 Clouds 24 1019 78 10000 4.1 60 09:20 22.02.2020
2310 Clouds 22 1020 83 10000 3.6 30 08:47 22.02.2020
2311 Drizzle 21 1020 88 10000 3.6 20 08:28 22.02.2020
2312 Clouds 21 1020 83 10000 2.6 60 07:49 22.02.2020
2313 Clouds 20 1020 88 10000 3.1 80 07:19 22.02.2020
2314 Clouds 20 1019 94 10000 3.6 90 06:47 22.02.2020
2315 Rain 19 1019 93 10000 2.6 110 06:28 22.02.2020
2316 Drizzle 18 1018 100 8000 2.1 130 04:33 22.02.2020
2317 Clouds 18 1018 100 10000 1.5 140 03:22 22.02.2020
2318 Clouds 18 1018 100 10000 2.1 150 02:29 22.02.2020
2319 Clouds 18 1018 100 10000 1.5 150 01:45 22.02.2020
2320 Clouds 18 1018 100 10000 1.5 150 01:45 22.02.2020
2321 Clouds 18 1018 100 10000 2.1 160 01:25 22.02.2020
2322 Clouds 18 1018 100 10000 1 180 00:45 22.02.2020
2323 Clouds 19 1018 93 10000 2.1 180 00:26 22.02.2020
2324 Rain 19 1019 93 10000 1.5 0 23:45 21.02.2020
2325 Rain 19 1019 93 10000 2.1 140 23:22 21.02.2020
2326 Rain 19 1019 93 10000 2.1 110 22:54 21.02.2020
2327 Rain 19 1019 93 10000 2.1 110 22:36 21.02.2020
2328 Rain 19 1019 93 10000 2.6 130 22:18 21.02.2020
2329 Rain 19 1019 93 10000 3.1 110 21:41 21.02.2020
2330 Rain 19 1019 93 10000 2.6 110 21:23 21.02.2020
2331 Rain 19 1020 93 10000 2.1 110 20:48 21.02.2020
2332 Rain 19 1020 93 10000 2.6 100 20:29 21.02.2020
2333 Drizzle 19 1020 100 10000 1 0 19:42 21.02.2020
2334 Drizzle 19 1019 93 10000 1.5 10 19:24 21.02.2020
2335 Thunderstorm 19 1019 93 8000 2.3 75 18:56 21.02.2020
2336 Thunderstorm 19 1019 93 8000 2.3 75 18:38 21.02.2020
2337 Thunderstorm 19 1019 93 7000 2.6 350 18:19 21.02.2020
2338 Thunderstorm 19 1019 93 6000 3.1 10 17:40 21.02.2020
2339 Thunderstorm 19 1019 100 3000 3.1 360 17:21 21.02.2020
2340 Thunderstorm 19 1018 93 3500 3.6 310 16:57 21.02.2020
2341 Thunderstorm 19 1018 93 3500 3.6 310 16:39 21.02.2020
2342 Thunderstorm 19 1018 93 3000 2.1 280 16:20 21.02.2020
2343 Thunderstorm 19 1017 93 2500 6.2 330 15:45 21.02.2020
2344 Thunderstorm 20 1017 94 4000 4.1 330 15:19 21.02.2020
2345 Thunderstorm 21 1016 94 9000 1.5 0 14:57 21.02.2020
2346 Thunderstorm 21 1016 94 9000 1.5 0 14:39 21.02.2020
2347 Thunderstorm 21 1016 94 4500 5.1 90 14:19 21.02.2020
2348 Thunderstorm 24 1016 73 10000 5.1 120 13:42 21.02.2020
2349 Rain 27 1015 69 10000 5.1 180 13:23 21.02.2020
2350 Rain 26 1016 65 10000 3.6 80 12:50 21.02.2020
2351 Clouds 26 1016 65 10000 3.1 60 12:28 21.02.2020
2352 Clouds 26 1016 65 10000 2.6 100 11:59 21.02.2020
2353 Clouds 26 1016 65 10000 2.6 100 11:40 21.02.2020
2354 Clouds 28 1017 58 10000 2.6 90 11:21 21.02.2020
2355 Clouds 27 1018 57 10000 2.1 30 10:55 21.02.2020
2356 Clouds 27 1018 57 10000 2.1 30 10:36 21.02.2020
2357 Clouds 26 1018 65 10000 2.1 70 10:18 21.02.2020
2358 Clouds 26 1018 65 10000 2.1 70 10:18 21.02.2020
2359 Clouds 26 1018 65 10000 2.1 50 09:42 21.02.2020
2360 Clouds 26 1019 65 10000 1.5 100 09:24 21.02.2020
2361 Clouds 26 1019 65 10000 2.1 0 08:58 21.02.2020
2362 Clouds 26 1019 65 10000 2.1 0 08:39 21.02.2020
2363 Clouds 24 1019 73 10000 1.5 0 08:21 21.02.2020
2364 Clouds 23 1019 78 10000 1 0 07:57 21.02.2020
2365 Clouds 23 1019 78 10000 1 0 07:39 21.02.2020
2366 Clouds 23 1019 73 10000 2.1 80 07:18 21.02.2020
2367 Clouds 23 1019 78 10000 2.1 110 06:42 21.02.2020
2368 Clouds 21 1019 83 10000 2.6 100 06:24 21.02.2020
2369 Clouds 20 1018 88 10000 2.6 100 05:42 21.02.2020
2370 Clouds 19 1018 93 10000 2.6 90 04:30 21.02.2020
2371 Clouds 19 1017 93 10000 1.5 90 03:56 21.02.2020
2372 Clouds 19 1017 93 10000 2.1 90 03:20 21.02.2020
2373 Clouds 19 1017 93 10000 2.6 80 01:45 21.02.2020
2374 Clouds 19 1017 93 10000 2.6 80 01:23 21.02.2020
2375 Clouds 20 1017 88 10000 2.6 80 00:39 21.02.2020
2376 Clouds 20 1017 88 10000 1.5 80 00:20 21.02.2020
2377 Clouds 20 1018 88 10000 1.5 60 23:43 20.02.2020
2378 Clouds 20 1018 94 10000 2.1 90 23:22 20.02.2020
2379 Clouds 20 1018 88 10000 3.1 80 22:42 20.02.2020
2380 Clouds 20 1018 94 10000 2.6 80 22:24 20.02.2020
2381 Clouds 20 1018 88 10000 2.6 80 21:58 20.02.2020
2382 Clouds 20 1018 88 10000 2.6 80 21:40 20.02.2020
2383 Clouds 20 1018 94 10000 2.1 80 21:20 20.02.2020
2384 Rain 20 1018 94 10000 2.6 90 20:57 20.02.2020
2385 Rain 20 1018 94 10000 2.6 90 20:39 20.02.2020
2386 Rain 20 1019 94 10000 2.6 100 20:20 20.02.2020
2387 Rain 20 1019 94 10000 2.1 110 19:59 20.02.2020
2388 Rain 20 1019 94 10000 2.1 110 19:41 20.02.2020
2389 Rain 20 1018 94 10000 2.6 110 19:23 20.02.2020
2390 Rain 20 1018 94 10000 1.5 140 18:58 20.02.2020
2391 Rain 20 1018 94 10000 1.5 140 18:37 20.02.2020
2392 Rain 20 1018 94 10000 2.1 140 18:19 20.02.2020
2393 Rain 20 1017 94 10000 2.1 170 17:39 20.02.2020
2394 Rain 20 1017 94 10000 0.5 0 17:20 20.02.2020
2395 Rain 20 1016 94 10000 1.5 240 16:58 20.02.2020
2396 Rain 20 1016 94 10000 1.5 240 16:39 20.02.2020
2397 Rain 21 1016 88 10000 2.1 300 16:19 20.02.2020
2398 Rain 22 1016 83 10000 2.1 330 15:56 20.02.2020
2399 Rain 22 1016 83 10000 2.1 330 15:37 20.02.2020
2400 Rain 23 1016 78 10000 2.1 10 15:19 20.02.2020
2401 Rain 23 1016 78 10000 2.6 10 14:44 20.02.2020
2402 Rain 24 1015 73 10000 4.1 30 14:25 20.02.2020
2403 Clouds 25 1015 65 10000 4.1 30 13:59 20.02.2020
2404 Clouds 25 1015 65 10000 4.1 30 13:41 20.02.2020
2405 Clouds 25 1015 69 10000 4.1 50 13:19 20.02.2020
2406 Rain 25 1016 69 10000 3.6 40 12:43 20.02.2020
2407 Rain 24 1016 73 10000 4.6 30 12:21 20.02.2020
2408 Rain 25 1016 73 10000 4.6 20 11:59 20.02.2020
2409 Rain 25 1016 73 10000 4.6 20 11:41 20.02.2020
2410 Clouds 24 1017 73 10000 3.6 20 11:22 20.02.2020
2411 Rain 24 1017 73 10000 4.6 10 10:57 20.02.2020
2412 Rain 24 1017 73 10000 4.6 10 10:38 20.02.2020
2413 Clouds 25 1017 69 10000 2.6 70 10:19 20.02.2020
2414 Rain 24 1018 73 10000 3.1 50 09:42 20.02.2020
2415 Rain 23 1018 73 10000 3.1 50 09:23 20.02.2020
2416 Rain 24 1018 69 10000 2.1 90 08:44 20.02.2020
2417 Clouds 24 1018 73 10000 2.6 70 08:25 20.02.2020
2418 Clouds 23 1018 78 10000 3.6 80 07:56 20.02.2020
2419 Clouds 23 1018 78 10000 3.6 80 07:38 20.02.2020
2420 Clouds 22 1018 83 10000 2.6 70 07:19 20.02.2020
2421 Clouds 21 1018 83 10000 2.1 70 06:43 20.02.2020
2422 Clouds 21 1018 88 10000 2.1 80 06:19 20.02.2020
2423 Clouds 20 1018 94 10000 2.6 70 05:42 20.02.2020
2424 Clouds 20 1017 94 10000 3.6 100 04:49 20.02.2020
2425 Clouds 19 1017 100 10000 2.1 130 03:47 20.02.2020
2426 Clouds 19 1017 100 10000 1.5 0 02:48 20.02.2020
2427 Clouds 19 1017 100 10000 1.5 120 01:33 20.02.2020
2428 Clouds 19 1017 93 10000 2.1 110 00:47 20.02.2020
2429 Rain 19 1017 93 8000 2.6 100 00:25 20.02.2020
2430 Rain 19 1018 93 8000 2.6 100 23:46 19.02.2020
2431 Rain 19 1018 93 8000 2.6 100 23:19 19.02.2020
2432 Rain 19 1018 93 6000 3.6 70 22:43 19.02.2020
2433 Clouds 20 1018 94 10000 2.1 30 22:25 19.02.2020
2434 Clouds 20 1018 94 10000 1.5 40 21:59 19.02.2020
2435 Clouds 20 1018 94 10000 1.5 40 21:40 19.02.2020
2436 Clouds 20 1019 94 10000 1.5 50 21:19 19.02.2020
2437 Clouds 20 1019 94 10000 2.11 67 20:57 19.02.2020
2438 Clouds 20 1019 94 10000 2.11 67 20:57 19.02.2020
2439 Clouds 20 1019 94 10000 2.11 67 20:38 19.02.2020
2440 Clouds 20 1019 94 10000 2.11 67 20:38 19.02.2020
2441 Clouds 19 1019 100 10000 2.72 84 20:19 19.02.2020
2442 Clouds 19 1018 93 10000 1 330 19:57 19.02.2020
2443 Clouds 19 1018 93 10000 1 330 19:38 19.02.2020
2444 Clouds 19 1018 93 10000 1 330 19:19 19.02.2020
2445 Thunderstorm 18 1018 93 10000 3.6 310 18:57 19.02.2020
2446 Thunderstorm 18 1018 93 10000 3.6 310 18:39 19.02.2020
2447 Thunderstorm 18 1018 93 10000 3.6 310 18:21 19.02.2020
2448 Thunderstorm 19 1018 93 10000 2.6 0 17:44 19.02.2020
2449 Thunderstorm 19 1018 93 10000 4.6 320 17:20 19.02.2020
2450 Thunderstorm 22 1018 83 10000 4.1 310 16:57 19.02.2020
2451 Thunderstorm 22 1018 83 10000 4.1 310 16:38 19.02.2020
2452 Thunderstorm 23 1017 73 10000 4.1 130 16:18 19.02.2020
2453 Thunderstorm 24 1016 69 10000 4.6 110 15:43 19.02.2020
2454 Clouds 25 1016 69 10000 3.6 100 15:25 19.02.2020
2455 Clouds 25 1016 69 10000 3.6 100 15:25 19.02.2020
2456 Clouds 25 1016 65 10000 4.1 90 14:57 19.02.2020
2457 Clouds 25 1016 65 10000 4.1 90 14:39 19.02.2020
2458 Clouds 26 1016 61 10000 3.6 110 14:21 19.02.2020
2459 Clouds 26 1016 61 10000 4.1 80 13:41 19.02.2020
2460 Clouds 28 1016 58 10000 3.1 90 13:22 19.02.2020
2461 Clouds 28 1017 58 10000 2.6 0 12:55 19.02.2020
2462 Clouds 28 1017 58 10000 2.6 0 12:36 19.02.2020
2463 Clouds 28 1017 58 10000 3.1 130 12:18 19.02.2020
2464 Clouds 27 1018 61 10000 3.1 100 11:38 19.02.2020
2465 Clouds 26 1018 61 10000 3.1 120 11:20 19.02.2020
2466 Clouds 26 1019 65 10000 3.6 110 10:58 19.02.2020
2467 Clouds 26 1019 65 10000 3.6 110 10:38 19.02.2020
2468 Clouds 25 1019 69 10000 3.1 120 10:20 19.02.2020
2469 Clouds 24 1019 69 10000 2.1 70 09:58 19.02.2020
2470 Clouds 24 1019 69 10000 2.1 70 09:37 19.02.2020
2471 Clouds 24 1020 73 10000 1.5 0 09:19 19.02.2020
2472 Clouds 24 1020 73 10000 2.6 70 08:45 19.02.2020
2473 Clouds 25 1020 73 10000 2.6 80 08:24 19.02.2020
2474 Clouds 25 1020 73 10000 2.6 80 08:24 19.02.2020
2475 Clouds 24 1020 73 10000 3.6 100 07:44 19.02.2020
2476 Clouds 22 1020 83 10000 3.1 100 07:26 19.02.2020
2477 Clouds 21 1021 88 10000 3.1 90 06:57 19.02.2020
2478 Clouds 21 1020 88 10000 2.1 100 06:31 19.02.2020
2479 Drizzle 19 1019 93 7000 5.1 100 04:25 19.02.2020
2480 Clouds 20 1019 88 10000 2.1 330 02:58 19.02.2020
2481 Clouds 20 1019 88 10000 2.1 330 02:32 19.02.2020
2482 Clouds 20 1018 88 10000 3.6 150 01:25 19.02.2020
2483 Clouds 20 1018 88 10000 3.6 130 00:51 19.02.2020
2484 Clouds 20 1018 88 10000 3.6 130 00:51 19.02.2020
2485 Clouds 20 1018 88 10000 3.6 130 00:51 19.02.2020
2486 Clouds 20 1019 88 10000 2.1 20 00:32 19.02.2020
2487 Clouds 20 1020 88 10000 2.1 60 23:44 18.02.2020
2488 Clouds 20 1020 88 10000 2.1 60 23:44 18.02.2020
2489 Clouds 20 1021 88 10000 2.1 100 23:21 18.02.2020
2490 Clouds 20 1021 88 10000 2.1 100 22:59 18.02.2020
2491 Clouds 20 1021 88 10000 2.1 100 22:41 18.02.2020
2492 Clouds 20 1021 88 10000 2.1 80 22:19 18.02.2020
2493 Clouds 20 1021 88 10000 1.5 0 21:56 18.02.2020
2494 Clouds 20 1021 88 10000 1.5 0 21:38 18.02.2020
2495 Clouds 20 1021 88 10000 3.1 140 21:19 18.02.2020
2496 Clouds 21 1021 83 10000 2.1 150 20:57 18.02.2020
2497 Clouds 21 1021 83 10000 2.1 150 20:38 18.02.2020
2498 Clouds 21 1021 83 10000 2.1 150 20:38 18.02.2020
2499 Clouds 21 1021 83 10000 3.1 140 20:20 18.02.2020
2500 Clouds 21 1021 83 10000 3.6 110 19:43 18.02.2020
2501 Clouds 21 1021 83 10000 3.6 110 19:43 18.02.2020
2502 Clouds 21 1021 83 10000 3.6 110 19:43 18.02.2020
2503 Clouds 21 1021 83 10000 4.1 130 19:20 18.02.2020
2504 Clouds 21 1021 83 10000 4.6 110 18:59 18.02.2020
2505 Clouds 21 1021 83 10000 4.6 110 18:41 18.02.2020
2506 Thunderstorm 21 1020 83 10000 4.6 100 18:20 18.02.2020
2507 Thunderstorm 21 1020 83 10000 5.1 100 17:56 18.02.2020
2508 Thunderstorm 21 1020 83 10000 5.1 100 17:37 18.02.2020
2509 Thunderstorm 21 1020 83 10000 5.1 100 17:37 18.02.2020
2510 Thunderstorm 22 1019 78 10000 4.6 100 17:18 18.02.2020
2511 Clouds 22 1019 78 10000 5.1 100 16:39 18.02.2020
2512 Clouds 24 1018 69 10000 5.7 90 16:19 18.02.2020
2513 Clouds 24 1018 69 10000 5.1 90 15:41 18.02.2020
2514 Clouds 26 1018 61 10000 5.1 90 15:20 18.02.2020
2515 Clouds 27 1018 61 10000 5.7 90 14:57 18.02.2020
2516 Clouds 27 1018 61 10000 5.7 90 14:39 18.02.2020
2517 Clouds 28 1018 58 10000 3.6 80 14:20 18.02.2020
2518 Clouds 27 1018 61 10000 3.1 50 13:42 18.02.2020
2519 Clouds 27 1018 61 10000 2.6 80 13:23 18.02.2020
2520 Clouds 27 1018 57 10000 2.1 80 12:59 18.02.2020
2521 Clouds 27 1018 57 10000 2.1 80 12:59 18.02.2020
2522 Clouds 27 1018 57 10000 2.1 80 12:40 18.02.2020
2523 Clouds 26 1019 65 10000 2.1 120 12:22 18.02.2020
2524 Rain 26 1019 61 10000 2.1 80 11:44 18.02.2020
2525 Clouds 26 1019 61 10000 2.1 0 11:26 18.02.2020
2526 Clouds 27 1020 57 10000 2.6 90 10:57 18.02.2020
2527 Clouds 27 1020 57 10000 2.6 90 10:39 18.02.2020
2528 Clouds 27 1020 57 10000 3.1 0 10:18 18.02.2020
2529 Clouds 26 1021 65 10000 3.1 90 09:56 18.02.2020
2530 Clouds 26 1021 65 10000 3.1 90 09:37 18.02.2020
2531 Clouds 26 1021 65 10000 3.1 90 09:37 18.02.2020
2532 Clouds 25 1021 65 10000 2.6 160 09:18 18.02.2020
2533 Clouds 25 1021 65 10000 4.1 100 08:43 18.02.2020
2534 Clouds 25 1022 65 10000 4.1 100 08:21 18.02.2020
2535 Clouds 23 1022 73 10000 4.1 110 07:57 18.02.2020
2536 Clouds 23 1022 73 10000 4.1 110 07:34 18.02.2020
2537 Clouds 21 1022 77 10000 3.6 110 06:57 18.02.2020
2538 Clouds 21 1022 77 10000 3.6 110 06:39 18.02.2020
2539 Clouds 21 1021 77 10000 4.6 120 06:20 18.02.2020
2540 Clouds 20 1021 88 10000 3.6 140 05:34 18.02.2020
2541 Clouds 19 1020 93 10000 2.1 160 04:28 18.02.2020
2542 Clouds 19 1020 93 10000 1 0 03:31 18.02.2020
2543 Clouds 20 1019 88 10000 3.1 110 01:59 18.02.2020
2544 Clouds 20 1019 88 10000 3.1 100 00:56 18.02.2020
2545 Clouds 20 1020 88 10000 3.1 80 00:22 18.02.2020
2546 Clouds 20 1020 88 10000 3.1 100 23:55 17.02.2020
2547 Clouds 20 1020 88 10000 3.1 100 23:37 17.02.2020
2548 Clouds 20 1020 88 10000 3.1 100 23:18 17.02.2020
2549 Clouds 20 1020 88 10000 4.1 110 22:41 17.02.2020
2550 Clouds 20 1020 88 10000 2.6 130 22:21 17.02.2020
2551 Clouds 20 1021 88 10000 2.6 150 21:58 17.02.2020
2552 Clouds 20 1021 88 10000 2.6 150 21:38 17.02.2020
2553 Clouds 20 1021 88 10000 3.6 170 21:18 17.02.2020
2554 Clouds 20 1021 88 10000 3.1 160 20:41 17.02.2020
2555 -273 0 0 0 0 0 20:21 17.02.2020
2556 Clouds 20 1022 88 10000 2.6 150 20:21 17.02.2020
2557 Thunderstorm 20 1022 88 10000 3.6 140 19:58 17.02.2020
2558 Thunderstorm 20 1022 88 10000 3.6 140 19:38 17.02.2020
2559 Thunderstorm 20 1022 88 10000 4.1 120 19:20 17.02.2020
2560 Thunderstorm 20 1022 88 10000 3.6 110 18:37 17.02.2020
2561 Thunderstorm 20 1022 88 10000 3.6 110 18:37 17.02.2020
2562 Thunderstorm 20 1022 88 10000 3.6 110 18:37 17.02.2020
2563 Thunderstorm 21 1021 83 10000 4.6 110 18:19 17.02.2020
2564 Thunderstorm 21 1021 83 10000 5.1 120 17:57 17.02.2020
2565 Thunderstorm 21 1021 83 10000 5.1 120 17:37 17.02.2020
2566 Thunderstorm 21 1020 83 10000 6.2 100 17:19 17.02.2020
2567 Thunderstorm 21 1020 83 10000 6.2 100 17:19 17.02.2020
2568 Rain 21 1020 83 10000 6.2 110 16:55 17.02.2020
2569 Rain 21 1020 83 10000 6.2 110 16:36 17.02.2020
2570 Clouds 22 1019 78 10000 7.7 110 16:36 17.02.2020
2571 Clouds 22 1019 78 10000 7.7 110 16:18 17.02.2020
2572 Clouds 23 1019 78 10000 7.7 110 15:44 17.02.2020
2573 Rain 25 1018 69 10000 6.7 110 15:26 17.02.2020
2574 Rain 28 1017 58 10000 5.7 110 14:47 17.02.2020
2575 Clouds 27 1017 57 10000 4.6 90 14:29 17.02.2020
2576 Clouds 28 1017 58 10000 3.1 70 13:59 17.02.2020
2577 Clouds 28 1017 58 10000 3.1 70 13:40 17.02.2020
2578 Clouds 28 1017 58 10000 3.1 70 13:40 17.02.2020
2579 Clouds 28 1017 58 10000 4.6 110 13:20 17.02.2020
2580 Clouds 28 1018 54 10000 5.7 80 12:56 17.02.2020
2581 Clouds 28 1018 54 10000 5.7 80 12:38 17.02.2020
2582 Clouds 28 1018 54 10000 5.7 100 12:19 17.02.2020
2583 Clouds 27 1019 61 10000 5.7 90 11:45 17.02.2020
2584 Clouds 27 1019 57 10000 5.7 100 11:25 17.02.2020
2585 Clouds 26 1019 61 10000 6.7 100 10:57 17.02.2020
2586 Clouds 26 1019 61 10000 6.7 100 10:38 17.02.2020
2587 Clouds 26 1019 69 10000 5.7 100 10:19 17.02.2020
2588 Clouds 25 1020 69 10000 4.6 100 09:56 17.02.2020
2589 Clouds 25 1020 69 10000 4.6 100 09:37 17.02.2020
2590 Clouds 25 1020 69 10000 5.1 120 09:18 17.02.2020
2591 Clouds 25 1020 69 10000 6.2 100 08:41 17.02.2020
2592 Clouds 24 1021 73 10000 4.6 110 08:23 17.02.2020
2593 Clouds 22 1021 78 10000 4.6 110 07:57 17.02.2020
2594 Clouds 21 1021 88 10000 4.1 120 07:27 17.02.2020
2595 Clouds 21 1021 83 10000 3.6 140 06:56 17.02.2020
2596 Clouds 21 1021 83 10000 3.6 140 06:37 17.02.2020
2597 Clouds 20 1021 88 10000 3.6 130 06:18 17.02.2020
2598 Clouds 19 1021 93 10000 2.6 140 05:39 17.02.2020
2599 Drizzle 19 1020 93 4000 2.1 80 03:55 17.02.2020
2600 Clouds 19 1019 93 9000 2.1 200 02:37 17.02.2020
2601 Rain 18 1019 100 8000 2.1 150 00:59 17.02.2020
2602 Rain 18 1019 100 8000 2.1 170 00:25 17.02.2020
2603 Rain 19 1019 93 7000 1 0 23:56 16.02.2020
2604 Rain 19 1019 93 7000 1 0 23:36 16.02.2020
2605 Rain 18 1019 100 8000 1.5 0 23:18 16.02.2020
2606 Rain 19 1019 93 7000 3.6 110 22:54 16.02.2020
2607 Rain 19 1019 93 7000 3.6 110 22:36 16.02.2020
2608 Rain 19 1020 93 7000 2.6 110 22:18 16.02.2020
2609 Rain 19 1020 93 7000 1.5 90 21:42 16.02.2020
2610 Rain 19 1020 100 8000 1.5 90 21:24 16.02.2020
2611 Rain 19 1020 93 7000 4.6 90 20:58 16.02.2020
2612 Rain 19 1020 93 7000 4.6 90 20:40 16.02.2020
2613 Rain 19 1020 93 7000 4.6 90 20:40 16.02.2020
2614 Rain 19 1020 93 7000 4.6 90 20:40 16.02.2020
2615 Rain 19 1020 93 7000 4.6 90 20:40 16.02.2020
2616 Rain 19 1020 93 7000 4.6 90 20:40 16.02.2020
2617 Rain 19 1020 100 10000 2.6 140 20:22 16.02.2020
2618 Rain 19 1019 93 10000 2.1 150 19:58 16.02.2020
2619 Rain 19 1019 93 10000 2.1 150 19:39 16.02.2020
2620 Drizzle 19 1019 93 8000 3.1 140 19:19 16.02.2020
2621 Clouds 20 1019 94 10000 2.6 120 18:45 16.02.2020
2622 Clouds 20 1019 94 10000 2.6 90 18:27 16.02.2020
2623 Clouds 20 1018 94 7000 2.1 150 17:59 16.02.2020
2624 Clouds 20 1018 94 7000 2.1 150 17:40 16.02.2020
2625 Rain 19 1018 93 10000 2.1 50 17:20 16.02.2020
2626 Drizzle 19 1018 93 7000 1.5 50 16:56 16.02.2020
2627 Drizzle 19 1018 93 7000 1.5 50 16:38 16.02.2020
2628 Drizzle 20 1017 88 5000 3.6 70 16:19 16.02.2020
2629 Rain 21 1017 94 10000 2.6 140 15:41 16.02.2020
2630 Rain 21 1016 88 10000 3.1 170 15:23 16.02.2020
2631 Clouds 21 1016 88 10000 2.1 130 14:57 16.02.2020
2632 Clouds 21 1016 88 10000 2.1 130 14:38 16.02.2020
2633 Thunderstorm 20 1016 94 10000 1.5 100 14:19 16.02.2020
2634 Thunderstorm 20 1016 94 7000 2.6 60 13:42 16.02.2020
2635 Thunderstorm 20 1016 94 7000 4.6 60 13:23 16.02.2020
2636 Thunderstorm 23 1016 78 8000 2.1 50 12:41 16.02.2020
2637 Rain 24 1016 73 10000 2.6 80 12:20 16.02.2020
2638 Rain 25 1017 69 10000 3.6 100 11:57 16.02.2020
2639 Rain 25 1017 69 10000 3.6 100 11:37 16.02.2020
2640 Rain 25 1017 65 10000 2.6 0 11:18 16.02.2020
2641 Rain 24 1018 73 10000 2.6 160 10:56 16.02.2020
2642 Rain 24 1018 73 10000 2.6 160 10:37 16.02.2020
2643 Rain 24 1018 73 10000 2.6 160 10:37 16.02.2020
2644 Rain 24 1018 73 10000 2.6 160 10:37 16.02.2020
2645 Clouds 24 1018 73 10000 2.6 0 10:18 16.02.2020
2646 Clouds 23 1019 83 10000 3.1 140 09:39 16.02.2020
2647 Clouds 23 1019 83 10000 3.1 140 09:39 16.02.2020
2648 Clouds 22 1019 78 10000 3.1 120 09:21 16.02.2020
2649 Clouds 21 1019 94 10000 3.1 120 08:58 16.02.2020
2650 Clouds 21 1019 94 10000 3.1 120 08:40 16.02.2020
2651 Drizzle 20 1019 88 8000 4.1 90 08:19 16.02.2020
2652 Drizzle 20 1019 88 8000 4.1 90 08:19 16.02.2020
2653 Drizzle 20 1020 88 10000 4.6 110 07:43 16.02.2020
2654 Drizzle 20 1020 88 10000 3.6 130 07:23 16.02.2020
2655 Drizzle 18 1019 100 10000 3.6 130 06:31 16.02.2020
2656 Drizzle 19 1018 93 8000 4.1 130 04:37 16.02.2020
2657 Clouds 19 1018 93 10000 2.6 90 03:23 16.02.2020
2658 Clouds 19 1017 93 10000 2.1 90 02:24 16.02.2020
2659 Drizzle 19 1017 93 10000 2.6 100 01:39 16.02.2020
2660 Clouds 19 1017 93 10000 1.5 80 01:20 16.02.2020
2661 Clouds 19 1017 93 10000 2.1 140 00:51 16.02.2020
2662 Clouds 19 1017 93 10000 2.1 140 00:27 16.02.2020
2663 Clouds 19 1017 93 10000 1 0 23:44 15.02.2020
2664 Clouds 19 1017 93 10000 1 0 23:25 15.02.2020
2665 Clouds 19 1017 93 10000 2.6 200 22:57 15.02.2020
2666 Clouds 19 1017 93 10000 2.6 200 22:57 15.02.2020
2667 Clouds 19 1017 93 10000 2.6 200 22:39 15.02.2020
2668 Drizzle 19 1017 88 10000 2.6 200 22:19 15.02.2020
2669 Clouds 20 1018 82 10000 1.5 190 21:56 15.02.2020
2670 Clouds 20 1018 82 10000 1.5 190 21:37 15.02.2020
2671 Clouds 20 1018 82 10000 2.6 200 21:19 15.02.2020
2672 Clouds 20 1018 88 10000 1 0 20:38 15.02.2020
2673 Clouds 20 1018 82 10000 3.6 200 20:20 15.02.2020
2674 Rain 20 1018 88 10000 4.1 200 19:43 15.02.2020
2675 Clouds 21 1018 83 10000 3.1 160 19:22 15.02.2020
2676 Clouds 20 1017 88 10000 1.5 150 18:43 15.02.2020
2677 Clouds 20 1017 88 10000 1.5 200 18:22 15.02.2020
2678 Rain 20 1017 94 10000 2.1 200 17:57 15.02.2020
2679 Rain 20 1017 94 10000 2.1 200 17:38 15.02.2020
2680 Rain 21 1017 88 10000 0.5 0 17:19 15.02.2020
2681 Rain 21 1017 88 10000 1.5 0 16:42 15.02.2020
2682 Rain 21 1016 88 10000 1.5 0 16:24 15.02.2020
2683 Rain 21 1016 88 10000 2.6 210 15:57 15.02.2020
2684 Rain 21 1016 88 10000 2.6 210 15:39 15.02.2020
2685 Rain 21 1016 88 10000 2.1 220 15:20 15.02.2020
2686 Rain 21 1015 88 10000 2.6 220 14:43 15.02.2020
2687 Rain 22 1015 78 10000 6.2 230 14:19 15.02.2020
2688 Rain 23 1015 73 10000 8.2 190 13:43 15.02.2020
2689 Rain 23 1015 73 10000 7.7 180 13:25 15.02.2020
2690 Rain 23 1015 73 10000 9.8 200 12:59 15.02.2020
2691 Rain 23 1015 73 10000 9.8 200 12:41 15.02.2020
2692 Rain 23 1015 73 10000 9.8 200 12:41 15.02.2020
2693 Clouds 29 1015 48 10000 3.1 250 12:22 15.02.2020
2694 Clouds 28 1015 51 10000 4.1 240 11:48 15.02.2020
2695 Clouds 29 1016 48 10000 2.1 0 11:29 15.02.2020
2696 Clouds 28 1016 51 10000 3.1 190 10:52 15.02.2020
2697 Clouds 28 1017 51 10000 4.1 190 10:30 15.02.2020
2698 Clouds 28 1017 51 10000 3.1 200 09:59 15.02.2020
2699 Clouds 28 1017 51 10000 3.1 200 09:41 15.02.2020
2700 Clouds 27 1017 54 10000 3.1 0 09:23 15.02.2020
2701 Rain 24 1018 64 10000 3.6 220 08:43 15.02.2020
2702 Rain 24 1018 69 10000 2.6 280 08:25 15.02.2020
2703 Clouds 25 1018 65 10000 2.1 0 07:56 15.02.2020
2704 Clouds 25 1018 65 10000 2.1 0 07:56 15.02.2020
2705 Clouds 25 1018 65 10000 2.1 0 07:34 15.02.2020
2706 Clouds 23 1019 73 10000 3.1 290 06:59 15.02.2020
2707 Clouds 23 1019 73 10000 3.1 290 06:36 15.02.2020
2708 Clouds 20 1019 88 10000 3.1 290 05:46 15.02.2020
2709 Clouds 18 1018 100 10000 1.5 0 04:46 15.02.2020
2710 Clouds 18 1017 100 10000 2.1 310 03:43 15.02.2020
2711 Clouds 18 1017 93 10000 2.1 310 02:51 15.02.2020
2712 Clouds 18 1017 100 10000 2.1 310 02:23 15.02.2020
2713 Clouds 19 1016 93 10000 2.1 290 01:40 15.02.2020
2714 Clouds 19 1017 93 10000 1.5 260 00:42 15.02.2020
2715 Clouds 19 1018 93 10000 3.1 240 00:21 15.02.2020
2716 Clouds 19 1018 93 10000 2.1 250 23:42 14.02.2020
2717 Clouds 19 1018 93 10000 2.6 280 23:20 14.02.2020
2718 Clouds 20 1019 88 10000 2.6 290 22:44 14.02.2020
2719 Clouds 20 1019 88 10000 3.1 330 22:24 14.02.2020
2720 Clouds 20 1019 88 10000 3.1 320 21:54 14.02.2020
2721 Clouds 20 1019 88 10000 3.1 320 21:36 14.02.2020
2722 Clouds 20 1019 94 10000 3.1 310 21:18 14.02.2020
2723 Clouds 21 1020 88 10000 3.6 300 20:42 14.02.2020
2724 Clouds 21 1020 77 10000 1 200 20:19 14.02.2020
2725 Thunderstorm 22 1019 73 10000 1 0 19:55 14.02.2020
2726 Thunderstorm 22 1019 73 10000 1 0 19:37 14.02.2020
2727 Thunderstorm 22 1019 73 10000 3.6 170 19:18 14.02.2020
2728 Thunderstorm 22 1018 73 10000 3.1 160 18:55 14.02.2020
2729 Thunderstorm 22 1018 73 10000 3.1 160 18:36 14.02.2020
2730 Thunderstorm 22 1018 73 10000 3.1 140 18:18 14.02.2020
2731 Clouds 23 1018 69 10000 3.6 140 17:40 14.02.2020
2732 Clouds 23 1017 69 10000 4.6 140 17:19 14.02.2020
2733 Clouds 24 1017 69 10000 5.1 130 16:43 14.02.2020
2734 Clouds 25 1016 65 10000 5.7 120 16:25 14.02.2020
2735 Clouds 26 1015 57 10000 3.6 160 15:59 14.02.2020
2736 Clouds 26 1015 57 10000 3.6 160 15:41 14.02.2020
2737 Clouds 27 1015 51 10000 3.6 140 15:21 14.02.2020
2738 Clouds 28 1015 51 10000 4.1 180 14:59 14.02.2020
2739 Clouds 28 1015 51 10000 4.1 180 14:41 14.02.2020
2740 Clouds 27 1015 47 10000 4.1 180 14:22 14.02.2020
2741 Clouds 27 1016 47 10000 2.6 130 13:57 14.02.2020
2742 Clouds 27 1016 47 10000 2.6 130 13:39 14.02.2020
2743 Thunderstorm 27 1016 47 10000 2.6 150 13:20 14.02.2020
2744 Thunderstorm 25 1016 53 10000 3.6 170 12:57 14.02.2020
2745 Thunderstorm 25 1016 53 10000 3.6 170 12:57 14.02.2020
2746 Thunderstorm 25 1016 53 10000 3.6 170 12:38 14.02.2020
2747 Thunderstorm 26 1016 57 10000 4.1 190 12:20 14.02.2020
2748 Clouds 26 1017 54 10000 6.2 190 11:56 14.02.2020
2749 Clouds 26 1017 54 10000 6.2 190 11:56 14.02.2020
2750 Clouds 26 1017 54 10000 6.2 190 11:37 14.02.2020
2751 Clouds 26 1017 57 10000 6.2 180 11:19 14.02.2020
2752 Clouds 27 1018 54 10000 5.1 190 10:41 14.02.2020
2753 Clouds 28 1018 51 10000 6.2 190 10:22 14.02.2020
2754 Clouds 27 1018 54 10000 4.6 200 09:55 14.02.2020
2755 Clouds 27 1018 54 10000 4.6 200 09:36 14.02.2020
2756 Clouds 25 1018 65 10000 5.1 210 09:18 14.02.2020
2757 Clouds 23 1018 69 10000 4.6 210 08:40 14.02.2020
2758 Clouds 23 1019 69 10000 4.6 220 08:21 14.02.2020
2759 Clouds 23 1019 69 10000 4.6 220 08:21 14.02.2020
2760 Clouds 23 1019 69 10000 4.6 200 07:50 14.02.2020
2761 Clouds 22 1019 73 10000 2.6 180 07:30 14.02.2020
2762 Drizzle 21 1020 77 10000 1.5 180 06:41 14.02.2020
2763 Drizzle 21 1020 77 10000 1.5 180 06:41 14.02.2020
2764 Drizzle 20 1020 88 10000 0.5 0 06:21 14.02.2020
2765 Drizzle 20 1020 88 10000 0.5 0 06:21 14.02.2020
2766 Clouds 19 1020 88 10000 2.1 300 05:38 14.02.2020
2767 Clouds 19 1018 88 10000 1.5 330 03:50 14.02.2020
2768 Clouds 19 1018 88 10000 2.1 190 02:58 14.02.2020
2769 Clouds 19 1017 88 10000 3.1 260 01:57 14.02.2020
2770 Clouds 20 1017 82 10000 1.5 190 00:52 14.02.2020
2771 Clouds 19 1018 82 10000 2.1 110 00:31 14.02.2020
2772 Clouds 19 1018 82 10000 1 0 23:57 13.02.2020
2773 Clouds 19 1018 82 10000 1 0 23:38 13.02.2020
2774 Clouds 19 1018 82 10000 0.5 0 23:18 13.02.2020
2775 Clouds 19 1019 82 10000 2.1 210 22:40 13.02.2020
2776 Clouds 20 1019 77 10000 2.6 180 22:19 13.02.2020
2777 Clouds 20 1019 77 10000 3.6 180 21:58 13.02.2020
2778 Clouds 20 1019 77 10000 3.6 180 21:40 13.02.2020
2779 Clouds 20 1020 77 10000 4.6 180 21:20 13.02.2020
2780 Clouds 21 1019 68 10000 4.1 160 20:42 13.02.2020
2781 Clouds 20 1019 77 10000 3.1 170 20:22 13.02.2020
2782 Clouds 21 1019 77 10000 1.5 0 19:57 13.02.2020
2783 Clouds 21 1019 77 10000 1.5 0 19:39 13.02.2020
2784 Clouds 21 1019 77 10000 1.5 0 19:39 13.02.2020
2785 Clouds 21 1018 73 10000 3.1 140 19:20 13.02.2020
2786 Clouds 21 1018 77 10000 2.6 150 18:57 13.02.2020
2787 Clouds 21 1018 77 10000 2.6 150 18:39 13.02.2020
2788 Clouds 22 1018 73 10000 4.1 140 18:20 13.02.2020
2789 Clouds 22 1017 73 10000 3.1 140 17:57 13.02.2020
2790 Clouds 22 1017 73 10000 3.1 140 17:37 13.02.2020
2791 Clouds 22 1017 73 10000 2.6 150 17:18 13.02.2020
2792 Clouds 22 1017 73 10000 4.1 120 16:42 13.02.2020
2793 Clouds 23 1017 69 10000 3.1 150 16:21 13.02.2020
2794 Clouds 24 1017 69 10000 3.6 120 15:57 13.02.2020
2795 Clouds 24 1017 69 10000 3.6 120 15:39 13.02.2020
2796 Clouds 24 1017 64 0 4.6 140 15:19 13.02.2020
2797 Clouds 25 1017 57 10000 4.1 120 14:59 13.02.2020
2798 Clouds 25 1017 57 10000 4.1 120 14:39 13.02.2020
2799 Clouds 25 1017 61 10000 3.6 150 14:21 13.02.2020
2800 Clouds 25 1017 61 10000 5.1 130 13:48 13.02.2020
2801 Clouds 26 1017 57 10000 4.6 110 13:19 13.02.2020
2802 Clouds 26 1017 57 10000 3.6 130 12:57 13.02.2020
2803 Clouds 26 1017 57 10000 3.6 130 12:38 13.02.2020
2804 Clouds 26 1017 57 10000 3.1 150 12:20 13.02.2020
2805 Clouds 26 1017 57 10000 3.1 150 11:47 13.02.2020
2806 Clouds 25 1017 61 10000 3.1 140 11:21 13.02.2020
2807 Clouds 26 1017 57 10000 3.1 0 10:57 13.02.2020
2808 Clouds 26 1017 57 10000 3.1 0 10:39 13.02.2020
2809 Clouds 26 1017 57 10000 4.1 180 10:20 13.02.2020
2810 Clouds 25 1018 61 10000 4.6 150 09:42 13.02.2020
2811 Clouds 25 1018 61 10000 4.6 150 09:23 13.02.2020
2812 Clouds 24 1019 64 10000 5.7 140 08:45 13.02.2020
2813 Clouds 23 1019 69 10000 4.1 160 08:19 13.02.2020
2814 Clouds 23 1019 69 10000 4.1 160 08:19 13.02.2020
2815 Clouds 23 1019 69 10000 4.1 160 08:19 13.02.2020
2816 Clouds 23 1019 64 10000 3.1 150 07:43 13.02.2020
2817 Clouds 23 1019 64 10000 5.1 180 07:22 13.02.2020
2818 Clouds 22 1019 64 10000 3.6 160 06:52 13.02.2020
2819 Clouds 22 1019 64 10000 3.6 160 06:33 13.02.2020
2820 Clouds 20 1018 77 10000 1.5 190 05:43 13.02.2020
2821 Clouds 18 1018 88 10000 2.1 160 04:45 13.02.2020
2822 Clouds 18 1018 88 10000 2.6 170 04:18 13.02.2020
2823 Clouds 18 1017 88 10000 2.1 170 03:30 13.02.2020
2824 Clouds 18 1017 93 10000 2.6 150 02:56 13.02.2020
2825 Clouds 18 1017 93 10000 2.1 160 02:20 13.02.2020
2826 Clouds 18 1017 93 10000 2.1 160 02:20 13.02.2020
2827 Clouds 18 1017 93 10000 1 0 01:40 13.02.2020
2828 Clouds 18 1017 93 10000 1 0 01:40 13.02.2020
2829 Clouds 18 1017 93 10000 1 0 01:40 13.02.2020
2830 Clouds 18 1017 93 10000 1 0 01:40 13.02.2020
2831 Clouds 18 1017 93 10000 1 0 00:45 13.02.2020
2832 Clouds 19 1017 88 10000 1 210 00:26 13.02.2020
2833 Clouds 19 1017 88 10000 2.6 200 23:42 12.02.2020
2834 Clouds 19 1018 88 10000 1.5 230 23:23 12.02.2020
2835 Clouds 19 1018 88 10000 1.5 0 22:56 12.02.2020
2836 Clouds 19 1018 88 10000 1.5 0 22:38 12.02.2020
2837 Clouds 20 1018 82 10000 1 170 22:20 12.02.2020
2838 Clouds 20 1018 82 10000 2.1 150 21:55 12.02.2020
2839 Clouds 20 1018 82 10000 2.1 150 21:36 12.02.2020
2840 Clouds 20 1018 82 10000 4.1 150 21:18 12.02.2020
2841 Clouds 20 1018 82 10000 3.6 150 20:42 12.02.2020
2842 Clouds 21 1018 77 10000 3.6 150 20:23 12.02.2020
2843 Clouds 21 1017 77 10000 3.1 170 19:57 12.02.2020
2844 Clouds 21 1017 77 10000 3.1 170 19:37 12.02.2020
2845 Clouds 21 1017 77 10000 3.6 120 19:19 12.02.2020
2846 Clouds 22 1017 73 10000 3.6 130 18:47 12.02.2020
2847 Clouds 22 1017 73 10000 5.1 110 18:19 12.02.2020
2848 Clouds 23 1016 69 10000 3.6 130 17:56 12.02.2020
2849 Clouds 23 1016 69 10000 3.6 130 17:37 12.02.2020
2850 Clouds 23 1016 64 10000 3.6 140 17:19 12.02.2020
2851 Clouds 24 1016 60 10000 4.6 150 16:40 12.02.2020
2852 Clouds 25 1015 57 10000 5.1 130 16:20 12.02.2020
2853 Clouds 26 1015 54 10000 5.1 150 15:57 12.02.2020
2854 Clouds 26 1015 54 10000 5.1 150 15:36 12.02.2020
2855 Clouds 26 1015 54 10000 5.1 150 15:36 12.02.2020
2856 Clouds 27 1015 51 10000 4.1 150 15:18 12.02.2020
2857 Clouds 28 1015 51 10000 4.6 130 14:42 12.02.2020
2858 Clouds 28 1015 48 10000 5.1 120 14:21 12.02.2020
2859 Clouds 29 1015 45 10000 5.1 120 13:58 12.02.2020
2860 Clouds 29 1015 45 10000 5.1 120 13:40 12.02.2020
2861 Clear 27 1010 50 0 3.85 95 13:20 12.02.2020
2862 Clear 27 1010 50 0 3.85 95 13:20 12.02.2020
2863 Clear 27 1010 50 0 3.85 95 12:57 12.02.2020
2864 Clear 27 1010 50 0 3.85 95 12:57 12.02.2020
2865 Clear 27 1010 50 0 3.85 95 12:38 12.02.2020
2866 Clouds 28 1016 42 10000 4.6 150 12:18 12.02.2020
2867 Clouds 28 1016 42 10000 4.6 150 11:57 12.02.2020
2868 Clouds 28 1016 42 10000 4.6 150 11:39 12.02.2020
2869 Clouds 28 1016 42 10000 4.6 150 11:20 12.02.2020
2870 Clouds 27 1016 44 10000 4.6 150 10:55 12.02.2020
2871 Clouds 27 1016 44 10000 4.6 150 10:37 12.02.2020
2872 Clouds 27 1016 44 10000 4.6 150 10:19 12.02.2020
2873 Clouds 27 1016 44 10000 6.2 110 09:42 12.02.2020
2874 Clouds 27 1016 44 10000 6.2 110 09:42 12.02.2020
2875 Clouds 27 1016 44 10000 6.2 110 09:42 12.02.2020
2876 Clouds 26 1017 47 10000 4.1 150 09:23 12.02.2020
2877 Clouds 23 1017 53 10000 4.1 140 08:58 12.02.2020
2878 Clouds 23 1017 53 10000 4.1 140 08:58 12.02.2020
2879 Clouds 23 1017 53 10000 4.1 140 08:38 12.02.2020
2880 Clouds 23 1017 53 10000 4.1 140 08:38 12.02.2020
2881 Clouds 23 1017 53 10000 4.1 140 08:19 12.02.2020
2882 Clouds 23 1017 53 10000 4.1 140 08:19 12.02.2020
2883 Clouds 22 1017 56 10000 5.1 170 07:44 12.02.2020
2884 Clouds 22 1017 56 10000 5.1 170 07:23 12.02.2020
2885 Clouds 21 1017 60 10000 4.1 150 06:57 12.02.2020
2886 Clouds 20 1017 64 10000 4.1 150 06:24 12.02.2020
2887 Clouds 19 1017 68 10000 3.1 170 05:39 12.02.2020
2888 Clouds 16 1017 82 10000 3.6 150 04:58 12.02.2020
2889 Clouds 16 1017 82 10000 3.6 150 04:39 12.02.2020
2890 Clouds 16 1016 82 10000 2.6 160 03:33 12.02.2020
2891 Clouds 16 1016 82 10000 3.1 160 02:58 12.02.2020
2892 Clouds 16 1016 82 10000 2.1 160 02:30 12.02.2020
2893 Clouds 16 1016 82 10000 2.6 170 01:58 12.02.2020
2894 Clouds 17 1016 82 10000 3.1 140 00:46 12.02.2020
2895 Clouds 17 1017 82 10000 3.6 150 00:26 12.02.2020
2896 Clouds 18 1017 77 10000 4.6 140 23:57 11.02.2020
2897 Clouds 18 1017 77 10000 4.6 140 23:39 11.02.2020
2898 Clouds 18 1017 82 10000 4.1 160 23:20 11.02.2020
2899 Clouds 18 1017 82 10000 3.6 150 22:55 11.02.2020
2900 Clouds 18 1017 82 10000 3.6 150 22:37 11.02.2020
2901 Clouds 18 1017 82 10000 3.6 150 22:37 11.02.2020
2902 Clouds 19 1017 77 10000 3.6 150 22:18 11.02.2020
2903 Clouds 19 1017 82 10000 3.6 140 21:55 11.02.2020
2904 Clouds 19 1017 82 10000 3.6 140 21:37 11.02.2020
2905 Clouds 19 1018 82 10000 4.1 110 21:18 11.02.2020
2906 Clouds 19 1018 82 10000 4.1 120 20:40 11.02.2020
2907 Clouds 20 1017 77 10000 3.6 140 20:20 11.02.2020
2908 Clouds 20 1017 72 10000 3.6 110 19:59 11.02.2020
2909 Clouds 20 1017 72 10000 3.6 110 19:41 11.02.2020
2910 Clouds 21 1017 68 10000 3.1 140 19:23 11.02.2020
2911 Clouds 21 1017 64 10000 2.6 130 18:55 11.02.2020
2912 Clouds 21 1017 64 10000 2.6 130 18:37 11.02.2020
2913 Thunderstorm 22 1016 60 10000 3.6 140 18:19 11.02.2020
2914 Thunderstorm 22 1016 64 10000 4.6 120 17:55 11.02.2020
2915 Thunderstorm 22 1016 64 10000 4.6 120 17:36 11.02.2020
2916 Clouds 23 1015 60 10000 4.6 120 17:18 11.02.2020
2917 Clouds 24 1015 53 10000 5.7 100 16:55 11.02.2020
2918 Clouds 24 1015 53 10000 5.7 100 16:36 11.02.2020
2919 Clouds 24 1015 53 10000 5.7 100 16:36 11.02.2020
2920 Clouds 26 1014 44 10000 5.7 100 16:18 11.02.2020
2921 Clouds 28 1014 34 10000 2.6 110 15:42 11.02.2020
2922 Clouds 29 1014 30 10000 2.6 120 15:23 11.02.2020
2923 Clouds 29 1014 28 10000 3.1 160 14:44 11.02.2020
2924 Clouds 30 1014 28 10000 3.1 170 14:20 11.02.2020
2925 Clouds 30 1015 30 10000 3.1 120 13:58 11.02.2020
2926 Clouds 30 1015 30 10000 3.1 120 13:39 11.02.2020
2927 Clouds 30 1015 33 10000 3.1 170 13:20 11.02.2020
2928 Clouds 30 1015 33 10000 2.1 0 12:57 11.02.2020
2929 Clouds 30 1015 33 10000 2.1 0 12:38 11.02.2020
2930 Clouds 30 1015 30 10000 2.6 0 12:19 11.02.2020
2931 Clouds 30 1015 35 10000 2.1 70 11:41 11.02.2020
2932 Clouds 29 1016 39 10000 2.6 0 11:20 11.02.2020
2933 Clouds 29 1016 39 10000 2.1 0 10:55 11.02.2020
2934 Clouds 29 1016 39 10000 2.1 0 10:36 11.02.2020
2935 Clouds 28 1016 45 10000 1.5 0 10:18 11.02.2020
2936 Clouds 28 1016 45 10000 1.5 0 10:18 11.02.2020
2937 Clouds 28 1016 45 10000 1.5 0 10:18 11.02.2020
2938 Clouds 28 1017 39 10000 2.6 150 09:44 11.02.2020
2939 Clouds 27 1017 42 10000 2.1 0 09:22 11.02.2020
2940 Clouds 26 1017 47 10000 2.1 80 08:57 11.02.2020
2941 Clouds 26 1017 47 10000 2.1 80 08:39 11.02.2020
2942 Clouds 25 1017 50 10000 2.1 150 08:20 11.02.2020
2943 Clouds 24 1017 60 10000 2.6 120 07:45 11.02.2020
2944 Clouds 24 1017 64 10000 3.1 140 07:24 11.02.2020
2945 Clouds 23 1018 69 10000 2.1 140 06:43 11.02.2020
2946 Clouds 22 1018 73 10000 2.1 90 06:21 11.02.2020
2947 Clouds 21 1017 77 10000 2.6 90 05:47 11.02.2020
2948 Clouds 18 1017 93 10000 2.1 80 05:22 11.02.2020
2949 Clouds 18 1017 93 10000 2.1 80 04:36 11.02.2020
2950 Clouds 17 1017 93 10000 2.1 80 02:44 11.02.2020
2951 Clouds 17 1017 93 10000 2.1 80 02:23 11.02.2020
2952 Clouds 17 1017 93 10000 2.1 80 01:35 11.02.2020
2953 Clouds 18 1017 93 10000 2.1 70 00:38 11.02.2020
2954 Clouds 19 1018 88 10000 2.6 80 23:53 10.02.2020
2955 Clouds 19 1018 88 10000 2.6 80 23:33 10.02.2020
2956 Clouds 19 1018 88 10000 2.6 80 23:33 10.02.2020
2957 Clouds 19 1019 88 10000 3.1 80 22:58 10.02.2020
2958 Clouds 19 1019 88 10000 3.1 80 22:38 10.02.2020
2959 Clouds 20 1019 82 10000 4.1 90 22:20 10.02.2020
2960 Clouds 20 1019 82 10000 4.1 90 21:43 10.02.2020
2961 Clouds 20 1019 82 10000 3.6 110 21:25 10.02.2020
2962 Clouds 20 1019 88 10000 3.6 130 20:58 10.02.2020
2963 Clouds 20 1019 88 10000 3.6 130 20:38 10.02.2020
2964 Clouds 20 1019 88 10000 2.6 110 20:20 10.02.2020
2965 Clouds 20 1019 88 10000 4.6 110 19:58 10.02.2020
2966 Clouds 20 1019 88 10000 4.6 110 19:38 10.02.2020
2967 Clouds 20 1019 82 10000 5.1 110 19:19 10.02.2020
2968 Clouds 20 1018 82 10000 4.6 110 18:58 10.02.2020
2969 Clouds 20 1018 82 10000 4.6 110 18:39 10.02.2020
2970 Clouds 21 1018 77 10000 4.1 130 18:20 10.02.2020
2971 Clouds 22 1017 73 10000 4.1 120 17:56 10.02.2020
2972 Clouds 22 1017 73 10000 4.1 120 17:37 10.02.2020
2973 Clouds 22 1017 73 10000 5.7 110 17:19 10.02.2020
2974 Clouds 23 1017 69 10000 6.7 90 16:58 10.02.2020
2975 Clouds 23 1017 69 10000 6.7 90 16:38 10.02.2020
2976 Clouds 24 1016 64 10000 6.7 100 16:18 10.02.2020
2977 Clouds 26 1016 54 10000 4.6 90 15:42 10.02.2020
2978 Clouds 27 1016 47 10000 4.6 110 15:23 10.02.2020
2979 Clouds 29 1016 28 10000 1.5 40 14:59 10.02.2020
2980 Clouds 29 1016 28 10000 1.5 40 14:41 10.02.2020
2981 Clouds 29 1016 30 10000 2.1 60 14:19 10.02.2020
2982 Clouds 30 1016 28 10000 2.6 0 13:56 10.02.2020
2983 Clouds 30 1016 28 10000 2.6 0 13:56 10.02.2020
2984 Clouds 30 1016 28 10000 2.6 0 13:38 10.02.2020
2985 Clouds 31 1016 20 10000 2.1 300 13:18 10.02.2020
2986 Clouds 31 1016 20 10000 2.1 300 13:18 10.02.2020
2987 Clouds 31 1017 18 10000 2.6 0 12:44 10.02.2020
2988 Clouds 30 1017 19 10000 2.1 0 12:25 10.02.2020
2989 Clouds 29 1017 17 10000 1.5 0 11:55 10.02.2020
2990 Clouds 29 1017 17 10000 1.5 0 11:37 10.02.2020
2991 Clouds 28 1018 28 10000 2.1 0 11:19 10.02.2020
2992 Clouds 28 1018 26 10000 1.5 0 10:45 10.02.2020
2993 Clouds 28 1018 30 10000 2.1 0 10:26 10.02.2020
2994 Clouds 27 1019 34 10000 3.1 90 09:45 10.02.2020
2995 Clouds 26 1019 50 10000 2.1 0 09:25 10.02.2020
2996 Clouds 25 1019 50 10000 2.6 0 08:45 10.02.2020
2997 Clouds 24 1019 57 10000 3.6 200 08:22 10.02.2020
2998 Clouds 23 1019 64 10000 3.1 190 07:58 10.02.2020
2999 Clouds 23 1019 64 10000 3.1 190 07:38 10.02.2020
3000 Clouds 23 1020 60 10000 1.5 170 06:59 10.02.2020
3001 Clouds 20 1020 77 10000 1.5 0 05:42 10.02.2020
3002 Clouds 17 1019 88 10000 1 0 04:26 10.02.2020
3003 Clouds 16 1019 93 10000 1.5 130 03:31 10.02.2020
3004 Clouds 16 1019 93 10000 2.1 130 02:53 10.02.2020
3005 Clouds 17 1019 88 10000 1.5 60 01:36 10.02.2020
3006 Clouds 17 1019 93 10000 2.6 130 00:48 10.02.2020
3007 Clouds 17 1019 93 10000 3.1 110 00:28 10.02.2020
3008 Clouds 18 1019 88 10000 2.1 120 23:44 09.02.2020
3009 Clouds 18 1020 88 10000 1.5 150 23:26 09.02.2020
3010 Clouds 18 1020 88 10000 4.1 120 22:57 09.02.2020
3011 Clouds 18 1020 88 10000 4.1 120 22:37 09.02.2020
3012 Clouds 19 1020 88 10000 4.6 110 22:19 09.02.2020
3013 Clouds 19 1020 88 10000 4.1 110 21:41 09.02.2020
3014 Clouds 19 1021 88 10000 4.6 120 21:22 09.02.2020
3015 Thunderstorm 19 1021 88 10000 3.6 110 20:46 09.02.2020
3016 Thunderstorm 20 1021 82 10000 4.6 130 20:23 09.02.2020
3017 Clouds 20 1021 82 10000 4.6 120 19:57 09.02.2020
3018 Clouds 20 1021 82 10000 4.6 120 19:57 09.02.2020
3019 Clouds 20 1021 82 10000 4.6 120 19:38 09.02.2020
3020 Clouds 20 1021 82 10000 4.6 120 19:38 09.02.2020
3021 Clouds 20 1021 82 10000 4.6 120 19:38 09.02.2020
3022 Clouds 20 1021 82 10000 4.1 100 19:18 09.02.2020
3023 Clouds 21 1021 73 10000 4.1 100 18:42 09.02.2020
3024 Clouds 21 1020 73 10000 3.6 130 18:23 09.02.2020
3025 Clouds 21 1020 73 10000 5.7 120 17:59 09.02.2020
3026 Clouds 21 1020 73 10000 5.7 120 17:39 09.02.2020
3027 Clouds 21 1020 73 10000 5.7 120 17:39 09.02.2020
3028 Clouds 22 1019 68 10000 5.1 120 17:21 09.02.2020
3029 Clouds 23 1019 64 10000 4.6 110 16:41 09.02.2020
3030 Clouds 24 1018 57 10000 5.7 120 16:22 09.02.2020
3031 Clouds 26 1018 50 10000 4.1 150 15:58 09.02.2020
3032 Clouds 26 1018 50 10000 4.1 150 15:40 09.02.2020
3033 Clouds 26 1018 50 10000 4.1 130 15:21 09.02.2020
3034 Clouds 27 1018 47 10000 4.6 120 14:56 09.02.2020
3035 Clouds 27 1018 47 10000 4.6 120 14:37 09.02.2020
3036 Clouds 27 1018 51 10000 5.1 110 14:19 09.02.2020
3037 Clouds 26 1018 54 10000 3.6 150 13:43 09.02.2020
3038 Clouds 28 1019 48 10000 3.6 130 13:25 09.02.2020
3039 Clouds 28 1019 48 10000 3.6 150 12:55 09.02.2020
3040 Clouds 28 1019 48 10000 3.6 150 12:37 09.02.2020
3041 Clouds 27 1020 51 10000 4.1 110 12:18 09.02.2020
3042 Clouds 27 1020 51 10000 4.1 110 12:18 09.02.2020
3043 Clouds 27 1020 51 10000 4.1 110 11:40 09.02.2020
3044 Clouds 26 1020 57 10000 4.1 100 11:19 09.02.2020
3045 Clouds 26 1020 54 10000 2.6 110 10:54 09.02.2020
3046 Clouds 26 1020 54 10000 2.6 110 10:36 09.02.2020
3047 Clouds 26 1021 54 10000 3.6 150 10:18 09.02.2020
3048 Clouds 25 1021 61 10000 3.6 130 09:39 09.02.2020
3049 Clouds 23 1022 64 10000 4.1 130 09:20 09.02.2020
3050 Clouds 23 1022 64 10000 4.1 140 08:42 09.02.2020
3051 Clouds 23 1022 64 10000 4.1 130 08:23 09.02.2020
3052 Clouds 23 1022 64 10000 3.1 180 07:54 09.02.2020
3053 Clouds 23 1022 64 10000 3.1 180 07:34 09.02.2020
3054 Clouds 22 1022 64 10000 2.6 160 06:42 09.02.2020
3055 Clouds 20 1022 77 10000 3.1 170 05:56 09.02.2020
3056 Clouds 20 1022 77 10000 3.1 170 05:56 09.02.2020
3057 Clouds 20 1022 77 10000 3.1 170 05:34 09.02.2020
3058 Clouds 18 1021 88 10000 2.1 150 04:51 09.02.2020
3059 Clouds 17 1021 88 10000 2.6 130 02:58 09.02.2020
3060 Clouds 17 1021 88 10000 2.6 130 02:38 09.02.2020
3061 Clouds 17 1021 93 10000 1.5 60 01:44 09.02.2020
3062 Clouds 17 1021 93 10000 1 0 01:19 09.02.2020
3063 Clouds 18 1021 88 10000 1.5 80 00:32 09.02.2020
3064 Clouds 18 1021 88 10000 2.1 80 23:55 08.02.2020
3065 Clouds 18 1021 88 10000 2.1 80 23:37 08.02.2020
3066 Clouds 19 1021 88 10000 2.6 70 23:18 08.02.2020
3067 Clouds 19 1022 88 10000 3.1 90 22:40 08.02.2020
3068 Clouds 19 1022 88 10000 4.1 120 22:21 08.02.2020
3069 Clouds 19 1022 88 10000 4.1 100 21:49 08.02.2020
3070 Clouds 19 1022 88 10000 4.6 110 21:30 08.02.2020
3071 Clouds 20 1023 82 10000 4.6 140 20:59 08.02.2020
3072 Clouds 20 1023 82 10000 4.6 140 20:40 08.02.2020
3073 Clouds 20 1023 88 10000 4.1 100 20:20 08.02.2020
3074 Clouds 20 1022 82 10000 4.6 100 19:59 08.02.2020
3075 Clouds 20 1022 82 10000 4.6 100 19:39 08.02.2020
3076 Clouds 21 1022 77 10000 5.1 90 19:20 08.02.2020
3077 Clouds 21 1022 77 10000 5.1 100 18:57 08.02.2020
3078 Clouds 21 1022 77 10000 5.1 100 18:38 08.02.2020
3079 Thunderstorm 22 1022 78 10000 5.1 100 18:19 08.02.2020
3080 Clouds 22 1021 73 10000 5.1 120 17:41 08.02.2020
3081 Thunderstorm 23 1020 69 10000 5.7 130 17:19 08.02.2020
3082 Clouds 24 1020 60 10000 6.2 130 16:42 08.02.2020
3083 Clouds 25 1019 50 10000 6.2 100 16:23 08.02.2020
3084 Clouds 27 1019 42 10000 5.1 100 15:59 08.02.2020
3085 Clouds 27 1019 42 10000 5.1 100 15:39 08.02.2020
3086 Clouds 27 1019 44 10000 5.1 90 15:18 08.02.2020
3087 Clouds 27 1019 44 10000 5.1 90 15:18 08.02.2020
3088 Clouds 28 1019 42 10000 3.6 60 14:45 08.02.2020
3089 Clouds 29 1019 32 10000 2.1 0 14:22 08.02.2020
3090 Clouds 29 1019 37 10000 3.1 150 13:58 08.02.2020
3091 Clouds 29 1019 37 10000 3.1 150 13:58 08.02.2020
3092 Clouds 29 1019 37 10000 3.1 150 13:40 08.02.2020
3093 Clouds 30 1019 37 10000 3.6 180 13:21 08.02.2020
3094 Clouds 29 1019 35 10000 2.6 150 12:41 08.02.2020
3095 Clouds 29 1019 37 10000 2.6 0 12:22 08.02.2020
3096 Clouds 28 1020 37 10000 2.6 0 11:56 08.02.2020
3097 Clouds 28 1020 37 10000 2.6 0 11:38 08.02.2020
3098 Clouds 29 1020 37 10000 2.1 0 11:19 08.02.2020
3099 Clouds 28 1020 39 10000 2.1 0 10:42 08.02.2020
3100 Clouds 27 1021 42 10000 2.1 0 10:22 08.02.2020
3101 Clouds 27 1021 39 10000 2.6 150 09:51 08.02.2020
3102 Clouds 26 1022 41 10000 2.1 110 09:27 08.02.2020
3103 Clouds 26 1022 41 10000 2.1 110 09:27 08.02.2020
3104 Clouds 26 1022 41 10000 2.1 190 08:54 08.02.2020
3105 Clouds 26 1022 41 10000 2.1 190 08:36 08.02.2020
3106 Clouds 25 1022 41 10000 3.1 180 08:18 08.02.2020
3107 Clouds 24 1022 50 10000 2.1 0 07:43 08.02.2020
3108 Clouds 23 1022 49 10000 1.5 0 07:19 08.02.2020
3109 Clouds 21 1022 64 10000 1.5 150 06:24 08.02.2020
3110 Clouds 20 1022 72 10000 1 0 05:47 08.02.2020
3111 Clouds 17 1022 93 10000 1.74 128 05:28 08.02.2020
3112 Clouds 15 1022 93 10000 1 0 04:37 08.02.2020
3113 Clouds 14 1021 93 10000 1 0 03:41 08.02.2020
3114 Clouds 14 1021 100 10000 1.33 133 02:51 08.02.2020
3115 Clouds 15 1021 93 10000 1.5 60 01:37 08.02.2020
3116 Clouds 15 1021 93 10000 1.5 60 01:19 08.02.2020
3117 Clouds 16 1021 87 10000 2.1 40 00:38 08.02.2020
3118 Clouds 17 1021 82 10000 2.6 70 00:20 08.02.2020
3119 Clouds 18 1021 77 10000 3.1 70 23:42 07.02.2020
3120 Clouds 18 1021 77 10000 3.6 80 23:20 07.02.2020
3121 Clouds 19 1021 82 10000 3.1 90 22:56 07.02.2020
3122 Clouds 19 1021 82 10000 3.1 90 22:37 07.02.2020
3123 Clouds 19 1021 82 10000 4.1 110 22:18 07.02.2020
3124 Rain 19 1021 82 10000 5.7 110 21:42 07.02.2020
3125 Thunderstorm 20 1021 77 10000 5.1 120 21:22 07.02.2020
3126 Thunderstorm 20 1021 82 10000 6.2 110 20:41 07.02.2020
3127 Thunderstorm 20 1021 82 10000 4.6 130 20:22 07.02.2020
3128 Thunderstorm 20 1021 82 10000 4.6 130 20:22 07.02.2020
3129 Thunderstorm 20 1021 82 10000 5.7 110 19:57 07.02.2020
3130 Thunderstorm 20 1021 82 10000 5.7 110 19:38 07.02.2020
3131 Thunderstorm 21 1021 77 10000 5.1 120 19:19 07.02.2020
3132 Thunderstorm 21 1022 77 10000 4.1 130 18:46 07.02.2020
3133 Thunderstorm 22 1021 78 10000 4.6 120 18:26 07.02.2020
3134 Thunderstorm 22 1021 78 10000 4.6 130 17:57 07.02.2020
3135 Thunderstorm 22 1021 78 10000 4.6 130 17:39 07.02.2020
3136 Thunderstorm 22 1021 78 10000 5.7 120 17:20 07.02.2020
3137 Clouds 23 1020 69 10000 4.6 120 16:52 07.02.2020
3138 Thunderstorm 23 1020 69 10000 3.1 120 16:24 07.02.2020
3139 Thunderstorm 23 1019 64 10000 4.6 140 15:55 07.02.2020
3140 Thunderstorm 23 1019 64 10000 4.6 140 15:36 07.02.2020
3141 Thunderstorm 23 1019 69 10000 3.6 220 15:18 07.02.2020
3142 Thunderstorm 25 1018 53 10000 5.7 140 14:42 07.02.2020
3143 Clouds 26 1018 54 10000 3.96 103 14:24 07.02.2020
3144 Clouds 27 1018 47 10000 1 0 13:57 07.02.2020
3145 Clouds 27 1018 47 10000 1 0 13:38 07.02.2020
3146 Clouds 29 1018 42 10000 2.1 0 13:20 07.02.2020
3147 Clouds 29 1019 42 10000 2.6 230 12:42 07.02.2020
3148 Clouds 29 1019 42 10000 2.1 0 12:24 07.02.2020
3149 Clouds 28 1019 45 10000 2.6 0 11:58 07.02.2020
3150 Clouds 28 1019 45 10000 2.6 0 11:39 07.02.2020
3151 Clouds 28 1020 42 10000 3.6 150 11:18 07.02.2020
3152 Clouds 28 1020 45 10000 3.1 190 10:40 07.02.2020
3153 Clouds 27 1021 47 10000 3.1 220 10:20 07.02.2020
3154 Clouds 27 1021 51 10000 3.1 240 09:45 07.02.2020
3155 Clouds 26 1022 57 10000 1.5 0 09:25 07.02.2020
3156 Clouds 26 1022 57 10000 1.5 170 08:57 07.02.2020
3157 Clouds 26 1022 57 10000 1.5 170 08:36 07.02.2020
3158 Clouds 25 1022 57 10000 2.1 120 08:18 07.02.2020
3159 Clouds 24 1022 60 10000 2.1 60 07:40 07.02.2020
3160 Clouds 24 1022 60 10000 1 0 07:19 07.02.2020
3161 Clouds 23 1023 64 10000 1 0 06:42 07.02.2020
3162 Clouds 22 1022 64 10000 1.5 130 06:22 07.02.2020
3163 Clouds 21 1022 73 10000 1.5 0 05:43 07.02.2020
3164 Clouds 17 1021 88 10000 1.5 0 03:57 07.02.2020
3165 Clouds 18 1020 88 10000 2.1 80 02:28 07.02.2020
3166 Clouds 18 1020 88 10000 2.6 80 01:25 07.02.2020
3167 Clouds 19 1020 82 10000 2.6 90 00:37 07.02.2020
3168 Clouds 19 1021 88 10000 4.1 110 23:39 06.02.2020
3169 Clouds 19 1021 88 10000 4.1 110 23:39 06.02.2020
3170 Clouds 19 1021 88 10000 2.1 120 23:20 06.02.2020
3171 Clouds 19 1022 88 10000 2.1 80 22:57 06.02.2020
3172 Clouds 19 1022 88 10000 2.1 80 22:39 06.02.2020
3173 Clouds 19 1022 88 10000 2.1 120 22:20 06.02.2020
3174 Clouds 19 1022 88 10000 2.6 140 21:37 06.02.2020
3175 Clouds 19 1022 88 10000 4.1 140 21:19 06.02.2020
3176 Clouds 19 1022 88 10000 3.6 140 20:56 06.02.2020
3177 Clouds 19 1022 88 10000 3.6 140 20:37 06.02.2020
3178 Clouds 20 1022 82 10000 4.6 150 20:18 06.02.2020
3179 Clouds 20 1022 82 10000 4.1 130 19:57 06.02.2020
3180 Clouds 20 1022 82 10000 4.1 130 19:38 06.02.2020
3181 Clouds 20 1022 82 10000 4.6 130 19:20 06.02.2020
3182 Clouds 20 1022 82 10000 4.6 110 18:44 06.02.2020
3183 Clouds 21 1021 77 10000 6.2 110 18:26 06.02.2020
3184 Clouds 21 1021 77 10000 5.1 100 17:59 06.02.2020
3185 Clouds 21 1021 77 10000 5.1 100 17:59 06.02.2020
3186 Clouds 21 1021 77 10000 5.1 100 17:41 06.02.2020
3187 Clouds 22 1020 73 10000 6.2 100 17:20 06.02.2020
3188 Clouds 22 1020 73 10000 6.2 100 17:20 06.02.2020
3189 Clouds 23 1020 60 10000 6.2 100 16:43 06.02.2020
3190 Clouds 25 1019 50 10000 4.6 90 16:25 06.02.2020
3191 Clouds 26 1019 47 10000 3.6 90 15:54 06.02.2020
3192 Clouds 26 1019 47 10000 3.6 90 15:36 06.02.2020
3193 Clouds 27 1019 44 10000 3.6 110 15:18 06.02.2020
3194 Clouds 27 1018 44 10000 4.1 120 14:42 06.02.2020
3195 Clouds 27 1018 51 10000 4.1 80 14:24 06.02.2020
3196 Clouds 27 1019 51 10000 5.1 110 13:45 06.02.2020
3197 Clouds 27 1019 51 10000 5.1 90 13:26 06.02.2020
3198 Clouds 27 1019 54 10000 5.7 80 12:45 06.02.2020
3199 Clouds 27 1019 54 10000 5.7 80 12:45 06.02.2020
3200 Clouds 28 1019 48 10000 3.6 110 12:20 06.02.2020
3201 Clouds 27 1019 47 10000 3.1 150 11:59 06.02.2020
3202 Clouds 27 1019 47 10000 3.1 150 11:41 06.02.2020
3203 Clouds 28 1019 45 10000 2.6 0 11:21 06.02.2020
3204 Clouds 27 1019 47 10000 2.6 0 10:58 06.02.2020
3205 Clouds 27 1019 47 10000 2.6 0 10:40 06.02.2020
3206 Clouds 27 1020 44 10000 3.1 120 10:21 06.02.2020
3207 Clouds 26 1020 44 10000 2.6 0 09:57 06.02.2020
3208 Clouds 26 1020 44 10000 2.6 0 09:57 06.02.2020
3209 Clouds 26 1020 44 10000 2.6 0 09:38 06.02.2020
3210 Clouds 25 1021 50 10000 3.1 110 09:19 06.02.2020
3211 Clouds 24 1021 57 10000 3.6 130 08:43 06.02.2020
3212 Clouds 24 1021 57 10000 3.6 130 08:22 06.02.2020
3213 Clouds 23 1022 56 10000 4.1 180 07:52 06.02.2020
3214 Clouds 22 1022 64 10000 3.6 160 07:29 06.02.2020
3215 Clouds 22 1022 60 10000 4.1 130 06:47 06.02.2020
3216 Clouds 20 1022 68 10000 4.1 160 06:18 06.02.2020
3217 Clouds 19 1021 77 10000 3.6 160 05:22 06.02.2020
3218 Clouds 17 1020 88 10000 2.1 130 03:44 06.02.2020
3219 Clouds 16 1019 93 10000 1.5 150 02:58 06.02.2020
3220 Clouds 18 1020 77 10000 3.6 140 01:42 06.02.2020
3221 Clouds 17 1020 88 10000 3.1 110 00:59 06.02.2020
3222 Clouds 18 1020 82 10000 2.1 110 00:27 06.02.2020
3223 Clouds 18 1021 82 10000 2.6 140 23:50 05.02.2020
3224 Clouds 18 1021 82 10000 2.6 140 23:29 05.02.2020
3225 Clouds 18 1021 88 10000 4.1 130 22:59 05.02.2020
3226 Clouds 18 1021 88 10000 4.1 130 22:40 05.02.2020
3227 Clouds 18 1021 88 10000 4.1 130 22:22 05.02.2020
3228 Clouds 18 1021 88 10000 3.6 140 21:55 05.02.2020
3229 Clouds 18 1021 88 10000 3.6 140 21:55 05.02.2020
3230 Clouds 18 1021 88 10000 3.6 140 21:36 05.02.2020
3231 Clouds 19 1021 82 10000 2.58 131 21:18 05.02.2020
3232 Clouds 19 1022 82 10000 4.6 130 20:39 05.02.2020
3233 Clouds 20 1022 82 10000 4.6 120 20:19 05.02.2020
3234 Clouds 20 1022 82 10000 3.6 130 19:57 05.02.2020
3235 Clouds 20 1022 82 10000 3.6 130 19:38 05.02.2020
3236 Clouds 20 1022 82 10000 4.1 120 19:19 05.02.2020
3237 Clouds 20 1022 82 10000 4.1 120 19:19 05.02.2020
3238 Thunderstorm 19 1022 88 10000 3.6 110 18:46 05.02.2020
3239 Thunderstorm 19 1021 82 10000 4.6 110 18:22 05.02.2020
3240 Thunderstorm 20 1021 77 10000 5.7 110 17:59 05.02.2020
3241 Thunderstorm 20 1021 77 10000 5.7 110 17:38 05.02.2020
3242 Clouds 20 1020 77 10000 4.6 90 17:18 05.02.2020
3243 Clouds 20 1020 77 10000 4.6 90 17:18 05.02.2020
3244 Clouds 21 1020 73 10000 6.7 110 16:56 05.02.2020
3245 Clouds 21 1020 73 10000 6.7 110 16:37 05.02.2020
3246 Clouds 22 1019 64 10000 5.1 130 16:18 05.02.2020
3247 Clouds 23 1019 60 10000 6.2 120 15:42 05.02.2020
3248 Clouds 24 1019 60 10000 6.2 140 15:19 05.02.2020
3249 Clouds 24 1019 60 10000 6.7 120 14:55 05.02.2020
3250 Clouds 24 1019 60 10000 6.7 120 14:37 05.02.2020
3251 Clouds 25 1019 57 10000 6.7 140 14:19 05.02.2020
3252 Clouds 25 1019 57 10000 5.7 140 13:41 05.02.2020
3253 Clouds 25 1019 61 10000 6.2 160 13:22 05.02.2020
3254 Clouds 27 1019 51 10000 4.1 180 12:44 05.02.2020
3255 Clouds 26 1019 57 10000 3.6 180 12:25 05.02.2020
3256 Clouds 25 1020 57 10000 4.1 150 11:59 05.02.2020
3257 Clouds 25 1020 57 10000 4.1 150 11:40 05.02.2020
3258 Clouds 25 1020 61 10000 5.1 150 11:21 05.02.2020
3259 Clouds 25 1020 61 10000 5.7 140 10:43 05.02.2020
3260 Clouds 24 1020 64 10000 6.2 130 10:25 05.02.2020
3261 Clouds 24 1021 69 10000 5.7 120 09:59 05.02.2020
3262 Clouds 24 1021 69 10000 5.7 120 09:38 05.02.2020
3263 Rain 23 1021 73 10000 6.7 110 09:20 05.02.2020
3264 Rain 25 1021 61 10000 6.2 130 08:45 05.02.2020
3265 Clouds 24 1021 64 10000 5.7 120 08:24 05.02.2020
3266 Clouds 23 1021 64 10000 5.1 150 07:55 05.02.2020
3267 Clouds 23 1021 64 10000 5.1 150 07:34 05.02.2020
3268 Clouds 21 1021 73 10000 5.7 150 06:50 05.02.2020
3269 Clouds 20 1021 77 10000 5.1 140 06:23 05.02.2020
3270 Clouds 20 1021 77 10000 3.6 140 05:58 05.02.2020
3271 Clouds 18 1021 88 10000 3.6 150 05:19 05.02.2020
3272 Clouds 17 1020 93 10000 3.1 140 04:52 05.02.2020
3273 Clouds 15 1020 100 10000 1 60 03:52 05.02.2020
3274 Clouds 16 1019 93 10000 2.6 140 02:26 05.02.2020
3275 Clouds 16 1019 93 10000 2.1 140 01:46 05.02.2020
3276 Clouds 16 1019 93 10000 1.5 150 00:43 05.02.2020
3277 Clouds 16 1020 93 10000 1.5 150 23:57 04.02.2020
3278 Clouds 16 1020 93 10000 1.5 150 23:37 04.02.2020
3279 Clouds 17 1020 88 10000 2.1 140 23:18 04.02.2020
3280 Clouds 17 1021 93 10000 2.6 130 22:42 04.02.2020
3281 Clouds 17 1021 93 10000 2.6 130 22:42 04.02.2020
3282 Clouds 16 1021 93 10000 2.1 120 22:22 04.02.2020
3283 Clouds 17 1022 88 10000 2.1 120 21:59 04.02.2020
3284 Clouds 17 1022 88 10000 2.1 120 21:59 04.02.2020
3285 Clouds 17 1022 88 10000 2.1 120 21:41 04.02.2020
3286 Clouds 17 1021 88 10000 2.6 130 21:19 04.02.2020
3287 Clouds 17 1021 93 10000 2.6 120 20:59 04.02.2020
3288 Clouds 17 1021 93 10000 2.6 120 20:38 04.02.2020
3289 Clouds 17 1021 93 10000 3.1 110 20:20 04.02.2020
3290 Clouds 17 1021 93 10000 3.1 110 20:20 04.02.2020
3291 Clouds 18 1022 93 10000 3.1 100 19:56 04.02.2020
3292 Clouds 18 1022 93 10000 3.1 100 19:56 04.02.2020
3293 Clouds 18 1022 93 10000 3.1 100 19:38 04.02.2020
3294 Clouds 18 1022 93 10000 2.1 70 19:20 04.02.2020
3295 Clouds 18 1021 93 10000 2.6 90 18:54 04.02.2020
3296 Clouds 18 1021 93 10000 2.6 90 18:36 04.02.2020
3297 Clouds 19 1021 82 10000 4.1 120 18:18 04.02.2020
3298 Clouds 19 1021 82 10000 4.1 130 17:41 04.02.2020
3299 Clouds 19 1020 88 10000 5.1 130 17:20 04.02.2020
3300 Clouds 20 1020 82 10000 4.1 130 16:40 04.02.2020
3301 Clouds 19 1020 93 10000 2.6 90 16:21 04.02.2020
3302 Clouds 21 1019 77 10000 4.1 120 15:59 04.02.2020
3303 Clouds 21 1019 77 10000 4.1 120 15:41 04.02.2020
3304 Clouds 21 1019 77 10000 3.6 140 15:21 04.02.2020
3305 Clouds 21 1019 83 10000 5.1 100 14:58 04.02.2020
3306 Clouds 21 1019 83 10000 5.1 100 14:40 04.02.2020
3307 Clouds 21 1019 77 10000 4.6 120 14:20 04.02.2020
3308 Drizzle 20 1019 88 8000 4.1 100 13:42 04.02.2020
3309 Drizzle 19 1019 93 8000 2.6 130 13:23 04.02.2020
3310 Drizzle 20 1020 94 6000 5.7 120 12:59 04.02.2020
3311 Drizzle 20 1020 94 6000 5.7 120 12:41 04.02.2020
3312 Drizzle 20 1020 94 6000 5.7 120 12:41 04.02.2020
3313 Clouds 22 1019 88 10000 4.6 100 12:22 04.02.2020
3314 Clouds 21 1020 88 10000 5.1 90 11:56 04.02.2020
3315 Clouds 21 1020 88 10000 5.1 90 11:38 04.02.2020
3316 Clouds 21 1020 88 10000 5.1 90 11:38 04.02.2020
3317 Drizzle 24 1020 78 6000 5.7 70 11:19 04.02.2020
3318 Rain 25 1020 65 10000 3.6 120 10:46 04.02.2020
3319 Clouds 24 1020 73 10000 4.1 70 10:26 04.02.2020
3320 Drizzle 24 1021 69 10000 5.7 90 09:57 04.02.2020
3321 Drizzle 24 1021 69 10000 5.7 90 09:39 04.02.2020
3322 Rain 26 1021 61 10000 5.7 110 09:20 04.02.2020
3323 Clouds 24 1021 69 10000 4.1 150 08:46 04.02.2020
3324 Rain 23 1021 73 10000 4.6 150 08:27 04.02.2020
3325 Drizzle 23 1021 73 10000 5.7 160 07:52 04.02.2020
3326 Drizzle 21 1021 83 10000 4.1 130 07:25 04.02.2020
3327 Rain 22 1021 78 10000 5.1 140 06:54 04.02.2020
3328 Rain 22 1021 78 10000 5.1 140 06:36 04.02.2020
3329 Clouds 20 1021 88 10000 3.6 150 05:34 04.02.2020
3330 Clouds 18 1020 100 10000 2.1 140 04:27 04.02.2020
3331 Clouds 18 1020 100 10000 2.1 140 03:46 04.02.2020
3332 Drizzle 18 1020 100 10000 3.6 130 03:27 04.02.2020
3333 Clouds 19 1019 88 10000 3.6 130 02:37 04.02.2020
3334 Clouds 19 1019 88 10000 3.1 140 01:57 04.02.2020
3335 Clouds 19 1019 88 10000 3.1 140 01:39 04.02.2020
3336 Clouds 18 1019 88 10000 2.1 130 00:52 04.02.2020
3337 Clouds 19 1020 82 10000 3.6 150 00:22 04.02.2020
3338 Clouds 19 1020 88 10000 4.1 150 23:45 03.02.2020
3339 Clouds 19 1020 88 10000 3.6 140 23:26 03.02.2020
3340 Clouds 19 1020 88 10000 3.6 130 22:40 03.02.2020
3341 Clouds 19 1021 88 10000 3.6 160 22:22 03.02.2020
3342 Clouds 19 1021 88 10000 3.6 150 21:59 03.02.2020
3343 Clouds 19 1021 88 10000 3.6 150 21:40 03.02.2020
3344 Clouds 19 1022 88 10000 3.1 140 21:19 03.02.2020
3345 Clouds 19 1022 88 10000 3.6 130 20:42 03.02.2020
3346 Clouds 19 1022 88 10000 3.1 140 20:20 03.02.2020
3347 Clouds 19 1021 88 10000 3.1 140 19:58 03.02.2020
3348 Clouds 19 1021 88 10000 3.1 140 19:40 03.02.2020
3349 Clouds 19 1021 88 10000 4.1 140 19:21 03.02.2020
3350 Rain 19 1021 88 10000 5.1 140 18:57 03.02.2020
3351 Rain 19 1021 88 10000 5.1 140 18:38 03.02.2020
3352 Clouds 22 1022 68 10000 3.6 150 18:20 03.02.2020
3353 Clouds 22 1022 68 10000 3.6 150 18:20 03.02.2020
3354 Clouds 22 1022 68 10000 4.6 140 17:40 03.02.2020
3355 Clouds 22 1021 68 10000 3.1 140 17:20 03.02.2020
3356 Clouds 23 1021 60 10000 3.6 140 16:59 03.02.2020
3357 Clouds 23 1021 60 10000 3.6 140 16:39 03.02.2020
3358 Clouds 23 1020 60 10000 3.6 130 16:20 03.02.2020
3359 Clouds 23 1020 64 10000 4.1 150 15:56 03.02.2020
3360 Clouds 23 1020 64 10000 4.1 150 15:37 03.02.2020
3361 Clouds 24 1020 57 10000 4.6 150 15:19 03.02.2020
3362 Clouds 24 1020 60 10000 5.7 140 14:42 03.02.2020
3363 Clouds 24 1020 57 10000 5.7 140 14:24 03.02.2020
3364 Clouds 24 1020 57 10000 5.7 140 14:24 03.02.2020
3365 Clouds 25 1020 53 10000 4.6 150 13:57 03.02.2020
3366 Clouds 25 1020 53 10000 4.6 150 13:39 03.02.2020
3367 Clouds 25 1020 50 10000 5.1 130 13:19 03.02.2020
3368 Clouds 27 1020 47 10000 5.1 170 12:55 03.02.2020
3369 Clouds 27 1020 47 10000 5.1 170 12:36 03.02.2020
3370 Clouds 26 1020 47 10000 5.1 140 12:18 03.02.2020
3371 Clouds 26 1020 50 10000 4.6 120 11:38 03.02.2020
3372 Clouds 26 1020 54 10000 5.7 160 11:19 03.02.2020
3373 Clouds 25 1021 53 10000 5.7 130 10:57 03.02.2020
3374 Clouds 25 1021 53 10000 5.7 130 10:38 03.02.2020
3375 Clouds 25 1021 53 10000 5.7 130 10:38 03.02.2020
3376 Clouds 25 1021 53 10000 7.2 130 10:18 03.02.2020
3377 Clouds 25 1021 53 10000 6.2 130 09:39 03.02.2020
3378 Clouds 22 1022 68 10000 5.7 150 09:19 03.02.2020
3379 Clouds 22 1022 68 10000 5.7 150 09:19 03.02.2020
3380 Clouds 23 1022 69 10000 5.7 150 08:41 03.02.2020
3381 Clouds 23 1022 69 10000 5.7 150 08:41 03.02.2020
3382 Clouds 22 1022 68 10000 4.6 150 08:22 03.02.2020
3383 Clouds 21 1022 68 10000 4.6 150 07:43 03.02.2020
3384 Clouds 21 1022 68 10000 5.1 150 07:23 03.02.2020
3385 Clouds 20 1022 68 10000 5.1 150 06:56 03.02.2020
3386 Clouds 19 1022 72 10000 5.7 160 06:31 03.02.2020
3387 Clouds 19 1022 72 10000 4.1 180 05:51 03.02.2020
3388 Clouds 18 1022 77 10000 3.1 160 05:31 03.02.2020
3389 Clouds 17 1022 82 10000 2.6 160 04:45 03.02.2020
3390 Clouds 16 1021 87 10000 3.1 150 02:48 03.02.2020
3391 Clouds 16 1021 87 10000 3.1 150 02:48 03.02.2020
3392 Clouds 16 1021 87 10000 3.1 150 02:27 03.02.2020
3393 Clouds 16 1022 87 10000 3.6 140 00:49 03.02.2020
3394 Clouds 17 1021 82 10000 4.6 140 00:27 03.02.2020
3395 Clouds 17 1022 82 10000 4.6 140 23:56 02.02.2020
3396 Clouds 17 1022 82 10000 4.6 140 23:36 02.02.2020
3397 Clouds 17 1022 88 10000 4.1 140 23:18 02.02.2020
3398 Clouds 18 1022 82 10000 4.6 150 22:39 02.02.2020
3399 Clouds 18 1022 82 10000 4.6 150 22:39 02.02.2020
3400 Clouds 18 1023 82 10000 3.6 160 22:21 02.02.2020
3401 Clouds 18 1023 82 10000 3.6 150 21:58 02.02.2020
3402 Clouds 18 1023 82 10000 3.6 150 21:39 02.02.2020
3403 Clouds 19 1023 82 10000 4.6 140 21:20 02.02.2020
3404 Clouds 19 1023 82 10000 4.1 140 20:57 02.02.2020
3405 Clouds 19 1023 82 10000 4.1 140 20:39 02.02.2020
3406 Clouds 19 1023 82 10000 3.6 150 20:20 02.02.2020
3407 Thunderstorm 20 1023 82 10000 5.1 160 19:56 02.02.2020
3408 Thunderstorm 20 1023 82 10000 5.1 160 19:38 02.02.2020
3409 Thunderstorm 20 1023 82 10000 5.1 160 19:19 02.02.2020
3410 Thunderstorm 19 1023 82 10000 3.6 150 18:54 02.02.2020
3411 Thunderstorm 19 1023 82 10000 3.6 150 18:36 02.02.2020
3412 Thunderstorm 19 1023 82 10000 3.6 150 18:36 02.02.2020
3413 Thunderstorm 19 1023 82 10000 4.1 140 18:18 02.02.2020
3414 Clouds 20 1022 82 10000 4.6 120 17:55 02.02.2020
3415 Clouds 20 1022 82 10000 4.6 120 17:36 02.02.2020
3416 Clouds 20 1022 82 10000 6.2 120 17:18 02.02.2020
3417 Clouds 21 1022 77 10000 6.2 110 16:54 02.02.2020
3418 Clouds 21 1022 77 10000 6.2 110 16:36 02.02.2020
3419 Clouds 22 1021 68 10000 5.7 140 16:18 02.02.2020
3420 Clouds 22 1021 68 10000 5.7 140 16:18 02.02.2020
3421 Clouds 24 1021 64 10000 5.7 120 15:40 02.02.2020
3422 Clouds 24 1021 69 10000 5.7 110 15:20 02.02.2020
3423 Clouds 25 1020 61 10000 5.1 130 14:59 02.02.2020
3424 Clouds 25 1020 61 10000 5.1 130 14:40 02.02.2020
3425 Clouds 24 1020 64 10000 4.1 140 14:18 02.02.2020
3426 Clouds 24 1021 64 10000 4.1 160 13:56 02.02.2020
3427 Clouds 24 1021 64 10000 4.1 160 13:37 02.02.2020
3428 Clouds 24 1021 64 10000 6.7 180 13:19 02.02.2020
3429 Clouds 24 1021 64 10000 4.6 120 12:45 02.02.2020
3430 Clouds 24 1021 64 10000 4.1 100 12:23 02.02.2020
3431 Clouds 24 1021 60 10000 4.1 90 11:59 02.02.2020
3432 Clouds 24 1021 60 10000 4.1 90 11:40 02.02.2020
3433 Clouds 25 1022 61 10000 4.1 160 11:19 02.02.2020
3434 Clouds 24 1022 64 10000 4.6 110 10:56 02.02.2020
3435 Clouds 24 1022 64 10000 4.6 110 10:37 02.02.2020
3436 Clouds 25 1022 61 10000 5.1 110 10:19 02.02.2020
3437 Clouds 22 1022 68 10000 5.1 140 09:55 02.02.2020
3438 Clouds 22 1022 68 10000 5.1 140 09:36 02.02.2020
3439 Clouds 22 1022 68 10000 5.1 140 09:36 02.02.2020
3440 Clouds 22 1023 68 10000 3.1 160 09:18 02.02.2020
3441 Clouds 23 1023 69 10000 3.1 160 08:41 02.02.2020
3442 Clouds 20 1023 77 10000 2.6 180 08:22 02.02.2020
3443 Clouds 20 1023 77 10000 3.6 190 07:46 02.02.2020
3444 Clouds 20 1023 77 10000 3.6 190 07:46 02.02.2020
3445 Clouds 20 1023 72 10000 3.6 190 07:28 02.02.2020
3446 Clouds 20 1023 72 10000 5.1 170 06:43 02.02.2020
3447 Clouds 20 1023 72 10000 3.6 160 06:25 02.02.2020
3448 Clouds 20 1023 72 10000 4.1 180 05:47 02.02.2020
3449 Clouds 17 1022 82 10000 3.1 150 04:42 02.02.2020
3450 Clouds 16 1021 87 10000 2.1 160 03:25 02.02.2020
3451 Clouds 16 1021 87 10000 1.5 0 02:29 02.02.2020
3452 Clouds 16 1021 87 10000 3.6 140 01:53 02.02.2020
3453 Clouds 16 1021 87 10000 3.6 140 01:52 02.02.2020
3454 Clouds 16 1021 87 10000 3.6 140 01:19 02.02.2020
3455 Clouds 17 1022 88 10000 3.1 150 00:43 02.02.2020
3456 Clouds 17 1022 88 10000 3.1 140 00:20 02.02.2020
3457 Clouds 17 1022 88 10000 3.6 140 23:45 01.02.2020
3458 Clouds 17 1022 88 10000 4.6 140 23:21 01.02.2020
3459 Clouds 17 1022 88 10000 2.6 140 22:50 01.02.2020
3460 Clouds 17 1023 88 10000 3.1 140 22:19 01.02.2020
3461 Clouds 17 1023 88 10000 3.6 120 21:45 01.02.2020
3462 Clouds 18 1023 82 10000 5.7 120 21:20 01.02.2020
3463 Clouds 18 1023 82 10000 5.7 120 21:20 01.02.2020
3464 Clouds 18 1023 82 10000 5.7 120 20:58 01.02.2020
3465 Clouds 18 1023 82 10000 5.7 120 20:40 01.02.2020
3466 Clouds 18 1023 88 10000 5.1 120 20:20 01.02.2020
3467 Clouds 19 1023 82 10000 5.1 120 19:56 01.02.2020
3468 Clouds 19 1023 82 10000 5.1 120 19:38 01.02.2020
3469 Clouds 19 1022 82 10000 5.7 110 19:19 01.02.2020
3470 Clouds 20 1022 77 10000 5.1 110 18:57 01.02.2020
3471 Clouds 20 1022 77 10000 5.1 110 18:57 01.02.2020
3472 Clouds 20 1022 77 10000 5.1 110 18:38 01.02.2020
3473 Clouds 20 1022 77 10000 5.1 110 18:19 01.02.2020
3474 Clouds 21 1022 73 10000 5.7 120 17:55 01.02.2020
3475 Clouds 21 1022 73 10000 5.7 120 17:37 01.02.2020
3476 Clouds 21 1021 73 10000 4.6 100 17:19 01.02.2020
3477 Clouds 22 1021 68 10000 6.2 100 16:42 01.02.2020
3478 Clouds 23 1020 60 10000 6.2 120 16:23 01.02.2020
3479 Clouds 23 1020 60 10000 5.7 110 15:56 01.02.2020
3480 Clouds 23 1020 60 10000 5.7 110 15:38 01.02.2020
3481 Clouds 25 1019 50 10000 4.6 150 15:18 01.02.2020
3482 Clouds 26 1019 44 10000 6.2 140 14:40 01.02.2020
3483 Clouds 26 1019 47 10000 5.7 140 14:21 01.02.2020
3484 Clouds 26 1019 47 10000 5.7 120 13:45 01.02.2020
3485 Clouds 27 1019 44 10000 5.7 130 13:24 01.02.2020
3486 Clouds 26 1019 47 10000 5.7 150 12:57 01.02.2020
3487 Clouds 26 1019 47 10000 5.7 150 12:38 01.02.2020
3488 Clouds 26 1019 47 10000 6.2 110 12:20 01.02.2020
3489 Clouds 26 1020 50 10000 5.7 140 11:42 01.02.2020
3490 Clouds 26 1020 47 10000 5.7 140 11:23 01.02.2020
3491 Clouds 25 1020 50 10000 5.7 170 10:58 01.02.2020
3492 Clouds 25 1020 50 10000 5.7 170 10:39 01.02.2020
3493 Clouds 25 1021 53 10000 6.2 160 10:21 01.02.2020
3494 Clouds 25 1021 50 10000 5.7 150 09:58 01.02.2020
3495 Clouds 25 1021 50 10000 5.7 150 09:39 01.02.2020
3496 Clouds 24 1021 53 10000 6.2 140 09:20 01.02.2020
3497 Clouds 24 1021 57 10000 7.2 130 08:46 01.02.2020
3498 Clouds 22 1021 64 10000 6.2 150 07:50 01.02.2020
3499 Clouds 22 1021 64 10000 5.7 140 07:27 01.02.2020
3500 Clouds 21 1021 68 10000 5.1 150 06:56 01.02.2020
3501 Clouds 21 1021 68 10000 5.1 150 06:56 01.02.2020
3502 Clouds 20 1021 72 10000 5.1 140 06:33 01.02.2020
3503 Clouds 20 1021 72 10000 4.6 140 05:52 01.02.2020
3504 Clouds 17 1020 82 10000 2.6 160 03:56 01.02.2020
3505 Clouds 16 1020 87 10000 2.6 150 03:21 01.02.2020
3506 Clouds 17 1020 82 10000 3.1 170 02:46 01.02.2020
3507 Clouds 17 1020 82 10000 3.1 150 02:26 01.02.2020
3508 Clouds 17 1019 82 10000 3.6 140 01:52 01.02.2020
3509 Clouds 17 1019 82 10000 3.6 140 01:31 01.02.2020
3510 Clouds 17 1019 88 10000 3.1 140 00:30 01.02.2020
3511 Clouds 17 1020 88 10000 3.1 110 23:43 31.01.2020
3512 Clouds 17 1020 88 10000 4.6 110 23:20 31.01.2020
3513 Clouds 17 1020 88 10000 4.1 110 22:59 31.01.2020
3514 Clouds 17 1020 88 10000 4.1 110 22:40 31.01.2020
3515 Clouds 18 1020 82 10000 5.1 110 22:22 31.01.2020
3516 Clouds 18 1020 88 10000 5.1 120 21:56 31.01.2020
3517 Clouds 18 1020 88 10000 5.1 120 21:38 31.01.2020
3518 Clouds 18 1021 88 10000 5.7 120 21:19 31.01.2020
3519 Clouds 18 1021 88 10000 5.1 110 20:56 31.01.2020
3520 Clouds 18 1021 88 10000 5.1 110 20:37 31.01.2020
3521 Clouds 19 1020 82 10000 5.7 100 20:18 31.01.2020
3522 Clouds 19 1021 82 10000 4.6 110 19:55 31.01.2020
3523 Clouds 19 1021 82 10000 4.6 110 19:37 31.01.2020
3524 Clouds 20 1020 77 10000 5.1 100 19:18 31.01.2020
3525 Clouds 20 1021 77 10000 5.1 120 18:40 31.01.2020
3526 Clouds 21 1020 77 10000 6.2 100 18:22 31.01.2020
3527 Clouds 21 1019 77 10000 5.7 100 17:47 31.01.2020
3528 Clouds 22 1018 68 10000 6.7 100 17:28 31.01.2020
3529 Clouds 23 1018 60 10000 5.7 110 16:59 31.01.2020
3530 Clouds 23 1018 60 10000 5.7 110 16:39 31.01.2020
3531 Clouds 24 1018 47 10000 5.7 120 16:19 31.01.2020
3532 Clouds 26 1018 39 10000 5.1 140 15:59 31.01.2020
3533 Clouds 26 1018 39 10000 5.1 140 15:59 31.01.2020
3534 Clouds 26 1018 39 10000 5.1 140 15:41 31.01.2020
3535 Clouds 26 1018 44 10000 6.2 110 15:20 31.01.2020
3536 Clouds 26 1018 44 10000 6.2 110 15:20 31.01.2020
3537 Clouds 26 1018 41 10000 5.1 140 14:45 31.01.2020
3538 Clouds 26 1018 47 10000 6.2 130 14:26 31.01.2020
3539 Clouds 27 1018 47 10000 5.7 140 13:59 31.01.2020
3540 Clouds 27 1018 47 10000 5.7 140 13:38 31.01.2020
3541 Clouds 27 1018 44 10000 4.6 150 13:20 31.01.2020
3542 Clouds 27 1018 47 10000 5.1 150 12:45 31.01.2020
3543 Clouds 27 1019 47 10000 4.1 150 12:24 31.01.2020
3544 Clouds 26 1019 50 10000 4.1 140 11:56 31.01.2020
3545 Clouds 26 1019 50 10000 4.1 140 11:37 31.01.2020
3546 Clouds 26 1019 47 10000 4.6 140 11:19 31.01.2020
3547 Clouds 27 1019 47 10000 5.1 150 10:44 31.01.2020
3548 Clouds 27 1019 47 10000 5.1 150 10:44 31.01.2020
3549 Clouds 26 1019 50 10000 5.7 140 10:23 31.01.2020
3550 Clouds 26 1020 47 10000 5.7 140 09:59 31.01.2020
3551 Clouds 26 1020 47 10000 5.7 140 09:41 31.01.2020
3552 Clouds 25 1020 57 10000 5.1 140 09:21 31.01.2020
3553 Clouds 25 1020 53 10000 5.7 130 08:54 31.01.2020
3554 Clouds 24 1020 60 10000 5.1 140 08:28 31.01.2020
3555 Clouds 24 1021 64 10000 5.1 130 07:59 31.01.2020
3556 Clouds 24 1021 64 10000 5.1 130 07:40 31.01.2020
3557 Clouds 23 1021 69 10000 4.6 140 07:18 31.01.2020
3558 Clouds 21 1021 73 10000 4.1 170 06:27 31.01.2020
3559 Clouds 20 1020 77 10000 4.1 160 05:53 31.01.2020
3560 Clouds 20 1020 77 10000 4.1 160 05:18 31.01.2020
3561 Clouds 18 1020 88 10000 3.6 120 03:29 31.01.2020
3562 Clouds 19 1019 82 10000 3.1 70 01:40 31.01.2020
3563 Clouds 18 1019 88 10000 3.1 90 00:47 31.01.2020
3564 Clouds 18 1019 88 10000 3.6 90 00:28 31.01.2020
3565 Clouds 19 1020 82 10000 4.1 100 23:57 30.01.2020
3566 Clouds 19 1020 82 10000 4.6 100 23:26 30.01.2020
3567 Clouds 19 1020 82 10000 5.1 110 22:58 30.01.2020
3568 Clouds 19 1020 82 10000 5.1 110 22:38 30.01.2020
3569 Clouds 19 1020 88 10000 5.7 100 22:19 30.01.2020
3570 Clouds 20 1020 88 10000 4.1 80 21:57 30.01.2020
3571 Clouds 20 1020 88 10000 4.1 80 21:39 30.01.2020
3572 Clouds 20 1020 94 10000 4.6 110 21:18 30.01.2020
3573 Clouds 20 1020 94 10000 4.6 110 21:18 30.01.2020
3574 Clouds 20 1020 94 10000 4.6 110 21:18 30.01.2020
3575 Clouds 20 1020 94 10000 2.1 60 20:41 30.01.2020
3576 Clouds 20 1020 94 10000 2.6 90 20:22 30.01.2020
3577 Clouds 20 1020 94 10000 2.6 90 20:22 30.01.2020
3578 Clouds 20 1020 94 10000 2.6 90 20:22 30.01.2020
3579 Rain 20 1020 94 10000 3.1 90 19:58 30.01.2020
3580 Rain 20 1020 94 10000 3.1 90 19:40 30.01.2020
3581 Thunderstorm 20 1020 94 10000 2.6 170 19:19 30.01.2020
3582 Thunderstorm 20 1020 88 10000 1 0 18:42 30.01.2020
3583 Thunderstorm 20 1020 88 10000 2.1 240 18:23 30.01.2020
3584 Thunderstorm 20 1020 88 10000 4.6 220 17:58 30.01.2020
3585 Thunderstorm 20 1020 88 10000 4.6 220 17:39 30.01.2020
3586 Thunderstorm 21 1020 77 10000 6.2 230 17:19 30.01.2020
3587 Thunderstorm 24 1019 69 10000 3.6 120 16:58 30.01.2020
3588 Thunderstorm 24 1019 69 10000 3.6 120 16:38 30.01.2020
3589 Thunderstorm 24 1018 69 10000 4.6 90 16:20 30.01.2020
3590 Clouds 24 1018 69 10000 5.7 90 15:44 30.01.2020
3591 Clouds 26 1017 61 10000 5.1 90 15:20 30.01.2020
3592 Clouds 26 1016 65 10000 5.7 80 14:50 30.01.2020
3593 Clouds 27 1017 61 10000 4.6 90 14:27 30.01.2020
3594 Clouds 28 1017 54 10000 5.7 90 13:58 30.01.2020
3595 Clouds 28 1017 54 10000 5.7 90 13:58 30.01.2020
3596 Clouds 28 1017 54 10000 5.7 90 13:38 30.01.2020
3597 Clouds 28 1017 58 10000 3.6 110 13:20 30.01.2020
3598 Clouds 29 1017 51 10000 3.1 100 12:43 30.01.2020
3599 Clouds 29 1018 54 10000 3.6 100 12:24 30.01.2020
3600 Clouds 27 1018 61 10000 2.6 60 11:58 30.01.2020
3601 Clouds 27 1018 61 10000 2.6 60 11:40 30.01.2020
3602 Clouds 27 1018 61 10000 2.6 60 11:21 30.01.2020
3603 Clouds 29 1019 51 10000 2.1 0 10:42 30.01.2020
3604 Clouds 29 1019 51 10000 2.1 0 10:24 30.01.2020
3605 Clouds 27 1019 57 10000 2.6 110 09:49 30.01.2020
3606 Clouds 27 1019 57 10000 2.6 110 09:49 30.01.2020
3607 Clouds 27 1020 57 10000 3.6 110 09:30 30.01.2020
3608 Clouds 27 1020 57 10000 2.6 110 08:59 30.01.2020
3609 Clouds 27 1020 57 10000 2.6 110 08:41 30.01.2020
3610 Clouds 26 1020 61 10000 2.1 90 08:20 30.01.2020
3611 Clouds 25 1020 61 10000 2.6 80 07:49 30.01.2020
3612 Clouds 25 1020 61 10000 2.1 100 07:29 30.01.2020
3613 Clouds 22 1021 73 10000 3.6 80 06:47 30.01.2020
3614 Clouds 22 1021 73 10000 3.6 90 06:29 30.01.2020
3615 Clouds 21 1020 77 10000 2.6 90 05:44 30.01.2020
3616 Clouds 20 1020 82 10000 2.6 100 05:22 30.01.2020
3617 Clouds 20 1019 88 10000 3.6 100 03:55 30.01.2020
3618 Clouds 20 1019 88 10000 3.6 100 03:36 30.01.2020
3619 Clouds 21 1018 88 10000 2.6 90 02:42 30.01.2020
3620 Clouds 20 1018 94 10000 2.1 50 00:43 30.01.2020
3621 Clouds 21 1018 88 10000 2.1 80 00:21 30.01.2020
3622 Clouds 21 1019 88 10000 2.1 80 23:46 29.01.2020
3623 Clouds 21 1019 88 10000 2.6 80 23:22 29.01.2020
3624 Clouds 20 1019 94 10000 2.1 100 22:57 29.01.2020
3625 Clouds 20 1019 94 10000 2.1 100 22:39 29.01.2020
3626 Clouds 20 1019 94 10000 2.6 110 22:19 29.01.2020
3627 Clouds 21 1019 88 10000 2.6 110 21:58 29.01.2020
3628 Clouds 21 1019 88 10000 2.6 110 21:38 29.01.2020
3629 Clouds 21 1020 88 10000 2.6 90 21:19 29.01.2020
3630 Clouds 21 1020 88 10000 2.6 90 21:19 29.01.2020
3631 Clouds 21 1019 88 10000 3.1 110 20:58 29.01.2020
3632 Clouds 21 1019 88 10000 3.1 110 20:58 29.01.2020
3633 Clouds 21 1019 88 10000 3.1 110 20:38 29.01.2020
3634 Clouds 21 1019 88 10000 3.1 110 20:38 29.01.2020
3635 Thunderstorm 20 1019 88 10000 3.6 80 20:19 29.01.2020
3636 Thunderstorm 20 1019 88 10000 3.6 80 20:19 29.01.2020
3637 Thunderstorm 21 1019 88 10000 3.1 80 19:55 29.01.2020
3638 Thunderstorm 21 1019 88 10000 3.1 80 19:37 29.01.2020
3639 Thunderstorm 22 1019 83 10000 3.6 80 19:18 29.01.2020
3640 Thunderstorm 22 1020 78 10000 4.1 100 18:43 29.01.2020
3641 Thunderstorm 22 1019 78 10000 3.1 90 18:19 29.01.2020
3642 Thunderstorm 23 1018 83 10000 2.1 50 17:56 29.01.2020
3643 Thunderstorm 23 1018 83 10000 2.1 50 17:37 29.01.2020
3644 Thunderstorm 24 1018 73 10000 2.1 10 17:19 29.01.2020
3645 Thunderstorm 25 1017 69 10000 3.1 350 16:41 29.01.2020
3646 Thunderstorm 25 1017 69 10000 5.1 330 16:22 29.01.2020
3647 Thunderstorm 27 1016 61 10000 5.7 310 15:41 29.01.2020
3648 Clouds 27 1016 61 10000 5.1 280 15:22 29.01.2020
3649 Clouds 29 1016 48 10000 1 0 14:59 29.01.2020
3650 Clouds 29 1015 45 10000 2.1 40 14:40 29.01.2020
3651 Clouds 29 1015 45 10000 2.1 40 14:19 29.01.2020
3652 Clouds 32 1015 43 10000 1.5 0 13:41 29.01.2020
3653 Clouds 31 1015 45 10000 1.5 0 13:22 29.01.2020
3654 Clouds 30 1016 48 10000 2.1 50 12:58 29.01.2020
3655 Clouds 30 1016 48 10000 2.1 50 12:39 29.01.2020
3656 Clouds 29 1016 51 10000 2.1 20 12:21 29.01.2020
3657 Clouds 29 1017 51 10000 1 0 11:56 29.01.2020
3658 Clouds 29 1017 51 10000 1 0 11:38 29.01.2020
3659 Clouds 29 1017 51 10000 1 0 11:38 29.01.2020
3660 Clouds 29 1017 51 10000 1.5 0 11:19 29.01.2020
3661 Clouds 28 1017 58 10000 2.1 20 10:46 29.01.2020
3662 Clouds 27 1018 61 10000 2.6 360 10:22 29.01.2020
3663 Clouds 27 1018 54 10000 2.6 70 09:40 29.01.2020
3664 Clouds 27 1018 54 10000 2.6 70 09:22 29.01.2020
3665 Clouds 27 1018 57 10000 3.1 60 08:59 29.01.2020
3666 Clouds 27 1018 57 10000 3.1 60 08:40 29.01.2020
3667 Clouds 26 1018 65 10000 3.1 40 08:22 29.01.2020
3668 Clouds 26 1018 65 10000 3.1 60 07:45 29.01.2020
3669 Clouds 25 1018 69 10000 2.6 40 07:25 29.01.2020
3670 Clouds 24 1018 73 10000 2.6 70 06:55 29.01.2020
3671 Clouds 24 1018 73 10000 2.6 70 06:55 29.01.2020
3672 Clouds 24 1018 73 10000 2.6 70 06:37 29.01.2020
3673 Clouds 23 1018 78 10000 2.1 60 06:18 29.01.2020
3674 Clouds 23 1018 78 10000 1.5 0 05:46 29.01.2020
3675 Clouds 21 1018 94 10000 1 0 05:27 29.01.2020
3676 Clouds 20 1018 94 10000 2.1 60 04:38 29.01.2020
3677 Clouds 20 1017 94 10000 1.5 0 03:50 29.01.2020
3678 Clouds 20 1017 94 10000 0.5 80 02:33 29.01.2020
3679 Clouds 20 1017 94 10000 2.1 30 00:44 29.01.2020
3680 Clouds 20 1017 94 10000 2.1 40 00:25 29.01.2020
3681 Thunderstorm 20 1017 94 10000 2.1 30 23:58 28.01.2020
3682 Thunderstorm 20 1017 94 10000 2.1 30 23:37 28.01.2020
3683 Thunderstorm 20 1017 94 10000 1 0 23:18 28.01.2020
3684 Thunderstorm 20 1017 94 10000 0.44 93 22:41 28.01.2020
3685 Clouds 20 1018 94 10000 1.5 10 22:21 28.01.2020
3686 Thunderstorm 20 1018 94 10000 0.5 0 21:54 28.01.2020
3687 Thunderstorm 20 1018 94 10000 0.5 0 21:36 28.01.2020
3688 Clouds 20 1018 94 10000 2.6 80 21:18 28.01.2020
3689 Clouds 20 1018 100 10000 2.1 100 20:42 28.01.2020
3690 Thunderstorm 20 1018 94 10000 2.1 0 20:23 28.01.2020
3691 Thunderstorm 20 1018 94 10000 2.1 110 19:39 28.01.2020
3692 Thunderstorm 20 1018 94 10000 2.1 110 19:39 28.01.2020
3693 Thunderstorm 20 1018 94 8000 2.71 57 19:21 28.01.2020
3694 Thunderstorm 20 1018 94 9000 3.1 170 18:59 28.01.2020
3695 Thunderstorm 20 1018 94 9000 3.1 170 18:40 28.01.2020
3696 Thunderstorm 21 1017 88 7000 3.6 170 18:21 28.01.2020
3697 Thunderstorm 21 1017 88 10000 1 0 17:57 28.01.2020
3698 Thunderstorm 21 1017 88 10000 1 0 17:37 28.01.2020
3699 Thunderstorm 21 1016 88 10000 1.5 80 17:19 28.01.2020
3700 Thunderstorm 21 1016 88 7000 5.1 90 16:55 28.01.2020
3701 Thunderstorm 21 1016 88 7000 5.1 90 16:36 28.01.2020
3702 Thunderstorm 23 1016 83 4500 5.7 180 16:18 28.01.2020
3703 Thunderstorm 27 1015 54 10000 3.1 280 15:42 28.01.2020
3704 Clouds 29 1015 51 10000 4.1 300 15:19 28.01.2020
3705 Clouds 29 1015 54 10000 5.7 310 14:54 28.01.2020
3706 Clouds 29 1015 54 10000 5.7 310 14:36 28.01.2020
3707 Clouds 29 1015 54 10000 5.7 310 14:18 28.01.2020
3708 Clouds 27 1015 57 10000 2.6 60 13:39 28.01.2020
3709 Clouds 28 1015 54 10000 3.6 40 13:21 28.01.2020
3710 Clouds 30 1015 48 10000 2.1 0 12:42 28.01.2020
3711 Clouds 29 1016 51 10000 2.1 320 12:23 28.01.2020
3712 Clouds 29 1016 51 10000 2.1 50 11:48 28.01.2020
3713 Clouds 28 1016 51 10000 1.5 0 11:23 28.01.2020
3714 Clouds 28 1017 51 10000 1.5 0 10:58 28.01.2020
3715 Clouds 28 1017 51 10000 1.5 0 10:39 28.01.2020
3716 Clouds 26 1017 57 10000 2.1 260 10:20 28.01.2020
3717 Clouds 27 1017 54 10000 2.1 0 09:43 28.01.2020
3718 Clouds 26 1017 57 10000 2.6 230 09:21 28.01.2020
3719 Clouds 26 1017 57 10000 1 0 08:58 28.01.2020
3720 Clouds 26 1017 57 10000 1 0 08:39 28.01.2020
3721 Clouds 25 1017 65 10000 1.5 170 08:18 28.01.2020
3722 Clouds 24 1017 64 10000 2.1 210 07:37 28.01.2020
3723 Clouds 24 1017 64 10000 2.1 210 07:37 28.01.2020
3724 Clouds 22 1018 78 10000 1 0 06:50 28.01.2020
3725 Clouds 22 1018 83 10000 1 0 06:26 28.01.2020
3726 Clouds 20 1018 94 10000 1 0 05:54 28.01.2020
3727 Clouds 20 1018 88 10000 1.5 0 05:26 28.01.2020
3728 Clouds 19 1017 93 10000 1.5 40 03:59 28.01.2020
3729 Clouds 19 1016 93 10000 2.6 60 02:58 28.01.2020
3730 Clouds 19 1016 93 10000 2.1 60 02:25 28.01.2020
3731 Clouds 19 1016 93 10000 2.1 40 01:57 28.01.2020
3732 Clouds 19 1016 93 10000 1.5 60 01:24 28.01.2020
3733 Clouds 19 1016 93 10000 2.1 40 00:48 28.01.2020
3734 Drizzle 19 1017 93 10000 2.1 100 00:28 28.01.2020
3735 Drizzle 19 1017 93 10000 1.5 80 23:49 27.01.2020
3736 Drizzle 19 1017 100 10000 0.5 60 23:30 27.01.2020
3737 Clouds 19 1017 100 10000 1.57 138 22:55 27.01.2020
3738 Clouds 19 1017 100 10000 1.57 138 22:36 27.01.2020
3739 Clouds 19 1018 100 10000 1.57 138 22:18 27.01.2020
3740 Clouds 19 1018 100 10000 1 0 21:54 27.01.2020
3741 Clouds 19 1018 100 10000 1 0 21:36 27.01.2020
3742 Drizzle 20 1019 88 8000 1.57 138 21:18 27.01.2020
3743 Drizzle 20 1019 88 8000 1 0 20:42 27.01.2020
3744 Clouds 20 1019 88 10000 2.6 130 20:21 27.01.2020
3745 Clouds 20 1019 88 10000 4.1 130 19:59 27.01.2020
3746 Clouds 20 1019 88 10000 4.1 130 19:40 27.01.2020
3747 Clouds 20 1018 88 10000 3.1 90 19:21 27.01.2020
3748 Clouds 20 1018 88 10000 4.6 110 18:56 27.01.2020
3749 Clouds 20 1018 88 10000 4.6 110 18:37 27.01.2020
3750 Clouds 20 1018 88 10000 4.6 110 18:37 27.01.2020
3751 Clouds 21 1018 83 10000 4.1 100 18:19 27.01.2020
3752 Clouds 21 1018 83 10000 4.6 100 17:39 27.01.2020
3753 Clouds 21 1018 83 10000 4.6 100 17:39 27.01.2020
3754 Clouds 21 1018 83 10000 5.7 100 17:19 27.01.2020
3755 Clouds 22 1017 83 10000 5.7 110 16:57 27.01.2020
3756 Clouds 22 1017 83 10000 5.7 110 16:39 27.01.2020
3757 Rain 24 1017 69 10000 3.6 90 16:21 27.01.2020
3758 Rain 24 1017 69 10000 2.1 140 15:54 27.01.2020
3759 Rain 24 1017 69 10000 2.1 140 15:36 27.01.2020
3760 Rain 24 1017 69 10000 3.6 190 15:18 27.01.2020
3761 Clouds 25 1017 65 10000 1.5 0 14:40 27.01.2020
3762 Clouds 25 1017 65 10000 1.5 0 14:21 27.01.2020
3763 Clouds 26 1017 61 10000 2.6 220 13:54 27.01.2020
3764 Clouds 26 1017 61 10000 2.6 220 13:36 27.01.2020
3765 Clouds 27 1017 57 10000 2.1 0 13:18 27.01.2020
3766 Clouds 26 1018 57 10000 2.1 0 12:41 27.01.2020
3767 Clouds 26 1018 61 10000 2.1 180 12:22 27.01.2020
3768 Clouds 26 1018 61 10000 1.5 0 11:43 27.01.2020
3769 Clouds 25 1019 65 10000 1 0 11:22 27.01.2020
3770 Clouds 24 1019 69 10000 1 0 10:57 27.01.2020
3771 Clouds 24 1019 69 10000 1 0 10:39 27.01.2020
3772 Clouds 24 1019 69 10000 1.5 0 10:20 27.01.2020
3773 Clouds 22 1020 73 10000 2.1 10 09:40 27.01.2020
3774 Clouds 22 1020 68 10000 1 0 09:19 27.01.2020
3775 Clouds 21 1020 73 10000 2.1 180 08:56 27.01.2020
3776 Clouds 21 1020 73 10000 2.1 180 08:38 27.01.2020
3777 Clouds 22 1020 73 10000 1.5 180 08:18 27.01.2020
3778 Rain 20 1021 77 8000 2.1 180 07:46 27.01.2020
3779 Clouds 20 1021 77 10000 2.6 180 07:26 27.01.2020
3780 Clouds 20 1021 72 5000 1.5 0 06:38 27.01.2020
3781 Clouds 18 1020 82 10000 1.5 60 05:43 27.01.2020
3782 Clouds 17 1020 88 10000 2.6 140 04:37 27.01.2020
3783 Clouds 16 1020 93 10000 2.1 170 03:35 27.01.2020
3784 Clouds 16 1020 93 10000 3.1 140 01:54 27.01.2020
3785 Clouds 16 1020 87 10000 3.1 150 01:25 27.01.2020
3786 Clouds 16 1020 93 10000 4.1 110 00:41 27.01.2020
3787 Clouds 17 1020 88 10000 4.6 90 00:21 27.01.2020
3788 Clouds 17 1020 93 10000 4.6 90 23:43 26.01.2020
3789 Clouds 18 1020 88 10000 4.6 100 23:22 26.01.2020
3790 Clouds 18 1020 88 10000 3.1 80 22:58 26.01.2020
3791 Clouds 18 1020 88 10000 3.1 80 22:38 26.01.2020
3792 Clouds 18 1021 93 10000 3.1 130 22:20 26.01.2020
3793 Clouds 18 1021 88 10000 4.1 130 21:57 26.01.2020
3794 Clouds 18 1021 88 10000 4.1 130 21:39 26.01.2020
3795 Clouds 18 1021 93 10000 3.6 100 21:20 26.01.2020
3796 Clouds 18 1021 93 10000 2.1 90 20:58 26.01.2020
3797 Clouds 18 1021 93 10000 2.1 90 20:38 26.01.2020
3798 Clouds 18 1021 93 10000 3.1 100 20:19 26.01.2020
3799 Clouds 18 1021 93 10000 2.6 90 19:57 26.01.2020
3800 Clouds 18 1021 93 10000 2.6 90 19:38 26.01.2020
3801 Clouds 18 1021 93 10000 3.6 100 19:19 26.01.2020
3802 Clouds 18 1021 93 10000 3.6 100 19:19 26.01.2020
3803 Clouds 18 1020 100 10000 4.1 90 18:55 26.01.2020
3804 Clouds 18 1020 100 10000 4.1 90 18:55 26.01.2020
3805 Clouds 18 1020 100 10000 4.1 90 18:36 26.01.2020
3806 Drizzle 18 1020 93 10000 3.1 90 18:18 26.01.2020
3807 Drizzle 18 1020 93 10000 3.1 90 18:18 26.01.2020
3808 Drizzle 19 1020 88 8000 4.1 130 17:54 26.01.2020
3809 Drizzle 19 1020 88 8000 4.1 130 17:36 26.01.2020
3810 Drizzle 20 1020 88 8000 3.6 100 17:18 26.01.2020
3811 Rain 20 1019 82 10000 5.1 100 16:54 26.01.2020
3812 Rain 20 1019 82 10000 5.1 100 16:36 26.01.2020
3813 Rain 21 1019 77 10000 5.7 100 16:18 26.01.2020
3814 Rain 22 1019 78 10000 5.7 110 15:41 26.01.2020
3815 Rain 22 1018 73 10000 3.6 80 15:19 26.01.2020
3816 Clouds 23 1018 69 10000 2.6 30 14:41 26.01.2020
3817 Clouds 23 1018 69 10000 2.6 30 14:23 26.01.2020
3818 Clouds 23 1018 69 10000 2.6 30 13:59 26.01.2020
3819 Clouds 23 1018 69 10000 2.6 30 13:59 26.01.2020
3820 Rain 22 1014 75 0 3.35 66 13:38 26.01.2020
3821 Rain 24 1019 64 10000 4.1 110 13:18 26.01.2020
3822 Rain 24 1019 64 10000 4.1 110 12:43 26.01.2020
3823 Rain 24 1019 64 10000 4.1 110 12:24 26.01.2020
3824 Clouds 25 1019 65 10000 3.6 120 11:58 26.01.2020
3825 Clouds 25 1019 65 10000 3.6 120 11:40 26.01.2020
3826 Clouds 25 1020 61 10000 2.1 0 11:19 26.01.2020
3827 Clouds 25 1020 61 10000 2.1 0 10:59 26.01.2020
3828 Clouds 25 1020 61 10000 2.1 0 10:38 26.01.2020
3829 Clouds 25 1020 61 10000 2.1 0 10:20 26.01.2020
3830 Clouds 25 1020 61 10000 2.6 0 09:58 26.01.2020
3831 Clouds 25 1020 61 10000 2.6 0 09:40 26.01.2020
3832 Clouds 25 1021 61 10000 3.1 110 09:21 26.01.2020
3833 Clouds 24 1021 64 10000 3.6 130 08:43 26.01.2020
3834 Clouds 22 1021 68 10000 3.6 140 08:23 26.01.2020
3835 Clouds 22 1021 68 10000 3.6 130 07:57 26.01.2020
3836 Clouds 22 1021 68 10000 3.6 130 07:39 26.01.2020
3837 Clouds 22 1021 68 10000 3.6 120 07:21 26.01.2020
3838 Clouds 19 1021 82 10000 4.1 140 06:31 26.01.2020
3839 Rain 18 1021 82 10000 4.1 150 05:32 26.01.2020
3840 Rain 18 1021 88 10000 3.6 160 04:45 26.01.2020
3841 Clouds 18 1020 82 10000 3.6 150 02:42 26.01.2020
3842 Clouds 18 1020 82 10000 2.1 150 01:48 26.01.2020
3843 Clouds 18 1020 82 10000 2.6 150 01:24 26.01.2020
3844 Clouds 18 1020 82 10000 2.6 140 00:48 26.01.2020
3845 Clouds 18 1020 88 10000 2.6 140 00:29 26.01.2020
3846 Clouds 18 1020 88 10000 2.6 140 23:41 25.01.2020
3847 Clouds 17 1016 89 0 1.73 125 23:22 25.01.2020
3848 Clouds 16 1017 91 0 1.39 117 22:58 25.01.2020
3849 Clouds 16 1017 91 0 1.39 117 22:40 25.01.2020
3850 Clouds 18 1022 88 10000 3.1 150 22:18 25.01.2020
3851 Clouds 18 1022 88 10000 3.1 150 21:56 25.01.2020
3852 Clouds 18 1022 88 10000 3.1 150 21:38 25.01.2020
3853 Clouds 18 1022 88 10000 3.1 150 21:19 25.01.2020
3854 Clouds 16 1017 91 0 1.39 117 20:43 25.01.2020
3855 Clouds 16 1017 91 0 1.39 117 20:25 25.01.2020
3856 Clouds 16 1017 92 0 2.21 119 19:54 25.01.2020
3857 Clouds 16 1017 92 0 2.21 119 19:36 25.01.2020
3858 Clouds 16 1017 92 0 2.21 119 19:18 25.01.2020
3859 Clouds 16 1017 92 0 2.21 119 18:41 25.01.2020
3860 Clouds 16 1017 92 0 2.21 119 18:21 25.01.2020
3861 Clouds 16 1017 92 0 2.21 119 17:57 25.01.2020
3862 Clouds 16 1017 92 0 2.21 119 17:37 25.01.2020
3863 Clouds 16 1017 92 0 2.21 119 17:37 25.01.2020
3864 Clouds 18 1014 85 0 3.45 118 17:18 25.01.2020
3865 Clouds 21 1019 77 10000 4.1 120 16:42 25.01.2020
3866 Clouds 21 1019 77 10000 4.1 120 16:42 25.01.2020
3867 Clouds 21 1019 77 10000 4.1 120 16:23 25.01.2020
3868 Clouds 21 1018 77 10000 6.7 140 15:56 25.01.2020
3869 Clouds 21 1018 77 10000 6.7 140 15:38 25.01.2020
3870 Clouds 24 1018 64 10000 4.6 150 15:19 25.01.2020
3871 Clouds 25 1017 61 10000 5.1 120 14:42 25.01.2020
3872 Clouds 25 1017 61 10000 5.1 120 14:19 25.01.2020
3873 Rain 19 1014 88 0 4.08 97 13:45 25.01.2020
3874 Rain 19 1014 88 0 4.08 97 13:26 25.01.2020
3875 Rain 18 1014 92 0 3.68 103 12:51 25.01.2020
3876 Clouds 26 1019 57 10000 5.1 160 12:31 25.01.2020
3877 Clouds 26 1019 57 10000 5.1 160 11:57 25.01.2020
3878 Clouds 26 1019 57 10000 5.1 160 11:38 25.01.2020
3879 Clouds 26 1019 57 10000 5.1 160 11:19 25.01.2020
3880 Clouds 26 1019 61 10000 4.1 160 10:42 25.01.2020
3881 Clouds 25 1019 61 10000 3.6 140 10:21 25.01.2020
3882 Clouds 24 1020 64 10000 4.1 120 09:57 25.01.2020
3883 Clouds 24 1020 64 10000 4.1 120 09:37 25.01.2020
3884 Clouds 22 1020 73 10000 3.6 140 09:18 25.01.2020
3885 Clouds 24 1020 69 10000 4.1 110 08:42 25.01.2020
3886 Clouds 24 1020 69 10000 4.1 110 08:42 25.01.2020
3887 Clouds 21 1020 73 10000 4.1 140 07:53 25.01.2020
3888 Clouds 21 1020 77 10000 3.1 140 06:58 25.01.2020
3889 Clouds 20 1020 77 10000 2.6 120 06:31 25.01.2020
3890 Clouds 19 1020 82 10000 2.6 120 05:50 25.01.2020
3891 Clouds 19 1020 82 10000 2.6 120 05:30 25.01.2020
3892 Clouds 18 1018 88 10000 3.1 150 03:55 25.01.2020
3893 Clouds 18 1018 88 10000 3.1 150 03:34 25.01.2020
3894 Clouds 18 1018 88 10000 3.1 150 02:24 25.01.2020
3895 Clouds 18 1018 93 10000 3.1 150 01:53 25.01.2020
3896 Clouds 18 1018 93 10000 3.1 160 00:52 25.01.2020
3897 Clouds 19 1018 88 10000 4.1 150 00:26 25.01.2020
3898 Clouds 19 1018 88 10000 4.1 150 00:26 25.01.2020
3899 Clouds 19 1018 93 10000 2.1 150 23:59 24.01.2020
3900 Clouds 19 1018 93 10000 2.1 150 23:59 24.01.2020
3901 Clouds 19 1018 93 10000 2.1 150 23:40 24.01.2020
3902 Clouds 19 1018 93 10000 2.1 150 23:40 24.01.2020
3903 Clouds 19 1018 93 10000 2.6 160 23:22 24.01.2020
3904 Clouds 19 1018 93 10000 2.1 150 22:45 24.01.2020
3905 Clouds 19 1018 93 10000 2.6 120 22:25 24.01.2020
3906 Clouds 19 1019 93 10000 2.6 140 21:56 24.01.2020
3907 Clouds 19 1019 93 10000 2.6 140 21:37 24.01.2020
3908 Clouds 20 1019 88 10000 3.1 140 21:18 24.01.2020
3909 Clouds 20 1019 88 10000 3.6 120 20:42 24.01.2020
3910 Clouds 20 1019 88 10000 4.1 130 20:21 24.01.2020
3911 Clouds 21 1019 83 10000 2.6 140 19:57 24.01.2020
3912 Clouds 21 1019 83 10000 2.6 140 19:38 24.01.2020
3913 Clouds 20 1019 88 10000 2.1 150 19:20 24.01.2020
3914 Clouds 20 1018 88 10000 2.1 140 18:43 24.01.2020
3915 Clouds 20 1018 88 10000 2.6 170 18:24 24.01.2020
3916 Clouds 20 1017 88 10000 3.6 160 17:54 24.01.2020
3917 Clouds 20 1017 88 10000 3.6 160 17:36 24.01.2020
3918 Clouds 20 1017 88 10000 3.6 150 17:18 24.01.2020
3919 Clouds 21 1016 88 10000 4.1 160 16:39 24.01.2020
3920 Rain 21 1016 88 8000 5.7 140 16:20 24.01.2020
3921 Rain 26 1015 69 10000 3.6 60 15:43 24.01.2020
3922 Clouds 27 1014 57 10000 1 0 15:22 24.01.2020
3923 Clouds 28 1014 58 10000 1.5 0 14:57 24.01.2020
3924 Clouds 28 1014 58 10000 1.5 0 14:38 24.01.2020
3925 Clouds 28 1014 58 10000 1.5 0 14:38 24.01.2020
3926 Clouds 28 1014 54 10000 2.6 140 14:20 24.01.2020
3927 Clouds 29 1014 54 10000 1.5 0 13:42 24.01.2020
3928 Clouds 29 1014 54 10000 1.5 0 13:23 24.01.2020
3929 Clouds 28 1015 54 10000 1.5 0 12:44 24.01.2020
3930 Clouds 28 1015 58 10000 1.5 0 12:22 24.01.2020
3931 Clouds 27 1016 61 10000 1.5 0 11:45 24.01.2020
3932 Clouds 27 1016 65 10000 2.1 30 11:20 24.01.2020
3933 Clouds 26 1016 65 10000 1.5 0 10:59 24.01.2020
3934 Clouds 26 1016 65 10000 1.5 0 10:41 24.01.2020
3935 Clouds 26 1016 65 10000 1.5 0 10:41 24.01.2020
3936 Clouds 24 1017 73 10000 1 0 10:19 24.01.2020
3937 Clouds 24 1017 73 10000 1 0 09:42 24.01.2020
3938 Clouds 24 1017 73 10000 1 0 09:42 24.01.2020
3939 Clouds 24 1017 73 10000 1.5 0 09:24 24.01.2020
3940 Clouds 22 1018 78 10000 1.5 0 08:59 24.01.2020
3941 Clouds 22 1018 78 10000 1.5 0 08:36 24.01.2020
3942 Drizzle 20 1018 94 8000 1.5 50 08:18 24.01.2020
3943 Drizzle 20 1018 88 8000 1.5 50 07:42 24.01.2020
3944 Clouds 21 1018 83 10000 2.1 120 07:18 24.01.2020
3945 Clouds 20 1018 88 10000 2.1 130 06:42 24.01.2020
3946 Clouds 21 1017 83 10000 2.1 160 06:18 24.01.2020
3947 Clouds 20 1016 88 10000 0.5 0 05:20 24.01.2020
3948 Clouds 18 1015 100 10000 0.97 72 02:56 24.01.2020
3949 Clouds 18 1015 100 10000 0.97 72 02:38 24.01.2020
3950 Clouds 18 1015 100 10000 1.5 350 02:18 24.01.2020
3951 Clouds 19 1014 93 10000 1.5 0 01:37 24.01.2020
3952 Clouds 18 1014 100 10000 1 60 00:39 24.01.2020
3953 Drizzle 18 1014 100 10000 2.1 80 23:59 23.01.2020
3954 Drizzle 18 1014 100 10000 2.1 80 23:59 23.01.2020
3955 Drizzle 18 1014 100 10000 2.1 80 23:40 23.01.2020
3956 Drizzle 18 1014 100 10000 1 0 23:21 23.01.2020
3957 Drizzle 18 1015 100 10000 1.5 0 22:55 23.01.2020
3958 Drizzle 18 1015 100 10000 1.5 0 22:55 23.01.2020
3959 Drizzle 18 1015 100 10000 1.5 0 22:36 23.01.2020
3960 Drizzle 18 1015 100 10000 1.5 0 22:36 23.01.2020
3961 Drizzle 18 1015 100 10000 1 0 22:18 23.01.2020
3962 Drizzle 18 1015 100 10000 1 0 22:18 23.01.2020
3963 Drizzle 18 1015 100 8000 0.5 0 21:54 23.01.2020
3964 Drizzle 18 1015 100 8000 0.5 0 21:36 23.01.2020
3965 Drizzle 19 1015 93 6000 1.5 200 21:18 23.01.2020
3966 Drizzle 19 1015 93 6000 2.6 210 20:40 23.01.2020
3967 Drizzle 19 1015 100 5000 2.6 300 20:22 23.01.2020
3968 Drizzle 19 1015 100 8000 1.5 300 19:57 23.01.2020
3969 Drizzle 19 1015 100 8000 1.5 300 19:38 23.01.2020
3970 Drizzle 19 1015 100 8000 1.5 300 19:38 23.01.2020
3971 Drizzle 19 1015 100 6000 2.1 290 19:20 23.01.2020
3972 Drizzle 19 1014 100 5000 1.5 0 18:56 23.01.2020
3973 Drizzle 19 1014 100 5000 1.5 0 18:56 23.01.2020
3974 Drizzle 19 1014 100 4500 1.5 260 18:37 23.01.2020
3975 Drizzle 19 1014 100 4500 1.5 260 18:19 23.01.2020
3976 Rain 19 1014 100 9000 1 0 17:43 23.01.2020
3977 Drizzle 19 1013 100 7000 2.1 240 17:20 23.01.2020
3978 Drizzle 19 1013 100 7000 3.1 250 16:58 23.01.2020
3979 Drizzle 19 1013 100 7000 3.1 250 16:38 23.01.2020
3980 Rain 20 1012 94 10000 3.6 270 16:19 23.01.2020
3981 Rain 20 1012 94 10000 2.1 250 15:57 23.01.2020
3982 Rain 20 1012 94 10000 2.1 250 15:38 23.01.2020
3983 Drizzle 20 1011 94 8000 2.6 240 15:18 23.01.2020
3984 Drizzle 20 1011 94 8000 2.6 240 15:18 23.01.2020
3985 Drizzle 20 1011 94 8000 1.5 240 14:56 23.01.2020
3986 Drizzle 20 1011 94 8000 1.5 240 14:56 23.01.2020
3987 Drizzle 20 1011 94 8000 1.5 240 14:38 23.01.2020
3988 Drizzle 20 1011 94 6000 1.5 220 14:20 23.01.2020
3989 Drizzle 20 1011 94 5000 3.6 180 13:45 23.01.2020
3990 Drizzle 20 1011 94 5000 4.6 200 13:21 23.01.2020
3991 Drizzle 20 1011 94 5000 3.1 170 12:55 23.01.2020
3992 Drizzle 20 1011 94 5000 3.1 170 12:36 23.01.2020
3993 Drizzle 20 1011 94 5000 2.6 230 12:18 23.01.2020
3994 Drizzle 21 1011 88 8000 4.1 190 11:43 23.01.2020
3995 Drizzle 21 1011 83 10000 4.1 170 11:24 23.01.2020
3996 Drizzle 21 1011 88 8000 4.1 170 10:58 23.01.2020
3997 Drizzle 21 1011 88 8000 4.1 170 10:40 23.01.2020
3998 Rain 21 1011 83 10000 4.6 160 10:18 23.01.2020
3999 Clouds 21 1011 83 10000 4.6 160 09:40 23.01.2020
4000 Clouds 21 1011 77 10000 5.1 170 09:21 23.01.2020
4001 Clouds 20 1012 88 10000 5.7 170 08:43 23.01.2020
4002 Rain 20 1012 88 10000 5.7 160 08:25 23.01.2020
4003 Rain 19 1012 88 7000 6.7 170 07:52 23.01.2020
4004 Rain 19 1012 88 7000 5.7 160 07:27 23.01.2020
4005 Rain 18 1012 93 10000 5.7 150 06:55 23.01.2020
4006 Clouds 18 1011 88 10000 5.7 160 06:25 23.01.2020
4007 Rain 18 1011 93 8000 4.6 150 05:59 23.01.2020
4008 Rain 17 1010 100 10000 3.6 160 04:25 23.01.2020
4009 Drizzle 17 1010 100 8000 3.6 150 02:50 23.01.2020
4010 Rain 17 1010 100 8000 3.6 140 01:51 23.01.2020
4011 Rain 17 1010 100 10000 3.1 160 00:41 23.01.2020
4012 Rain 17 1010 100 8000 3.1 140 00:20 23.01.2020
4013 Rain 17 1010 100 8000 2.1 140 23:45 22.01.2020
4014 Rain 17 1011 100 6000 3.1 150 23:27 22.01.2020
4015 Rain 17 1011 100 8000 2.6 140 22:43 22.01.2020
4016 Rain 17 1011 100 8000 2.6 140 22:43 22.01.2020
4017 Rain 17 1011 100 6000 3.6 140 22:24 22.01.2020
4018 Rain 18 1012 93 10000 3.1 150 21:58 22.01.2020
4019 Rain 18 1012 93 10000 3.1 150 21:36 22.01.2020
4020 Rain 18 1012 93 10000 3.1 150 21:36 22.01.2020
4021 Rain 18 1012 93 8000 4.1 140 21:18 22.01.2020
4022 Rain 18 1012 93 9000 4.6 140 20:41 22.01.2020
4023 Rain 18 1012 93 8000 3.6 130 20:23 22.01.2020
4024 Rain 18 1012 93 10000 3.6 130 19:58 22.01.2020
4025 Rain 18 1012 93 10000 3.6 130 19:58 22.01.2020
4026 Rain 18 1012 93 10000 3.6 130 19:40 22.01.2020
4027 Rain 18 1012 100 8000 2.6 150 19:20 22.01.2020
4028 Clouds 18 1012 93 10000 3.6 130 18:58 22.01.2020
4029 Clouds 18 1012 93 10000 3.6 130 18:39 22.01.2020
4030 Clouds 19 1012 88 10000 4.1 120 18:20 22.01.2020
4031 Clouds 19 1012 93 10000 4.1 100 17:56 22.01.2020
4032 Clouds 19 1012 93 10000 4.1 100 17:38 22.01.2020
4033 Clouds 19 1012 93 10000 4.1 100 17:19 22.01.2020
4034 Rain 19 1011 93 10000 4.6 90 16:44 22.01.2020
4035 Rain 19 1011 93 10000 4.1 90 16:24 22.01.2020
4036 Rain 20 1011 88 10000 4.1 100 15:59 22.01.2020
4037 Rain 20 1011 88 10000 4.1 100 15:41 22.01.2020
4038 Rain 20 1011 94 10000 3.6 100 15:22 22.01.2020
4039 Rain 20 1010 94 10000 4.6 110 14:58 22.01.2020
4040 Rain 20 1010 94 10000 4.6 110 14:37 22.01.2020
4041 Rain 19 1011 100 10000 4.1 110 14:18 22.01.2020
4042 Rain 19 1011 93 10000 3.6 100 13:55 22.01.2020
4043 Rain 19 1011 93 10000 3.6 100 13:36 22.01.2020
4044 Rain 19 1011 93 10000 3.6 100 13:36 22.01.2020
4045 Rain 19 1012 93 9000 4.1 80 13:18 22.01.2020
4046 Rain 19 1012 93 6000 3.1 90 12:55 22.01.2020
4047 Rain 19 1012 93 6000 3.1 90 12:37 22.01.2020
4048 Drizzle 19 1012 93 10000 3.1 110 12:18 22.01.2020
4049 Drizzle 19 1012 93 10000 4.1 110 11:56 22.01.2020
4050 Drizzle 19 1012 93 10000 4.1 110 11:37 22.01.2020
4051 Rain 19 1012 93 8000 3.6 80 11:18 22.01.2020
4052 Rain 19 1013 93 8000 3.1 80 10:43 22.01.2020
4053 Rain 19 1013 93 7000 3.6 70 10:20 22.01.2020
4054 Rain 19 1013 93 8000 3.6 80 09:43 22.01.2020
4055 Rain 20 1013 88 8000 4.1 80 09:25 22.01.2020
4056 Rain 20 1013 88 8000 4.1 110 08:57 22.01.2020
4057 Rain 20 1013 88 8000 4.1 110 08:57 22.01.2020
4058 Rain 20 1013 88 8000 4.1 110 08:39 22.01.2020
4059 Clouds 20 1013 82 10000 4.1 130 08:20 22.01.2020
4060 Clouds 20 1013 88 10000 4.1 120 07:47 22.01.2020
4061 Clouds 19 1013 93 10000 4.6 120 07:29 22.01.2020
4062 Drizzle 18 1013 93 7000 4.1 90 06:46 22.01.2020
4063 Drizzle 18 1013 93 7000 2.6 140 06:26 22.01.2020
4064 Drizzle 18 1013 93 7000 2.1 130 05:26 22.01.2020
4065 Rain 17 1012 100 8000 3.1 140 03:30 22.01.2020
4066 Clouds 18 1012 93 10000 2.6 140 02:57 22.01.2020
4067 Clouds 18 1012 93 10000 2.6 140 01:42 22.01.2020
4068 Clouds 18 1012 93 10000 3.1 130 00:44 22.01.2020
4069 Clouds 18 1012 93 10000 3.1 120 00:26 22.01.2020
4070 Clouds 18 1012 93 10000 2.1 140 23:38 21.01.2020
4071 Clouds 18 1012 93 10000 2.6 140 23:20 21.01.2020
4072 Clouds 18 1013 100 10000 2.1 140 22:55 21.01.2020
4073 Clouds 18 1013 100 10000 2.1 140 22:55 21.01.2020
4074 Clouds 18 1013 100 10000 2.1 140 22:55 21.01.2020
4075 Clouds 18 1013 100 10000 2.1 140 22:36 21.01.2020
4076 Rain 18 1013 93 8000 2.6 160 22:18 21.01.2020
4077 Rain 18 1013 93 8000 3.6 160 21:55 21.01.2020
4078 Rain 18 1013 93 8000 3.6 160 21:37 21.01.2020
4079 Rain 19 1014 93 8000 3.1 140 21:18 21.01.2020
4080 Clouds 19 1014 93 10000 3.1 130 20:39 21.01.2020
4081 Rain 19 1014 93 8000 3.1 140 20:20 21.01.2020
4082 Rain 19 1014 93 8000 4.1 100 19:59 21.01.2020
4083 Rain 19 1014 93 8000 4.1 100 19:40 21.01.2020
4084 Rain 19 1013 100 8000 4.1 100 19:21 21.01.2020
4085 Rain 19 1013 100 8000 4.6 80 18:57 21.01.2020
4086 Rain 19 1013 100 8000 4.6 80 18:57 21.01.2020
4087 Rain 19 1013 100 8000 4.6 80 18:39 21.01.2020
4088 Rain 20 1013 94 8000 2.6 70 18:21 21.01.2020
4089 Rain 20 1013 94 8000 1.5 40 17:59 21.01.2020
4090 Rain 20 1013 94 8000 1.5 40 17:40 21.01.2020
4091 Rain 20 1012 94 8000 1 0 17:18 21.01.2020
4092 Rain 20 1012 94 8000 1 0 17:18 21.01.2020
4093 Rain 20 1012 94 8000 1 0 16:38 21.01.2020
4094 Rain 20 1012 94 6000 1.5 70 16:20 21.01.2020
4095 Rain 20 1011 94 4000 2.6 40 15:59 21.01.2020
4096 Rain 20 1011 94 4000 2.6 40 15:39 21.01.2020
4097 Rain 20 1011 94 6000 2.6 170 15:19 21.01.2020
4098 Rain 20 1011 94 6000 2.6 170 15:19 21.01.2020
4099 Rain 21 1011 88 7000 4.1 170 14:40 21.01.2020
4100 Clouds 22 1011 83 10000 3.1 110 14:22 21.01.2020
4101 Clouds 22 1011 83 10000 3.1 110 13:55 21.01.2020
4102 Clouds 22 1011 83 10000 3.1 110 13:37 21.01.2020
4103 Clouds 23 1011 83 10000 3.1 110 13:18 21.01.2020
4104 Rain 21 1011 88 8000 2.6 70 12:42 21.01.2020
4105 Rain 20 1011 94 6000 4.1 170 12:24 21.01.2020
4106 Rain 21 1011 88 6000 1.5 0 11:56 21.01.2020
4107 Rain 20 1012 94 6000 1.5 0 11:38 21.01.2020
4108 Rain 20 1012 94 6000 1.5 0 11:19 21.01.2020
4109 Rain 21 1012 88 7000 3.6 190 10:43 21.01.2020
4110 Rain 21 1012 88 10000 4.1 190 10:23 21.01.2020
4111 Rain 22 1012 94 9000 3.6 200 09:56 21.01.2020
4112 Rain 22 1012 94 9000 3.6 200 09:38 21.01.2020
4113 Rain 21 1013 88 6000 3.1 170 09:19 21.01.2020
4114 Rain 21 1013 94 7000 2.1 160 08:41 21.01.2020
4115 Rain 20 1013 100 8000 2.1 130 08:22 21.01.2020
4116 Drizzle 20 1013 94 7000 2.6 70 07:43 21.01.2020
4117 Drizzle 20 1013 94 8000 2.1 70 07:24 21.01.2020
4118 Drizzle 20 1014 94 7000 1.5 60 06:57 21.01.2020
4119 Drizzle 20 1014 94 7000 1.5 60 06:38 21.01.2020
4120 Drizzle 19 1013 100 8000 2.1 20 05:53 21.01.2020
4121 Drizzle 19 1013 100 8000 1.5 40 05:32 21.01.2020
4122 Drizzle 19 1012 100 7000 2.1 30 04:37 21.01.2020
4123 Clouds 19 1011 93 10000 2.1 330 02:27 21.01.2020
4124 Clouds 19 1011 93 10000 2.1 330 01:36 21.01.2020
4125 Clouds 20 1011 88 10000 1.5 0 00:45 21.01.2020
4126 Clouds 20 1011 88 10000 1 340 00:25 21.01.2020
4127 Clouds 19 1012 93 10000 1.5 0 23:56 20.01.2020
4128 Clouds 19 1012 93 10000 1.5 0 23:36 20.01.2020
4129 Clouds 19 1012 93 10000 2.1 350 23:18 20.01.2020
4130 Clouds 19 1013 93 10000 1.5 0 22:40 20.01.2020
4131 Clouds 20 1013 94 10000 2.1 320 22:21 20.01.2020
4132 Clouds 20 1013 94 10000 2.1 330 21:58 20.01.2020
4133 Clouds 20 1013 94 10000 2.1 330 21:58 20.01.2020
4134 Clouds 20 1013 94 10000 2.1 330 21:58 20.01.2020
4135 Clouds 20 1013 94 10000 2.1 330 21:38 20.01.2020
4136 Clouds 20 1013 94 10000 1 0 21:20 20.01.2020
4137 Clouds 20 1014 94 10000 2.1 30 20:58 20.01.2020
4138 Clouds 20 1014 94 10000 2.1 30 20:39 20.01.2020
4139 Clouds 20 1013 94 10000 1.5 0 20:20 20.01.2020
4140 Clouds 20 1013 94 10000 1.5 0 19:58 20.01.2020
4141 Clouds 20 1013 94 10000 1.5 0 19:40 20.01.2020
4142 Clouds 20 1013 94 10000 1.5 30 19:19 20.01.2020
4143 Clouds 20 1013 94 10000 2.1 30 18:45 20.01.2020
4144 Clouds 20 1013 94 10000 2.1 20 18:24 20.01.2020
4145 Clouds 20 1012 94 10000 3.1 30 17:59 20.01.2020
4146 Clouds 20 1012 94 10000 3.1 30 17:37 20.01.2020
4147 Clouds 20 1012 94 10000 2.6 20 17:18 20.01.2020
4148 Clouds 21 1012 94 10000 2.1 30 16:44 20.01.2020
4149 Clouds 21 1011 94 10000 3.1 40 16:25 20.01.2020
4150 Rain 22 1011 88 10000 2.1 20 15:58 20.01.2020
4151 Rain 22 1011 88 10000 2.1 20 15:39 20.01.2020
4152 Rain 22 1011 83 9000 4.1 350 15:21 20.01.2020
4153 Rain 21 1011 100 10000 2.1 70 14:44 20.01.2020
4154 Rain 21 1012 94 9000 3.1 80 14:25 20.01.2020
4155 Rain 21 1012 94 7000 1 0 13:59 20.01.2020
4156 Rain 21 1012 94 7000 1 0 13:40 20.01.2020
4157 Rain 20 1012 94 8000 0.5 0 13:22 20.01.2020
4158 Rain 20 1012 94 4000 2.1 0 12:48 20.01.2020
4159 Rain 20 1012 94 5000 4.6 230 12:29 20.01.2020
4160 Rain 26 1012 65 10000 3.1 330 11:59 20.01.2020
4161 Rain 26 1012 65 10000 3.1 330 11:40 20.01.2020
4162 Rain 25 1012 69 10000 4.6 330 11:22 20.01.2020
4163 Clouds 24 1013 73 10000 3.6 350 10:57 20.01.2020
4164 Clouds 24 1013 73 10000 3.6 350 10:39 20.01.2020
4165 Clouds 25 1013 69 10000 5.1 320 10:19 20.01.2020
4166 Clouds 25 1013 69 10000 5.1 320 10:19 20.01.2020
4167 Clouds 25 1013 69 10000 5.1 320 10:19 20.01.2020
4168 Clouds 25 1014 69 10000 5.1 310 09:41 20.01.2020
4169 Clouds 25 1014 69 10000 4.1 310 09:21 20.01.2020
4170 Clouds 24 1014 73 10000 3.1 290 08:49 20.01.2020
4171 Clouds 24 1014 78 10000 2.1 0 08:30 20.01.2020
4172 Clouds 23 1014 78 10000 3.6 320 07:53 20.01.2020
4173 Clouds 22 1015 83 10000 3.1 310 07:30 20.01.2020
4174 Clouds 22 1015 88 10000 3.6 300 06:59 20.01.2020
4175 Clouds 21 1014 94 10000 1.5 320 06:28 20.01.2020
4176 Drizzle 20 1014 94 7000 1.5 280 05:44 20.01.2020
4177 Drizzle 20 1014 94 7000 1.5 310 05:23 20.01.2020
4178 Clouds 20 1014 94 10000 2.1 280 04:48 20.01.2020
4179 Clouds 19 1013 93 10000 1 0 02:59 20.01.2020
4180 Clouds 19 1013 93 10000 1.5 280 01:57 20.01.2020
4181 Clouds 19 1013 93 10000 1.5 280 01:37 20.01.2020
4182 Clouds 19 1013 93 10000 3.1 320 00:45 20.01.2020
4183 Clouds 20 1014 88 10000 4.1 340 00:25 20.01.2020
4184 Clouds 20 1014 88 10000 4.1 340 23:40 19.01.2020
4185 Clouds 20 1014 88 10000 3.1 320 23:20 19.01.2020
4186 Clouds 20 1015 88 10000 4.1 340 22:57 19.01.2020
4187 Clouds 20 1015 88 10000 4.1 340 22:39 19.01.2020
4188 Clouds 20 1015 88 10000 4.1 340 22:39 19.01.2020
4189 Clouds 20 1015 88 10000 3.1 330 22:20 19.01.2020
4190 Clouds 20 1015 88 10000 3.1 330 22:20 19.01.2020
4191 Clouds 20 1015 88 10000 2.6 330 21:57 19.01.2020
4192 Clouds 20 1015 88 10000 2.6 330 21:38 19.01.2020
4193 Clouds 20 1015 88 10000 1.5 320 21:20 19.01.2020
4194 Clouds 20 1015 94 10000 2.6 320 20:57 19.01.2020
4195 Clouds 20 1015 94 10000 2.6 320 20:39 19.01.2020
4196 Rain 20 1015 94 10000 2.1 330 20:21 19.01.2020
4197 Rain 20 1015 94 10000 1 0 19:57 19.01.2020
4198 Rain 20 1015 94 10000 1 0 19:39 19.01.2020
4199 Clouds 20 1015 94 10000 2.1 290 19:20 19.01.2020
4200 Clouds 20 1015 94 10000 2.1 280 18:57 19.01.2020
4201 Clouds 20 1015 94 10000 2.1 280 18:39 19.01.2020
4202 Rain 20 1015 94 10000 3.1 310 18:20 19.01.2020
4203 Rain 20 1015 88 10000 2.6 350 17:58 19.01.2020
4204 Rain 20 1015 88 10000 2.6 350 17:58 19.01.2020
4205 Rain 20 1015 88 10000 2.6 350 17:40 19.01.2020
4206 Rain 20 1015 88 10000 2.6 350 17:40 19.01.2020
4207 Rain 20 1015 94 10000 4.1 330 17:21 19.01.2020
4208 Rain 20 1014 94 8000 4.6 320 16:59 19.01.2020
4209 Rain 20 1014 94 8000 4.6 320 16:39 19.01.2020
4210 Rain 19 1013 93 8000 7.7 320 16:21 19.01.2020
4211 Rain 21 1013 83 7000 9.3 320 15:58 19.01.2020
4212 Rain 21 1013 83 7000 9.3 320 15:58 19.01.2020
4213 Rain 21 1013 83 7000 9.3 320 15:38 19.01.2020
4214 Clouds 23 1012 83 10000 5.1 320 15:20 19.01.2020
4215 Thunderstorm 23 1012 83 10000 5.7 310 14:57 19.01.2020
4216 Thunderstorm 23 1012 83 10000 5.7 310 14:38 19.01.2020
4217 Thunderstorm 22 1012 94 10000 5.7 310 14:18 19.01.2020
4218 Thunderstorm 22 1012 94 10000 5.7 310 14:18 19.01.2020
4219 Thunderstorm 21 1012 94 10000 5.7 280 13:56 19.01.2020
4220 Thunderstorm 21 1012 94 10000 5.7 280 13:37 19.01.2020
4221 Rain 25 1012 78 10000 5.1 280 13:19 19.01.2020
4222 Rain 23 1012 88 10000 5.7 290 12:54 19.01.2020
4223 Rain 23 1012 88 10000 5.7 290 12:36 19.01.2020
4224 Rain 28 1012 61 10000 6.2 320 12:18 19.01.2020
4225 Clouds 28 1013 61 10000 5.7 300 11:39 19.01.2020
4226 Clouds 27 1013 65 10000 4.1 330 11:20 19.01.2020
4227 Clouds 27 1014 65 10000 5.1 320 10:55 19.01.2020
4228 Clouds 27 1014 65 10000 5.1 320 10:37 19.01.2020
4229 Clouds 26 1014 69 10000 4.1 350 10:18 19.01.2020
4230 Clouds 26 1014 69 10000 4.1 350 10:18 19.01.2020
4231 Clouds 25 1015 73 10000 4.1 330 09:44 19.01.2020
4232 Rain 26 1015 74 10000 5.1 310 09:25 19.01.2020
4233 Clouds 25 1015 73 10000 3.6 330 08:58 19.01.2020
4234 Clouds 25 1015 73 10000 3.6 330 08:39 19.01.2020
4235 Clouds 25 1015 73 10000 2.1 0 08:20 19.01.2020
4236 Clouds 25 1015 73 10000 2.1 320 07:40 19.01.2020
4237 Clouds 24 1015 73 10000 1 0 07:21 19.01.2020
4238 Clouds 22 1016 88 10000 2.1 310 06:44 19.01.2020
4239 Rain 20 1016 94 10000 2.1 310 04:41 19.01.2020
4240 Clouds 19 1015 100 10000 1 60 02:37 19.01.2020
4241 Clouds 19 1015 100 10000 2.6 100 02:19 19.01.2020
4242 Clouds 20 1015 94 10000 4.1 110 01:24 19.01.2020
4243 Clouds 20 1015 94 10000 4.1 110 00:45 19.01.2020
4244 Rain 20 1015 94 10000 1.5 150 00:27 19.01.2020
4245 Rain 20 1015 100 7000 2.1 100 23:55 18.01.2020
4246 Rain 20 1015 100 7000 2.1 100 23:36 18.01.2020
4247 Rain 20 1015 100 10000 3.1 270 23:18 18.01.2020
4248 Clouds 21 1016 94 10000 0.5 0 22:54 18.01.2020
4249 Clouds 21 1016 94 10000 0.5 0 22:54 18.01.2020
4250 Clouds 21 1016 94 10000 0.5 0 22:54 18.01.2020
4251 Clouds 21 1016 94 10000 0.5 0 22:36 18.01.2020
4252 Clouds 21 1016 94 10000 0.5 0 22:36 18.01.2020
4253 Clouds 21 1016 94 10000 0.5 0 22:18 18.01.2020
4254 Clouds 21 1016 94 10000 0.5 0 21:55 18.01.2020
4255 Clouds 21 1016 94 10000 0.5 0 21:36 18.01.2020
4256 Clouds 21 1016 94 10000 0.5 30 21:18 18.01.2020
4257 Clouds 21 1017 94 10000 0.5 0 20:41 18.01.2020
4258 Clouds 21 1017 94 10000 0.5 0 20:19 18.01.2020
4259 Clouds 22 1017 88 10000 1.5 330 19:44 18.01.2020
4260 Clouds 22 1017 88 10000 1.5 330 19:44 18.01.2020
4261 Clouds 22 1016 88 10000 1.5 50 19:25 18.01.2020
4262 Clouds 22 1016 88 10000 1.5 50 19:25 18.01.2020
4263 Clouds 22 1016 88 10000 1 0 18:56 18.01.2020
4264 Clouds 22 1016 88 10000 1 0 18:37 18.01.2020
4265 Clouds 22 1016 88 10000 1 0 18:19 18.01.2020
4266 Clouds 22 1015 88 10000 0.5 0 17:41 18.01.2020
4267 Clouds 22 1015 88 10000 1.5 0 17:21 18.01.2020
4268 Clouds 22 1015 88 10000 1.5 320 16:57 18.01.2020
4269 Clouds 22 1015 88 10000 1.5 320 16:38 18.01.2020
4270 Clouds 22 1014 88 10000 3.6 310 16:20 18.01.2020
4271 Clouds 23 1014 83 10000 3.6 290 15:56 18.01.2020
4272 Clouds 23 1014 83 10000 3.6 290 15:38 18.01.2020
4273 Clouds 23 1013 83 10000 4.6 300 15:20 18.01.2020
4274 Clouds 23 1013 83 10000 5.7 290 14:41 18.01.2020
4275 Clouds 24 1013 78 10000 4.6 290 14:20 18.01.2020
4276 Rain 23 1014 83 10000 4.1 300 13:57 18.01.2020
4277 Rain 23 1014 83 10000 4.1 300 13:36 18.01.2020
4278 Rain 23 1014 83 10000 4.6 300 13:18 18.01.2020
4279 Rain 25 1014 69 10000 3.6 350 12:41 18.01.2020
4280 Rain 25 1014 73 10000 4.1 10 12:22 18.01.2020
4281 Rain 26 1014 69 10000 3.1 40 11:57 18.01.2020
4282 Rain 26 1014 69 10000 3.1 40 11:38 18.01.2020
4283 Clouds 28 1014 58 10000 1.5 170 11:19 18.01.2020
4284 Clouds 27 1015 61 10000 1.5 0 10:43 18.01.2020
4285 Clouds 26 1015 65 10000 2.1 280 10:21 18.01.2020
4286 Clouds 26 1016 65 10000 2.1 0 09:54 18.01.2020
4287 Clouds 26 1016 65 10000 2.1 0 09:36 18.01.2020
4288 Clouds 24 1016 78 10000 2.1 300 08:59 18.01.2020
4289 Clouds 24 1016 78 10000 2.1 300 08:41 18.01.2020
4290 Clouds 24 1017 73 10000 2.6 290 08:20 18.01.2020
4291 Clouds 24 1017 73 10000 1.5 320 07:52 18.01.2020
4292 Clouds 24 1017 73 10000 1.5 320 07:34 18.01.2020
4293 Clouds 23 1017 78 10000 0.5 0 06:48 18.01.2020
4294 Clouds 22 1016 83 10000 2.47 293 06:19 18.01.2020
4295 Clouds 22 1016 83 10000 2.47 293 06:19 18.01.2020
4296 Clouds 20 1016 100 10000 1 0 05:30 18.01.2020
4297 Clouds 19 1016 93 10000 1.5 310 03:46 18.01.2020
4298 Clouds 20 1015 94 10000 0.76 99 02:20 18.01.2020
4299 Clouds 20 1015 94 10000 0.5 0 01:36 18.01.2020
4300 Clouds 20 1016 94 10000 1 0 00:38 18.01.2020
4301 Clouds 20 1016 94 10000 0.5 0 00:19 18.01.2020
4302 Clouds 20 1016 94 10000 1 0 23:44 17.01.2020
4303 Clouds 20 1016 94 10000 1 0 23:20 17.01.2020
4304 Clouds 20 1016 94 10000 0.5 0 22:59 17.01.2020
4305 Clouds 20 1016 94 10000 0.5 0 22:40 17.01.2020
4306 Clouds 20 1017 94 10000 1.5 0 22:19 17.01.2020
4307 Clouds 20 1017 94 10000 1.5 0 21:42 17.01.2020
4308 Clouds 21 1018 94 10000 1 0 21:24 17.01.2020
4309 Clouds 21 1018 88 10000 1 0 20:59 17.01.2020
4310 Clouds 21 1018 88 10000 1 0 20:40 17.01.2020
4311 Clouds 21 1018 94 10000 2.1 40 20:20 17.01.2020
4312 Clouds 21 1017 88 10000 2.1 50 19:57 17.01.2020
4313 Clouds 21 1017 88 10000 2.1 50 19:38 17.01.2020
4314 Clouds 21 1017 88 10000 3.6 50 19:19 17.01.2020
4315 Clouds 21 1017 88 10000 1.5 0 18:56 17.01.2020
4316 Clouds 21 1017 88 10000 1.5 0 18:56 17.01.2020
4317 Clouds 21 1017 88 10000 1.5 0 18:36 17.01.2020
4318 Clouds 21 1016 88 10000 2.1 50 18:18 17.01.2020
4319 Rain 21 1016 88 10000 2.1 50 17:39 17.01.2020
4320 Clouds 21 1016 88 10000 2.6 20 17:20 17.01.2020
4321 Clouds 22 1015 83 10000 2.6 20 16:44 17.01.2020
4322 Rain 22 1015 88 10000 1.5 40 16:21 17.01.2020
4323 Rain 22 1015 88 10000 1.5 40 16:21 17.01.2020
4324 Thunderstorm 22 1015 88 10000 3.1 330 15:58 17.01.2020
4325 Thunderstorm 22 1015 88 10000 3.1 330 15:58 17.01.2020
4326 Thunderstorm 22 1015 88 10000 3.1 330 15:39 17.01.2020
4327 Thunderstorm 21 1015 88 10000 5.1 340 15:20 17.01.2020
4328 Rain 21 1014 88 10000 5.1 320 14:43 17.01.2020
4329 Rain 22 1014 83 10000 4.6 320 14:24 17.01.2020
4330 Rain 23 1014 73 10000 4.1 340 13:43 17.01.2020
4331 Clouds 25 1014 69 10000 5.1 360 13:23 17.01.2020
4332 Clouds 27 1014 57 10000 2.6 340 12:47 17.01.2020
4333 Clouds 28 1015 54 10000 4.1 360 12:23 17.01.2020
4334 Clouds 28 1015 54 10000 3.1 330 11:43 17.01.2020
4335 Clouds 28 1016 58 10000 2.1 10 11:20 17.01.2020
4336 Clouds 28 1016 58 10000 2.6 20 10:57 17.01.2020
4337 Clouds 28 1016 58 10000 2.6 20 10:57 17.01.2020
4338 Clouds 28 1016 58 10000 2.6 20 10:39 17.01.2020
4339 Clouds 27 1016 57 10000 2.1 0 10:20 17.01.2020
4340 Clouds 27 1017 61 10000 1.5 0 09:44 17.01.2020
4341 Clouds 27 1017 65 10000 2.1 0 09:22 17.01.2020
4342 Clouds 26 1017 61 10000 2.1 120 08:58 17.01.2020
4343 Clouds 26 1017 61 10000 2.1 120 08:40 17.01.2020
4344 Clouds 24 1018 73 10000 1.5 70 08:21 17.01.2020
4345 Clouds 24 1018 73 10000 1.5 0 07:48 17.01.2020
4346 Clouds 23 1018 78 10000 1.5 180 07:29 17.01.2020
4347 Clouds 21 1019 88 10000 2.1 170 06:55 17.01.2020
4348 Clouds 21 1019 88 10000 2.1 170 06:35 17.01.2020
4349 Clouds 19 1018 93 10000 1.26 159 04:32 17.01.2020
4350 Clouds 19 1018 93 10000 0.5 0 03:19 17.01.2020
4351 Rain 19 1018 93 10000 1.26 159 02:39 17.01.2020
4352 Rain 19 1018 93 10000 1.5 200 01:44 17.01.2020
4353 Rain 19 1018 93 10000 1.5 200 01:25 17.01.2020
4354 Rain 20 1018 94 10000 2.1 200 00:37 17.01.2020
4355 Rain 20 1018 94 10000 2.1 200 00:19 17.01.2020
4356 Rain 20 1018 94 10000 1 200 23:41 16.01.2020
4357 Rain 20 1018 94 10000 1 200 23:22 16.01.2020
4358 Rain 20 1018 88 10000 0.5 0 22:41 16.01.2020
4359 Rain 20 1018 88 10000 1 0 22:21 16.01.2020
4360 Clouds 20 1018 88 10000 1.18 105 21:57 16.01.2020
4361 Clouds 20 1018 88 10000 1.18 105 21:57 16.01.2020
4362 Clouds 20 1018 88 10000 1.18 105 21:38 16.01.2020
4363 Clouds 20 1019 88 10000 2.6 80 21:19 16.01.2020
4364 Clouds 20 1019 88 10000 2.6 80 21:19 16.01.2020
4365 Clouds 20 1019 88 10000 3.6 110 20:57 16.01.2020
4366 Clouds 20 1019 88 10000 3.6 110 20:38 16.01.2020
4367 Clouds 20 1019 88 10000 3.6 100 20:19 16.01.2020
4368 Clouds 20 1019 88 10000 4.1 90 19:56 16.01.2020
4369 Clouds 20 1019 88 10000 4.1 90 19:37 16.01.2020
4370 Rain 20 1019 88 10000 5.1 100 19:19 16.01.2020
4371 Clouds 21 1019 88 10000 5.1 80 18:55 16.01.2020
4372 Clouds 21 1019 88 10000 5.1 80 18:36 16.01.2020
4373 Clouds 21 1018 88 10000 4.6 90 18:18 16.01.2020
4374 Clouds 21 1018 88 10000 4.1 100 17:41 16.01.2020
4375 Clouds 21 1018 88 10000 3.6 100 17:23 16.01.2020
4376 Rain 21 1017 88 10000 4.6 100 16:57 16.01.2020
4377 Rain 21 1017 88 10000 4.6 100 16:38 16.01.2020
4378 Thunderstorm 21 1017 94 10000 2.1 70 16:19 16.01.2020
4379 Rain 21 1017 88 10000 3.1 350 15:44 16.01.2020
4380 Rain 25 1016 69 10000 6.7 100 15:22 16.01.2020
4381 Rain 27 1015 57 10000 4.6 100 14:57 16.01.2020
4382 Rain 27 1015 57 10000 4.6 100 14:38 16.01.2020
4383 Clouds 28 1016 54 10000 3.1 110 14:19 16.01.2020
4384 Clouds 28 1016 58 10000 4.1 150 13:44 16.01.2020
4385 Clouds 27 1017 61 10000 5.1 120 13:25 16.01.2020
4386 Clouds 27 1017 61 10000 5.1 130 12:46 16.01.2020
4387 Clouds 27 1017 61 10000 5.1 110 12:28 16.01.2020
4388 Clouds 26 1017 65 10000 4.6 150 11:58 16.01.2020
4389 Clouds 26 1017 65 10000 4.6 150 11:39 16.01.2020
4390 Clouds 26 1018 65 10000 3.6 120 11:21 16.01.2020
4391 Clouds 26 1018 61 10000 4.6 100 10:40 16.01.2020
4392 Clouds 26 1018 61 10000 4.6 100 10:21 16.01.2020
4393 Clouds 26 1019 61 10000 4.1 120 09:58 16.01.2020
4394 Clouds 26 1019 61 10000 4.1 120 09:40 16.01.2020
4395 Clouds 25 1019 65 10000 3.6 130 09:22 16.01.2020
4396 Clouds 24 1019 69 10000 4.1 120 08:53 16.01.2020
4397 Clouds 24 1019 64 10000 4.1 110 08:35 16.01.2020
4398 Clouds 23 1020 73 10000 3.6 170 07:59 16.01.2020
4399 Clouds 23 1020 73 10000 3.6 170 07:39 16.01.2020
4400 Clouds 23 1020 73 10000 3.6 140 07:21 16.01.2020
4401 Clouds 22 1020 78 10000 4.6 100 06:43 16.01.2020
4402 Clouds 21 1020 77 10000 5.1 110 06:22 16.01.2020
4403 Clouds 21 1019 77 10000 3.6 130 05:46 16.01.2020
4404 Clouds 20 1019 82 10000 3.1 130 04:40 16.01.2020
4405 Clouds 20 1019 82 10000 3.1 130 04:40 16.01.2020
4406 Clouds 20 1019 82 10000 4.6 120 03:28 16.01.2020
4407 Clouds 20 1018 82 10000 4.1 120 02:43 16.01.2020
4408 Clouds 20 1019 82 10000 3.1 100 01:24 16.01.2020
4409 Clouds 20 1019 82 10000 4.6 100 00:25 16.01.2020
4410 Clouds 20 1019 82 10000 3.6 100 23:56 15.01.2020
4411 Clouds 20 1019 82 10000 3.6 100 23:38 15.01.2020
4412 Clouds 20 1019 82 10000 3.6 100 23:18 15.01.2020
4413 Clouds 21 1019 83 10000 3.6 80 22:42 15.01.2020
4414 Clouds 21 1019 83 10000 3.6 110 22:20 15.01.2020
4415 Clouds 21 1020 83 10000 3.1 150 21:59 15.01.2020
4416 Clouds 21 1020 83 10000 3.1 150 21:40 15.01.2020
4417 Clouds 21 1020 83 10000 3.6 80 21:22 15.01.2020
4418 Clouds 21 1020 83 10000 3.6 80 20:58 15.01.2020
4419 Clouds 21 1020 83 10000 3.6 80 20:40 15.01.2020
4420 Clouds 21 1020 83 10000 5.1 80 20:22 15.01.2020
4421 Thunderstorm 21 1021 83 10000 4.6 90 19:57 15.01.2020
4422 Thunderstorm 21 1021 83 10000 4.6 90 19:38 15.01.2020
4423 Thunderstorm 21 1020 83 10000 4.6 100 19:20 15.01.2020
4424 Thunderstorm 21 1020 83 10000 4.6 100 18:57 15.01.2020
4425 Thunderstorm 21 1020 83 10000 4.6 100 18:38 15.01.2020
4426 Thunderstorm 21 1020 83 10000 4.6 100 18:20 15.01.2020
4427 Thunderstorm 21 1020 83 10000 4.6 100 18:20 15.01.2020
4428 Thunderstorm 22 1019 78 10000 6.2 100 17:58 15.01.2020
4429 Thunderstorm 22 1019 78 10000 6.2 100 17:40 15.01.2020
4430 Clouds 22 1019 78 10000 6.2 110 17:21 15.01.2020
4431 Clouds 23 1018 73 10000 6.2 110 16:55 15.01.2020
4432 Clouds 23 1018 73 10000 6.2 110 16:55 15.01.2020
4433 Clouds 24 1018 69 10000 6.2 110 16:36 15.01.2020
4434 Clouds 24 1018 69 10000 6.2 110 16:18 15.01.2020
4435 Clouds 25 1017 61 10000 5.7 130 15:42 15.01.2020
4436 Clouds 26 1017 54 10000 5.7 120 15:20 15.01.2020
4437 Clouds 26 1017 54 10000 5.1 140 14:45 15.01.2020
4438 Clouds 27 1017 54 10000 5.1 140 14:23 15.01.2020
4439 Clouds 28 1017 51 10000 5.7 110 13:58 15.01.2020
4440 Clouds 28 1017 51 10000 5.7 110 13:40 15.01.2020
4441 Clouds 28 1017 51 10000 5.7 110 13:40 15.01.2020
4442 Clouds 28 1018 45 10000 3.6 110 13:22 15.01.2020
4443 Clouds 28 1018 48 10000 3.6 120 12:55 15.01.2020
4444 Clouds 28 1018 48 10000 3.6 120 12:36 15.01.2020
4445 Clouds 28 1018 51 10000 2.6 0 12:18 15.01.2020
4446 Clouds 28 1019 48 10000 3.6 90 11:38 15.01.2020
4447 Clouds 28 1019 51 10000 3.1 0 11:20 15.01.2020
4448 Clouds 28 1019 51 10000 3.1 110 10:47 15.01.2020
4449 Clouds 27 1019 51 10000 4.1 100 10:28 15.01.2020
4450 Clouds 27 1019 51 10000 4.1 90 09:58 15.01.2020
4451 Clouds 27 1019 51 10000 4.1 90 09:39 15.01.2020
4452 Clouds 26 1020 54 10000 4.6 100 09:19 15.01.2020
4453 Clouds 25 1020 61 10000 3.1 70 08:44 15.01.2020
4454 Clouds 25 1020 61 10000 3.6 70 08:24 15.01.2020
4455 Clouds 23 1021 69 10000 3.1 80 07:54 15.01.2020
4456 Clouds 21 1021 77 10000 3.1 110 07:33 15.01.2020
4457 Clouds 20 1020 77 10000 2.6 140 06:49 15.01.2020
4458 Clouds 19 1020 82 10000 2.6 150 06:28 15.01.2020
4459 Clouds 18 1020 88 10000 3.6 90 04:56 15.01.2020
4460 Clouds 17 1019 93 10000 1 0 02:48 15.01.2020
4461 Clouds 17 1019 93 10000 1 0 01:48 15.01.2020
4462 Clouds 18 1019 88 10000 1 0 01:20 15.01.2020
4463 Clouds 18 1019 88 10000 2.1 60 00:37 15.01.2020
4464 Clouds 18 1019 88 10000 2.1 70 00:19 15.01.2020
4465 Clouds 18 1020 82 10000 3.1 70 23:46 14.01.2020
4466 Clouds 18 1020 82 10000 3.1 70 23:24 14.01.2020
4467 Clouds 19 1020 82 10000 4.1 110 22:54 14.01.2020
4468 Clouds 19 1020 82 10000 4.1 110 22:36 14.01.2020
4469 Clouds 20 1020 82 10000 4.6 100 22:18 14.01.2020
4470 Clouds 20 1020 82 10000 4.6 100 22:18 14.01.2020
4471 Clouds 20 1020 82 10000 5.7 100 21:55 14.01.2020
4472 Clouds 20 1020 82 10000 5.7 100 21:36 14.01.2020
4473 Clouds 20 1020 88 10000 3.6 90 21:18 14.01.2020
4474 Clouds 20 1020 88 10000 3.6 90 21:18 14.01.2020
4475 Rain 20 1020 82 10000 4.1 100 20:41 14.01.2020
4476 Rain 20 1020 88 10000 3.6 140 20:22 14.01.2020
4477 Rain 20 1020 88 10000 3.6 140 19:56 14.01.2020
4478 Rain 20 1020 88 10000 3.6 140 19:56 14.01.2020
4479 Rain 20 1020 88 10000 3.6 140 19:38 14.01.2020
4480 Thunderstorm 21 1020 83 10000 4.1 120 19:19 14.01.2020
4481 Thunderstorm 21 1019 77 10000 4.1 120 18:56 14.01.2020
4482 Thunderstorm 21 1019 77 10000 4.1 120 18:37 14.01.2020
4483 Thunderstorm 21 1019 77 10000 4.1 120 18:37 14.01.2020
4484 Thunderstorm 21 1019 77 10000 5.1 120 18:19 14.01.2020
4485 Thunderstorm 21 1019 77 10000 5.1 120 18:19 14.01.2020
4486 Thunderstorm 21 1019 77 10000 5.7 120 17:39 14.01.2020
4487 Thunderstorm 22 1018 73 10000 5.7 130 17:19 14.01.2020
4488 Rain 22 1018 73 10000 6.7 100 16:56 14.01.2020
4489 Rain 22 1018 73 10000 6.7 100 16:38 14.01.2020
4490 Rain 23 1017 69 10000 8.2 110 16:19 14.01.2020
4491 Clouds 25 1017 65 10000 6.2 110 15:43 14.01.2020
4492 Clouds 26 1016 54 10000 5.1 80 15:19 14.01.2020
4493 Clouds 27 1016 51 10000 4.1 70 14:59 14.01.2020
4494 Clouds 27 1016 51 10000 4.1 70 14:41 14.01.2020
4495 Clouds 27 1016 51 10000 5.1 120 14:19 14.01.2020
4496 Clouds 27 1016 51 10000 4.1 90 13:42 14.01.2020
4497 Clouds 29 1016 45 10000 3.1 130 13:20 14.01.2020
4498 Clouds 28 1017 48 10000 3.1 140 12:56 14.01.2020
4499 Clouds 28 1017 48 10000 3.1 140 12:56 14.01.2020
4500 Clouds 28 1017 48 10000 3.1 140 12:38 14.01.2020
4501 Clouds 28 1017 48 10000 4.1 110 12:20 14.01.2020
4502 Clouds 27 1017 51 10000 3.6 100 11:41 14.01.2020
4503 Clouds 28 1018 51 10000 3.6 130 11:22 14.01.2020
4504 Clouds 27 1018 51 10000 3.6 130 10:56 14.01.2020
4505 Clouds 27 1018 51 10000 3.6 130 10:38 14.01.2020
4506 Clouds 26 1018 54 10000 3.6 130 10:19 14.01.2020
4507 Clouds 26 1018 54 10000 3.6 130 09:55 14.01.2020
4508 Clouds 26 1018 54 10000 3.6 130 09:37 14.01.2020
4509 Clouds 25 1019 61 10000 4.1 80 09:19 14.01.2020
4510 Clouds 25 1019 61 10000 2.1 100 08:41 14.01.2020
4511 Clouds 25 1019 61 10000 2.1 100 08:41 14.01.2020
4512 Clouds 25 1019 61 10000 2.1 170 08:22 14.01.2020
4513 Clouds 24 1019 64 10000 2.1 140 07:51 14.01.2020
4514 Clouds 23 1019 69 10000 1.5 0 07:24 14.01.2020
4515 Clouds 22 1019 73 10000 3.1 130 06:43 14.01.2020
4516 Clouds 20 1019 77 10000 2.1 110 05:58 14.01.2020
4517 Clouds 19 1018 82 10000 2.1 100 04:50 14.01.2020
4518 Clouds 17 1017 93 10000 2.6 60 03:46 14.01.2020
4519 Clouds 18 1017 93 10000 2.6 90 02:33 14.01.2020
4520 Clouds 19 1017 88 10000 4.6 110 01:19 14.01.2020
4521 Clouds 19 1017 88 10000 2.6 70 00:47 14.01.2020
4522 Clouds 19 1017 88 10000 3.6 90 00:21 14.01.2020
4523 Clouds 19 1017 88 10000 3.1 140 23:44 13.01.2020
4524 Clouds 19 1017 93 10000 3.6 120 23:19 13.01.2020
4525 Clouds 19 1017 93 10000 3.1 140 22:56 13.01.2020
4526 Clouds 19 1017 93 10000 3.1 140 22:38 13.01.2020
4527 Clouds 19 1018 93 10000 4.6 100 22:19 13.01.2020
4528 Clouds 20 1018 94 10000 2.1 160 21:55 13.01.2020
4529 Clouds 20 1018 94 10000 2.1 160 21:36 13.01.2020
4530 Clouds 19 1019 100 10000 0.5 0 21:18 13.01.2020
4531 Clouds 20 1019 94 10000 2.1 10 20:42 13.01.2020
4532 Clouds 20 1019 94 10000 1.5 0 20:23 13.01.2020
4533 Clouds 20 1019 94 10000 1.5 0 20:23 13.01.2020
4534 Clouds 20 1019 94 10000 1.5 170 20:00 13.01.2020
4535 Clouds 20 1019 94 10000 1.5 170 19:41 13.01.2020
4536 Clouds 20 1019 94 10000 2.1 150 19:20 13.01.2020
4537 Clouds 19 1018 100 10000 1 0 18:58 13.01.2020
4538 Clouds 19 1018 100 10000 1 0 18:38 13.01.2020
4539 Thunderstorm 19 1018 93 7000 1.5 0 18:19 13.01.2020
4540 Thunderstorm 19 1018 93 7000 1.5 0 18:19 13.01.2020
4541 Thunderstorm 19 1018 93 8000 1.5 0 17:57 13.01.2020
4542 Thunderstorm 19 1018 93 8000 1.5 0 17:38 13.01.2020
4543 Thunderstorm 19 1017 100 6000 4.6 110 17:20 13.01.2020
4544 Thunderstorm 19 1017 100 6000 4.6 110 17:20 13.01.2020
4545 Thunderstorm 19 1017 93 6000 3.6 120 16:41 13.01.2020
4546 Thunderstorm 18 1017 100 6000 2.1 140 16:22 13.01.2020
4547 Rain 20 1012 87 0 3.99 116 15:56 13.01.2020
4548 Rain 20 1012 87 0 3.99 116 15:38 13.01.2020
4549 Rain 20 1012 87 0 3.99 116 15:19 13.01.2020
4550 Rain 20 1012 87 0 3.99 116 14:42 13.01.2020
4551 Rain 20 1012 87 0 3.99 116 14:23 13.01.2020
4552 Rain 23 1011 73 0 4.36 72 13:57 13.01.2020
4553 Rain 23 1011 73 0 4.36 72 13:39 13.01.2020
4554 Rain 23 1011 70 0 3.64 71 13:20 13.01.2020
4555 Rain 29 1016 48 10000 3.6 80 12:43 13.01.2020
4556 Rain 29 1016 48 10000 3.6 80 12:23 13.01.2020
4557 Rain 29 1016 48 10000 3.6 80 11:59 13.01.2020
4558 Rain 29 1016 48 10000 3.6 80 11:39 13.01.2020
4559 Rain 28 1016 48 10000 1 120 11:19 13.01.2020
4560 Clouds 28 1017 45 10000 1 120 10:57 13.01.2020
4561 Clouds 28 1017 45 10000 1 120 10:38 13.01.2020
4562 Clouds 28 1017 45 10000 1.5 0 10:20 13.01.2020
4563 Clouds 28 1017 45 10000 1.5 0 10:20 13.01.2020
4564 Clouds 28 1018 45 10000 2.6 190 09:55 13.01.2020
4565 Clouds 28 1018 45 10000 2.6 190 09:37 13.01.2020
4566 Clouds 27 1018 51 10000 2.1 130 09:19 13.01.2020
4567 Clouds 27 1018 54 10000 2.6 120 08:38 13.01.2020
4568 Clouds 26 1019 57 10000 2.1 0 08:19 13.01.2020
4569 Clouds 25 1019 61 10000 2.6 0 07:45 13.01.2020
4570 Clouds 24 1019 64 10000 2.6 140 07:27 13.01.2020
4571 Clouds 24 1019 64 10000 2.6 110 06:39 13.01.2020
4572 Clouds 20 1018 82 10000 2.1 60 05:57 13.01.2020
4573 Clouds 20 1018 82 10000 2.1 60 05:19 13.01.2020
4574 Clouds 18 1017 88 10000 0.77 137 03:44 13.01.2020
4575 Clouds 18 1017 88 10000 2.1 90 02:51 13.01.2020
4576 Clouds 19 1017 88 10000 2.1 80 02:30 13.01.2020
4577 Clouds 19 1017 88 10000 2.1 90 01:33 13.01.2020
4578 Clouds 19 1017 88 10000 2.1 90 00:48 13.01.2020
4579 Clouds 19 1017 88 10000 2.6 110 00:26 13.01.2020
4580 Clouds 19 1018 88 10000 2.1 60 23:59 12.01.2020
4581 Clouds 19 1018 88 10000 2.1 60 23:40 12.01.2020
4582 Clouds 19 1018 88 10000 2.6 70 23:21 12.01.2020
4583 Clouds 19 1018 88 10000 3.1 80 22:56 12.01.2020
4584 Clouds 19 1018 88 10000 3.1 80 22:37 12.01.2020
4585 Clouds 20 1019 82 10000 4.1 90 22:19 12.01.2020
4586 Clouds 20 1019 82 10000 5.1 100 21:42 12.01.2020
4587 Clouds 20 1019 82 10000 4.6 110 21:20 12.01.2020
4588 Clouds 20 1019 82 10000 4.1 100 20:59 12.01.2020
4589 Clouds 20 1019 82 10000 4.1 100 20:59 12.01.2020
4590 Clouds 20 1019 82 10000 4.1 100 20:40 12.01.2020
4591 Thunderstorm 21 1019 77 10000 4.6 100 20:21 12.01.2020
4592 Thunderstorm 21 1020 83 10000 4.6 80 19:57 12.01.2020
4593 Thunderstorm 21 1020 83 10000 4.6 80 19:38 12.01.2020
4594 Clouds 21 1019 77 10000 4.1 100 19:19 12.01.2020
4595 Clouds 21 1019 77 10000 4.1 100 19:19 12.01.2020
4596 Thunderstorm 21 1019 77 10000 6.2 110 18:58 12.01.2020
4597 Thunderstorm 21 1019 77 10000 6.2 110 18:40 12.01.2020
4598 Thunderstorm 22 1018 73 10000 5.7 130 18:21 12.01.2020
4599 Thunderstorm 22 1018 68 10000 5.7 100 17:58 12.01.2020
4600 Thunderstorm 22 1018 68 10000 5.7 100 17:40 12.01.2020
4601 Clouds 23 1018 64 10000 5.1 110 17:19 12.01.2020
4602 Clouds 24 1017 57 10000 5.1 120 16:56 12.01.2020
4603 Clouds 24 1017 57 10000 5.1 120 16:37 12.01.2020
4604 Clouds 24 1017 57 10000 5.1 120 16:37 12.01.2020
4605 Clouds 25 1017 53 10000 6.7 110 16:19 12.01.2020
4606 Clouds 25 1016 53 10000 5.7 100 15:42 12.01.2020
4607 Clouds 26 1016 47 10000 4.6 110 15:24 12.01.2020
4608 Clouds 27 1016 42 10000 4.6 100 14:57 12.01.2020
4609 Clouds 27 1016 42 10000 4.6 100 14:38 12.01.2020
4610 Clouds 28 1015 39 10000 4.1 100 14:19 12.01.2020
4611 Clouds 28 1016 42 10000 3.6 120 13:44 12.01.2020
4612 Clouds 28 1016 42 10000 4.1 130 13:25 12.01.2020
4613 Clouds 28 1016 45 10000 3.1 110 12:58 12.01.2020
4614 Clouds 28 1016 45 10000 3.1 110 12:39 12.01.2020
4615 Clouds 27 1017 47 10000 3.1 90 12:20 12.01.2020
4616 Clouds 28 1018 48 10000 2.1 150 11:58 12.01.2020
4617 Clouds 28 1018 48 10000 2.1 150 11:38 12.01.2020
4618 Clouds 27 1018 47 10000 3.1 0 11:19 12.01.2020
4619 Clouds 27 1019 54 10000 2.6 0 10:41 12.01.2020
4620 Clouds 27 1019 54 10000 2.6 0 10:41 12.01.2020
4621 Clouds 26 1019 57 10000 2.6 0 10:22 12.01.2020
4622 Clouds 26 1019 57 10000 2.6 130 09:57 12.01.2020
4623 Clouds 26 1019 57 10000 2.6 130 09:38 12.01.2020
4624 Clouds 25 1019 61 10000 3.1 110 09:18 12.01.2020
4625 Clouds 24 1019 64 10000 3.6 100 08:44 12.01.2020
4626 Clouds 23 1020 64 10000 3.6 90 08:20 12.01.2020
4627 Clouds 23 1020 64 10000 4.1 100 07:40 12.01.2020
4628 Clouds 22 1019 68 10000 3.1 120 07:22 12.01.2020
4629 Clouds 21 1020 73 10000 3.6 120 06:43 12.01.2020
4630 Clouds 21 1019 73 10000 3.1 140 06:24 12.01.2020
4631 Clouds 19 1019 82 10000 1.5 0 05:24 12.01.2020
4632 Clouds 16 1019 93 10000 1 0 03:55 12.01.2020
4633 Clouds 16 1018 93 10000 1.37 152 03:22 12.01.2020
4634 Clouds 17 1018 88 10000 1.5 90 02:33 12.01.2020
4635 Clouds 17 1018 88 10000 2.6 100 01:43 12.01.2020
4636 Clouds 17 1018 88 10000 3.6 120 01:22 12.01.2020
4637 Clouds 17 1018 88 10000 2.6 150 00:40 12.01.2020
4638 Clouds 17 1018 88 10000 2.6 150 00:40 12.01.2020
4639 Clouds 17 1018 88 10000 2.6 120 00:20 12.01.2020
4640 Clouds 17 1019 93 10000 3.6 110 23:42 11.01.2020
4641 Clouds 18 1019 88 10000 1 110 23:19 11.01.2020
4642 Clouds 18 1020 88 10000 2.6 120 22:58 11.01.2020
4643 Clouds 18 1020 88 10000 2.6 120 22:39 11.01.2020
4644 Clouds 18 1020 88 10000 3.1 130 22:20 11.01.2020
4645 Clouds 19 1020 82 10000 4.1 120 21:55 11.01.2020
4646 Clouds 19 1020 82 10000 4.1 120 21:37 11.01.2020
4647 Clouds 19 1020 82 10000 4.1 120 21:18 11.01.2020
4648 Clouds 19 1021 82 10000 4.6 130 20:40 11.01.2020
4649 Clouds 19 1021 82 10000 5.1 120 20:22 11.01.2020
4650 Clouds 20 1021 82 10000 4.1 110 19:58 11.01.2020
4651 Clouds 20 1021 82 10000 4.1 110 19:38 11.01.2020
4652 Clouds 20 1021 82 10000 4.1 110 19:38 11.01.2020
4653 Clouds 20 1021 82 10000 4.6 120 19:20 11.01.2020
4654 Clouds 20 1020 82 10000 4.6 110 18:57 11.01.2020
4655 Clouds 20 1020 82 10000 4.6 110 18:37 11.01.2020
4656 Clouds 21 1020 77 10000 7.2 110 18:19 11.01.2020
4657 Clouds 22 1019 68 10000 5.7 110 17:57 11.01.2020
4658 Clouds 22 1019 68 10000 5.7 110 17:39 11.01.2020
4659 Clouds 23 1018 60 10000 5.7 100 17:19 11.01.2020
4660 Clouds 24 1018 53 10000 5.7 110 16:44 11.01.2020
4661 Clouds 25 1017 50 10000 5.7 110 16:25 11.01.2020
4662 Clouds 27 1017 39 10000 5.7 120 15:57 11.01.2020
4663 Clouds 27 1017 39 10000 5.7 120 15:39 11.01.2020
4664 Clouds 27 1016 36 10000 5.7 110 15:20 11.01.2020
4665 Clouds 27 1016 36 10000 5.7 110 15:20 11.01.2020
4666 Clouds 28 1016 37 10000 5.7 100 14:49 11.01.2020
4667 Clouds 29 1016 32 10000 4.6 110 14:26 11.01.2020
4668 Clouds 29 1016 30 10000 4.6 110 13:59 11.01.2020
4669 Clouds 29 1016 30 10000 4.6 110 13:38 11.01.2020
4670 Clouds 29 1016 30 10000 4.6 100 13:20 11.01.2020
4671 Clouds 29 1017 30 10000 3.6 100 12:56 11.01.2020
4672 Clouds 29 1017 30 10000 3.6 100 12:37 11.01.2020
4673 Clouds 29 1017 30 10000 3.6 160 12:19 11.01.2020
4674 Clouds 28 1017 37 10000 3.1 0 11:45 11.01.2020
4675 Clouds 28 1017 39 10000 2.1 90 11:24 11.01.2020
4676 Clouds 27 1018 42 10000 2.6 80 10:50 11.01.2020
4677 Clouds 27 1018 42 10000 2.6 180 10:30 11.01.2020
4678 Clouds 26 1018 44 10000 2.6 0 09:44 11.01.2020
4679 Clouds 25 1019 47 10000 3.1 140 09:21 11.01.2020
4680 Clouds 25 1019 47 10000 3.1 140 09:21 11.01.2020
4681 Clouds 25 1019 47 10000 3.1 140 09:21 11.01.2020
4682 Clouds 25 1019 47 10000 3.1 140 09:21 11.01.2020
4683 Clouds 24 1019 50 10000 3.6 140 08:59 11.01.2020
4684 Clouds 24 1019 50 10000 3.6 140 08:40 11.01.2020
4685 Clouds 23 1020 56 10000 3.1 130 08:19 11.01.2020
4686 Clouds 23 1020 53 10000 3.6 150 07:43 11.01.2020
4687 Clouds 22 1020 60 10000 4.1 190 07:24 11.01.2020
4688 Clouds 21 1020 64 10000 3.6 140 06:43 11.01.2020
4689 Clouds 18 1020 77 10000 3.1 160 05:30 11.01.2020
4690 Clouds 17 1020 82 10000 2.1 150 04:42 11.01.2020
4691 Clouds 15 1020 93 10000 2.1 80 04:24 11.01.2020
4692 Clouds 15 1019 100 10000 2.1 80 02:48 11.01.2020
4693 Clouds 16 1018 93 10000 2.6 130 01:47 11.01.2020
4694 Clouds 16 1018 93 10000 2.6 120 01:28 11.01.2020
4695 Clouds 16 1018 93 10000 2.6 100 00:54 11.01.2020
4696 Clouds 17 1019 88 10000 4.1 90 00:29 11.01.2020
4697 Clouds 17 1019 88 10000 4.1 90 23:58 10.01.2020
4698 Clouds 17 1019 88 10000 4.1 90 23:39 10.01.2020
4699 Clouds 17 1019 88 10000 4.1 90 23:39 10.01.2020
4700 Clouds 17 1019 93 10000 4.6 120 23:20 10.01.2020
4701 Clouds 18 1019 88 10000 3.1 120 22:41 10.01.2020
4702 Clouds 18 1019 88 10000 3.1 120 22:22 10.01.2020
4703 Clouds 18 1020 88 10000 3.1 140 21:59 10.01.2020
4704 Clouds 18 1020 88 10000 3.1 140 21:41 10.01.2020
4705 Clouds 19 1020 82 10000 3.1 150 21:20 10.01.2020
4706 Clouds 19 1020 82 10000 5.1 130 20:57 10.01.2020
4707 Clouds 19 1020 82 10000 5.1 130 20:38 10.01.2020
4708 Clouds 19 1020 82 10000 5.1 130 20:38 10.01.2020
4709 Clouds 20 1021 77 10000 5.1 140 20:20 10.01.2020
4710 Clouds 20 1020 82 10000 5.1 140 19:40 10.01.2020
4711 Thunderstorm 21 1020 83 10000 3.6 140 19:21 10.01.2020
4712 Thunderstorm 21 1019 83 10000 5.7 110 18:55 10.01.2020
4713 Thunderstorm 21 1019 83 10000 5.7 110 18:37 10.01.2020
4714 Thunderstorm 21 1019 83 10000 5.7 120 18:18 10.01.2020
4715 Thunderstorm 22 1019 78 10000 6.7 110 17:56 10.01.2020
4716 Thunderstorm 22 1019 78 10000 6.7 110 17:37 10.01.2020
4717 Clouds 22 1018 73 10000 5.7 110 17:19 10.01.2020
4718 Clouds 23 1018 69 10000 6.2 100 16:41 10.01.2020
4719 Clouds 24 1017 64 10000 5.1 90 16:21 10.01.2020
4720 Clouds 27 1017 51 10000 3.1 110 15:56 10.01.2020
4721 Clouds 27 1017 51 10000 3.1 110 15:56 10.01.2020
4722 Clouds 27 1017 51 10000 3.1 110 15:37 10.01.2020
4723 Clouds 27 1017 51 10000 3.1 110 15:37 10.01.2020
4724 Clouds 26 1017 54 10000 2.1 150 15:19 10.01.2020
4725 Clouds 27 1017 54 10000 3.1 120 14:57 10.01.2020
4726 Clouds 27 1017 54 10000 3.1 120 14:39 10.01.2020
4727 Clouds 28 1017 48 10000 2.1 0 14:19 10.01.2020
4728 Clouds 28 1017 42 10000 2.1 100 13:54 10.01.2020
4729 Clouds 28 1017 42 10000 2.1 100 13:36 10.01.2020
4730 Clouds 28 1017 51 10000 3.1 130 13:18 10.01.2020
4731 Clouds 27 1018 54 10000 3.1 110 12:54 10.01.2020
4732 Clouds 27 1018 54 10000 3.1 110 12:36 10.01.2020
4733 Clouds 27 1018 54 10000 3.6 110 12:18 10.01.2020
4734 Clouds 27 1018 54 10000 3.6 120 11:42 10.01.2020
4735 Clouds 27 1018 54 10000 3.6 120 11:42 10.01.2020
4736 Clouds 27 1018 54 10000 3.6 120 11:42 10.01.2020
4737 Clouds 27 1018 54 10000 3.6 120 11:42 10.01.2020
4738 Clouds 27 1019 54 10000 4.1 130 11:21 10.01.2020
4739 Clouds 26 1019 50 10000 3.6 110 10:59 10.01.2020
4740 Clouds 26 1019 50 10000 3.6 110 10:38 10.01.2020
4741 Clouds 27 1019 51 10000 3.6 190 10:19 10.01.2020
4742 Clouds 26 1019 54 10000 3.6 170 09:46 10.01.2020
4743 Clouds 26 1020 54 10000 2.6 100 09:26 10.01.2020
4744 Clouds 25 1020 53 10000 3.6 100 08:57 10.01.2020
4745 Clouds 25 1020 53 10000 3.6 100 08:37 10.01.2020
4746 Clouds 25 1020 61 10000 3.1 170 08:18 10.01.2020
4747 Clouds 24 1020 60 10000 4.1 140 07:41 10.01.2020
4748 Clouds 23 1020 69 10000 4.1 150 07:21 10.01.2020
4749 Clouds 22 1020 73 10000 4.6 140 06:41 10.01.2020
4750 Clouds 20 1020 77 10000 4.1 160 06:23 10.01.2020
4751 Clouds 20 1019 77 10000 4.6 140 05:25 10.01.2020
4752 Clouds 18 1018 88 10000 3.6 130 03:32 10.01.2020
4753 Clouds 18 1018 88 10000 2.1 140 02:53 10.01.2020
4754 Clouds 18 1018 88 10000 2.6 140 02:33 10.01.2020
4755 Clouds 19 1018 82 10000 3.6 140 01:32 10.01.2020
4756 Clouds 19 1018 82 10000 3.1 120 00:51 10.01.2020
4757 Clouds 19 1018 82 10000 3.1 140 00:33 10.01.2020
4758 Clouds 19 1019 82 10000 3.1 130 23:57 09.01.2020
4759 Clouds 19 1019 82 10000 3.1 130 23:57 09.01.2020
4760 Clouds 19 1019 82 10000 3.1 130 23:36 09.01.2020
4761 Clouds 19 1019 82 10000 3.6 140 23:18 09.01.2020
4762 Clouds 19 1019 82 10000 4.6 120 22:56 09.01.2020
4763 Clouds 19 1019 82 10000 4.6 120 22:37 09.01.2020
4764 Clouds 19 1019 82 10000 5.7 120 22:18 09.01.2020
4765 Clouds 20 1019 82 10000 4.1 130 21:55 09.01.2020
4766 Clouds 20 1019 82 10000 4.1 130 21:37 09.01.2020
4767 Clouds 20 1020 82 10000 4.1 130 21:18 09.01.2020
4768 Clouds 20 1019 82 10000 4.6 130 20:54 09.01.2020
4769 Clouds 20 1019 82 10000 4.6 130 20:36 09.01.2020
4770 Clouds 20 1020 82 10000 4.1 140 20:18 09.01.2020
4771 Clouds 20 1020 82 10000 5.7 120 19:39 09.01.2020
4772 Clouds 21 1019 77 10000 7.2 110 19:20 09.01.2020
4773 Thunderstorm 21 1019 83 10000 4.6 110 18:57 09.01.2020
4774 Thunderstorm 21 1019 83 10000 4.6 110 18:39 09.01.2020
4775 Thunderstorm 21 1019 83 10000 5.7 100 18:20 09.01.2020
4776 Clouds 22 1018 73 10000 5.7 100 17:41 09.01.2020
4777 Clouds 22 1018 73 10000 5.7 100 17:41 09.01.2020
4778 Clouds 23 1018 60 10000 4.6 120 17:19 09.01.2020
4779 Clouds 23 1017 64 10000 5.7 100 16:58 09.01.2020
4780 Clouds 23 1017 64 10000 5.7 100 16:39 09.01.2020
4781 Clouds 24 1017 60 10000 4.1 140 16:20 09.01.2020
4782 Clouds 25 1017 53 10000 3.6 150 15:43 09.01.2020
4783 Clouds 25 1017 57 10000 5.1 150 15:22 09.01.2020
4784 Clouds 26 1016 54 10000 3.6 140 14:58 09.01.2020
4785 Clouds 26 1016 54 10000 3.6 140 14:39 09.01.2020
4786 Clouds 27 1016 51 10000 5.1 140 14:19 09.01.2020
4787 Clouds 27 1017 54 10000 4.1 110 13:55 09.01.2020
4788 Clouds 27 1017 54 10000 4.1 110 13:37 09.01.2020
4789 Clouds 26 1017 54 10000 5.7 110 13:18 09.01.2020
4790 Clouds 27 1017 54 10000 4.6 150 12:42 09.01.2020
4791 Clouds 28 1018 51 10000 2.6 100 12:24 09.01.2020
4792 Clouds 27 1018 54 10000 3.6 120 11:59 09.01.2020
4793 Clouds 27 1018 54 10000 3.6 120 11:41 09.01.2020
4794 Clouds 27 1018 51 10000 3.6 100 11:23 09.01.2020
4795 Clouds 26 1019 54 10000 4.1 140 10:57 09.01.2020
4796 Clouds 26 1019 54 10000 4.1 140 10:39 09.01.2020
4797 Clouds 27 1019 54 10000 2.6 0 10:20 09.01.2020
4798 Clouds 26 1019 57 10000 3.1 150 09:41 09.01.2020
4799 Clouds 26 1019 57 10000 3.1 150 09:41 09.01.2020
4800 Clouds 26 1019 57 10000 3.1 150 09:41 09.01.2020
4801 Clouds 25 1019 61 10000 3.6 0 09:23 09.01.2020
4802 Clouds 25 1019 57 10000 2.6 0 08:57 09.01.2020
4803 Clouds 25 1019 57 10000 2.6 0 08:38 09.01.2020
4804 Clouds 24 1019 64 10000 3.1 160 08:19 09.01.2020
4805 Clouds 23 1020 69 10000 3.6 140 07:45 09.01.2020
4806 Clouds 23 1020 69 10000 4.1 170 07:27 09.01.2020
4807 Clouds 22 1020 73 10000 2.1 90 06:39 09.01.2020
4808 Clouds 21 1020 77 10000 2.6 100 06:21 09.01.2020
4809 Clouds 21 1020 77 10000 2.6 120 05:50 09.01.2020
4810 Clouds 18 1020 93 10000 0.5 0 04:46 09.01.2020
4811 Clouds 18 1019 93 10000 1 70 03:55 09.01.2020
4812 Clouds 18 1019 93 10000 2.6 100 03:26 09.01.2020
4813 Clouds 18 1019 93 10000 2.6 100 02:33 09.01.2020
4814 Clouds 18 1019 93 10000 1.5 70 01:41 09.01.2020
4815 Clouds 18 1019 93 10000 1 180 00:44 09.01.2020
4816 Clouds 18 1019 93 10000 1 0 00:23 09.01.2020
4817 Clouds 18 1019 93 10000 1.5 170 23:58 08.01.2020
4818 Clouds 18 1019 93 10000 1.5 180 23:38 08.01.2020
4819 Clouds 18 1019 93 10000 1.5 180 23:19 08.01.2020
4820 Clouds 18 1020 93 10000 1 0 22:40 08.01.2020
4821 Clouds 18 1020 93 10000 1 0 22:40 08.01.2020
4822 Clouds 18 1020 93 10000 1.5 160 22:21 08.01.2020
4823 Clouds 18 1020 93 10000 2.1 150 21:58 08.01.2020
4824 Clouds 18 1020 93 10000 2.1 150 21:39 08.01.2020
4825 Clouds 19 1020 88 10000 2.6 100 21:20 08.01.2020
4826 Clouds 19 1020 88 10000 2.6 100 20:58 08.01.2020
4827 Clouds 19 1020 88 10000 2.6 100 20:40 08.01.2020
4828 Clouds 19 1020 88 10000 2.1 80 20:20 08.01.2020
4829 Clouds 19 1020 88 10000 2.1 80 20:20 08.01.2020
4830 Clouds 19 1020 88 10000 1.5 40 19:57 08.01.2020
4831 Clouds 19 1021 88 10000 2.1 130 19:37 08.01.2020
4832 Clouds 19 1021 88 10000 2.1 130 19:19 08.01.2020
4833 Clouds 19 1020 88 10000 1.5 90 18:56 08.01.2020
4834 Clouds 19 1020 88 10000 1.5 90 18:37 08.01.2020
4835 Clouds 19 1020 88 10000 2.1 40 18:18 08.01.2020
4836 Clouds 19 1019 88 10000 3.1 70 17:48 08.01.2020
4837 Rain 19 1019 88 10000 2.6 50 17:24 08.01.2020
4838 Clouds 19 1019 88 10000 3.6 50 16:59 08.01.2020
4839 Clouds 19 1019 88 10000 3.6 50 16:41 08.01.2020
4840 Clouds 20 1019 88 10000 4.6 80 16:19 08.01.2020
4841 Clouds 20 1018 88 10000 3.1 120 15:59 08.01.2020
4842 Clouds 20 1018 88 10000 3.1 120 15:40 08.01.2020
4843 Thunderstorm 21 1018 83 10000 4.6 110 15:20 08.01.2020
4844 Thunderstorm 21 1018 83 10000 3.6 90 14:56 08.01.2020
4845 Thunderstorm 20 1017 88 10000 4.6 70 14:38 08.01.2020
4846 Thunderstorm 20 1017 88 10000 4.6 70 14:19 08.01.2020
4847 Thunderstorm 17 1019 93 4000 5.7 120 13:39 08.01.2020
4848 Thunderstorm 17 1019 93 4000 5.7 120 13:19 08.01.2020
4849 Thunderstorm 24 1017 69 10000 7.2 70 12:42 08.01.2020
4850 Thunderstorm 26 1017 65 10000 4.6 50 12:19 08.01.2020
4851 Thunderstorm 25 1018 65 10000 5.7 350 11:55 08.01.2020
4852 Thunderstorm 25 1018 65 10000 5.7 350 11:37 08.01.2020
4853 Thunderstorm 25 1018 65 10000 3.1 350 11:18 08.01.2020
4854 Clouds 28 1018 54 10000 2.1 0 10:54 08.01.2020
4855 Clouds 28 1018 51 10000 2.1 0 10:36 08.01.2020
4856 Clouds 28 1018 51 10000 2.1 0 10:18 08.01.2020
4857 Clouds 27 1019 57 10000 3.1 90 09:41 08.01.2020
4858 Clouds 26 1019 61 10000 2.1 0 09:19 08.01.2020
4859 Clouds 25 1020 69 10000 1.5 0 08:56 08.01.2020
4860 Clouds 25 1020 69 10000 1.5 0 08:37 08.01.2020
4861 Clouds 25 1020 69 10000 1.5 0 08:18 08.01.2020
4862 Clouds 23 1020 78 10000 2.1 70 07:47 08.01.2020
4863 Clouds 22 1020 78 10000 1.5 0 07:29 08.01.2020
4864 Clouds 21 1020 88 10000 2.1 160 06:44 08.01.2020
4865 Clouds 21 1019 83 10000 2.6 170 05:59 08.01.2020
4866 Clouds 21 1019 83 10000 2.6 170 05:38 08.01.2020
4867 Clouds 18 1019 100 10000 1 0 04:54 08.01.2020
4868 Clouds 18 1019 93 10000 1 40 03:33 08.01.2020
4869 Clouds 18 1019 93 10000 0.29 176 02:44 08.01.2020
4870 Clouds 18 1019 93 10000 0.65 71 02:19 08.01.2020
4871 Rain 18 1019 93 7000 1.5 270 01:40 08.01.2020
4872 Clouds 18 1019 93 10000 2.6 300 00:54 08.01.2020
4873 Clouds 18 1019 93 10000 2.1 300 00:26 08.01.2020
4874 Rain 18 1020 93 10000 2.1 300 23:47 07.01.2020
4875 Clouds 18 1020 93 10000 1 0 23:22 07.01.2020
4876 Rain 17 1019 100 10000 2.18 67 22:58 07.01.2020
4877 Rain 17 1020 100 10000 1.5 0 22:39 07.01.2020
4878 Rain 17 1020 100 10000 1.5 0 22:19 07.01.2020
4879 Thunderstorm 18 1020 93 10000 3.1 220 21:54 07.01.2020
4880 Thunderstorm 17 1020 100 10000 2.1 230 21:36 07.01.2020
4881 Thunderstorm 17 1020 100 10000 2.1 230 21:36 07.01.2020
4882 Thunderstorm 17 1020 100 10000 2.1 230 21:18 07.01.2020
4883 Thunderstorm 17 1020 100 10000 1 0 20:41 07.01.2020
4884 Thunderstorm 17 1020 100 10000 2.6 350 20:23 07.01.2020
4885 Thunderstorm 17 1021 100 8000 3.1 310 19:59 07.01.2020
4886 Thunderstorm 17 1021 93 8000 3.1 360 19:38 07.01.2020
4887 Thunderstorm 17 1021 93 8000 3.1 360 19:19 07.01.2020
4888 Thunderstorm 17 1021 93 8000 3.1 360 19:19 07.01.2020
4889 Thunderstorm 17 1020 100 7000 3.1 340 18:57 07.01.2020
4890 Thunderstorm 17 1020 100 7000 3.1 340 18:38 07.01.2020
4891 Thunderstorm 17 1020 93 4000 3.1 210 18:18 07.01.2020
4892 Thunderstorm 18 1020 93 2500 8.2 210 17:56 07.01.2020
4893 Thunderstorm 18 1020 93 2500 8.2 210 17:37 07.01.2020
4894 Thunderstorm 19 1019 88 3500 7.2 200 17:18 07.01.2020
4895 Thunderstorm 24 1018 69 10000 2.1 60 16:55 07.01.2020
4896 Thunderstorm 25 1017 65 10000 4.1 50 16:37 07.01.2020
4897 Thunderstorm 25 1017 65 10000 4.1 50 16:18 07.01.2020
4898 Clouds 25 1017 65 10000 3.6 40 15:43 07.01.2020
4899 Clouds 27 1016 51 10000 2.6 70 15:24 07.01.2020
4900 Clouds 28 1017 45 10000 2.1 0 14:58 07.01.2020
4901 Clouds 28 1017 45 10000 2.1 0 14:40 07.01.2020
4902 Clouds 29 1016 45 10000 1.5 0 14:21 07.01.2020
4903 Clouds 27 1017 54 10000 1.5 0 13:46 07.01.2020
4904 Clouds 27 1017 54 10000 1.5 0 13:21 07.01.2020
4905 Clouds 27 1017 54 10000 2.1 360 12:56 07.01.2020
4906 Clouds 27 1017 54 10000 2.1 360 12:38 07.01.2020
4907 Clouds 27 1018 54 10000 1 0 12:19 07.01.2020
4908 Clouds 26 1018 57 10000 2.6 80 11:41 07.01.2020
4909 Clouds 26 1019 57 10000 2.1 70 11:23 07.01.2020
4910 Clouds 26 1019 57 10000 2.1 70 10:57 07.01.2020
4911 Clouds 26 1019 57 10000 2.1 70 10:57 07.01.2020
4912 Clouds 25 1019 61 10000 2.1 70 10:39 07.01.2020
4913 Clouds 25 1019 61 10000 2.1 70 10:20 07.01.2020
4914 Clouds 25 1019 61 10000 2.1 60 09:39 07.01.2020
4915 Clouds 24 1020 64 10000 1 0 09:21 07.01.2020
4916 Clouds 24 1020 64 10000 1.5 0 08:57 07.01.2020
4917 Clouds 23 1020 69 10000 2.6 180 08:37 07.01.2020
4918 Clouds 23 1020 69 10000 2.6 180 08:18 07.01.2020
4919 Clouds 22 1020 73 10000 1 0 07:42 07.01.2020
4920 Clouds 22 1020 73 10000 2.6 120 06:57 07.01.2020
4921 Clouds 22 1020 73 10000 2.6 120 06:35 07.01.2020
4922 Clouds 20 1020 82 10000 2.6 110 05:59 07.01.2020
4923 Clouds 20 1020 82 10000 2.6 110 05:40 07.01.2020
4924 Clouds 19 1018 88 10000 2.1 80 03:45 07.01.2020
4925 Clouds 19 1018 88 10000 3.6 80 02:47 07.01.2020
4926 Clouds 19 1018 88 10000 4.1 90 01:59 07.01.2020
4927 Clouds 20 1018 82 10000 4.1 90 01:36 07.01.2020
4928 Clouds 20 1018 82 10000 3.6 70 00:55 07.01.2020
4929 Clouds 20 1018 82 10000 3.6 70 00:20 07.01.2020
4930 Clouds 20 1018 82 10000 5.1 90 23:56 06.01.2020
4931 Clouds 20 1018 82 10000 5.1 90 23:37 06.01.2020
4932 Clouds 20 1018 82 10000 3.1 60 23:19 06.01.2020
4933 Clouds 20 1019 82 10000 3.6 100 22:43 06.01.2020
4934 Clouds 20 1018 82 10000 3.1 140 22:24 06.01.2020
4935 Clouds 20 1018 82 10000 3.1 140 22:24 06.01.2020
4936 Clouds 20 1018 82 10000 3.1 140 22:24 06.01.2020
4937 Clouds 20 1019 82 10000 3.6 130 21:58 06.01.2020
4938 Clouds 20 1019 82 10000 3.6 130 21:39 06.01.2020
4939 Clouds 20 1019 82 10000 3.6 90 21:20 06.01.2020
4940 Clouds 20 1019 82 10000 3.6 90 21:20 06.01.2020
4941 Thunderstorm 21 1019 77 10000 5.1 130 20:57 06.01.2020
4942 Thunderstorm 21 1019 77 10000 5.1 130 20:38 06.01.2020
4943 Thunderstorm 21 1019 83 10000 4.6 130 20:20 06.01.2020
4944 Thunderstorm 21 1019 83 10000 4.6 140 19:56 06.01.2020
4945 Thunderstorm 21 1019 83 10000 4.6 140 19:38 06.01.2020
4946 Thunderstorm 22 1018 78 10000 5.1 110 19:20 06.01.2020
4947 Thunderstorm 22 1018 78 10000 4.1 120 18:48 06.01.2020
4948 Thunderstorm 22 1018 78 10000 4.1 100 18:22 06.01.2020
4949 Thunderstorm 23 1017 73 10000 4.6 100 17:58 06.01.2020
4950 Thunderstorm 23 1017 73 10000 4.6 100 17:38 06.01.2020
4951 Thunderstorm 23 1017 69 10000 5.1 110 17:18 06.01.2020
4952 Thunderstorm 24 1016 64 10000 5.1 100 16:44 06.01.2020
4953 Thunderstorm 25 1016 61 10000 5.7 100 16:25 06.01.2020
4954 Thunderstorm 25 1016 61 10000 5.7 100 16:25 06.01.2020
4955 Clouds 26 1015 50 10000 5.1 120 15:59 06.01.2020
4956 Clouds 26 1015 50 10000 5.1 120 15:39 06.01.2020
4957 Clouds 27 1015 47 10000 5.1 120 15:18 06.01.2020
4958 Clouds 28 1015 48 10000 6.2 80 14:56 06.01.2020
4959 Clouds 28 1015 48 10000 6.2 80 14:37 06.01.2020
4960 Clouds 29 1015 42 10000 5.1 120 14:18 06.01.2020
4961 Clouds 29 1015 42 10000 5.1 120 14:18 06.01.2020
4962 Clouds 29 1015 42 10000 3.6 170 13:41 06.01.2020
4963 Clouds 29 1015 39 10000 3.1 110 13:22 06.01.2020
4964 Clouds 29 1016 42 10000 3.1 80 12:59 06.01.2020
4965 Clouds 29 1016 42 10000 3.1 80 12:41 06.01.2020
4966 Clouds 29 1016 45 10000 3.1 90 12:20 06.01.2020
4967 Clouds 29 1016 45 10000 3.1 90 12:20 06.01.2020
4968 Clouds 29 1016 42 10000 3.1 120 11:55 06.01.2020
4969 Clouds 29 1016 42 10000 3.1 120 11:37 06.01.2020
4970 Clouds 28 1016 48 10000 3.1 160 11:19 06.01.2020
4971 Clouds 28 1017 51 10000 4.1 150 10:42 06.01.2020
4972 Clouds 28 1017 48 10000 3.6 150 10:21 06.01.2020
4973 Clouds 27 1017 54 10000 3.1 0 09:42 06.01.2020
4974 Clouds 27 1018 51 10000 4.1 160 09:24 06.01.2020
4975 Clouds 27 1018 51 10000 4.1 160 09:24 06.01.2020
4976 Clouds 26 1018 54 10000 3.1 0 08:58 06.01.2020
4977 Clouds 26 1018 54 10000 2.1 0 08:39 06.01.2020
4978 Clouds 26 1018 54 10000 2.1 0 08:21 06.01.2020
4979 Clouds 25 1018 57 10000 2.1 100 07:45 06.01.2020
4980 Clouds 24 1019 60 10000 3.1 140 06:55 06.01.2020
4981 Clouds 22 1018 68 10000 3.1 150 06:35 06.01.2020
4982 Clouds 22 1018 68 10000 2.1 150 05:48 06.01.2020
4983 Clouds 21 1018 73 10000 2.1 110 05:24 06.01.2020
4984 Clouds 18 1018 88 10000 2.1 140 04:24 06.01.2020
4985 Clouds 17 1018 93 10000 2.1 150 03:51 06.01.2020
4986 Clouds 17 1017 93 10000 1 0 02:28 06.01.2020
4987 Clouds 18 1017 88 10000 2.1 120 01:53 06.01.2020
4988 Clouds 18 1017 88 10000 3.6 100 01:30 06.01.2020
4989 Clouds 18 1017 93 10000 2.1 170 00:46 06.01.2020
4990 Clouds 19 1017 88 10000 1.5 0 00:28 06.01.2020
4991 Clouds 19 1017 88 10000 2.6 130 23:57 05.01.2020
4992 Clouds 19 1017 88 10000 2.6 130 23:57 05.01.2020
4993 Clouds 19 1017 88 10000 2.6 130 23:57 05.01.2020
4994 Clouds 19 1017 88 10000 2.6 130 23:38 05.01.2020
4995 Clouds 20 1018 82 10000 2.15 119 23:20 05.01.2020
4996 Clouds 19 1018 88 10000 2.15 119 22:40 05.01.2020
4997 Clouds 19 1018 88 10000 2.1 150 22:21 05.01.2020
4998 Clouds 19 1018 88 10000 2.6 150 21:58 05.01.2020
4999 Clouds 19 1018 88 10000 2.6 150 21:40 05.01.2020
5000 Clouds 19 1018 88 10000 2.1 160 21:20 05.01.2020
5001 Clouds 20 1018 82 10000 4.1 150 20:56 05.01.2020
5002 Clouds 20 1018 82 10000 4.1 150 20:38 05.01.2020
5003 Clouds 20 1018 82 10000 3.1 130 20:19 05.01.2020
5004 Clouds 20 1018 82 10000 3.6 130 19:58 05.01.2020
5005 Clouds 20 1018 82 10000 3.6 130 19:38 05.01.2020
5006 Clouds 20 1018 88 10000 4.6 110 19:20 05.01.2020
5007 Thunderstorm 21 1018 83 10000 2.6 140 18:55 05.01.2020
5008 Thunderstorm 21 1018 83 10000 2.6 140 18:37 05.01.2020
5009 Thunderstorm 21 1018 83 10000 2.6 140 18:37 05.01.2020
5010 Thunderstorm 21 1017 83 10000 3.6 140 18:19 05.01.2020
5011 Thunderstorm 21 1017 77 10000 3.1 140 17:57 05.01.2020
5012 Thunderstorm 21 1017 77 10000 3.1 140 17:38 05.01.2020
5013 Thunderstorm 22 1017 73 10000 4.6 150 17:19 05.01.2020
5014 Clouds 23 1016 73 10000 4.6 140 16:56 05.01.2020
5015 Clouds 23 1016 73 10000 4.6 140 16:37 05.01.2020
5016 Clouds 23 1015 73 10000 4.6 150 16:19 05.01.2020
5017 Clouds 24 1015 64 10000 5.7 140 15:37 05.01.2020
5018 Clouds 25 1014 57 10000 3.1 150 15:19 05.01.2020
5019 Clouds 26 1014 54 10000 2.6 130 14:55 05.01.2020
5020 Clouds 26 1014 54 10000 2.6 130 14:37 05.01.2020
5021 Clouds 28 1014 45 10000 3.1 120 14:18 05.01.2020
5022 Clouds 27 1014 51 10000 3.6 80 13:54 05.01.2020
5023 Clouds 27 1014 47 10000 2.6 140 13:36 05.01.2020
5024 Clouds 27 1014 47 10000 2.6 140 13:18 05.01.2020
5025 Clouds 29 1015 45 10000 3.1 160 12:55 05.01.2020
5026 Clouds 29 1015 45 10000 3.1 160 12:36 05.01.2020
5027 Clouds 28 1015 45 10000 3.1 120 12:36 05.01.2020
5028 Clouds 28 1015 45 10000 3.1 120 12:18 05.01.2020
5029 Clouds 28 1015 48 10000 3.1 150 11:41 05.01.2020
5030 Clouds 28 1015 48 10000 3.1 150 11:40 05.01.2020
5031 Clouds 28 1015 48 10000 3.1 150 11:40 05.01.2020
5032 Clouds 28 1015 48 10000 3.1 150 11:40 05.01.2020
5033 Clouds 28 1015 48 10000 3.1 150 11:40 05.01.2020
5034 Clouds 27 1016 51 10000 3.1 120 11:19 05.01.2020
5035 Clouds 27 1016 51 10000 3.1 120 11:19 05.01.2020
5036 Clouds 27 1016 51 10000 3.1 100 10:56 05.01.2020
5037 Clouds 27 1016 54 10000 3.1 0 10:36 05.01.2020
5038 Clouds 27 1016 54 10000 3.1 0 10:18 05.01.2020
5039 Clouds 25 1017 57 10000 3.1 0 09:41 05.01.2020
5040 Clouds 24 1017 60 10000 4.1 150 09:21 05.01.2020
5041 Clouds 24 1017 60 10000 3.1 150 08:48 05.01.2020
5042 Clouds 24 1017 64 10000 3.6 120 08:29 05.01.2020
5043 Clouds 23 1017 69 10000 3.6 170 07:55 05.01.2020
5044 Clouds 23 1017 69 10000 4.1 180 07:36 05.01.2020
5045 Clouds 23 1018 73 10000 3.6 170 06:59 05.01.2020
5046 Clouds 21 1017 77 10000 2.6 170 05:58 05.01.2020
5047 Clouds 20 1017 77 10000 2.6 170 05:30 05.01.2020
5048 Clouds 19 1017 88 10000 1.5 150 04:43 05.01.2020
5049 Clouds 17 1017 93 10000 2.1 150 03:47 05.01.2020
5050 Clouds 17 1016 93 10000 2.1 150 02:45 05.01.2020
5051 Clouds 18 1016 93 10000 2.1 90 02:20 05.01.2020
5052 Clouds 18 1015 93 10000 2.6 100 01:40 05.01.2020
5053 Clouds 18 1016 93 10000 1.5 0 01:18 05.01.2020
5054 Clouds 18 1016 93 10000 1.5 160 00:41 05.01.2020
5055 Clouds 18 1016 93 10000 1.5 160 00:22 05.01.2020
5056 Clouds 18 1016 93 10000 2.1 110 23:59 04.01.2020
5057 Clouds 18 1016 93 10000 2.1 110 23:39 04.01.2020
5058 Clouds 18 1016 93 10000 1 0 23:19 04.01.2020
5059 Clouds 18 1017 93 10000 1 0 22:39 04.01.2020
5060 Clouds 18 1017 93 10000 1 0 22:21 04.01.2020
5061 Clouds 18 1018 93 10000 1 0 21:57 04.01.2020
5062 Clouds 18 1018 93 10000 1 0 21:38 04.01.2020
5063 Clouds 18 1019 93 10000 2.1 170 21:19 04.01.2020
5064 Clouds 19 1019 88 10000 2.1 160 20:57 04.01.2020
5065 Clouds 19 1019 88 10000 4.1 130 20:38 04.01.2020
5066 Clouds 19 1019 88 10000 4.1 130 20:19 04.01.2020
5067 Clouds 19 1019 93 10000 4.1 100 19:42 04.01.2020
5068 Clouds 20 1019 88 10000 3.1 130 19:23 04.01.2020
5069 Clouds 19 1019 88 10000 3.1 90 18:58 04.01.2020
5070 Clouds 19 1019 88 10000 3.1 90 18:39 04.01.2020
5071 Clouds 20 1018 88 10000 4.1 100 18:20 04.01.2020
5072 Clouds 20 1018 82 10000 4.1 120 17:58 04.01.2020
5073 Clouds 20 1018 82 10000 4.1 120 17:40 04.01.2020
5074 Clouds 20 1018 88 10000 2.6 80 17:22 04.01.2020
5075 Clouds 20 1018 88 10000 2.6 130 16:42 04.01.2020
5076 Clouds 20 1017 88 10000 2.1 110 16:24 04.01.2020
5077 Clouds 20 1017 88 10000 2.1 110 16:24 04.01.2020
5078 Clouds 20 1017 88 10000 1 0 15:58 04.01.2020
5079 Clouds 20 1017 88 10000 1 0 15:39 04.01.2020
5080 Clouds 20 1016 88 10000 2.6 90 15:19 04.01.2020
5081 Thunderstorm 19 1016 93 10000 1 0 14:57 04.01.2020
5082 Thunderstorm 19 1016 93 10000 1 0 14:39 04.01.2020
5083 Thunderstorm 19 1017 93 6000 2.1 220 14:19 04.01.2020
5084 Thunderstorm 19 1016 93 10000 5.1 220 13:55 04.01.2020
5085 Thunderstorm 19 1016 93 10000 5.1 220 13:37 04.01.2020
5086 Thunderstorm 19 1016 93 10000 5.1 220 13:37 04.01.2020
5087 Thunderstorm 21 1016 77 10000 7.7 210 13:18 04.01.2020
5088 Thunderstorm 21 1016 77 10000 7.7 210 13:18 04.01.2020
5089 Thunderstorm 24 1015 57 10000 5.7 160 12:42 04.01.2020
5090 Rain 28 1015 48 10000 7.2 170 12:20 04.01.2020
5091 Rain 28 1015 48 10000 7.2 170 12:20 04.01.2020
5092 Clouds 29 1015 48 10000 2.1 0 11:59 04.01.2020
5093 Clouds 29 1015 48 10000 2.1 0 11:40 04.01.2020
5094 Clouds 29 1016 48 10000 1.5 70 11:19 04.01.2020
5095 Clouds 28 1016 48 10000 1.5 0 10:55 04.01.2020
5096 Clouds 28 1016 48 10000 1.5 0 10:55 04.01.2020
5097 Clouds 28 1016 48 10000 2.1 0 10:36 04.01.2020
5098 Clouds 28 1016 48 10000 2.1 0 10:18 04.01.2020
5099 Clouds 27 1017 57 10000 2.6 230 09:41 04.01.2020
5100 Clouds 27 1017 61 10000 2.1 0 09:22 04.01.2020
5101 Clouds 25 1017 65 10000 2.6 220 08:42 04.01.2020
5102 Clouds 25 1018 65 10000 2.1 230 08:21 04.01.2020
5103 Clouds 24 1018 69 10000 1.5 0 07:44 04.01.2020
5104 Clouds 23 1018 73 10000 1 0 07:21 04.01.2020
5105 Clouds 19 1019 93 10000 0.5 0 06:33 04.01.2020
5106 Clouds 18 1019 93 10000 0.5 0 05:39 04.01.2020
5107 Clouds 17 1018 100 10000 1.5 30 04:44 04.01.2020
5108 Clouds 17 1018 100 10000 0.5 0 04:26 04.01.2020
5109 Clouds 17 1018 93 10000 1 0 03:19 04.01.2020
5110 Clouds 17 1017 93 10000 2.6 320 02:23 04.01.2020
5111 Clouds 17 1018 100 10000 2.1 240 01:56 04.01.2020
5112 Clouds 17 1018 100 10000 2.1 240 01:32 04.01.2020
5113 Clouds 17 1017 100 10000 1 0 00:46 04.01.2020
5114 Clouds 18 1017 93 10000 1 0 00:27 04.01.2020
5115 Rain 17 1018 100 10000 2.6 50 23:48 03.01.2020
5116 Rain 17 1018 100 10000 2.6 50 23:26 03.01.2020
5117 Rain 17 1019 93 10000 2.1 280 22:54 03.01.2020
5118 Rain 17 1019 100 10000 2.6 260 22:36 03.01.2020
5119 Rain 17 1019 100 10000 2.6 260 22:18 03.01.2020
5120 Rain 17 1019 100 10000 2.6 260 22:18 03.01.2020
5121 Rain 17 1020 100 6000 2.6 290 21:54 03.01.2020
5122 Rain 17 1020 100 6000 3.1 270 21:36 03.01.2020
5123 Rain 17 1020 100 6000 3.1 270 21:18 03.01.2020
5124 Rain 17 1021 100 6000 3.6 280 20:43 03.01.2020
5125 Rain 17 1021 100 6000 3.1 300 20:19 03.01.2020
5126 Rain 17 1020 100 6000 4.6 320 19:58 03.01.2020
5127 Rain 17 1020 100 6000 4.6 320 19:39 03.01.2020
5128 Rain 17 1020 100 4000 4.6 300 19:21 03.01.2020
5129 Rain 18 1020 93 4000 6.7 210 18:44 03.01.2020
5130 Rain 19 1020 93 8000 1.5 320 18:26 03.01.2020
5131 Rain 19 1020 93 7000 2.1 310 17:57 03.01.2020
5132 Rain 19 1020 93 7000 2.1 310 17:38 03.01.2020
5133 Rain 19 1019 93 6000 4.6 330 17:19 03.01.2020
5134 Rain 20 1019 88 9000 4.1 320 16:43 03.01.2020
5135 Clouds 20 1019 94 10000 2.6 320 16:24 03.01.2020
5136 Rain 20 1018 88 4500 5.7 310 15:58 03.01.2020
5137 Rain 20 1018 88 4500 5.7 310 15:39 03.01.2020
5138 Clouds 21 1018 83 10000 3.6 330 15:18 03.01.2020
5139 Rain 21 1017 83 10000 5.1 320 14:39 03.01.2020
5140 Rain 21 1017 83 10000 5.1 320 14:19 03.01.2020
5141 Rain 20 1017 88 8000 5.7 340 13:44 03.01.2020
5142 Rain 20 1017 94 8000 5.1 340 13:24 03.01.2020
5143 Rain 21 1017 88 6000 3.6 350 13:00 03.01.2020
5144 Rain 21 1017 88 6000 3.6 350 12:39 03.01.2020
5145 Rain 20 1018 94 6000 5.7 10 12:21 03.01.2020
5146 Rain 20 1018 94 6000 5.7 10 11:47 03.01.2020
5147 Drizzle 23 1018 83 10000 6.2 10 11:23 03.01.2020
5148 Drizzle 23 1018 83 10000 6.2 10 10:47 03.01.2020
5149 Drizzle 23 1018 83 10000 6.2 10 10:27 03.01.2020
5150 Rain 25 1018 69 10000 2.6 20 09:58 03.01.2020
5151 Rain 25 1018 69 10000 2.6 20 09:40 03.01.2020
5152 Clouds 24 1019 73 10000 3.1 20 09:22 03.01.2020
5153 Clouds 24 1019 73 10000 3.6 330 08:57 03.01.2020
5154 Clouds 24 1019 73 10000 3.6 330 08:38 03.01.2020
5155 Rain 23 1020 73 10000 4.1 340 08:19 03.01.2020
5156 Clouds 23 1020 73 10000 4.1 320 07:40 03.01.2020
5157 Clouds 23 1019 78 10000 2.1 340 07:18 03.01.2020
5158 Clouds 21 1020 83 10000 3.1 330 06:49 03.01.2020
5159 Drizzle 20 1019 94 8000 2.6 340 06:30 03.01.2020
5160 Clouds 20 1019 94 9000 1 0 05:39 03.01.2020
5161 Clouds 18 1018 100 10000 0.5 240 04:22 03.01.2020
5162 Clouds 18 1017 93 10000 1.5 350 02:56 03.01.2020
5163 Clouds 18 1017 100 10000 2.1 10 02:28 03.01.2020
5164 Clouds 18 1017 93 10000 2.1 360 01:42 03.01.2020
5165 Clouds 18 1017 93 10000 2.1 360 01:42 03.01.2020
5166 Clouds 18 1017 100 10000 1 40 00:49 03.01.2020
5167 Clouds 18 1017 100 10000 1 40 00:29 03.01.2020
5168 Clouds 18 1017 100 10000 1 310 23:55 02.01.2020
5169 Clouds 18 1017 100 10000 2.06 264 23:37 02.01.2020
5170 Clouds 18 1017 100 10000 2.12 341 23:18 02.01.2020
5171 Rain 18 1017 100 10000 1.5 200 22:44 02.01.2020
5172 Rain 18 1018 100 10000 2.12 341 22:21 02.01.2020
5173 Rain 18 1018 100 10000 2.12 341 22:21 02.01.2020
5174 Rain 18 1018 100 10000 0.5 0 21:58 02.01.2020
5175 Rain 18 1018 100 10000 0.5 0 21:39 02.01.2020
5176 Rain 19 1018 93 10000 2.1 330 21:21 02.01.2020
5177 Rain 19 1019 93 10000 2.1 350 20:57 02.01.2020
5178 Rain 19 1019 93 10000 2.1 350 20:39 02.01.2020
5179 Rain 19 1019 93 8000 3.6 320 20:20 02.01.2020
5180 Rain 19 1019 100 6000 2.6 340 19:55 02.01.2020
5181 Rain 20 1019 94 10000 2.6 320 19:36 02.01.2020
5182 Rain 20 1019 94 10000 2.6 320 19:18 02.01.2020
5183 Rain 20 1018 94 10000 1.5 300 18:54 02.01.2020
5184 Rain 20 1018 94 10000 1 0 18:36 02.01.2020
5185 Rain 20 1018 94 10000 1 0 18:18 02.01.2020
5186 Clouds 20 1018 94 10000 2.6 330 17:55 02.01.2020
5187 Rain 20 1018 94 10000 2.6 340 17:36 02.01.2020
5188 Rain 20 1018 94 10000 2.6 340 17:18 02.01.2020
5189 Rain 20 1018 88 10000 4.1 320 16:42 02.01.2020
5190 Rain 20 1018 88 10000 4.1 320 16:42 02.01.2020
5191 Rain 20 1018 88 10000 4.1 320 16:42 02.01.2020
5192 Rain 20 1017 94 10000 3.1 350 16:22 02.01.2020
5193 Thunderstorm 20 1016 94 10000 3.6 350 15:59 02.01.2020
5194 Thunderstorm 20 1016 94 10000 3.6 350 15:41 02.01.2020
5195 Thunderstorm 20 1016 94 10000 2.6 310 15:23 02.01.2020
5196 Thunderstorm 21 1015 88 10000 3.1 340 14:57 02.01.2020
5197 Thunderstorm 21 1015 88 10000 5.1 350 14:37 02.01.2020
5198 Thunderstorm 21 1015 88 10000 5.1 350 14:18 02.01.2020
5199 Thunderstorm 23 1015 83 10000 2.6 20 13:51 02.01.2020
5200 Rain 22 1015 88 10000 3.6 330 13:32 02.01.2020
5201 Rain 24 1015 73 10000 4.1 300 12:47 02.01.2020
5202 Rain 26 1015 61 10000 4.1 40 12:28 02.01.2020
5203 Clouds 23 1016 78 0 3.1 10 11:59 02.01.2020
5204 Clouds 23 1016 78 0 3.1 10 11:41 02.01.2020
5205 Clouds 23 1016 78 0 3.1 10 11:20 02.01.2020
5206 Clouds 23 1017 73 10000 4.6 10 10:45 02.01.2020
5207 Clouds 24 1017 73 10000 5.1 40 10:26 02.01.2020
5208 Clouds 23 1017 78 10000 3.1 350 09:55 02.01.2020
5209 Clouds 23 1017 78 10000 3.1 10 09:34 02.01.2020
5210 Clouds 23 1017 73 10000 3.6 50 08:50 02.01.2020
5211 Clouds 22 1017 78 10000 3.6 30 08:28 02.01.2020
5212 Clouds 22 1017 78 10000 3.1 60 07:54 02.01.2020
5213 Clouds 22 1017 78 10000 3.1 60 07:31 02.01.2020
5214 Clouds 22 1017 78 10000 3.6 50 06:55 02.01.2020
5215 Clouds 22 1017 78 10000 3.6 50 06:55 02.01.2020
5216 Clouds 22 1017 83 10000 3.6 90 06:36 02.01.2020
5217 Clouds 19 1017 93 10000 2.1 150 05:36 02.01.2020
5218 Clouds 19 1016 93 10000 2.1 170 04:33 02.01.2020
5219 Clouds 18 1016 100 10000 2.1 200 02:55 02.01.2020
5220 Clouds 18 1015 100 10000 1.5 180 02:20 02.01.2020
5221 Clouds 18 1015 100 10000 2.1 140 01:46 02.01.2020
5222 Rain 18 1015 100 8000 1.5 170 00:59 02.01.2020
5223 Rain 19 1016 93 8000 1.5 0 00:34 02.01.2020
5224 Rain 19 1016 93 7000 3.6 120 23:56 01.01.2020
5225 Rain 19 1016 93 7000 5.7 100 23:37 01.01.2020
5226 Rain 19 1016 93 7000 5.7 100 23:18 01.01.2020
5227 Rain 19 1016 93 7000 5.1 110 22:38 01.01.2020
5228 Rain 19 1016 93 7000 5.1 100 22:19 01.01.2020
5229 Clouds 19 1017 93 10000 4.1 40 21:56 01.01.2020
5230 Clouds 19 1017 93 10000 4.1 40 21:37 01.01.2020
5231 Clouds 20 1017 88 10000 3.6 50 21:19 01.01.2020
5232 Clouds 20 1017 88 10000 3.1 40 20:55 01.01.2020
5233 Clouds 20 1017 88 10000 3.1 40 20:37 01.01.2020
5234 Thunderstorm 20 1017 94 10000 2.6 30 20:18 01.01.2020
5235 Thunderstorm 20 1017 94 10000 2.6 40 19:55 01.01.2020
5236 Thunderstorm 20 1017 94 10000 2.6 40 19:36 01.01.2020
5237 Thunderstorm 20 1016 94 10000 1.5 0 19:18 01.01.2020
5238 Thunderstorm 20 1016 94 10000 2.26 67 18:55 01.01.2020
5239 Thunderstorm 20 1016 94 10000 1 0 18:36 01.01.2020
5240 Thunderstorm 20 1016 94 10000 1 0 18:18 01.01.2020
5241 Thunderstorm 21 1016 94 10000 1.5 310 17:55 01.01.2020
5242 Thunderstorm 21 1016 94 10000 1 0 17:36 01.01.2020
5243 Thunderstorm 21 1016 94 10000 1 0 17:18 01.01.2020
5244 Thunderstorm 21 1015 94 10000 0.5 0 16:39 01.01.2020
5245 Thunderstorm 21 1015 88 10000 1.5 0 16:20 01.01.2020
5246 Clouds 21 1014 88 10000 1.5 0 15:57 01.01.2020
5247 Rain 22 1010 88 0 1.95 67 15:39 01.01.2020
5248 Rain 22 1010 88 0 1.95 67 15:20 01.01.2020
5249 Thunderstorm 20 1014 94 10000 1.5 270 14:56 01.01.2020
5250 Thunderstorm 20 1014 94 10000 1.5 270 14:38 01.01.2020
5251 Thunderstorm 20 1014 94 10000 1.5 270 14:20 01.01.2020
5252 Thunderstorm 20 1014 94 10000 1.5 270 13:55 01.01.2020
5253 Thunderstorm 20 1014 94 10000 1.5 270 13:37 01.01.2020
5254 Thunderstorm 19 1014 100 6000 2.6 0 13:18 01.01.2020
5255 Thunderstorm 19 1014 100 3500 8.7 30 12:55 01.01.2020
5256 Thunderstorm 20 1013 94 2500 9.3 360 12:36 01.01.2020
5257 Thunderstorm 20 1013 94 2500 9.3 360 12:18 01.01.2020
5258 Thunderstorm 29 1013 54 10000 3.1 0 11:42 01.01.2020
5259 Clouds 30 1013 55 10000 2.6 280 11:21 01.01.2020
5260 Clouds 29 1014 54 10000 2.1 0 10:57 01.01.2020
5261 Clouds 29 1014 54 10000 2.1 0 10:38 01.01.2020
5262 Clouds 26 1015 65 10000 2.1 0 10:19 01.01.2020
5263 Clouds 26 1015 65 10000 2.1 0 09:42 01.01.2020
5264 Clouds 27 1015 65 10000 2.1 220 09:22 01.01.2020
5265 Clouds 26 1015 69 10000 1.5 0 08:57 01.01.2020
5266 Clouds 26 1015 69 10000 1.5 0 08:38 01.01.2020
5267 Clouds 25 1016 69 10000 1.5 190 08:20 01.01.2020
5268 Clouds 25 1016 69 10000 1.5 160 07:58 01.01.2020
5269 Clouds 25 1016 69 10000 1.5 160 07:40 01.01.2020
5270 Clouds 24 1016 69 10000 1.5 0 07:19 01.01.2020
5271 Clouds 22 1016 73 10000 1 0 06:36 01.01.2020
5272 Clouds 21 1016 77 10000 1.5 20 05:51 01.01.2020
5273 Clouds 18 1016 93 10000 0.5 0 04:28 01.01.2020
5274 Clouds 17 1016 100 10000 0.5 0 03:39 01.01.2020
5275 Clouds 17 1015 100 10000 0.62 352 03:21 01.01.2020
5276 Clouds 17 1015 100 10000 0.62 352 02:42 01.01.2020
5277 Clouds 17 1015 100 10000 0.62 352 02:23 01.01.2020
5278 Clouds 17 1015 100 10000 1 0 01:42 01.01.2020
5279 Clouds 17 1015 100 10000 1 0 01:23 01.01.2020
5280 Rain 17 1016 100 10000 1.5 0 00:45 01.01.2020
5281 Rain 17 1016 100 10000 1.5 0 00:26 01.01.2020
5282 Rain 17 1016 100 9000 2.6 280 23:56 31.12.2019
5283 Rain 17 1016 100 9000 2.6 280 23:37 31.12.2019
5284 Rain 18 1016 93 9000 0.5 0 23:18 31.12.2019
5285 Rain 18 1016 88 10000 2.6 40 22:55 31.12.2019
5286 Rain 17 1017 88 10000 6.2 20 22:36 31.12.2019
5287 Rain 17 1017 88 10000 6.2 20 22:18 31.12.2019
5288 Thunderstorm 18 1017 88 8000 6.2 30 21:43 31.12.2019
5289 Thunderstorm 19 1018 93 10000 4.6 30 21:25 31.12.2019
5290 Thunderstorm 19 1017 93 10000 3.6 50 20:57 31.12.2019
5291 Thunderstorm 19 1017 93 10000 3.6 50 20:38 31.12.2019
5292 Thunderstorm 19 1017 93 10000 3.6 50 20:38 31.12.2019
5293 Thunderstorm 19 1017 100 8000 2.1 60 20:20 31.12.2019
5294 Thunderstorm 19 1017 100 6000 5.1 130 19:55 31.12.2019
5295 Thunderstorm 19 1017 100 4500 1.5 0 19:37 31.12.2019
5296 Thunderstorm 19 1017 100 4500 1.5 0 19:18 31.12.2019
5297 Thunderstorm 20 1016 94 3500 2.1 190 18:55 31.12.2019
5298 Thunderstorm 20 1016 94 2500 3.6 280 18:37 31.12.2019
5299 Thunderstorm 20 1016 94 2500 3.6 280 18:19 31.12.2019
5300 Rain 22 1015 78 10000 3.1 150 17:55 31.12.2019
5301 Clouds 25 1014 65 10000 3.1 110 17:36 31.12.2019
5302 Clouds 25 1014 65 10000 3.1 110 17:36 31.12.2019
5303 Clouds 25 1014 65 10000 3.1 110 17:18 31.12.2019
5304 Clouds 25 1014 69 10000 2.6 120 16:55 31.12.2019
5305 Clouds 26 1014 61 10000 1.5 180 16:36 31.12.2019
5306 Clouds 26 1014 61 10000 1.5 180 16:18 31.12.2019
5307 Clouds 27 1013 61 10000 1.5 200 15:55 31.12.2019
5308 Clouds 27 1013 61 10000 1.5 200 15:37 31.12.2019
5309 Clouds 26 1013 61 10000 1.5 0 15:18 31.12.2019
5310 Clouds 27 1013 57 10000 1.5 0 14:55 31.12.2019
5311 Clouds 27 1013 57 10000 1.5 0 14:36 31.12.2019
5312 Clouds 27 1013 57 10000 1.5 0 14:18 31.12.2019
5313 Rain 24 1013 69 10000 2.1 170 13:54 31.12.2019
5314 Rain 25 1014 65 10000 5.7 190 13:36 31.12.2019
5315 Rain 25 1014 65 10000 5.7 190 13:18 31.12.2019
5316 Rain 28 1014 48 10000 3.6 240 12:40 31.12.2019
5317 Rain 28 1014 48 10000 3.6 240 12:40 31.12.2019
5318 Clouds 30 1014 48 10000 4.1 260 12:21 31.12.2019
5319 Clouds 29 1014 45 10000 3.1 330 11:58 31.12.2019
5320 Clouds 29 1014 45 10000 3.1 330 11:40 31.12.2019
5321 Clouds 28 1015 48 10000 3.1 320 11:21 31.12.2019
5322 Clouds 27 1015 57 10000 2.6 270 10:58 31.12.2019
5323 Clouds 27 1015 57 10000 2.6 270 10:39 31.12.2019
5324 Clouds 28 1015 54 10000 3.1 0 10:20 31.12.2019
5325 Clouds 27 1016 61 10000 4.1 290 09:59 31.12.2019
5326 Clouds 27 1016 61 10000 4.1 290 09:40 31.12.2019
5327 Clouds 25 1016 69 10000 3.1 240 09:22 31.12.2019
5328 Clouds 25 1016 65 10000 3.6 220 08:58 31.12.2019
5329 Clouds 25 1016 65 10000 3.6 220 08:39 31.12.2019
5330 Clouds 24 1016 69 10000 2.6 240 08:20 31.12.2019
5331 Clouds 25 1016 65 10000 2.1 0 07:43 31.12.2019
5332 Clouds 23 1016 73 10000 1.5 0 07:22 31.12.2019
5333 Clouds 23 1017 73 10000 1.5 0 06:50 31.12.2019
5334 Clouds 21 1017 83 10000 2.6 290 05:58 31.12.2019
5335 Clouds 19 1017 93 10000 1.5 290 04:30 31.12.2019
5336 Clouds 18 1017 93 10000 1 20 03:59 31.12.2019
5337 Clouds 18 1015 93 10000 2.1 80 02:56 31.12.2019
5338 Clouds 18 1016 93 10000 2.1 90 02:19 31.12.2019
5339 Clouds 19 1015 88 10000 1.5 0 01:48 31.12.2019
5340 Clouds 19 1016 88 10000 2.6 90 01:27 31.12.2019
5341 Clouds 19 1016 88 10000 1.5 70 00:46 31.12.2019
5342 Clouds 19 1016 93 10000 2.1 70 00:22 31.12.2019
5343 Clouds 19 1016 93 10000 2.6 100 23:57 30.12.2019
5344 Clouds 19 1016 88 10000 2.6 130 23:38 30.12.2019
5345 Clouds 19 1016 88 10000 2.6 130 23:20 30.12.2019
5346 Clouds 19 1017 93 10000 1.5 100 22:58 30.12.2019
5347 Clouds 19 1017 93 10000 1.5 100 22:39 30.12.2019
5348 Clouds 19 1017 93 10000 2.6 110 22:20 30.12.2019
5349 Clouds 20 1017 88 10000 2.1 120 21:57 30.12.2019
5350 Clouds 20 1017 88 10000 2.1 120 21:38 30.12.2019
5351 Clouds 20 1017 94 10000 1.5 80 21:19 30.12.2019
5352 Clouds 19 1018 100 10000 1.5 100 20:56 30.12.2019
5353 Clouds 19 1018 100 10000 1.5 100 20:56 30.12.2019
5354 Clouds 19 1018 100 10000 1.5 100 20:38 30.12.2019
5355 Thunderstorm 19 1018 100 10000 1 0 20:20 30.12.2019
5356 Thunderstorm 19 1017 100 10000 1.5 0 19:57 30.12.2019
5357 Thunderstorm 19 1017 100 10000 1.5 0 19:37 30.12.2019
5358 Thunderstorm 19 1017 93 10000 2.1 330 19:19 30.12.2019
5359 Thunderstorm 19 1017 93 10000 2.1 330 19:19 30.12.2019
5360 Thunderstorm 19 1017 100 6000 2.6 340 18:56 30.12.2019
5361 Thunderstorm 19 1017 100 6000 2.6 340 18:38 30.12.2019
5362 Thunderstorm 20 1017 94 2500 2.6 330 18:20 30.12.2019
5363 Thunderstorm 22 1017 83 4500 3.6 280 17:55 30.12.2019
5364 Thunderstorm 25 1015 61 10000 2.6 190 17:36 30.12.2019
5365 Thunderstorm 25 1015 61 10000 2.6 190 17:18 30.12.2019
5366 Thunderstorm 26 1015 57 10000 4.6 110 16:55 30.12.2019
5367 Thunderstorm 26 1015 57 10000 4.6 110 16:55 30.12.2019
5368 Clouds 26 1014 50 10000 1 0 16:36 30.12.2019
5369 Clouds 26 1014 50 10000 1 0 16:18 30.12.2019
5370 Clouds 27 1014 47 10000 2.1 280 15:54 30.12.2019
5371 Clouds 28 1014 48 10000 2.1 270 15:36 30.12.2019
5372 Clouds 28 1014 48 10000 2.1 270 15:18 30.12.2019
5373 Clouds 28 1014 45 10000 2.6 260 14:42 30.12.2019
5374 Clouds 28 1014 45 10000 2.6 260 14:42 30.12.2019
5375 Clouds 30 1014 42 10000 2.1 0 14:19 30.12.2019
5376 Clouds 30 1014 40 10000 1 0 13:55 30.12.2019
5377 Clouds 30 1014 40 10000 1 0 13:37 30.12.2019
5378 Clouds 29 1014 42 10000 2.1 100 13:18 30.12.2019
5379 Clouds 29 1014 45 10000 2.1 350 12:42 30.12.2019
5380 Clouds 29 1015 45 10000 2.1 0 12:20 30.12.2019
5381 Clouds 28 1015 45 10000 1.5 0 11:58 30.12.2019
5382 Clouds 28 1015 45 10000 1.5 0 11:40 30.12.2019
5383 Clouds 28 1016 48 10000 2.1 0 11:19 30.12.2019
5384 Clouds 28 1016 48 10000 1.5 0 10:44 30.12.2019
5385 Clouds 26 1017 57 10000 2.1 280 10:21 30.12.2019
5386 Clouds 26 1017 57 10000 2.1 0 09:58 30.12.2019
5387 Clouds 26 1017 57 10000 2.1 0 09:39 30.12.2019
5388 Clouds 26 1017 61 10000 3.1 180 09:19 30.12.2019
5389 Clouds 25 1017 61 10000 2.1 210 08:50 30.12.2019
5390 Clouds 25 1017 61 10000 2.1 210 08:50 30.12.2019
5391 Clouds 24 1017 64 10000 2.1 50 08:23 30.12.2019
5392 Clouds 25 1017 61 10000 1.5 0 07:55 30.12.2019
5393 Clouds 25 1017 65 10000 2.1 160 07:34 30.12.2019
5394 Clouds 24 1018 69 10000 1.5 0 06:52 30.12.2019
5395 Clouds 19 1017 88 10000 1.5 0 04:56 30.12.2019
5396 Clouds 18 1017 93 10000 1.5 0 03:53 30.12.2019
5397 Clouds 18 1016 93 10000 1.5 140 02:50 30.12.2019
5398 Clouds 19 1016 88 10000 2.1 170 02:32 30.12.2019
5399 Clouds 19 1016 93 10000 1 0 01:50 30.12.2019
5400 Clouds 19 1016 100 10000 0.5 0 01:20 30.12.2019
5401 Clouds 19 1016 100 10000 1.5 0 00:43 30.12.2019
5402 Rain 19 1016 100 8000 2.1 140 23:59 29.12.2019
5403 Rain 19 1016 100 8000 2.1 140 23:39 29.12.2019
5404 Rain 19 1017 100 8000 2.1 330 23:21 29.12.2019
5405 Rain 19 1017 93 10000 3.1 310 22:42 29.12.2019
5406 Rain 19 1018 93 10000 1.5 0 22:22 29.12.2019
5407 Rain 19 1018 93 10000 2.6 50 21:58 29.12.2019
5408 Rain 19 1018 93 10000 2.6 50 21:40 29.12.2019
5409 Rain 19 1018 93 10000 1 50 21:20 29.12.2019
5410 Thunderstorm 19 1018 93 7000 2.1 350 20:57 29.12.2019
5411 Thunderstorm 19 1018 93 7000 2.1 350 20:38 29.12.2019
5412 Thunderstorm 18 1018 93 6000 2.6 250 20:20 29.12.2019
5413 Thunderstorm 21 1018 83 4000 6.7 210 19:58 29.12.2019
5414 Thunderstorm 22 1017 78 10000 3.1 150 19:39 29.12.2019
5415 Thunderstorm 22 1017 78 10000 3.1 150 19:20 29.12.2019
5416 Thunderstorm 22 1017 78 10000 3.6 160 18:55 29.12.2019
5417 Thunderstorm 23 1016 78 10000 4.6 120 18:37 29.12.2019
5418 Thunderstorm 23 1016 78 10000 4.6 120 18:19 29.12.2019
5419 Thunderstorm 23 1016 78 10000 4.6 120 18:19 29.12.2019
5420 Thunderstorm 23 1016 78 10000 5.7 120 17:56 29.12.2019
5421 Thunderstorm 23 1016 78 10000 5.7 120 17:38 29.12.2019
5422 Thunderstorm 23 1016 78 10000 5.7 120 17:38 29.12.2019
5423 Thunderstorm 24 1015 73 10000 6.7 110 17:19 29.12.2019
5424 Clouds 25 1015 65 10000 6.2 100 16:56 29.12.2019
5425 Clouds 26 1014 57 10000 5.7 100 16:36 29.12.2019
5426 Clouds 26 1014 57 10000 5.7 100 16:36 29.12.2019
5427 Clouds 26 1014 57 10000 5.7 100 16:18 29.12.2019
5428 Clouds 27 1014 51 10000 3.6 100 15:56 29.12.2019
5429 Clouds 27 1014 51 10000 3.6 100 15:38 29.12.2019
5430 Clouds 27 1013 51 10000 4.6 80 15:19 29.12.2019
5431 Clouds 29 1013 45 10000 5.7 110 14:55 29.12.2019
5432 Clouds 29 1013 45 10000 5.7 110 14:37 29.12.2019
5433 Clouds 29 1013 45 10000 5.7 110 14:37 29.12.2019
5434 Clouds 30 1013 33 10000 3.1 120 14:18 29.12.2019
5435 Clouds 30 1013 33 10000 3.1 120 14:18 29.12.2019
5436 Clouds 32 1013 27 10000 2.1 190 13:55 29.12.2019
5437 Clouds 32 1013 27 10000 2.1 190 13:37 29.12.2019
5438 Clouds 32 1013 27 10000 2.1 190 13:18 29.12.2019
5439 Clouds 31 1014 33 10000 2.1 0 12:42 29.12.2019
5440 Clouds 31 1014 35 10000 2.1 70 12:24 29.12.2019
5441 Clouds 30 1015 40 10000 2.1 0 11:55 29.12.2019
5442 Clouds 30 1015 40 10000 2.1 0 11:37 29.12.2019
5443 Clouds 29 1015 42 10000 2.6 0 11:19 29.12.2019
5444 Clouds 29 1016 45 10000 2.6 0 10:41 29.12.2019
5445 Clouds 28 1016 45 10000 2.1 0 10:21 29.12.2019
5446 Clouds 27 1016 54 10000 2.6 60 09:54 29.12.2019
5447 Clouds 27 1017 54 10000 1.5 0 09:36 29.12.2019
5448 Clouds 27 1017 54 10000 1.5 0 09:18 29.12.2019
5449 Clouds 25 1017 57 10000 2.1 130 08:46 29.12.2019
5450 Clouds 26 1017 61 10000 2.1 170 08:24 29.12.2019
5451 Clouds 26 1017 61 10000 2.1 180 07:54 29.12.2019
5452 Clouds 25 1017 61 10000 1.5 0 07:28 29.12.2019
5453 Clouds 24 1017 64 10000 0.5 0 06:53 29.12.2019
5454 Clouds 22 1017 78 10000 2.1 90 06:23 29.12.2019
5455 Clouds 21 1017 83 10000 1.5 0 05:50 29.12.2019
5456 Clouds 19 1017 93 10000 1 0 04:35 29.12.2019
5457 Clouds 18 1017 93 10000 0.21 131 03:40 29.12.2019
5458 Clouds 18 1016 93 10000 1 70 03:19 29.12.2019
5459 Clouds 19 1016 88 10000 2.1 50 02:19 29.12.2019
5460 Clouds 19 1016 88 10000 1.5 60 01:31 29.12.2019
5461 Clouds 19 1016 88 10000 1.5 60 01:31 29.12.2019
5462 Clouds 19 1016 93 10000 1.14 127 00:51 29.12.2019
5463 Clouds 19 1016 93 10000 0.5 0 00:27 29.12.2019
5464 Clouds 19 1016 93 10000 1 0 23:57 28.12.2019
5465 Clouds 19 1016 93 10000 1 0 23:39 28.12.2019
5466 Clouds 19 1016 93 10000 1.5 40 23:18 28.12.2019
5467 Clouds 20 1016 88 10000 2.1 70 22:38 28.12.2019
5468 Clouds 20 1016 88 10000 2.1 70 22:38 28.12.2019
5469 Clouds 20 1017 88 10000 3.1 70 22:19 28.12.2019
5470 Clouds 20 1017 88 10000 4.1 50 21:57 28.12.2019
5471 Clouds 20 1017 88 10000 4.1 50 21:38 28.12.2019
5472 Clouds 20 1017 88 10000 4.1 50 21:38 28.12.2019
5473 Clouds 21 1018 77 10000 3.6 50 21:20 28.12.2019
5474 Clouds 21 1018 77 10000 3.6 70 20:55 28.12.2019
5475 Clouds 21 1018 77 10000 3.6 70 20:55 28.12.2019
5476 Clouds 21 1017 77 10000 2.6 80 20:36 28.12.2019
5477 Clouds 21 1017 77 10000 2.6 80 20:18 28.12.2019
5478 Clouds 21 1017 77 10000 5.7 80 19:54 28.12.2019
5479 Clouds 21 1017 83 10000 3.1 90 19:36 28.12.2019
5480 Clouds 21 1017 83 10000 3.1 90 19:18 28.12.2019
5481 Clouds 21 1017 83 10000 2.1 120 18:42 28.12.2019
5482 Clouds 22 1016 78 10000 5.1 100 18:20 28.12.2019
5483 Clouds 22 1016 78 10000 3.6 110 17:59 28.12.2019
5484 Clouds 22 1015 78 10000 6.7 100 17:40 28.12.2019
5485 Clouds 22 1015 78 10000 6.7 100 17:21 28.12.2019
5486 Clouds 23 1015 73 10000 7.2 110 16:51 28.12.2019
5487 Clouds 24 1014 69 10000 7.7 100 16:27 28.12.2019
5488 Clouds 25 1014 65 10000 7.7 120 15:58 28.12.2019
5489 Clouds 25 1014 65 10000 7.7 120 15:39 28.12.2019
5490 Clouds 26 1014 57 10000 8.7 100 15:21 28.12.2019
5491 Clouds 26 1014 57 10000 8.7 100 15:21 28.12.2019
5492 Clouds 26 1014 57 10000 8.7 100 15:21 28.12.2019
5493 Clouds 28 1014 54 10000 8.2 120 14:47 28.12.2019
5494 Clouds 29 1014 51 10000 6.2 100 14:25 28.12.2019
5495 Clouds 30 1013 42 10000 4.6 130 13:58 28.12.2019
5496 Clouds 30 1013 42 10000 4.6 130 13:39 28.12.2019
5497 Clouds 30 1014 45 10000 4.6 90 13:20 28.12.2019
5498 Clouds 30 1014 42 10000 4.6 140 12:55 28.12.2019
5499 Clouds 30 1014 42 10000 4.1 130 12:36 28.12.2019
5500 Clouds 30 1014 42 10000 4.1 130 12:18 28.12.2019
5501 Clouds 30 1015 45 10000 4.1 110 11:39 28.12.2019
5502 Clouds 30 1015 45 10000 4.1 110 11:21 28.12.2019
5503 Clouds 29 1016 48 10000 4.1 140 10:47 28.12.2019
5504 Clouds 29 1016 48 10000 4.6 120 10:23 28.12.2019
5505 Clouds 29 1016 48 10000 5.7 110 09:59 28.12.2019
5506 Clouds 29 1016 48 10000 5.7 110 09:41 28.12.2019
5507 Clouds 28 1017 51 10000 4.6 120 09:23 28.12.2019
5508 Clouds 27 1017 57 10000 4.6 150 08:45 28.12.2019
5509 Clouds 26 1017 61 10000 4.1 150 08:27 28.12.2019
5510 Clouds 26 1017 57 10000 4.6 150 07:59 28.12.2019
5511 Clouds 26 1018 61 10000 3.6 160 07:39 28.12.2019
5512 Clouds 24 1018 64 10000 3.1 130 06:50 28.12.2019
5513 Clouds 20 1018 77 10000 2.6 110 05:31 28.12.2019
5514 Clouds 16 1018 93 10000 1 250 03:47 28.12.2019
5515 Clouds 16 1017 100 10000 1.5 0 02:49 28.12.2019
5516 Clouds 17 1017 93 10000 1.5 250 02:19 28.12.2019
5517 Clouds 17 1017 93 10000 1.5 250 01:50 28.12.2019
5518 Clouds 17 1017 93 10000 1 0 01:20 28.12.2019
5519 Clouds 17 1017 88 10000 1.5 0 00:41 28.12.2019
5520 Clouds 17 1017 93 10000 1 0 00:23 28.12.2019
5521 Clouds 17 1017 93 10000 1.5 70 23:45 27.12.2019
5522 Clouds 17 1017 93 10000 3.1 110 23:20 27.12.2019
5523 Clouds 18 1017 88 10000 3.6 130 22:58 27.12.2019
5524 Clouds 18 1017 88 10000 3.6 130 22:39 27.12.2019
5525 Clouds 18 1018 88 10000 2.6 150 22:21 27.12.2019
5526 Clouds 18 1018 93 10000 2.6 140 21:59 27.12.2019
5527 Clouds 18 1018 93 10000 2.6 140 21:40 27.12.2019
5528 Clouds 19 1018 88 10000 2.1 130 21:22 27.12.2019
5529 Clouds 19 1019 88 10000 2.6 140 20:42 27.12.2019
5530 Clouds 19 1018 88 10000 4.1 140 20:23 27.12.2019
5531 Clouds 20 1018 82 10000 3.6 130 19:55 27.12.2019
5532 Clouds 20 1018 82 10000 3.6 140 19:36 27.12.2019
5533 Clouds 20 1018 82 10000 3.6 140 19:18 27.12.2019
5534 Clouds 20 1018 82 10000 3.6 140 19:18 27.12.2019
5535 Clouds 20 1018 82 10000 3.6 140 19:18 27.12.2019
5536 Thunderstorm 21 1018 77 10000 4.1 150 18:41 27.12.2019
5537 Thunderstorm 21 1018 77 10000 5.1 120 18:23 27.12.2019
5538 Clouds 22 1018 73 10000 5.1 120 17:59 27.12.2019
5539 Clouds 22 1018 73 10000 5.1 120 17:41 27.12.2019
5540 Clouds 22 1017 73 10000 5.7 130 17:19 27.12.2019
5541 Clouds 23 1017 64 10000 5.7 140 16:59 27.12.2019
5542 Clouds 23 1017 64 10000 5.7 140 16:39 27.12.2019
5543 Clouds 24 1016 64 10000 6.7 130 16:20 27.12.2019
5544 Clouds 25 1016 61 10000 6.2 140 15:45 27.12.2019
5545 Clouds 26 1016 57 10000 7.2 120 15:23 27.12.2019
5546 Clouds 27 1016 54 10000 6.7 120 14:58 27.12.2019
5547 Clouds 27 1016 54 10000 6.7 120 14:40 27.12.2019
5548 Clouds 27 1016 51 10000 6.7 150 14:21 27.12.2019
5549 Clouds 28 1016 51 10000 5.7 110 13:57 27.12.2019
5550 Clouds 28 1016 51 10000 5.7 110 13:39 27.12.2019
5551 Clouds 27 1016 44 10000 5.7 130 13:21 27.12.2019
5552 Clouds 28 1017 48 10000 5.7 130 12:44 27.12.2019
5553 Clouds 28 1017 48 10000 5.7 170 12:24 27.12.2019
5554 Clouds 27 1017 51 10000 5.7 140 11:46 27.12.2019
5555 Clouds 27 1017 51 10000 6.2 150 11:28 27.12.2019
5556 Clouds 25 1018 61 10000 5.7 140 10:59 27.12.2019
5557 Clouds 25 1018 61 10000 5.7 140 10:41 27.12.2019
5558 Clouds 25 1018 61 10000 6.2 130 10:22 27.12.2019
5559 Clouds 25 1018 61 10000 6.2 140 09:49 27.12.2019
5560 Clouds 27 1018 51 10000 5.7 120 09:22 27.12.2019
5561 Clouds 24 1019 60 10000 5.7 140 08:59 27.12.2019
5562 Clouds 24 1019 60 10000 5.7 140 08:38 27.12.2019
5563 Clouds 24 1019 64 10000 6.7 140 07:57 27.12.2019
5564 Clouds 24 1019 64 10000 6.7 140 07:38 27.12.2019
5565 Clouds 23 1019 69 10000 5.1 160 06:39 27.12.2019
5566 Clouds 22 1019 73 10000 5.7 140 06:18 27.12.2019
5567 Clouds 18 1019 93 10000 2.6 180 04:20 27.12.2019
5568 Clouds 18 1018 88 10000 1.5 140 02:25 27.12.2019
5569 Clouds 18 1018 93 10000 2.1 170 01:42 27.12.2019
5570 Clouds 18 1018 88 10000 2.1 110 01:20 27.12.2019
5571 Clouds 17 1018 93 10000 2.1 140 00:46 27.12.2019
5572 Clouds 17 1018 93 10000 1.5 150 00:25 27.12.2019
5573 Clouds 18 1018 88 10000 1.5 0 23:42 26.12.2019
5574 Clouds 18 1018 88 10000 2.1 180 23:24 26.12.2019
5575 Clouds 18 1019 88 10000 2.6 150 22:58 26.12.2019
5576 Clouds 18 1019 88 10000 2.6 150 22:37 26.12.2019
5577 Clouds 18 1019 88 10000 3.1 150 22:18 26.12.2019
5578 Clouds 19 1019 82 10000 3.6 140 21:39 26.12.2019
5579 Clouds 19 1019 88 10000 3.1 140 21:21 26.12.2019
5580 Clouds 19 1020 88 10000 2.6 140 20:47 26.12.2019
5581 Clouds 19 1020 88 10000 3.6 140 20:24 26.12.2019
5582 Clouds 19 1020 88 10000 1.5 150 19:59 26.12.2019
5583 Clouds 19 1020 88 10000 2.6 110 19:40 26.12.2019
5584 Clouds 19 1020 88 10000 2.6 110 19:22 26.12.2019
5585 Clouds 20 1020 82 10000 5.7 110 18:59 26.12.2019
5586 Clouds 20 1020 82 10000 5.1 100 18:40 26.12.2019
5587 Clouds 20 1020 82 10000 5.1 100 18:20 26.12.2019
5588 Clouds 20 1019 82 10000 5.1 80 17:58 26.12.2019
5589 Clouds 20 1019 82 10000 5.1 80 17:40 26.12.2019
5590 Clouds 20 1019 82 10000 5.1 80 17:19 26.12.2019
5591 Clouds 22 1019 73 10000 5.7 100 16:46 26.12.2019
5592 Clouds 23 1018 64 10000 7.2 110 16:26 26.12.2019
5593 Clouds 23 1018 60 10000 6.2 120 15:56 26.12.2019
5594 Clouds 23 1018 60 10000 6.2 120 15:38 26.12.2019
5595 Clouds 23 1018 60 10000 6.2 120 15:18 26.12.2019
5596 Clouds 23 1018 60 10000 6.2 120 15:18 26.12.2019
5597 Clouds 23 1018 60 10000 6.7 110 14:41 26.12.2019
5598 Clouds 24 1017 60 10000 7.7 110 14:23 26.12.2019
5599 Clouds 25 1017 57 10000 7.7 110 13:45 26.12.2019
5600 Clouds 24 1017 60 10000 4.6 140 13:24 26.12.2019
5601 Clouds 24 1018 57 10000 7.2 120 12:59 26.12.2019
5602 Clouds 24 1018 57 10000 7.2 120 12:40 26.12.2019
5603 Clouds 24 1018 57 10000 7.2 120 12:21 26.12.2019
5604 Clouds 25 1018 50 10000 7.2 120 11:58 26.12.2019
5605 Clouds 25 1018 50 10000 7.2 120 11:58 26.12.2019
5606 Clouds 25 1018 50 10000 7.2 120 11:40 26.12.2019
5607 Clouds 26 1018 50 10000 6.7 120 11:20 26.12.2019
5608 Clouds 27 1018 47 10000 7.7 120 10:49 26.12.2019
5609 Clouds 26 1019 50 10000 7.7 140 10:24 26.12.2019
5610 Clouds 26 1019 54 10000 6.7 140 09:54 26.12.2019
5611 Clouds 25 1020 57 10000 7.2 130 09:33 26.12.2019
5612 Clouds 24 1020 57 10000 7.2 130 08:58 26.12.2019
5613 Clouds 24 1020 57 10000 7.2 130 08:38 26.12.2019
5614 Clouds 24 1020 57 10000 7.2 120 08:20 26.12.2019
5615 Clouds 24 1020 57 10000 7.2 120 08:20 26.12.2019
5616 Clouds 23 1020 60 10000 6.2 140 07:31 26.12.2019
5617 Clouds 22 1020 64 10000 5.7 140 06:57 26.12.2019
5618 Clouds 21 1020 68 10000 5.1 140 06:34 26.12.2019
5619 Clouds 21 1020 73 10000 5.7 120 05:57 26.12.2019
5620 Clouds 21 1020 73 10000 5.7 120 05:38 26.12.2019
5621 Rain 18 1020 93 10000 4.1 110 04:32 26.12.2019
5622 Clouds 18 1019 93 10000 2.6 150 03:20 26.12.2019
5623 Drizzle 18 1019 93 7000 3.1 140 02:40 26.12.2019
5624 Clouds 18 1019 88 10000 3.6 150 02:20 26.12.2019
5625 Clouds 18 1019 88 10000 4.1 160 01:42 26.12.2019
5626 Clouds 18 1019 88 10000 4.1 140 01:24 26.12.2019
5627 Clouds 18 1019 82 10000 2.1 160 00:42 26.12.2019
5628 -273 0 0 0 0 0 00:22 26.12.2019
5629 Clouds 17 1019 88 10000 2.1 170 23:42 25.12.2019
5630 Clouds 18 1021 82 10000 2.6 150 23:21 25.12.2019
5631 Clouds 18 1021 82 10000 2.6 150 22:59 25.12.2019
5632 Clouds 18 1021 82 10000 2.6 150 22:40 25.12.2019
5633 Clouds 18 1021 82 10000 3.1 140 22:22 25.12.2019
5634 Clouds 18 1021 82 10000 3.1 140 22:22 25.12.2019
5635 Clouds 19 1021 82 10000 3.6 140 21:59 25.12.2019
5636 Clouds 19 1021 82 10000 3.6 140 21:40 25.12.2019
5637 Clouds 19 1021 82 10000 3.6 140 21:22 25.12.2019
5638 Clouds 19 1021 82 10000 4.6 140 20:57 25.12.2019
5639 Clouds 19 1021 82 10000 4.6 140 20:39 25.12.2019
5640 Clouds 19 1021 82 10000 4.6 150 20:18 25.12.2019
5641 Clouds 19 1021 82 10000 4.6 150 20:18 25.12.2019
5642 Clouds 19 1021 82 10000 4.6 150 20:18 25.12.2019
5643 Clouds 20 1021 82 10000 3.6 140 19:43 25.12.2019
5644 Clouds 20 1021 82 10000 3.6 140 19:43 25.12.2019
5645 Clouds 19 1020 82 10000 3.6 160 19:25 25.12.2019
5646 Clouds 19 1020 82 10000 4.6 160 18:59 25.12.2019
5647 Clouds 19 1020 82 10000 4.6 160 18:38 25.12.2019
5648 Clouds 19 1020 82 10000 4.6 160 18:38 25.12.2019
5649 Clouds 20 1021 77 10000 4.1 170 18:19 25.12.2019
5650 Clouds 20 1020 77 10000 4.1 150 17:42 25.12.2019
5651 Clouds 20 1020 77 10000 4.1 150 17:20 25.12.2019
5652 Clouds 21 1020 73 10000 4.1 150 16:59 25.12.2019
5653 Clouds 21 1020 73 10000 4.1 150 16:38 25.12.2019
5654 Clouds 21 1019 73 10000 5.1 140 16:19 25.12.2019
5655 Clouds 22 1019 68 10000 6.2 130 15:57 25.12.2019
5656 Clouds 23 1019 69 10000 4.6 140 15:39 25.12.2019
5657 Clouds 23 1019 69 10000 4.6 140 15:20 25.12.2019
5658 Clouds 23 1019 69 10000 5.7 160 14:57 25.12.2019
5659 Clouds 23 1019 69 10000 5.7 160 14:39 25.12.2019
5660 Clouds 24 1019 64 10000 5.7 150 14:20 25.12.2019
5661 Clouds 23 1019 73 10000 5.1 140 13:45 25.12.2019
5662 Rain 22 1019 73 10000 6.7 120 13:21 25.12.2019
5663 Rain 24 1019 64 10000 6.7 120 12:58 25.12.2019
5664 Rain 24 1019 64 10000 6.7 120 12:38 25.12.2019
5665 Rain 24 1019 60 10000 7.2 120 12:20 25.12.2019
5666 Clouds 25 1019 57 10000 8.7 110 11:43 25.12.2019
5667 Clouds 27 1019 47 10000 5.7 130 11:23 25.12.2019
5668 Clouds 25 1019 50 10000 7.7 140 10:59 25.12.2019
5669 Clouds 25 1019 50 10000 7.7 140 10:37 25.12.2019
5670 Clouds 25 1019 50 10000 7.7 140 10:37 25.12.2019
5671 Clouds 25 1020 44 10000 7.7 130 10:19 25.12.2019
5672 Clouds 26 1020 47 10000 7.7 120 09:45 25.12.2019
5673 Clouds 25 1020 47 10000 7.7 140 09:27 25.12.2019
5674 Clouds 24 1020 47 10000 7.7 150 08:47 25.12.2019
5675 Clouds 22 1021 64 10000 7.2 140 08:28 25.12.2019
5676 Clouds 22 1021 64 10000 7.2 130 07:49 25.12.2019
5677 Clouds 21 1021 68 10000 5.7 140 07:31 25.12.2019
5678 Clouds 21 1021 64 10000 6.2 140 06:49 25.12.2019
5679 Clouds 20 1021 68 10000 5.7 140 06:22 25.12.2019
5680 Clouds 19 1021 68 10000 5.7 140 05:18 25.12.2019
5681 Clouds 18 1020 77 10000 4.1 150 04:38 25.12.2019
5682 Clouds 17 1020 82 10000 3.1 150 04:18 25.12.2019
5683 Clouds 16 1020 87 10000 3.6 160 03:40 25.12.2019
5684 Clouds 17 1019 88 10000 4.1 170 02:39 25.12.2019
5685 Clouds 17 1019 88 10000 5.1 140 01:59 25.12.2019
5686 Clouds 18 1019 88 10000 6.2 150 01:25 25.12.2019
5687 Clouds 17 1019 93 10000 4.6 160 00:50 25.12.2019
5688 Clouds 18 1019 88 10000 4.6 160 00:29 25.12.2019
5689 Clouds 18 1019 88 10000 3.6 160 23:55 24.12.2019
5690 Clouds 18 1019 88 10000 3.6 160 23:37 24.12.2019
5691 Clouds 18 1020 88 10000 3.1 160 23:19 24.12.2019
5692 Clouds 17 1020 93 10000 2.1 170 22:39 24.12.2019
5693 Clouds 18 1021 88 10000 2.6 150 22:20 24.12.2019
5694 Clouds 18 1021 88 10000 4.1 170 21:42 24.12.2019
5695 Clouds 18 1022 88 10000 4.6 170 21:22 24.12.2019
5696 Clouds 18 1022 88 10000 4.6 170 21:22 24.12.2019
5697 Clouds 19 1022 82 10000 4.1 180 20:45 24.12.2019
5698 Clouds 19 1022 82 10000 3.1 170 20:24 24.12.2019
5699 Clouds 18 1022 82 10000 4.1 120 19:57 24.12.2019
5700 Clouds 18 1022 82 10000 4.1 120 19:39 24.12.2019
5701 Clouds 19 1021 77 10000 4.1 130 19:19 24.12.2019
5702 Clouds 19 1021 77 10000 4.1 130 18:42 24.12.2019
5703 Clouds 19 1021 82 10000 4.1 100 18:23 24.12.2019
5704 Clouds 20 1020 82 10000 3.6 140 17:50 24.12.2019
5705 Clouds 20 1020 77 10000 4.1 150 17:24 24.12.2019
5706 Clouds 21 1019 77 10000 4.1 150 16:59 24.12.2019
5707 Clouds 21 1019 77 10000 4.1 150 16:41 24.12.2019
5708 Clouds 21 1019 77 10000 6.7 110 16:23 24.12.2019
5709 Clouds 21 1019 77 10000 6.7 110 16:23 24.12.2019
5710 Clouds 21 1019 77 10000 6.7 110 16:22 24.12.2019
5711 Clouds 22 1019 73 10000 5.1 120 15:58 24.12.2019
5712 Clouds 22 1019 68 10000 4.6 100 15:39 24.12.2019
5713 Clouds 22 1019 68 10000 4.6 100 15:20 24.12.2019
5714 Clouds 23 1019 64 10000 6.2 100 14:59 24.12.2019
5715 Clouds 23 1019 64 10000 6.2 100 14:59 24.12.2019
5716 Clouds 23 1019 64 10000 6.2 100 14:41 24.12.2019
5717 Clouds 23 1019 64 10000 6.2 100 14:22 24.12.2019
5718 Clouds 23 1019 64 10000 6.7 100 13:57 24.12.2019
5719 Clouds 23 1019 64 10000 6.7 100 13:39 24.12.2019
5720 Clouds 24 1019 64 10000 6.2 90 13:21 24.12.2019
5721 Clouds 22 1019 78 10000 6.7 100 12:58 24.12.2019
5722 Clouds 22 1019 78 10000 6.7 100 12:38 24.12.2019
5723 Clouds 23 1019 73 10000 6.7 120 12:19 24.12.2019
5724 Clouds 25 1019 65 10000 6.2 110 11:58 24.12.2019
5725 Clouds 25 1019 65 10000 6.2 110 11:38 24.12.2019
5726 Clouds 25 1019 65 10000 6.2 110 11:38 24.12.2019
5727 Clouds 25 1020 65 10000 4.1 130 11:20 24.12.2019
5728 Clouds 25 1019 61 10000 4.6 110 10:57 24.12.2019
5729 Clouds 25 1019 61 10000 4.6 110 10:38 24.12.2019
5730 Clouds 25 1020 65 10000 4.6 110 10:20 24.12.2019
5731 Clouds 24 1020 69 10000 5.7 120 09:58 24.12.2019
5732 Clouds 24 1020 69 10000 5.7 120 09:40 24.12.2019
5733 Clouds 24 1020 69 10000 5.1 130 09:21 24.12.2019
5734 Clouds 23 1021 69 10000 5.7 130 08:47 24.12.2019
5735 Clouds 24 1021 64 10000 5.1 160 08:25 24.12.2019
5736 Clouds 23 1021 64 10000 5.7 150 07:59 24.12.2019
5737 Clouds 23 1021 64 10000 5.7 150 07:39 24.12.2019
5738 Clouds 23 1021 64 10000 5.7 150 07:21 24.12.2019
5739 Clouds 23 1021 64 10000 5.7 150 07:21 24.12.2019
5740 Clouds 23 1021 60 10000 5.7 150 06:40 24.12.2019
5741 Clouds 22 1020 64 10000 4.6 140 06:19 24.12.2019
5742 Clouds 21 1021 68 10000 4.6 170 05:53 24.12.2019
5743 Clouds 19 1020 72 10000 2.1 160 05:19 24.12.2019
5744 Clouds 19 1020 72 10000 2.1 160 05:19 24.12.2019
5745 Clouds 16 1020 87 10000 1.5 160 04:21 24.12.2019
5746 Clouds 15 1019 93 10000 0.5 0 03:46 24.12.2019
5747 Clouds 15 1019 93 10000 2.1 190 02:29 24.12.2019
5748 Clouds 16 1019 87 10000 2.1 130 01:54 24.12.2019
5749 Clouds 16 1019 87 10000 2.1 160 01:26 24.12.2019
5750 Clouds 16 1019 87 10000 3.1 140 00:58 24.12.2019
5751 Clouds 16 1019 87 10000 3.1 140 00:39 24.12.2019
5752 Clouds 17 1019 82 10000 3.1 140 00:19 24.12.2019
5753 Clouds 17 1020 82 10000 3.6 130 23:42 23.12.2019
5754 Clouds 17 1020 82 10000 2.6 140 23:24 23.12.2019
5755 Clouds 17 1020 82 10000 3.6 150 22:57 23.12.2019
5756 Clouds 17 1020 82 10000 3.6 150 22:38 23.12.2019
5757 Clouds 18 1021 82 10000 5.1 130 22:20 23.12.2019
5758 Clouds 18 1021 82 10000 5.1 140 21:56 23.12.2019
5759 Clouds 18 1021 82 10000 5.1 140 21:37 23.12.2019
5760 Clouds 18 1021 88 10000 4.1 150 21:19 23.12.2019
5761 Clouds 18 1021 88 10000 4.1 150 21:19 23.12.2019
5762 Clouds 19 1021 82 10000 3.6 150 20:58 23.12.2019
5763 Clouds 19 1021 82 10000 3.6 150 20:40 23.12.2019
5764 Clouds 19 1021 82 10000 3.6 140 20:19 23.12.2019
5765 Clouds 19 1021 82 10000 3.6 140 20:19 23.12.2019
5766 Clouds 19 1021 82 10000 3.6 140 20:19 23.12.2019
5767 Clouds 19 1021 82 10000 4.1 130 19:57 23.12.2019
5768 Clouds 19 1021 82 10000 4.1 130 19:38 23.12.2019
5769 Clouds 19 1021 82 10000 4.6 120 19:20 23.12.2019
5770 Clouds 20 1021 77 10000 5.1 120 18:58 23.12.2019
5771 Clouds 20 1021 77 10000 5.1 120 18:39 23.12.2019
5772 Clouds 20 1021 77 10000 5.1 120 18:20 23.12.2019
5773 Clouds 21 1020 73 10000 6.2 110 17:58 23.12.2019
5774 Clouds 21 1020 73 10000 6.2 110 17:39 23.12.2019
5775 Clouds 22 1020 64 10000 5.1 120 17:19 23.12.2019
5776 Clouds 22 1020 64 10000 6.7 110 16:55 23.12.2019
5777 Clouds 23 1019 56 10000 6.7 110 16:37 23.12.2019
5778 Clouds 23 1019 56 10000 6.7 110 16:18 23.12.2019
5779 Clouds 23 1019 56 10000 6.7 110 16:18 23.12.2019
5780 Clouds 25 1019 47 10000 4.6 130 15:55 23.12.2019
5781 Clouds 25 1019 47 10000 5.7 120 15:36 23.12.2019
5782 Clouds 25 1019 47 10000 5.7 120 15:18 23.12.2019
5783 Clouds 26 1019 44 10000 6.2 120 14:45 23.12.2019
5784 Clouds 26 1019 44 10000 6.2 120 14:26 23.12.2019
5785 Clouds 26 1019 44 10000 6.2 120 14:26 23.12.2019
5786 Clouds 27 1019 42 10000 5.7 120 13:59 23.12.2019
5787 Clouds 27 1019 42 10000 5.1 140 13:41 23.12.2019
5788 Clouds 27 1019 42 10000 5.1 140 13:22 23.12.2019
5789 Clouds 27 1019 42 10000 5.7 130 12:58 23.12.2019
5790 Clouds 27 1019 42 10000 5.7 130 12:58 23.12.2019
5791 Clouds 27 1019 42 10000 5.7 130 12:39 23.12.2019
5792 Clouds 26 1019 44 10000 6.2 120 12:21 23.12.2019
5793 Clouds 26 1020 41 10000 4.6 150 11:55 23.12.2019
5794 Clouds 26 1020 44 10000 5.7 150 11:37 23.12.2019
5795 Clouds 26 1020 44 10000 5.7 150 11:18 23.12.2019
5796 Clouds 26 1020 44 10000 5.7 140 10:54 23.12.2019
5797 Clouds 26 1021 47 10000 5.7 130 10:36 23.12.2019
5798 Clouds 26 1021 47 10000 5.7 130 10:18 23.12.2019
5799 Clouds 26 1021 47 10000 5.7 130 10:18 23.12.2019
5800 Clouds 25 1021 53 10000 6.7 120 09:40 23.12.2019
5801 Clouds 24 1021 57 10000 5.7 150 09:22 23.12.2019
5802 Clouds 24 1021 60 10000 6.7 170 08:58 23.12.2019
5803 Clouds 24 1021 60 10000 6.7 170 08:40 23.12.2019
5804 Clouds 24 1021 60 10000 5.7 130 08:22 23.12.2019
5805 Clouds 22 1021 64 10000 6.2 150 07:48 23.12.2019
5806 Clouds 23 1021 60 10000 6.2 120 07:21 23.12.2019
5807 Clouds 21 1021 68 10000 4.6 140 06:57 23.12.2019
5808 Clouds 20 1021 72 10000 6.2 150 06:26 23.12.2019
5809 Clouds 19 1021 77 10000 4.6 140 05:56 23.12.2019
5810 Clouds 18 1021 82 10000 3.1 150 05:29 23.12.2019
5811 Clouds 17 1021 88 10000 3.1 130 04:31 23.12.2019
5812 Clouds 17 1020 88 10000 2.1 150 03:24 23.12.2019
5813 Clouds 16 1020 93 10000 1.5 130 02:41 23.12.2019
5814 Clouds 16 1020 87 10000 3.6 120 02:19 23.12.2019
5815 Clouds 17 1020 88 10000 2.6 140 01:42 23.12.2019
5816 Clouds 16 1020 87 10000 2.6 120 01:23 23.12.2019
5817 Clouds 17 1021 82 10000 2.6 140 00:43 23.12.2019
5818 Clouds 17 1021 82 10000 2.6 140 00:22 23.12.2019
5819 Clouds 17 1021 88 10000 3.6 140 23:39 22.12.2019
5820 Clouds 17 1022 88 10000 3.6 160 23:21 22.12.2019
5821 Clouds 18 1022 82 10000 4.1 160 22:58 22.12.2019
5822 Clouds 18 1022 82 10000 4.1 160 22:58 22.12.2019
5823 Clouds 18 1022 82 10000 4.1 160 22:40 22.12.2019
5824 Clouds 18 1022 82 10000 3.6 160 22:19 22.12.2019
5825 Clouds 18 1022 82 10000 4.1 140 21:57 22.12.2019
5826 Clouds 18 1022 82 10000 4.1 140 21:39 22.12.2019
5827 Clouds 19 1022 82 10000 3.1 140 21:21 22.12.2019
5828 Clouds 19 1022 88 10000 2.6 150 20:57 22.12.2019
5829 Clouds 19 1022 88 10000 2.6 150 20:38 22.12.2019
5830 Clouds 19 1022 88 10000 3.6 150 20:18 22.12.2019
5831 Clouds 19 1022 88 10000 2.6 160 19:55 22.12.2019
5832 Clouds 19 1022 88 10000 2.6 160 19:55 22.12.2019
5833 Clouds 19 1022 88 10000 2.6 160 19:37 22.12.2019
5834 Clouds 19 1022 82 10000 3.6 130 19:18 22.12.2019
5835 Clouds 19 1022 82 10000 4.1 130 18:40 22.12.2019
5836 Clouds 19 1022 88 10000 6.2 110 18:22 22.12.2019
5837 Clouds 20 1022 82 10000 4.6 140 17:55 22.12.2019
5838 Clouds 20 1022 82 10000 4.6 140 17:37 22.12.2019
5839 Clouds 20 1022 77 10000 5.7 120 17:18 22.12.2019
5840 Clouds 21 1021 73 10000 6.2 130 16:56 22.12.2019
5841 Clouds 21 1021 73 10000 6.2 130 16:37 22.12.2019
5842 Clouds 22 1021 73 10000 4.6 130 16:19 22.12.2019
5843 Clouds 24 1021 64 10000 5.7 120 15:55 22.12.2019
5844 Clouds 23 1021 69 10000 5.7 100 15:36 22.12.2019
5845 Clouds 23 1021 69 10000 5.7 100 15:18 22.12.2019
5846 Clouds 24 1020 60 10000 5.7 120 14:39 22.12.2019
5847 Clouds 26 1020 57 10000 4.6 130 14:20 22.12.2019
5848 Clouds 24 1020 64 10000 5.1 120 13:57 22.12.2019
5849 Clouds 24 1020 64 10000 5.1 120 13:57 22.12.2019
5850 Clouds 24 1020 64 10000 5.1 120 13:38 22.12.2019
5851 Clouds 25 1020 61 10000 6.7 120 13:20 22.12.2019
5852 Rain 25 1021 57 10000 5.1 130 12:57 22.12.2019
5853 Rain 25 1021 57 10000 5.1 130 12:39 22.12.2019
5854 Clouds 26 1021 54 10000 4.6 150 12:20 22.12.2019
5855 Clouds 25 1021 57 10000 4.1 120 11:59 22.12.2019
5856 Clouds 25 1021 57 10000 4.1 120 11:39 22.12.2019
5857 Clouds 26 1021 54 10000 4.6 120 11:20 22.12.2019
5858 Clouds 26 1022 54 10000 4.6 140 10:58 22.12.2019
5859 Clouds 26 1022 54 10000 4.6 140 10:40 22.12.2019
5860 Clouds 26 1022 54 10000 4.6 140 10:40 22.12.2019
5861 Clouds 26 1022 50 10000 5.1 140 10:20 22.12.2019
5862 Clouds 25 1022 53 10000 4.1 130 09:58 22.12.2019
5863 Clouds 25 1022 53 10000 4.1 130 09:40 22.12.2019
5864 Clouds 25 1023 53 10000 5.1 140 09:21 22.12.2019
5865 Clouds 24 1023 57 10000 5.1 120 08:45 22.12.2019
5866 Clouds 24 1023 57 10000 5.1 140 08:23 22.12.2019
5867 Clouds 23 1023 64 10000 4.6 150 07:50 22.12.2019
5868 Clouds 22 1023 68 10000 5.1 130 07:22 22.12.2019
5869 Clouds 21 1023 73 10000 5.1 140 06:57 22.12.2019
5870 Clouds 21 1023 68 10000 4.6 130 06:27 22.12.2019
5871 Clouds 20 1023 77 10000 4.1 150 05:43 22.12.2019
5872 Clouds 19 1023 82 10000 2.6 150 05:21 22.12.2019
5873 Clouds 18 1022 88 10000 2.6 160 04:27 22.12.2019
5874 Clouds 18 1021 88 10000 3.1 180 03:24 22.12.2019
5875 Clouds 17 1021 93 10000 2.6 190 02:34 22.12.2019
5876 Clouds 17 1021 93 10000 1.5 0 01:33 22.12.2019
5877 Clouds 18 1020 88 10000 2.1 170 00:58 22.12.2019
5878 Clouds 18 1020 88 10000 2.1 170 00:39 22.12.2019
5879 Clouds 18 1021 88 10000 3.1 170 00:20 22.12.2019
5880 Clouds 18 1021 88 10000 2.6 160 23:42 21.12.2019
5881 Clouds 18 1021 88 10000 2.1 140 23:24 21.12.2019
5882 Clouds 18 1021 88 10000 3.1 150 22:57 21.12.2019
5883 Clouds 18 1021 88 10000 3.1 150 22:39 21.12.2019
5884 Clouds 18 1022 88 10000 3.6 110 22:18 21.12.2019
5885 Clouds 19 1022 82 10000 3.6 140 21:56 21.12.2019
5886 Clouds 19 1022 82 10000 3.6 140 21:36 21.12.2019
5887 Clouds 19 1022 82 10000 3.6 140 21:18 21.12.2019
5888 Clouds 19 1022 82 10000 2.6 150 20:57 21.12.2019
5889 Clouds 19 1022 82 10000 2.6 150 20:37 21.12.2019
5890 Clouds 19 1022 82 10000 2.6 140 20:19 21.12.2019
5891 Clouds 19 1022 77 10000 3.1 140 19:55 21.12.2019
5892 Clouds 19 1022 77 10000 4.1 150 19:36 21.12.2019
5893 Clouds 19 1022 77 10000 4.1 150 19:18 21.12.2019
5894 Clouds 20 1022 77 10000 5.1 120 18:41 21.12.2019
5895 Clouds 20 1022 77 10000 3.6 130 18:23 21.12.2019
5896 Clouds 20 1022 77 10000 4.6 140 17:56 21.12.2019
5897 Clouds 20 1022 77 10000 4.6 140 17:38 21.12.2019
5898 Clouds 21 1021 77 10000 5.1 130 17:20 21.12.2019
5899 Clouds 21 1021 77 10000 5.7 110 16:57 21.12.2019
5900 Clouds 22 1020 73 10000 4.6 120 16:38 21.12.2019
5901 Clouds 22 1020 73 10000 4.6 120 16:18 21.12.2019
5902 Rain 22 1020 68 10000 6.7 130 15:55 21.12.2019
5903 Clouds 22 1020 73 10000 3.6 150 15:37 21.12.2019
5904 Clouds 22 1020 73 10000 3.6 150 15:18 21.12.2019
5905 Clouds 22 1020 73 10000 3.6 150 15:18 21.12.2019
5906 Clouds 23 1019 69 10000 5.7 140 14:41 21.12.2019
5907 Clouds 23 1019 73 10000 4.1 140 14:23 21.12.2019
5908 Rain 25 1019 61 10000 6.2 150 13:58 21.12.2019
5909 Rain 25 1019 61 10000 6.2 150 13:58 21.12.2019
5910 Rain 25 1019 61 10000 6.2 150 13:39 21.12.2019
5911 Rain 23 1019 73 10000 7.2 110 13:19 21.12.2019
5912 Rain 23 1019 73 10000 7.2 110 13:19 21.12.2019
5913 Clouds 27 1019 51 10000 4.6 150 12:56 21.12.2019
5914 Clouds 27 1019 51 10000 4.6 150 12:38 21.12.2019
5915 Clouds 25 1019 57 10000 4.6 150 12:20 21.12.2019
5916 Clouds 26 1019 54 10000 6.2 130 11:46 21.12.2019
5917 Clouds 26 1019 54 10000 5.1 110 11:27 21.12.2019
5918 Clouds 26 1019 54 10000 4.6 160 10:59 21.12.2019
5919 Clouds 26 1019 54 10000 4.6 160 10:40 21.12.2019
5920 Clouds 24 1020 60 10000 6.2 120 10:21 21.12.2019
5921 Clouds 24 1020 64 10000 6.7 140 09:57 21.12.2019
5922 Clouds 24 1020 64 10000 6.7 140 09:39 21.12.2019
5923 Clouds 23 1020 69 10000 4.6 140 09:19 21.12.2019
5924 Clouds 24 1020 60 10000 5.7 130 08:47 21.12.2019
5925 Clouds 23 1020 69 10000 4.1 170 08:27 21.12.2019
5926 Clouds 23 1021 69 10000 4.6 140 07:47 21.12.2019
5927 Clouds 22 1021 64 10000 5.1 150 07:23 21.12.2019
5928 Clouds 21 1021 73 10000 3.1 170 06:49 21.12.2019
5929 Clouds 20 1021 77 10000 3.6 120 06:31 21.12.2019
5930 Clouds 18 1021 82 10000 2.1 130 05:59 21.12.2019
5931 Clouds 18 1020 82 10000 2.1 170 04:59 21.12.2019
5932 Clouds 17 1020 88 10000 2.1 140 04:33 21.12.2019
5933 Clouds 16 1019 93 10000 2.1 130 03:56 21.12.2019
5934 Clouds 16 1019 93 10000 3.1 130 02:23 21.12.2019
5935 Clouds 16 1019 93 10000 2.1 140 01:42 21.12.2019
5936 Clouds 17 1019 88 10000 3.1 120 01:23 21.12.2019
5937 Clouds 17 1019 88 10000 3.6 130 00:39 21.12.2019
5938 Clouds 17 1019 88 10000 2.6 130 00:20 21.12.2019
5939 Clouds 18 1019 82 10000 3.6 140 23:38 20.12.2019
5940 Clouds 18 1020 82 10000 3.1 140 23:20 20.12.2019
5941 Clouds 18 1020 88 10000 3.6 150 22:57 20.12.2019
5942 Clouds 18 1020 88 10000 3.6 150 22:36 20.12.2019
5943 Clouds 18 1020 88 10000 3.6 150 22:18 20.12.2019
5944 Clouds 19 1021 82 10000 3.1 140 21:41 20.12.2019
5945 Clouds 19 1021 82 10000 3.6 130 21:21 20.12.2019
5946 Clouds 19 1021 82 10000 3.6 140 20:57 20.12.2019
5947 Clouds 19 1021 82 10000 3.6 140 20:38 20.12.2019
5948 Clouds 19 1021 82 10000 4.6 120 20:18 20.12.2019
5949 Clouds 20 1021 82 10000 5.7 120 19:42 20.12.2019
5950 Clouds 20 1021 82 10000 4.6 120 19:21 20.12.2019
5951 Clouds 20 1020 82 10000 5.1 120 18:58 20.12.2019
5952 Clouds 20 1020 82 10000 5.1 120 18:39 20.12.2019
5953 Clouds 21 1020 77 10000 5.7 110 18:21 20.12.2019
5954 Clouds 21 1020 73 10000 5.1 110 17:56 20.12.2019
5955 Clouds 21 1020 73 10000 5.1 110 17:37 20.12.2019
5956 Clouds 22 1019 68 10000 6.7 120 17:18 20.12.2019
5957 Clouds 23 1019 60 10000 6.2 120 16:41 20.12.2019
5958 Clouds 23 1019 60 10000 6.2 120 16:41 20.12.2019
5959 Clouds 24 1019 57 10000 7.2 110 16:21 20.12.2019
5960 Clouds 26 1018 47 10000 7.2 110 15:57 20.12.2019
5961 Clouds 26 1018 47 10000 7.2 110 15:39 20.12.2019
5962 Clouds 26 1018 50 10000 5.7 130 15:20 20.12.2019
5963 Clouds 28 1018 42 10000 4.6 150 14:59 20.12.2019
5964 Clouds 28 1018 42 10000 4.6 150 14:59 20.12.2019
5965 Clouds 28 1018 42 10000 4.6 150 14:40 20.12.2019
5966 Clouds 27 1018 39 10000 5.1 150 14:22 20.12.2019
5967 Clouds 28 1017 39 10000 5.7 120 13:56 20.12.2019
5968 Clouds 28 1017 39 10000 5.7 120 13:56 20.12.2019
5969 Clouds 28 1017 39 10000 5.7 120 13:36 20.12.2019
5970 Clouds 28 1018 42 10000 7.7 110 13:18 20.12.2019
5971 Clouds 28 1018 39 10000 5.1 160 12:42 20.12.2019
5972 Clouds 28 1018 42 10000 4.1 140 12:20 20.12.2019
5973 Clouds 28 1019 42 10000 5.1 140 11:59 20.12.2019
5974 Clouds 28 1019 42 10000 5.1 140 11:40 20.12.2019
5975 Clouds 27 1019 44 10000 5.1 150 11:21 20.12.2019
5976 Clouds 27 1019 42 10000 5.7 160 10:59 20.12.2019
5977 Clouds 27 1019 42 10000 5.7 160 10:41 20.12.2019
5978 Clouds 27 1019 44 10000 4.6 140 10:21 20.12.2019
5979 Clouds 26 1020 44 10000 5.7 140 09:56 20.12.2019
5980 Clouds 26 1020 44 10000 5.7 140 09:38 20.12.2019
5981 Clouds 26 1020 44 10000 5.7 140 09:19 20.12.2019
5982 Clouds 25 1020 50 10000 4.6 140 08:43 20.12.2019
5983 Clouds 25 1020 50 10000 5.7 120 08:25 20.12.2019
5984 Clouds 24 1021 53 10000 6.7 180 07:59 20.12.2019
5985 Clouds 24 1021 53 10000 6.7 180 07:41 20.12.2019
5986 Clouds 22 1021 60 10000 5.7 160 07:19 20.12.2019
5987 Clouds 22 1021 60 10000 6.2 150 06:52 20.12.2019
5988 Clouds 21 1021 64 10000 4.6 150 06:32 20.12.2019
5989 Clouds 21 1021 64 10000 4.1 140 05:53 20.12.2019
5990 Clouds 21 1021 64 10000 4.1 140 05:35 20.12.2019
5991 Clouds 18 1020 77 10000 3.6 140 04:33 20.12.2019
5992 Clouds 18 1019 77 10000 4.6 150 03:30 20.12.2019
5993 Clouds 18 1019 77 10000 4.6 150 03:30 20.12.2019
5994 Clouds 18 1019 88 10000 2.6 130 02:43 20.12.2019
5995 Clouds 18 1019 88 10000 3.1 100 01:49 20.12.2019
5996 Clouds 18 1019 88 10000 3.1 100 01:49 20.12.2019
5997 Clouds 18 1018 88 10000 4.1 110 01:30 20.12.2019
5998 Clouds 18 1019 88 10000 4.1 120 00:43 20.12.2019
5999 Clouds 19 1019 82 10000 4.1 100 00:23 20.12.2019
6000 Clouds 19 1019 82 10000 3.6 120 23:44 19.12.2019
6001 Clouds 19 1019 88 10000 4.6 110 23:25 19.12.2019
6002 Clouds 19 1019 88 10000 4.6 100 22:59 19.12.2019
6003 Clouds 19 1019 88 10000 4.6 100 22:59 19.12.2019
6004 Clouds 19 1019 88 10000 4.6 100 22:36 19.12.2019
6005 Clouds 20 1019 82 10000 3.6 120 22:18 19.12.2019
6006 Clouds 20 1020 82 10000 3.6 120 21:55 19.12.2019
6007 Clouds 20 1020 82 10000 3.6 120 21:37 19.12.2019
6008 Clouds 20 1020 82 10000 3.6 120 21:18 19.12.2019
6009 Clouds 20 1020 82 10000 3.1 110 20:55 19.12.2019
6010 Clouds 20 1020 82 10000 3.1 110 20:36 19.12.2019
6011 Thunderstorm 20 1020 82 10000 3.6 110 20:18 19.12.2019
6012 Thunderstorm 20 1020 82 10000 4.1 110 19:54 19.12.2019
6013 Thunderstorm 20 1020 82 10000 4.1 110 19:54 19.12.2019
6014 Thunderstorm 20 1020 82 10000 4.1 110 19:36 19.12.2019
6015 Thunderstorm 21 1019 83 10000 4.6 130 19:18 19.12.2019
6016 Thunderstorm 21 1020 77 10000 4.1 130 18:41 19.12.2019
6017 Thunderstorm 22 1019 73 10000 5.1 120 18:21 19.12.2019
6018 Thunderstorm 22 1019 73 10000 5.7 100 17:57 19.12.2019
6019 Thunderstorm 22 1019 73 10000 5.7 100 17:38 19.12.2019
6020 Thunderstorm 22 1019 73 10000 5.7 100 17:38 19.12.2019
6021 Thunderstorm 23 1018 69 10000 5.1 110 17:19 19.12.2019
6022 Clouds 23 1018 69 10000 4.6 120 16:57 19.12.2019
6023 Clouds 23 1018 69 10000 4.6 120 16:38 19.12.2019
6024 Clouds 24 1018 60 10000 5.1 100 16:20 19.12.2019
6025 Clouds 24 1018 60 10000 5.1 100 16:20 19.12.2019
6026 Clouds 27 1017 54 10000 5.7 120 15:58 19.12.2019
6027 Clouds 27 1017 54 10000 5.7 120 15:39 19.12.2019
6028 Clouds 27 1017 54 10000 5.7 120 15:19 19.12.2019
6029 Clouds 27 1017 57 10000 5.7 110 14:57 19.12.2019
6030 Clouds 27 1017 57 10000 5.7 110 14:39 19.12.2019
6031 Clouds 28 1017 48 10000 4.1 120 14:18 19.12.2019
6032 Clouds 28 1017 48 10000 2.6 120 13:39 19.12.2019
6033 Clouds 28 1017 48 10000 4.1 90 13:20 19.12.2019
6034 Clouds 28 1017 51 10000 4.1 90 12:59 19.12.2019
6035 Clouds 28 1017 51 10000 4.1 90 12:40 19.12.2019
6036 Clouds 28 1018 48 10000 2.6 0 12:19 19.12.2019
6037 Clouds 28 1018 48 10000 2.6 0 12:19 19.12.2019
6038 Clouds 28 1018 48 10000 2.6 0 12:19 19.12.2019
6039 Clouds 28 1018 48 10000 2.6 0 12:19 19.12.2019
6040 Clouds 28 1018 51 10000 4.1 110 11:59 19.12.2019
6041 Clouds 28 1018 51 10000 4.1 110 11:41 19.12.2019
6042 Clouds 27 1019 54 10000 5.1 110 11:20 19.12.2019
6043 Clouds 27 1019 54 10000 5.1 110 11:20 19.12.2019
6044 Clouds 27 1019 54 10000 5.1 110 11:20 19.12.2019
6045 Clouds 27 1019 54 10000 5.1 120 10:59 19.12.2019
6046 Clouds 27 1019 54 10000 5.1 120 10:38 19.12.2019
6047 Clouds 27 1019 54 10000 5.1 110 10:20 19.12.2019
6048 Clouds 27 1019 54 10000 5.1 110 10:20 19.12.2019
6049 Clouds 27 1019 51 10000 4.6 110 09:56 19.12.2019
6050 Clouds 27 1020 51 10000 5.1 120 09:37 19.12.2019
6051 Clouds 27 1020 51 10000 5.1 120 09:19 19.12.2019
6052 Clouds 26 1020 61 10000 3.6 140 08:55 19.12.2019
6053 Clouds 26 1020 61 10000 3.6 140 08:37 19.12.2019
6054 Clouds 25 1020 65 10000 3.6 160 08:18 19.12.2019
6055 Clouds 25 1020 57 10000 3.6 130 07:42 19.12.2019
6056 Clouds 25 1020 57 10000 3.6 130 07:42 19.12.2019
6057 Clouds 24 1020 60 10000 2.6 150 07:23 19.12.2019
6058 Clouds 23 1021 60 10000 2.6 140 06:58 19.12.2019
6059 Clouds 23 1021 60 10000 2.6 140 06:39 19.12.2019
6060 Clouds 22 1021 64 10000 3.1 130 06:21 19.12.2019
6061 Clouds 21 1020 68 10000 2.6 140 05:42 19.12.2019
6062 Clouds 19 1020 77 10000 2.6 130 05:19 19.12.2019
6063 Clouds 16 1019 93 10000 1.5 0 03:51 19.12.2019
6064 Clouds 16 1019 93 10000 0.5 0 02:28 19.12.2019
6065 Clouds 16 1019 93 10000 2.1 120 01:24 19.12.2019
6066 Clouds 17 1019 88 10000 2.6 130 00:57 19.12.2019
6067 Clouds 17 1019 88 10000 2.6 130 00:38 19.12.2019
6068 Clouds 17 1019 93 10000 2.1 170 00:19 19.12.2019
6069 Clouds 17 1019 93 10000 2.1 170 00:19 19.12.2019
6070 Clouds 17 1019 93 10000 2.1 150 23:44 18.12.2019
6071 Clouds 17 1019 93 10000 3.6 110 23:19 18.12.2019
6072 Clouds 18 1019 88 10000 3.6 110 22:56 18.12.2019
6073 Clouds 18 1019 88 10000 3.6 110 22:38 18.12.2019
6074 Clouds 18 1020 88 10000 3.6 110 22:20 18.12.2019
6075 Clouds 19 1020 82 10000 4.1 90 21:58 18.12.2019
6076 Clouds 19 1020 82 10000 4.1 90 21:58 18.12.2019
6077 Clouds 19 1020 82 10000 4.1 90 21:39 18.12.2019
6078 Clouds 19 1021 88 10000 4.1 100 21:20 18.12.2019
6079 Clouds 20 1021 82 10000 3.1 110 20:56 18.12.2019
6080 Clouds 20 1021 82 10000 3.1 110 20:38 18.12.2019
6081 Clouds 20 1021 82 10000 3.1 130 20:19 18.12.2019
6082 Thunderstorm 20 1021 82 10000 2.6 140 19:56 18.12.2019
6083 Thunderstorm 20 1021 82 10000 2.6 140 19:37 18.12.2019
6084 Thunderstorm 20 1020 77 10000 3.1 150 19:18 18.12.2019
6085 Thunderstorm 20 1020 77 10000 3.1 150 19:18 18.12.2019
6086 Thunderstorm 21 1020 73 10000 2.6 130 18:45 18.12.2019
6087 Thunderstorm 21 1020 73 10000 4.1 110 18:25 18.12.2019
6088 Thunderstorm 21 1019 73 10000 3.6 130 17:57 18.12.2019
6089 Thunderstorm 21 1019 73 10000 3.6 130 17:39 18.12.2019
6090 Thunderstorm 21 1019 73 10000 3.6 130 17:39 18.12.2019
6091 Thunderstorm 22 1019 73 10000 3.1 150 17:20 18.12.2019
6092 Thunderstorm 22 1018 73 10000 4.6 130 16:58 18.12.2019
6093 Clouds 23 1018 69 10000 6.2 110 16:39 18.12.2019
6094 Clouds 23 1018 69 10000 6.2 110 16:20 18.12.2019
6095 Clouds 23 1017 69 10000 6.2 110 15:56 18.12.2019
6096 Clouds 25 1017 65 10000 5.1 110 15:37 18.12.2019
6097 Clouds 25 1017 65 10000 5.1 110 15:19 18.12.2019
6098 Clouds 26 1017 61 10000 4.6 110 14:42 18.12.2019
6099 Clouds 26 1017 57 10000 4.6 120 14:22 18.12.2019
6100 Clouds 26 1016 57 10000 4.1 130 13:57 18.12.2019
6101 Clouds 28 1016 54 10000 3.6 110 13:39 18.12.2019
6102 Clouds 28 1016 54 10000 3.6 110 13:39 18.12.2019
6103 Clouds 28 1016 54 10000 3.6 110 13:20 18.12.2019
6104 Clouds 27 1017 57 10000 4.6 100 12:59 18.12.2019
6105 Clouds 27 1017 57 10000 3.6 120 12:38 18.12.2019
6106 Clouds 27 1017 57 10000 3.6 120 12:38 18.12.2019
6107 Clouds 27 1017 57 10000 3.6 120 12:20 18.12.2019
6108 Clouds 27 1017 54 10000 3.6 140 11:56 18.12.2019
6109 Clouds 27 1018 57 10000 4.6 170 11:38 18.12.2019
6110 Clouds 27 1018 57 10000 4.6 170 11:19 18.12.2019
6111 Clouds 25 1019 69 10000 1 120 10:55 18.12.2019
6112 Clouds 25 1019 69 10000 1 120 10:37 18.12.2019
6113 Clouds 25 1019 69 10000 1 120 10:19 18.12.2019
6114 Clouds 24 1019 69 10000 1 120 09:50 18.12.2019
6115 Clouds 24 1019 69 10000 1 120 09:50 18.12.2019
6116 Clouds 24 1019 69 10000 2.1 120 09:18 18.12.2019
6117 Clouds 24 1020 69 10000 4.1 150 08:41 18.12.2019
6118 Clouds 24 1020 69 10000 4.1 150 08:22 18.12.2019
6119 Clouds 23 1020 73 10000 4.6 130 07:45 18.12.2019
6120 Clouds 21 1020 77 10000 4.6 140 07:24 18.12.2019
6121 Clouds 20 1020 82 10000 4.1 150 06:57 18.12.2019
6122 Clouds 21 1019 77 10000 5.7 140 06:28 18.12.2019
6123 Clouds 19 1019 82 10000 5.7 160 05:57 18.12.2019
6124 Clouds 19 1019 88 10000 3.6 150 04:59 18.12.2019
6125 Clouds 19 1018 93 10000 3.1 140 02:55 18.12.2019
6126 Rain 19 1018 93 8000 3.6 100 02:37 18.12.2019
6127 Rain 19 1018 93 8000 3.6 100 02:18 18.12.2019
6128 Rain 19 1018 93 10000 4.1 110 01:41 18.12.2019
6129 Clouds 19 1018 93 10000 2.1 160 01:22 18.12.2019
6130 Clouds 19 1018 93 10000 2.1 160 01:22 18.12.2019
6131 Clouds 19 1018 93 10000 2.1 140 00:41 18.12.2019
6132 Clouds 19 1018 93 10000 2.1 140 00:23 18.12.2019
6133 Clouds 19 1018 93 10000 2.1 140 00:23 18.12.2019
6134 Clouds 20 1018 88 10000 1.5 0 23:56 17.12.2019
6135 Clouds 20 1018 88 10000 1.5 0 23:38 17.12.2019
6136 Clouds 20 1018 88 10000 1.5 0 23:18 17.12.2019
6137 Rain 20 1018 88 8000 3.1 80 22:55 17.12.2019
6138 Rain 20 1018 88 10000 4.1 100 22:37 17.12.2019
6139 Rain 20 1018 88 10000 4.1 100 22:18 17.12.2019
6140 Clouds 20 1019 88 10000 3.6 90 21:55 17.12.2019
6141 Clouds 20 1019 88 10000 2.6 80 21:37 17.12.2019
6142 Clouds 20 1019 88 10000 2.6 80 21:18 17.12.2019
6143 Clouds 20 1019 88 10000 3.6 80 20:55 17.12.2019
6144 Thunderstorm 20 1019 88 10000 3.6 110 20:37 17.12.2019
6145 Thunderstorm 20 1019 88 10000 3.6 110 20:18 17.12.2019
6146 Thunderstorm 20 1019 88 10000 3.6 120 19:41 17.12.2019
6147 Thunderstorm 21 1018 83 10000 4.1 100 19:20 17.12.2019
6148 Thunderstorm 21 1018 83 10000 4.1 120 18:58 17.12.2019
6149 Thunderstorm 21 1018 83 10000 4.1 120 18:40 17.12.2019
6150 Thunderstorm 21 1018 83 10000 3.6 90 18:21 17.12.2019
6151 Thunderstorm 21 1018 83 10000 4.1 90 17:58 17.12.2019
6152 Thunderstorm 21 1018 83 10000 5.1 80 17:39 17.12.2019
6153 Thunderstorm 21 1018 83 10000 5.1 80 17:19 17.12.2019
6154 Clouds 21 1017 83 10000 5.1 100 16:56 17.12.2019
6155 Thunderstorm 22 1017 78 10000 5.1 120 16:37 17.12.2019
6156 Thunderstorm 22 1017 78 10000 5.1 120 16:18 17.12.2019
6157 Clouds 22 1016 78 10000 6.2 120 15:55 17.12.2019
6158 Clouds 23 1015 69 10000 4.6 140 15:36 17.12.2019
6159 Clouds 23 1015 69 10000 4.6 140 15:18 17.12.2019
6160 Clouds 23 1015 78 10000 6.2 110 14:54 17.12.2019
6161 Rain 22 1015 83 10000 9.3 110 14:36 17.12.2019
6162 Rain 22 1015 83 10000 9.3 110 14:36 17.12.2019
6163 Rain 22 1015 83 10000 9.3 110 14:18 17.12.2019
6164 Rain 25 1014 69 10000 9.3 110 13:54 17.12.2019
6165 Clouds 28 1014 54 10000 4.6 120 13:36 17.12.2019
6166 Clouds 28 1014 54 10000 4.6 120 13:18 17.12.2019
6167 Clouds 29 1014 48 10000 4.6 120 12:40 17.12.2019
6168 Clouds 29 1015 54 10000 4.6 90 12:19 17.12.2019
6169 Clouds 28 1015 54 10000 4.6 90 11:59 17.12.2019
6170 Clouds 28 1015 54 10000 4.1 120 11:37 17.12.2019
6171 Clouds 28 1015 54 10000 4.1 120 11:19 17.12.2019
6172 Clouds 28 1016 54 10000 4.1 110 10:58 17.12.2019
6173 Clouds 28 1016 54 10000 4.1 110 10:40 17.12.2019
6174 Clouds 28 1016 54 10000 4.6 120 10:21 17.12.2019
6175 Clouds 27 1016 61 10000 4.1 130 09:58 17.12.2019
6176 Clouds 27 1016 61 10000 4.1 130 09:40 17.12.2019
6177 Clouds 26 1016 61 10000 4.6 100 09:19 17.12.2019
6178 Clouds 25 1017 65 10000 5.1 110 08:55 17.12.2019
6179 Clouds 25 1017 65 10000 3.1 130 08:36 17.12.2019
6180 Clouds 25 1017 65 10000 3.1 130 08:18 17.12.2019
6181 Clouds 24 1017 64 10000 3.1 120 07:42 17.12.2019
6182 Clouds 22 1017 78 10000 3.6 140 07:23 17.12.2019
6183 Clouds 22 1017 78 10000 4.1 140 06:53 17.12.2019
6184 Clouds 22 1017 78 10000 5.1 170 06:32 17.12.2019
6185 Clouds 22 1017 78 10000 4.6 150 05:52 17.12.2019
6186 Clouds 22 1016 78 10000 4.6 180 05:32 17.12.2019
6187 Clouds 20 1016 88 10000 2.1 160 04:19 17.12.2019
6188 Clouds 19 1015 93 10000 2.6 180 02:27 17.12.2019
6189 Clouds 19 1015 93 10000 2.1 190 01:34 17.12.2019
6190 Clouds 19 1015 93 10000 2.1 200 00:49 17.12.2019
6191 Clouds 19 1015 93 10000 1.5 30 00:22 17.12.2019
6192 Clouds 19 1015 100 10000 0.5 0 23:59 16.12.2019
6193 Clouds 19 1015 100 10000 0.5 0 23:40 16.12.2019
6194 Clouds 19 1015 93 10000 1.5 0 23:18 16.12.2019
6195 Clouds 19 1016 93 10000 1.5 180 22:55 16.12.2019
6196 Clouds 18 1016 100 10000 0.5 0 22:36 16.12.2019
6197 Clouds 18 1016 100 10000 0.5 0 22:18 16.12.2019
6198 Clouds 19 1016 93 10000 2.6 70 21:54 16.12.2019
6199 Clouds 19 1016 93 10000 2.1 80 21:36 16.12.2019
6200 Clouds 19 1016 93 10000 2.1 80 21:36 16.12.2019
6201 Clouds 19 1016 93 10000 2.1 80 21:18 16.12.2019
6202 Clouds 19 1016 93 10000 2.6 50 20:55 16.12.2019
6203 Clouds 19 1017 93 10000 2.1 90 20:37 16.12.2019
6204 Clouds 19 1017 93 10000 2.1 90 20:18 16.12.2019
6205 Clouds 19 1017 93 10000 2.1 90 20:18 16.12.2019
6206 Clouds 19 1017 93 10000 1 0 19:54 16.12.2019
6207 Thunderstorm 19 1016 93 10000 1.5 20 19:36 16.12.2019
6208 Thunderstorm 19 1016 93 10000 1.5 20 19:18 16.12.2019
6209 Thunderstorm 19 1016 93 10000 1.5 20 19:18 16.12.2019
6210 Thunderstorm 18 1016 100 8000 1.5 300 18:42 16.12.2019
6211 Thunderstorm 19 1016 93 8000 2.6 320 18:20 16.12.2019
6212 Thunderstorm 19 1016 93 10000 1.5 0 17:59 16.12.2019
6213 Thunderstorm 18 1016 93 10000 3.1 280 17:41 16.12.2019
6214 Thunderstorm 18 1016 93 10000 3.1 280 17:22 16.12.2019
6215 Thunderstorm 18 1015 93 10000 5.1 110 16:58 16.12.2019
6216 Thunderstorm 18 1015 93 10000 5.1 110 16:39 16.12.2019
6217 Thunderstorm 18 1015 93 10000 5.1 110 16:39 16.12.2019
6218 Thunderstorm 18 1015 93 10000 4.6 90 16:20 16.12.2019
6219 Thunderstorm 20 1015 77 7000 4.6 140 15:59 16.12.2019
6220 Thunderstorm 24 1015 64 10000 8.2 110 15:39 16.12.2019
6221 Thunderstorm 24 1015 64 10000 8.2 110 15:21 16.12.2019
6222 Thunderstorm 26 1014 57 10000 6.7 330 14:58 16.12.2019
6223 Thunderstorm 27 1013 57 10000 6.7 320 14:38 16.12.2019
6224 Thunderstorm 27 1013 57 10000 6.7 320 14:20 16.12.2019
6225 Thunderstorm 26 1013 57 10000 6.2 320 13:58 16.12.2019
6226 Thunderstorm 26 1013 57 10000 6.2 320 13:38 16.12.2019
6227 Thunderstorm 26 1013 61 10000 8.2 320 13:20 16.12.2019
6228 Thunderstorm 27 1013 57 10000 6.2 330 12:58 16.12.2019
6229 Thunderstorm 27 1013 57 10000 6.2 330 12:39 16.12.2019
6230 Thunderstorm 27 1013 57 10000 5.1 340 12:19 16.12.2019
6231 Thunderstorm 28 1014 58 10000 4.6 300 11:59 16.12.2019
6232 Thunderstorm 28 1014 58 10000 4.6 300 11:40 16.12.2019
6233 Thunderstorm 27 1014 54 10000 3.6 270 11:20 16.12.2019
6234 Clouds 27 1015 57 10000 4.6 290 10:58 16.12.2019
6235 Clouds 27 1015 57 10000 4.6 290 10:39 16.12.2019
6236 Clouds 27 1015 57 10000 4.6 290 10:39 16.12.2019
6237 Clouds 27 1015 57 10000 4.6 290 10:19 16.12.2019
6238 Clouds 26 1015 61 10000 4.1 250 09:45 16.12.2019
6239 Clouds 26 1016 61 10000 4.1 240 09:27 16.12.2019
6240 Clouds 25 1016 65 10000 3.6 260 08:55 16.12.2019
6241 Clouds 24 1016 73 10000 3.1 250 08:37 16.12.2019
6242 Clouds 24 1016 73 10000 3.1 250 08:18 16.12.2019
6243 Clouds 24 1017 73 10000 3.1 220 07:42 16.12.2019
6244 Clouds 23 1017 78 10000 3.6 220 07:21 16.12.2019
6245 Clouds 21 1017 88 10000 2.1 270 06:45 16.12.2019
6246 Clouds 21 1016 88 10000 3.6 290 06:22 16.12.2019
6247 Clouds 21 1016 88 10000 4.6 300 05:49 16.12.2019
6248 Clouds 20 1016 94 10000 3.1 290 05:30 16.12.2019
6249 Clouds 18 1015 100 10000 0.1 137 04:21 16.12.2019
6250 Clouds 18 1015 100 10000 1 0 01:59 16.12.2019
6251 Clouds 18 1015 100 10000 1 0 01:40 16.12.2019
6252 Clouds 18 1015 100 10000 1 0 01:40 16.12.2019
6253 Clouds 19 1015 93 10000 2.1 320 00:42 16.12.2019
6254 Clouds 19 1015 93 10000 1.5 0 00:23 16.12.2019
6255 Clouds 19 1015 93 10000 1.5 360 23:58 15.12.2019
6256 Clouds 19 1016 93 10000 1 0 23:38 15.12.2019
6257 Clouds 19 1016 93 10000 1 0 23:19 15.12.2019
6258 Clouds 19 1016 93 10000 0.06 341 22:55 15.12.2019
6259 Clouds 19 1016 93 10000 0.5 0 22:37 15.12.2019
6260 Clouds 19 1016 93 10000 0.5 0 22:18 15.12.2019
6261 Clouds 19 1017 93 10000 1 0 21:55 15.12.2019
6262 Clouds 19 1017 93 10000 0.06 341 21:37 15.12.2019
6263 Clouds 19 1017 93 10000 0.06 341 21:18 15.12.2019
6264 Clouds 19 1016 93 10000 3.6 300 20:54 15.12.2019
6265 Clouds 19 1016 93 10000 1.5 0 20:36 15.12.2019
6266 Clouds 19 1016 93 10000 1.5 0 20:36 15.12.2019
6267 Clouds 19 1016 93 10000 1.5 0 20:18 15.12.2019
6268 Clouds 19 1017 93 10000 2.1 350 19:54 15.12.2019
6269 Clouds 19 1017 93 10000 2.1 70 19:36 15.12.2019
6270 Clouds 19 1017 93 10000 2.1 70 19:18 15.12.2019
6271 Rain 19 1018 93 10000 1.5 80 18:54 15.12.2019
6272 Rain 19 1017 93 10000 1.5 0 18:36 15.12.2019
6273 Rain 19 1017 93 10000 1.5 0 18:18 15.12.2019
6274 Thunderstorm 19 1017 93 10000 3.1 330 17:55 15.12.2019
6275 Thunderstorm 20 1017 88 10000 5.1 290 17:36 15.12.2019
6276 Thunderstorm 20 1017 88 10000 5.1 290 17:18 15.12.2019
6277 Thunderstorm 20 1016 88 10000 7.2 290 16:42 15.12.2019
6278 Thunderstorm 21 1016 83 10000 9.3 290 16:22 15.12.2019
6279 Thunderstorm 24 1015 69 10000 3.6 310 15:57 15.12.2019
6280 Clouds 24 1014 69 10000 4.1 330 15:39 15.12.2019
6281 Clouds 24 1014 69 10000 4.1 330 15:19 15.12.2019
6282 Clouds 23 1014 78 10000 4.6 300 14:56 15.12.2019
6283 Clouds 23 1014 78 10000 4.6 300 14:37 15.12.2019
6284 Clouds 22 1014 83 10000 5.7 310 14:19 15.12.2019
6285 Rain 22 1014 83 8000 8.7 300 13:58 15.12.2019
6286 Rain 22 1014 83 8000 8.7 300 13:38 15.12.2019
6287 Clouds 29 1014 54 10000 5.7 270 13:19 15.12.2019
6288 Clouds 28 1015 54 10000 5.1 320 12:57 15.12.2019
6289 Clouds 28 1015 54 10000 5.1 320 12:39 15.12.2019
6290 Clouds 28 1015 54 10000 7.2 310 12:20 15.12.2019
6291 Clouds 28 1015 54 10000 7.2 310 12:20 15.12.2019
6292 Rain 28 1016 58 10000 7.7 320 11:56 15.12.2019
6293 Clouds 28 1016 58 10000 3.6 280 11:37 15.12.2019
6294 Clouds 28 1016 58 10000 3.6 280 11:18 15.12.2019
6295 Clouds 28 1016 54 10000 5.1 300 10:55 15.12.2019
6296 Clouds 27 1017 61 10000 4.6 280 10:37 15.12.2019
6297 Clouds 27 1017 61 10000 4.6 280 10:18 15.12.2019
6298 Clouds 26 1017 65 10000 3.1 260 09:41 15.12.2019
6299 Clouds 26 1018 65 10000 4.1 310 09:20 15.12.2019
6300 Clouds 26 1018 65 10000 4.6 320 08:58 15.12.2019
6301 Clouds 25 1018 69 10000 4.1 300 08:39 15.12.2019
6302 Clouds 25 1018 69 10000 4.1 300 08:21 15.12.2019
6303 Clouds 24 1018 73 10000 3.6 290 07:56 15.12.2019
6304 Clouds 24 1019 73 10000 3.6 320 07:34 15.12.2019
6305 Clouds 23 1019 78 10000 2.6 310 06:52 15.12.2019
6306 Clouds 21 1019 88 10000 3.1 310 06:20 15.12.2019
6307 Clouds 20 1018 94 10000 1.5 290 05:26 15.12.2019
6308 Clouds 20 1018 94 10000 3.1 290 04:47 15.12.2019
6309 Clouds 19 1018 100 10000 2.6 320 03:31 15.12.2019
6310 Clouds 19 1017 100 10000 1.5 0 02:34 15.12.2019
6311 Rain 19 1017 93 8000 3.26 344 01:47 15.12.2019
6312 Thunderstorm 19 1017 100 8000 3.26 344 01:28 15.12.2019
6313 Thunderstorm 19 1018 100 8000 2.9 344 00:58 15.12.2019
6314 Thunderstorm 19 1018 100 8000 2.9 344 00:40 15.12.2019
6315 Thunderstorm 19 1018 100 8000 1 0 00:21 15.12.2019
6316 Thunderstorm 19 1018 100 8000 2.1 330 23:40 14.12.2019
6317 Thunderstorm 19 1019 100 8000 3.6 310 23:21 14.12.2019
6318 Thunderstorm 19 1019 93 4000 3.1 320 22:58 14.12.2019
6319 Thunderstorm 19 1019 93 4000 3.6 320 22:40 14.12.2019
6320 Thunderstorm 19 1019 93 4000 3.6 320 22:21 14.12.2019
6321 Thunderstorm 19 1020 100 4000 3.6 330 21:56 14.12.2019
6322 Thunderstorm 19 1020 100 4000 3.6 330 21:56 14.12.2019
6323 Thunderstorm 19 1020 100 4000 3.6 330 21:37 14.12.2019
6324 Thunderstorm 20 1020 94 10000 2.1 60 21:18 14.12.2019
6325 Thunderstorm 20 1020 94 10000 1.5 0 20:56 14.12.2019
6326 Thunderstorm 20 1020 94 10000 2.1 80 20:37 14.12.2019
6327 Thunderstorm 20 1020 94 10000 2.1 80 20:19 14.12.2019
6328 Thunderstorm 20 1020 94 10000 2.1 80 20:19 14.12.2019
6329 Thunderstorm 20 1019 88 10000 2.1 80 19:54 14.12.2019
6330 Thunderstorm 19 1019 93 10000 1.5 320 19:36 14.12.2019
6331 Thunderstorm 19 1019 93 10000 1.5 320 19:18 14.12.2019
6332 Thunderstorm 19 1019 100 8000 3.6 330 18:55 14.12.2019
6333 Thunderstorm 20 1019 94 2500 8.2 310 18:36 14.12.2019
6334 Thunderstorm 20 1019 94 2500 8.2 310 18:18 14.12.2019
6335 Thunderstorm 22 1018 83 10000 3.1 80 17:42 14.12.2019
6336 Thunderstorm 22 1018 83 10000 2.1 80 17:22 14.12.2019
6337 Thunderstorm 22 1017 83 10000 2.1 40 16:42 14.12.2019
6338 Thunderstorm 23 1017 73 10000 3.6 50 16:20 14.12.2019
6339 Thunderstorm 23 1016 78 10000 3.6 50 15:58 14.12.2019
6340 Thunderstorm 22 1016 83 10000 4.6 60 15:39 14.12.2019
6341 Thunderstorm 22 1016 83 10000 4.6 60 15:20 14.12.2019
6342 Thunderstorm 22 1016 83 10000 4.1 50 14:57 14.12.2019
6343 Thunderstorm 22 1016 88 10000 3.6 40 14:38 14.12.2019
6344 Thunderstorm 22 1016 88 10000 3.6 40 14:19 14.12.2019
6345 Thunderstorm 21 1016 88 10000 3.1 90 13:45 14.12.2019
6346 Thunderstorm 21 1017 88 9000 3.6 300 13:20 14.12.2019
6347 Thunderstorm 24 1017 69 10000 6.2 340 12:58 14.12.2019
6348 Thunderstorm 24 1017 69 10000 6.2 340 12:40 14.12.2019
6349 Thunderstorm 24 1017 69 10000 6.2 340 12:40 14.12.2019
6350 Thunderstorm 28 1017 54 10000 2.6 60 12:20 14.12.2019
6351 Rain 25 1017 65 10000 3.6 210 11:58 14.12.2019
6352 Rain 25 1017 65 10000 3.6 210 11:58 14.12.2019
6353 Rain 25 1017 65 10000 3.6 210 11:39 14.12.2019
6354 Rain 24 1018 64 10000 1.5 0 11:19 14.12.2019
6355 Rain 24 1018 64 10000 1.5 0 11:19 14.12.2019
6356 Rain 24 1018 73 10000 9.3 350 10:57 14.12.2019
6357 Rain 24 1018 73 10000 9.3 350 10:39 14.12.2019
6358 Clouds 29 1018 45 10000 2.6 0 10:20 14.12.2019
6359 Clouds 29 1018 45 10000 3.1 150 09:55 14.12.2019
6360 Clouds 28 1019 48 10000 2.1 0 09:36 14.12.2019
6361 Clouds 28 1019 48 10000 2.1 0 09:18 14.12.2019
6362 Clouds 28 1019 48 10000 2.6 190 08:41 14.12.2019
6363 Clouds 27 1019 54 10000 3.1 190 08:19 14.12.2019
6364 Clouds 27 1019 57 10000 3.1 190 07:41 14.12.2019
6365 Clouds 27 1019 57 10000 2.1 190 07:22 14.12.2019
6366 Clouds 25 1019 69 10000 2.6 190 06:55 14.12.2019
6367 Clouds 22 1019 78 10000 1.5 220 06:36 14.12.2019
6368 Clouds 21 1019 83 10000 2.6 230 05:52 14.12.2019
6369 Clouds 18 1018 100 10000 2.1 280 04:29 14.12.2019
6370 Clouds 18 1018 93 10000 2.1 280 02:24 14.12.2019
6371 Clouds 18 1018 93 10000 1 0 01:44 14.12.2019
6372 Clouds 19 1018 93 10000 1.5 20 01:22 14.12.2019
6373 Clouds 19 1019 93 10000 1.5 50 00:43 14.12.2019
6374 Clouds 19 1019 93 10000 0.82 289 00:24 14.12.2019
6375 Clouds 19 1019 93 10000 0.82 289 23:42 13.12.2019
6376 Clouds 19 1020 93 10000 1.5 20 23:20 13.12.2019
6377 Clouds 19 1020 93 10000 1.5 20 22:59 13.12.2019
6378 Clouds 19 1020 93 10000 1.5 20 22:40 13.12.2019
6379 Clouds 19 1020 93 10000 1.5 20 22:18 13.12.2019
6380 Clouds 20 1020 82 10000 2.1 50 21:46 13.12.2019
6381 Clouds 20 1020 82 10000 2.6 100 21:22 13.12.2019
6382 Clouds 20 1020 82 10000 2.1 150 20:59 13.12.2019
6383 Clouds 20 1020 82 10000 2.1 150 20:40 13.12.2019
6384 Clouds 20 1020 82 10000 2.1 150 20:40 13.12.2019
6385 Clouds 20 1020 88 10000 1.5 150 20:21 13.12.2019
6386 Clouds 20 1020 82 10000 2.1 160 19:57 13.12.2019
6387 Clouds 20 1020 82 10000 2.1 160 19:39 13.12.2019
6388 Clouds 20 1020 82 10000 2.1 110 19:20 13.12.2019
6389 Clouds 20 1020 88 10000 2.6 70 18:55 13.12.2019
6390 Clouds 20 1020 88 10000 1 0 18:36 13.12.2019
6391 Clouds 20 1020 88 10000 1 0 18:18 13.12.2019
6392 Clouds 21 1019 88 10000 2.6 110 17:40 13.12.2019
6393 Clouds 21 1019 83 10000 2.1 160 17:19 13.12.2019
6394 Clouds 21 1019 83 10000 2.1 160 17:19 13.12.2019
6395 Clouds 21 1019 88 10000 1 0 16:58 13.12.2019
6396 Clouds 21 1019 88 10000 1 0 16:39 13.12.2019
6397 Clouds 21 1018 88 10000 3.1 220 16:20 13.12.2019
6398 Thunderstorm 21 1018 83 10000 4.6 260 15:43 13.12.2019
6399 Thunderstorm 22 1017 78 10000 6.7 280 15:22 13.12.2019
6400 Clouds 23 1016 78 10000 7.7 290 14:57 13.12.2019
6401 Clouds 23 1016 78 10000 7.7 290 14:39 13.12.2019
6402 Clouds 24 1016 69 10000 6.7 300 14:19 13.12.2019
6403 Clouds 25 1016 61 10000 4.1 20 13:44 13.12.2019
6404 Thunderstorm 25 1016 65 10000 5.1 30 13:26 13.12.2019
6405 Thunderstorm 24 1016 73 10000 4.1 60 12:59 13.12.2019
6406 Thunderstorm 24 1016 73 10000 4.1 60 12:40 13.12.2019
6407 Thunderstorm 23 1016 83 10000 3.1 60 12:19 13.12.2019
6408 Thunderstorm 23 1016 83 10000 3.1 60 12:19 13.12.2019
6409 Thunderstorm 22 1017 83 10000 2.6 110 11:45 13.12.2019
6410 Thunderstorm 23 1017 73 10000 5.1 30 11:26 13.12.2019
6411 Thunderstorm 26 1017 61 10000 7.2 20 10:57 13.12.2019
6412 Thunderstorm 26 1017 61 10000 7.2 20 10:39 13.12.2019
6413 Thunderstorm 29 1017 48 10000 3.1 240 10:21 13.12.2019
6414 Rain 29 1017 54 10000 2.1 0 09:42 13.12.2019
6415 Clouds 28 1018 54 10000 2.6 310 09:21 13.12.2019
6416 Clouds 27 1019 61 10000 3.1 210 08:55 13.12.2019
6417 Clouds 27 1019 61 10000 3.1 210 08:55 13.12.2019
6418 Clouds 27 1019 61 10000 3.1 210 08:36 13.12.2019
6419 Clouds 26 1019 65 10000 1.5 0 08:18 13.12.2019
6420 Clouds 26 1019 61 10000 3.1 210 07:42 13.12.2019
6421 Clouds 25 1019 69 10000 1.5 0 07:19 13.12.2019
6422 Clouds 24 1019 69 10000 1.5 0 06:39 13.12.2019
6423 Clouds 23 1019 78 10000 2.1 0 06:20 13.12.2019
6424 Clouds 22 1018 83 10000 1.5 0 05:37 13.12.2019
6425 Clouds 21 1018 88 10000 1.5 0 05:19 13.12.2019
6426 Clouds 18 1017 100 10000 1.47 115 03:55 13.12.2019
6427 Clouds 18 1017 100 10000 1 320 02:35 13.12.2019
6428 Clouds 19 1017 93 10000 0.44 273 01:54 13.12.2019
6429 Clouds 19 1017 93 10000 2.17 296 01:27 13.12.2019
6430 Clouds 19 1017 93 10000 2.1 310 00:47 13.12.2019
6431 Clouds 19 1018 93 10000 1 0 00:26 13.12.2019
6432 Clouds 19 1018 100 10000 0.5 0 23:42 12.12.2019
6433 Clouds 19 1018 93 10000 1 0 23:24 12.12.2019
6434 Clouds 20 1018 88 10000 2.1 130 22:56 12.12.2019
6435 Clouds 20 1018 88 10000 2.1 130 22:38 12.12.2019
6436 Clouds 20 1018 88 10000 2.1 130 22:38 12.12.2019
6437 Clouds 20 1018 94 10000 2.6 120 22:19 12.12.2019
6438 Clouds 20 1019 88 10000 3.1 120 21:55 12.12.2019
6439 Clouds 20 1019 88 10000 3.1 120 21:37 12.12.2019
6440 Clouds 20 1019 94 10000 2.1 110 21:19 12.12.2019
6441 Clouds 20 1019 88 10000 1.5 120 20:58 12.12.2019
6442 Clouds 20 1019 88 10000 1.5 120 20:39 12.12.2019
6443 Clouds 20 1019 94 10000 1.5 0 20:21 12.12.2019
6444 Clouds 20 1019 88 10000 1 0 19:55 12.12.2019
6445 Clouds 20 1019 94 10000 1.5 180 19:37 12.12.2019
6446 Clouds 20 1019 94 10000 1.5 180 19:18 12.12.2019
6447 Thunderstorm 20 1018 94 7000 2.6 170 18:55 12.12.2019
6448 Thunderstorm 20 1018 94 7000 2.6 170 18:37 12.12.2019
6449 Thunderstorm 20 1018 94 7000 2.6 130 18:18 12.12.2019
6450 Thunderstorm 20 1018 94 6000 3.6 110 17:55 12.12.2019
6451 Thunderstorm 20 1018 94 6000 3.6 110 17:37 12.12.2019
6452 Thunderstorm 21 1018 88 10000 6.7 110 17:19 12.12.2019
6453 Thunderstorm 24 1017 69 8000 3.6 280 16:54 12.12.2019
6454 Thunderstorm 24 1017 69 8000 3.6 280 16:36 12.12.2019
6455 Thunderstorm 23 1016 78 8000 2.1 240 16:18 12.12.2019
6456 Thunderstorm 22 1015 78 7000 6.7 220 15:42 12.12.2019
6457 Thunderstorm 23 1015 69 8000 5.7 250 15:19 12.12.2019
6458 Thunderstorm 25 1015 57 6000 5.7 250 14:57 12.12.2019
6459 Thunderstorm 25 1015 57 6000 5.7 250 14:36 12.12.2019
6460 Clouds 28 1014 51 10000 5.1 240 14:18 12.12.2019
6461 Clouds 30 1014 42 10000 7.7 290 13:54 12.12.2019
6462 Clouds 30 1014 42 10000 7.7 290 13:36 12.12.2019
6463 Clouds 30 1015 42 10000 6.7 310 13:18 12.12.2019
6464 Clouds 30 1015 42 10000 6.7 310 13:18 12.12.2019
6465 Clouds 30 1015 42 10000 6.7 300 12:42 12.12.2019
6466 Clouds 30 1015 42 10000 6.7 300 12:22 12.12.2019
6467 Clouds 30 1016 42 10000 5.1 280 11:59 12.12.2019
6468 Clouds 30 1016 42 10000 5.1 280 11:40 12.12.2019
6469 Clouds 30 1016 42 10000 4.1 300 11:21 12.12.2019
6470 Clouds 29 1017 45 10000 5.7 300 10:58 12.12.2019
6471 Clouds 29 1017 45 10000 5.7 300 10:40 12.12.2019
6472 Clouds 29 1017 45 10000 5.7 310 10:22 12.12.2019
6473 Clouds 29 1017 48 10000 3.1 300 09:56 12.12.2019
6474 Clouds 29 1017 48 10000 3.1 300 09:38 12.12.2019
6475 Clouds 28 1017 51 10000 3.6 300 09:19 12.12.2019
6476 Clouds 28 1018 54 10000 3.1 280 08:47 12.12.2019
6477 Clouds 27 1018 57 10000 2.6 270 08:28 12.12.2019
6478 Clouds 26 1018 61 10000 3.6 260 07:54 12.12.2019
6479 Clouds 26 1018 61 10000 3.6 260 07:36 12.12.2019
6480 Clouds 25 1018 69 10000 4.6 270 07:18 12.12.2019
6481 Clouds 24 1018 73 10000 4.6 250 06:41 12.12.2019
6482 Clouds 24 1019 78 10000 4.1 280 06:21 12.12.2019
6483 Clouds 22 1019 83 10000 4.6 290 05:26 12.12.2019
6484 Clouds 20 1018 94 10000 2.6 300 04:31 12.12.2019
6485 Clouds 19 1017 93 10000 2.1 320 02:41 12.12.2019
6486 Clouds 19 1017 93 10000 1.5 300 02:23 12.12.2019
6487 Clouds 19 1017 93 10000 1.5 310 01:54 12.12.2019
6488 Clouds 19 1017 93 10000 1.5 310 01:35 12.12.2019
6489 Clouds 19 1017 100 10000 1 0 00:48 12.12.2019
6490 Clouds 19 1017 100 10000 1.32 302 00:21 12.12.2019
6491 Clouds 19 1017 100 10000 0.5 0 23:54 11.12.2019
6492 Clouds 19 1017 100 10000 0.5 0 23:36 11.12.2019
6493 Clouds 19 1018 100 10000 1 0 23:18 11.12.2019
6494 Clouds 20 1018 94 10000 1 0 22:55 11.12.2019
6495 Clouds 20 1018 94 10000 1 0 22:36 11.12.2019
6496 Clouds 20 1018 94 10000 1 0 22:36 11.12.2019
6497 Clouds 20 1018 94 10000 0.5 0 22:18 11.12.2019
6498 Clouds 20 1019 88 10000 1 0 21:39 11.12.2019
6499 Clouds 20 1019 88 10000 1.5 0 21:20 11.12.2019
6500 Clouds 20 1018 94 10000 3.6 340 20:58 11.12.2019
6501 Clouds 20 1018 94 10000 3.6 340 20:39 11.12.2019
6502 Clouds 20 1018 94 10000 3.1 20 20:19 11.12.2019
6503 Rain 21 1019 88 10000 2.6 90 19:59 11.12.2019
6504 Rain 21 1019 88 10000 2.6 90 19:40 11.12.2019
6505 Thunderstorm 21 1019 88 10000 2.6 230 19:21 11.12.2019
6506 Thunderstorm 21 1018 88 10000 2.6 60 18:57 11.12.2019
6507 Thunderstorm 21 1018 88 10000 2.6 60 18:38 11.12.2019
6508 Thunderstorm 20 1018 94 10000 4.1 90 18:18 11.12.2019
6509 Thunderstorm 21 1018 88 10000 3.1 70 17:55 11.12.2019
6510 Thunderstorm 21 1018 88 10000 3.1 70 17:36 11.12.2019
6511 Thunderstorm 21 1018 88 10000 4.1 80 17:18 11.12.2019
6512 Thunderstorm 22 1017 83 10000 3.1 60 16:55 11.12.2019
6513 Thunderstorm 22 1017 83 10000 3.1 60 16:55 11.12.2019
6514 Thunderstorm 22 1017 83 10000 3.1 60 16:36 11.12.2019
6515 Thunderstorm 23 1017 78 10000 1.5 0 16:18 11.12.2019
6516 Thunderstorm 23 1016 73 10000 4.1 80 15:41 11.12.2019
6517 Thunderstorm 23 1016 73 10000 4.1 80 15:41 11.12.2019
6518 Clouds 24 1016 73 10000 2.6 80 15:23 11.12.2019
6519 Clouds 24 1016 73 10000 2.6 80 15:23 11.12.2019
6520 Clouds 24 1016 73 10000 3.6 80 14:57 11.12.2019
6521 Clouds 24 1016 73 10000 3.6 80 14:57 11.12.2019
6522 Clouds 24 1016 73 10000 3.6 80 14:39 11.12.2019
6523 Rain 25 1016 69 10000 5.1 90 14:20 11.12.2019
6524 Clouds 28 1015 51 10000 3.1 210 13:58 11.12.2019
6525 Clouds 28 1015 51 10000 3.1 210 13:39 11.12.2019
6526 Clouds 29 1015 51 10000 2.1 0 13:20 11.12.2019
6527 Clouds 28 1015 58 10000 4.6 100 12:57 11.12.2019
6528 Clouds 28 1015 58 10000 4.6 100 12:38 11.12.2019
6529 Rain 29 1016 48 10000 3.1 320 12:19 11.12.2019
6530 Clouds 29 1016 48 10000 1.5 0 11:57 11.12.2019
6531 Clouds 29 1016 48 10000 1.5 0 11:38 11.12.2019
6532 Clouds 29 1016 48 10000 1.5 0 11:38 11.12.2019
6533 Clouds 28 1017 54 10000 3.1 0 11:18 11.12.2019
6534 Clouds 28 1017 54 10000 3.1 0 11:18 11.12.2019
6535 Clouds 28 1017 54 10000 2.1 290 10:45 11.12.2019
6536 Clouds 29 1017 51 10000 2.1 0 10:27 11.12.2019
6537 Clouds 27 1018 57 10000 1.5 0 09:59 11.12.2019
6538 Clouds 27 1018 57 10000 1.5 0 09:40 11.12.2019
6539 Clouds 27 1018 61 10000 1 0 09:21 11.12.2019
6540 Clouds 28 1019 58 10000 1 0 08:57 11.12.2019
6541 Clouds 28 1019 58 10000 1 0 08:38 11.12.2019
6542 Clouds 26 1019 61 10000 1.5 0 08:19 11.12.2019
6543 Clouds 25 1019 69 10000 1 0 07:47 11.12.2019
6544 Clouds 24 1019 73 10000 1 0 07:29 11.12.2019
6545 Clouds 25 1019 65 10000 1.5 0 06:59 11.12.2019
6546 Clouds 25 1019 65 10000 1.5 0 06:40 11.12.2019
6547 Clouds 24 1019 73 10000 1.5 0 06:21 11.12.2019
6548 Clouds 22 1019 83 10000 1.5 0 05:41 11.12.2019
6549 Clouds 21 1019 88 10000 1.5 0 05:18 11.12.2019
6550 Clouds 20 1018 94 10000 1 0 03:50 11.12.2019
6551 Clouds 20 1017 94 10000 1 0 02:49 11.12.2019
6552 Clouds 20 1017 94 10000 1 0 01:23 11.12.2019
6553 Clouds 20 1017 94 10000 1.5 50 00:46 11.12.2019
6554 Clouds 20 1017 94 10000 0.5 0 00:21 11.12.2019
6555 Clouds 21 1018 88 10000 1.5 0 23:47 10.12.2019
6556 Clouds 21 1018 88 10000 2.1 50 23:28 10.12.2019
6557 Clouds 21 1018 88 10000 2.1 50 22:57 10.12.2019
6558 Clouds 21 1018 88 10000 2.1 50 22:39 10.12.2019
6559 Clouds 22 1018 83 10000 2.1 350 22:21 10.12.2019
6560 Clouds 22 1018 83 10000 1.5 350 21:55 10.12.2019
6561 Clouds 22 1018 83 10000 1.5 350 21:55 10.12.2019
6562 Clouds 22 1018 83 10000 1.5 350 21:37 10.12.2019
6563 Clouds 21 1018 88 10000 1 20 21:19 10.12.2019
6564 Clouds 22 1018 83 10000 1.5 20 20:57 10.12.2019
6565 Clouds 22 1018 83 10000 1.5 20 20:37 10.12.2019
6566 Clouds 22 1018 83 10000 1.5 20 20:37 10.12.2019
6567 Clouds 22 1019 83 10000 1.5 360 20:19 10.12.2019
6568 Clouds 22 1019 83 10000 1.5 360 20:19 10.12.2019
6569 Clouds 22 1019 83 10000 2.1 70 19:54 10.12.2019
6570 Clouds 22 1019 83 10000 2.1 70 19:36 10.12.2019
6571 Thunderstorm 22 1018 83 10000 1.5 0 19:18 10.12.2019
6572 Thunderstorm 22 1018 88 10000 1.5 60 18:40 10.12.2019
6573 Thunderstorm 23 1017 78 10000 2.1 20 18:20 10.12.2019
6574 Thunderstorm 23 1017 78 10000 2.1 10 17:57 10.12.2019
6575 Thunderstorm 23 1017 78 10000 2.1 10 17:39 10.12.2019
6576 Thunderstorm 23 1017 78 10000 3.6 360 17:20 10.12.2019
6577 Thunderstorm 24 1017 73 10000 3.6 350 16:43 10.12.2019
6578 Clouds 25 1016 69 10000 2.6 20 16:21 10.12.2019
6579 Clouds 25 1016 69 10000 2.6 20 16:21 10.12.2019
6580 Clouds 25 1016 69 10000 3.1 20 15:59 10.12.2019
6581 Clouds 25 1016 69 10000 3.1 20 15:37 10.12.2019
6582 Clouds 27 1016 61 10000 4.1 30 15:18 10.12.2019
6583 Clouds 27 1015 61 10000 1.5 0 14:55 10.12.2019
6584 Clouds 27 1015 61 10000 1.5 0 14:37 10.12.2019
6585 Clouds 25 1016 69 10000 2.6 270 14:19 10.12.2019
6586 Rain 26 1016 61 10000 1.5 0 13:56 10.12.2019
6587 Rain 26 1016 61 10000 1.5 0 13:56 10.12.2019
6588 Rain 26 1016 61 10000 1.5 0 13:38 10.12.2019
6589 Rain 27 1016 57 10000 2.6 50 13:18 10.12.2019
6590 Clouds 27 1017 54 10000 2.1 0 12:40 10.12.2019
6591 Clouds 26 1017 61 10000 2.6 350 12:22 10.12.2019
6592 Clouds 29 1017 54 10000 1.5 0 11:44 10.12.2019
6593 Clouds 27 1017 57 10000 3.1 340 11:25 10.12.2019
6594 Clouds 27 1018 61 10000 3.1 320 10:57 10.12.2019
6595 Clouds 27 1018 61 10000 3.1 320 10:38 10.12.2019
6596 Clouds 27 1018 61 10000 3.1 320 10:38 10.12.2019
6597 Clouds 25 1018 65 10000 4.1 340 10:20 10.12.2019
6598 Clouds 25 1018 65 10000 4.1 340 09:56 10.12.2019
6599 Clouds 25 1018 65 10000 4.1 340 09:56 10.12.2019
6600 Clouds 25 1018 65 10000 4.1 340 09:38 10.12.2019
6601 Clouds 26 1018 61 10000 2.1 0 09:19 10.12.2019
6602 Clouds 26 1019 61 10000 2.1 100 08:54 10.12.2019
6603 Clouds 25 1019 65 10000 3.1 80 08:36 10.12.2019
6604 Clouds 25 1019 65 10000 3.1 80 08:36 10.12.2019
6605 Clouds 25 1019 65 10000 3.1 80 08:18 10.12.2019
6606 Clouds 25 1019 65 10000 3.1 80 08:18 10.12.2019
6607 Clouds 24 1019 64 10000 2.6 70 07:43 10.12.2019
6608 Clouds 23 1019 73 10000 1.5 0 07:24 10.12.2019
6609 Clouds 22 1019 73 10000 2.6 310 06:46 10.12.2019
6610 Clouds 22 1019 73 10000 3.1 310 06:19 10.12.2019
6611 Clouds 20 1019 82 10000 3.1 310 05:54 10.12.2019
6612 Clouds 20 1018 88 10000 0.43 328 04:55 10.12.2019
6613 Clouds 19 1017 93 10000 1 0 03:38 10.12.2019
6614 Clouds 20 1017 88 10000 1.5 360 02:46 10.12.2019
6615 Clouds 20 1016 88 10000 2.1 360 01:45 10.12.2019
6616 Clouds 20 1016 94 10000 3.1 350 01:21 10.12.2019
6617 Clouds 19 1016 93 10000 1.5 60 00:42 10.12.2019
6618 Clouds 19 1016 93 10000 2.6 40 00:21 10.12.2019
6619 Clouds 19 1016 93 10000 2.1 40 23:41 09.12.2019
6620 Clouds 19 1016 93 10000 1.5 50 23:23 09.12.2019
6621 Clouds 19 1016 93 10000 2.1 60 22:58 09.12.2019
6622 Clouds 19 1016 93 10000 2.1 60 22:40 09.12.2019
6623 Clouds 19 1017 93 10000 2.1 100 22:20 09.12.2019
6624 Clouds 19 1017 93 10000 2.1 120 21:57 09.12.2019
6625 Clouds 19 1017 93 10000 2.1 120 21:38 09.12.2019
6626 Clouds 19 1018 93 10000 2.1 170 21:19 09.12.2019
6627 Clouds 19 1018 93 10000 1.5 0 20:56 09.12.2019
6628 Clouds 19 1018 93 10000 1.5 0 20:38 09.12.2019
6629 Clouds 19 1018 100 10000 1.5 200 20:20 09.12.2019
6630 Thunderstorm 19 1019 100 10000 1 0 19:55 09.12.2019
6631 Thunderstorm 19 1019 100 10000 1 0 19:55 09.12.2019
6632 Thunderstorm 19 1019 100 10000 1 0 19:37 09.12.2019
6633 Thunderstorm 19 1019 100 7000 1 0 19:19 09.12.2019
6634 Thunderstorm 19 1018 93 10000 1.5 0 18:56 09.12.2019
6635 Thunderstorm 19 1018 93 10000 1.5 0 18:37 09.12.2019
6636 Thunderstorm 19 1018 93 10000 1.5 190 18:19 09.12.2019
6637 Thunderstorm 19 1018 93 10000 2.6 150 17:57 09.12.2019
6638 Thunderstorm 19 1018 93